# Wetter Temperatur Luftdruck Luftfeuchtigkeit Sichtweite Windgeschwindigkeit Windrichtung Zeit
1 Clouds 23 1013 89 0 0.8 325 07:36 11.07.2020
2 Rain 21 1012 94 0 0.57 302 07:18 11.07.2020
3 Rain 21 1012 95 0 0.98 275 06:26 11.07.2020
4 Rain 21 1012 95 0 0.98 275 05:54 11.07.2020
5 Rain 21 1012 95 0 0.98 275 05:54 11.07.2020
6 Rain 21 1011 94 0 1.1 284 05:19 11.07.2020
7 Rain 21 1011 94 0 1.1 284 04:50 11.07.2020
8 Rain 22 1010 93 0 1.09 290 04:19 11.07.2020
9 Clouds 22 1010 91 0 0.96 345 02:54 11.07.2020
10 Rain 22 1010 88 0 0.93 348 02:25 11.07.2020
11 Clouds 23 1011 85 0 0.61 325 01:24 11.07.2020
12 Clouds 23 1011 85 0 0.61 325 00:57 11.07.2020
13 Clouds 23 1011 85 0 0.61 325 00:37 11.07.2020
14 Clouds 23 1011 84 0 0.87 350 00:18 11.07.2020
15 Clouds 23 1011 84 0 0.87 350 23:44 10.07.2020
16 Clouds 23 1011 83 0 1.02 331 23:26 10.07.2020
17 Clouds 23 1011 83 0 1.02 331 22:56 10.07.2020
18 Clouds 23 1011 83 0 1.02 331 22:38 10.07.2020
19 Clouds 23 1010 83 0 0.95 325 22:18 10.07.2020
20 Clouds 23 1010 83 0 0.95 325 21:38 10.07.2020
21 Rain 24 1010 80 0 0.97 302 21:20 10.07.2020
22 Rain 24 1010 82 0 1.36 339 20:56 10.07.2020
23 Rain 24 1010 82 0 1.36 339 20:37 10.07.2020
24 Clouds 25 1009 75 0 0.93 313 20:19 10.07.2020
25 Clouds 25 1009 75 0 0.93 313 19:54 10.07.2020
26 Clouds 25 1009 75 0 0.93 313 19:36 10.07.2020
27 Clouds 26 1008 70 0 1.09 342 19:18 10.07.2020
28 Clouds 26 1008 70 0 1.09 342 18:38 10.07.2020
29 Clouds 28 1007 65 0 0.65 3 18:19 10.07.2020
30 Clouds 28 1007 65 0 0.65 3 17:55 10.07.2020
31 Clouds 24 1011 83 8000 1.5 0 17:37 10.07.2020
32 Clouds 24 1011 83 8000 1.5 0 17:18 10.07.2020
33 Clouds 24 1011 83 8000 1.5 0 16:40 10.07.2020
34 Clouds 24 1011 83 8000 1.5 0 16:19 10.07.2020
35 Clouds 23 1011 88 8000 4.1 360 15:44 10.07.2020
36 Clouds 23 1011 88 8000 4.1 360 15:22 10.07.2020
37 Clouds 23 1014 94 7000 3.1 340 14:54 10.07.2020
38 Clouds 23 1014 94 7000 3.1 340 14:36 10.07.2020
39 Clouds 23 1014 94 7000 3.1 340 14:18 10.07.2020
40 Rain 22 1014 100 7000 2.1 360 13:55 10.07.2020
41 Thunderstorm 22 1015 100 3000 2.1 90 13:36 10.07.2020
42 Thunderstorm 22 1015 100 3000 2.1 90 13:36 10.07.2020
43 Thunderstorm 22 1015 100 3000 2.1 90 13:18 10.07.2020
44 Thunderstorm 22 1015 100 3000 2.1 90 12:42 10.07.2020
45 Thunderstorm 22 1015 100 3000 2.1 90 12:24 10.07.2020
46 Thunderstorm 22 1016 94 4000 2.1 130 11:58 10.07.2020
47 Thunderstorm 22 1016 94 4000 2.1 130 11:38 10.07.2020
48 Thunderstorm 22 1016 94 3000 3.1 30 11:18 10.07.2020
49 Thunderstorm 22 1016 94 3000 3.1 30 10:42 10.07.2020
50 Clouds 24 1012 89 0 0.53 41 10:21 10.07.2020
51 Clouds 24 1012 89 0 0.53 41 09:59 10.07.2020
52 Rain 24 1012 89 0 1.39 39 09:37 10.07.2020
53 Clouds 24 1012 88 0 1.44 30 09:19 10.07.2020
54 Clouds 24 1012 88 0 1.44 30 08:55 10.07.2020
55 Clouds 24 1012 88 0 1.44 30 08:36 10.07.2020
56 Clouds 23 1012 92 0 1.19 33 08:18 10.07.2020
57 Clouds 23 1012 92 0 1.19 33 07:41 10.07.2020
58 Clouds 22 1012 95 0 1.09 36 07:20 10.07.2020
59 Clouds 22 1012 95 0 1.09 36 06:48 10.07.2020
60 Rain 21 1011 96 0 1.19 8 05:55 10.07.2020
61 Rain 21 1010 96 0 1.1 26 04:32 10.07.2020
62 Rain 22 1009 95 0 0.8 350 03:31 10.07.2020
63 Rain 22 1009 93 0 0.64 299 02:49 10.07.2020
64 Rain 22 1010 90 0 0.62 288 01:47 10.07.2020
65 Clouds 23 1010 90 0 0.71 273 00:45 10.07.2020
66 Clouds 23 1010 90 0 0.89 277 00:18 10.07.2020
67 Clouds 23 1010 90 0 0.89 277 23:45 09.07.2020
68 Rain 23 1010 89 0 1.28 325 23:21 09.07.2020
69 Rain 23 1010 89 0 1.28 325 22:58 09.07.2020
70 Rain 23 1010 89 0 1.28 325 22:39 09.07.2020
71 Rain 23 1009 87 0 0.87 326 22:21 09.07.2020
72 Rain 23 1009 87 0 0.87 326 21:56 09.07.2020
73 Rain 23 1009 87 0 0.87 326 21:37 09.07.2020
74 Rain 23 1009 87 0 0.87 326 21:37 09.07.2020
75 Rain 24 1009 79 0 0.99 327 21:18 09.07.2020
76 Rain 24 1009 79 0 0.99 327 20:43 09.07.2020
77 Clouds 25 1008 74 0 1.16 309 20:24 09.07.2020
78 Clouds 25 1008 74 0 1.16 309 19:56 09.07.2020
79 Clouds 25 1008 74 0 1.16 309 19:38 09.07.2020
80 Rain 27 1007 68 0 1 307 19:20 09.07.2020
81 Rain 27 1007 68 0 1 307 18:42 09.07.2020
82 Clouds 28 1006 61 0 0.19 260 18:20 09.07.2020
83 Clouds 28 1006 61 0 0.19 260 17:55 09.07.2020
84 Clouds 28 1006 61 0 0.19 260 17:37 09.07.2020
85 Clouds 30 1006 56 0 0.13 218 17:18 09.07.2020
86 Clouds 30 1006 56 0 0.13 218 16:55 09.07.2020
87 Clouds 26 1009 88 7000 0.13 218 16:36 09.07.2020
88 Clouds 26 1009 88 7000 0.35 197 16:18 09.07.2020
89 Clouds 33 1005 45 0 0.35 197 15:45 09.07.2020
90 Clouds 33 1006 44 0 0.81 155 15:27 09.07.2020
91 Clouds 33 1006 44 0 0.81 155 14:59 09.07.2020
92 Clouds 33 1006 44 0 0.81 155 14:41 09.07.2020
93 Clouds 33 1006 44 0 0.81 155 14:41 09.07.2020
94 Clouds 34 1007 39 0 1.15 155 14:22 09.07.2020
95 Clouds 34 1007 39 0 1.15 155 13:58 09.07.2020
96 Clouds 34 1007 39 0 1.15 155 13:40 09.07.2020
97 Clouds 35 1008 40 0 1.19 143 13:20 09.07.2020
98 Clouds 35 1008 40 0 1.19 143 12:56 09.07.2020
99 Clouds 35 1008 40 0 1.19 143 12:38 09.07.2020
100 Clouds 34 1010 43 0 1 103 12:19 09.07.2020
101 Clouds 34 1010 43 0 1 103 11:43 09.07.2020
102 Clouds 32 1011 49 0 1.24 74 11:24 09.07.2020
103 Clouds 32 1011 49 0 1.24 74 10:58 09.07.2020
104 Clouds 32 1011 49 0 1.24 74 10:40 09.07.2020
105 Clear 30 1011 57 0 1.17 70 10:22 09.07.2020
106 Clear 30 1011 57 0 1.17 70 09:55 09.07.2020
107 Clear 30 1011 57 0 1.17 70 09:37 09.07.2020
108 Clouds 27 1012 66 0 1.28 66 09:18 09.07.2020
109 Clouds 27 1012 66 0 1.28 66 08:43 09.07.2020
110 Clouds 24 1012 78 0 1.14 74 08:24 09.07.2020
111 Clouds 24 1012 78 0 1.14 74 07:45 09.07.2020
112 Clouds 22 1011 88 0 0.79 77 07:22 09.07.2020
113 Clouds 22 1011 88 0 0.79 77 06:41 09.07.2020
114 Clouds 21 1010 90 0 0.94 63 06:19 09.07.2020
115 Clouds 22 1009 87 0 0.95 33 04:29 09.07.2020
116 Clear 22 1009 86 0 1 34 03:25 09.07.2020
117 Clouds 23 1010 85 0 1.05 25 02:19 09.07.2020
118 Clouds 23 1010 85 0 1.05 25 01:32 09.07.2020
119 Clouds 23 1010 84 0 1.02 30 00:46 09.07.2020
120 Clouds 23 1011 83 0 1.06 12 00:23 09.07.2020
121 Clouds 23 1011 83 0 1.06 12 23:46 08.07.2020
122 Clouds 24 1011 81 0 0.9 8 23:27 08.07.2020
123 Clouds 24 1011 81 0 0.9 8 22:57 08.07.2020
124 Clouds 24 1011 81 0 0.9 8 22:38 08.07.2020
125 Clouds 24 1010 79 0 0.74 25 22:20 08.07.2020
126 Clouds 24 1010 79 0 0.74 25 21:57 08.07.2020
127 Clouds 24 1010 79 0 0.74 25 21:38 08.07.2020
128 Clouds 24 1009 82 0 0.91 56 21:20 08.07.2020
129 Clouds 24 1009 82 0 0.91 56 20:45 08.07.2020
130 Clouds 25 1009 79 0 1.03 47 20:26 08.07.2020
131 Clouds 25 1009 79 0 1.03 47 19:58 08.07.2020
132 Clouds 25 1009 79 0 1.03 47 19:40 08.07.2020
133 Clouds 26 1008 74 0 0.96 26 19:21 08.07.2020
134 Clouds 26 1008 74 0 0.96 26 18:55 08.07.2020
135 Clouds 26 1008 74 0 0.96 26 18:55 08.07.2020
136 Clouds 26 1008 74 0 0.96 26 18:36 08.07.2020
137 Clouds 27 1008 66 0 1.2 67 18:18 08.07.2020
138 Clouds 27 1008 66 0 1.2 67 18:18 08.07.2020
139 Clouds 27 1008 66 0 1.2 67 17:54 08.07.2020
140 Clouds 29 1011 58 6000 2.1 180 17:36 08.07.2020
141 Clouds 29 1011 58 6000 2.1 180 17:18 08.07.2020
142 Clouds 29 1011 58 6000 2.1 180 16:38 08.07.2020
143 Clouds 29 1011 58 6000 2.1 180 16:20 08.07.2020
144 Clouds 30 1011 66 6000 1.2 43 15:58 08.07.2020
145 Clouds 30 1011 66 6000 1.2 43 15:39 08.07.2020
146 Clouds 30 1011 66 6000 1.22 56 15:19 08.07.2020
147 Clouds 31 1012 58 7000 0.63 27 14:44 08.07.2020
148 Clouds 31 1012 58 7000 0.43 359 14:25 08.07.2020
149 Clouds 31 1012 62 7000 3.1 300 13:58 08.07.2020
150 Clouds 31 1012 62 7000 3.1 300 13:40 08.07.2020
151 Clouds 30 1014 66 7000 1.5 0 13:19 08.07.2020
152 Clouds 30 1014 66 7000 1.5 0 12:42 08.07.2020
153 Clouds 33 1011 45 0 0.99 0 12:20 08.07.2020
154 Clouds 33 1011 45 0 0.99 0 11:56 08.07.2020
155 Clouds 33 1011 45 0 0.99 0 11:38 08.07.2020
156 Rain 31 1012 53 0 1.14 17 11:20 08.07.2020
157 Rain 31 1012 53 0 1.14 17 10:43 08.07.2020
158 Rain 30 1012 58 0 1.01 37 10:24 08.07.2020
159 Rain 30 1012 58 0 1.01 37 09:46 08.07.2020
160 Clouds 27 1013 71 0 1.13 19 09:25 08.07.2020
161 Clouds 27 1013 71 0 1.13 19 08:57 08.07.2020
162 Clouds 27 1013 71 0 1.13 19 08:38 08.07.2020
163 Clouds 24 1012 81 0 1.04 38 08:19 08.07.2020
164 Clouds 24 1012 81 0 1.04 38 07:43 08.07.2020
165 Clouds 22 1012 91 0 0.8 23 07:22 08.07.2020
166 Clouds 22 1012 91 0 0.8 23 06:46 08.07.2020
167 Clouds 22 1011 91 0 0.9 30 06:27 08.07.2020
168 Clouds 22 1011 91 0 0.9 30 05:48 08.07.2020
169 Clouds 22 1011 90 0 0.9 38 04:50 08.07.2020
170 Clouds 22 1010 90 0 0.87 8 04:19 08.07.2020
171 Clouds 22 1010 86 0 0.89 24 02:19 08.07.2020
172 Clouds 22 1010 86 0 0.89 24 01:38 08.07.2020
173 Clouds 23 1011 84 0 0.83 48 00:51 08.07.2020
174 Clouds 23 1012 82 0 0.87 29 00:20 08.07.2020
175 Clouds 23 1012 82 0 0.87 29 23:44 07.07.2020
176 Clouds 23 1012 82 0 0.74 23 23:22 07.07.2020
177 Clouds 23 1012 82 0 0.74 23 22:57 07.07.2020
178 Clouds 23 1012 82 0 0.74 23 22:57 07.07.2020
179 Clouds 23 1012 82 0 0.74 23 22:38 07.07.2020
180 Clouds 23 1012 80 0 0.53 68 22:20 07.07.2020
181 Clouds 23 1012 80 0 0.53 68 21:57 07.07.2020
182 Clouds 23 1012 80 0 0.53 68 21:38 07.07.2020
183 Clouds 23 1011 80 0 0.62 101 21:19 07.07.2020
184 Clouds 23 1011 80 0 0.62 101 20:55 07.07.2020
185 Clouds 23 1011 80 0 0.62 101 20:36 07.07.2020
186 Clouds 23 1010 79 0 0.58 73 20:18 07.07.2020
187 Clouds 26 1010 83 6000 2.1 30 19:39 07.07.2020
188 Clouds 26 1010 83 6000 2.1 30 19:20 07.07.2020
189 Clouds 26 1010 83 6000 2.1 30 18:55 07.07.2020
190 Clouds 26 1010 83 6000 2.1 30 18:37 07.07.2020
191 Clouds 26 1010 83 6000 2.1 30 18:19 07.07.2020
192 Clouds 27 1010 83 6000 2.1 30 17:56 07.07.2020
193 Clouds 27 1010 83 6000 2.1 30 17:37 07.07.2020
194 Clouds 27 1010 83 6000 2.1 30 17:18 07.07.2020
195 Clouds 28 1010 74 6000 0.12 178 16:42 07.07.2020
196 Clouds 28 1010 74 6000 0.13 39 16:22 07.07.2020
197 Clear 30 1007 51 0 0.13 39 15:56 07.07.2020
198 Clear 30 1007 51 0 0.13 39 15:37 07.07.2020
199 Clouds 30 1008 51 0 0.31 236 15:19 07.07.2020
200 Clouds 30 1008 51 0 0.31 236 14:43 07.07.2020
201 Clouds 27 1010 66 0 1.06 38 14:24 07.07.2020
202 Clouds 27 1010 66 0 1.06 38 13:44 07.07.2020
203 Clouds 27 1011 66 0 0.69 83 13:21 07.07.2020
204 Clouds 27 1011 66 0 0.69 83 12:57 07.07.2020
205 Clouds 27 1011 66 0 0.69 83 12:37 07.07.2020
206 Clouds 27 1012 68 0 0.63 105 12:18 07.07.2020
207 Clouds 27 1012 68 0 0.63 105 11:43 07.07.2020
208 Clouds 25 1013 72 0 0.29 85 11:22 07.07.2020
209 Clouds 25 1013 72 0 0.29 85 10:58 07.07.2020
210 Clouds 25 1013 72 0 0.29 85 10:58 07.07.2020
211 Clouds 25 1013 72 0 0.29 85 10:40 07.07.2020
212 Clouds 25 1013 73 0 0.33 328 10:21 07.07.2020
213 Clouds 25 1013 73 0 0.33 328 09:43 07.07.2020
214 Clouds 25 1013 73 0 0.33 328 09:43 07.07.2020
215 Clouds 23 1012 87 0 0.6 329 09:22 07.07.2020
216 Clouds 23 1012 87 0 0.6 329 08:58 07.07.2020
217 Clouds 23 1012 87 0 0.6 329 08:39 07.07.2020
218 Clouds 23 1012 88 0 0.4 333 08:19 07.07.2020
219 Clouds 23 1012 88 0 0.4 333 07:38 07.07.2020
220 Clouds 22 1012 90 0 0.41 294 07:19 07.07.2020
221 Clouds 22 1012 90 0 0.41 294 06:46 07.07.2020
222 Clouds 22 1011 91 0 0.36 255 06:26 07.07.2020
223 Clouds 22 1011 91 0 0.36 255 05:43 07.07.2020
224 Clouds 22 1011 91 0 0.21 187 04:58 07.07.2020
225 Clouds 22 1010 92 0 0.16 273 03:54 07.07.2020
226 Clouds 22 1010 92 0 0.16 273 03:32 07.07.2020
227 Clouds 21 1011 91 0 0.23 171 01:55 07.07.2020
228 Clouds 22 1012 91 0 0.55 68 01:19 07.07.2020
229 Clouds 22 1012 91 0 0.55 68 00:41 07.07.2020
230 Clouds 22 1012 91 0 0.51 21 00:21 07.07.2020
231 Clouds 22 1012 91 0 0.51 21 23:44 06.07.2020
232 Clouds 22 1012 90 0 0.58 336 23:25 06.07.2020
233 Clouds 22 1012 90 0 0.58 336 22:59 06.07.2020
234 Clouds 22 1012 90 0 0.58 336 22:39 06.07.2020
235 Clouds 22 1011 90 0 0.7 345 22:19 06.07.2020
236 Clouds 22 1011 90 0 0.7 345 22:19 06.07.2020
237 Clouds 22 1011 90 0 0.7 345 21:57 06.07.2020
238 Clouds 22 1011 90 0 0.7 345 21:37 06.07.2020
239 Rain 23 1010 91 0 1.18 3 21:18 06.07.2020
240 Rain 23 1010 91 0 1.18 3 20:41 06.07.2020
241 Rain 23 1009 89 0 1.11 28 20:22 06.07.2020
242 Rain 23 1009 89 0 1.11 28 19:59 06.07.2020
243 Rain 23 1009 89 0 1.11 28 19:41 06.07.2020
244 Mist 23 1011 100 4000 0.89 74 19:23 06.07.2020
245 Mist 23 1011 100 4000 0.89 74 18:59 06.07.2020
246 Mist 23 1011 100 4000 0.89 74 18:41 06.07.2020
247 Mist 23 1011 100 4000 0.89 74 18:41 06.07.2020
248 Mist 23 1011 100 4000 1.22 84 18:22 06.07.2020
249 Rain 25 1008 81 0 1.22 84 17:57 06.07.2020
250 Rain 25 1008 81 0 1.22 84 17:38 06.07.2020
251 Rain 28 1007 67 0 0.39 327 17:19 06.07.2020
252 Thunderstorm 28 1011 74 6000 5.1 340 16:43 06.07.2020
253 Thunderstorm 28 1011 74 6000 5.1 340 16:24 06.07.2020
254 Thunderstorm 28 1011 74 6000 5.1 340 16:24 06.07.2020
255 Thunderstorm 28 1011 74 6000 5.1 340 15:57 06.07.2020
256 Thunderstorm 28 1011 74 6000 5.1 340 15:39 06.07.2020
257 Thunderstorm 28 1011 74 6000 5.1 340 15:20 06.07.2020
258 Clouds 28 1012 74 7000 4.1 320 14:55 06.07.2020
259 Clouds 28 1012 74 7000 4.1 320 14:36 06.07.2020
260 Clouds 28 1012 74 7000 4.1 320 14:18 06.07.2020
261 Clouds 27 1012 78 7000 2.1 250 13:43 06.07.2020
262 Clouds 27 1012 78 7000 2.1 250 13:24 06.07.2020
263 Clouds 31 1009 48 0 2.04 270 12:54 06.07.2020
264 Clouds 31 1009 48 0 2.04 270 12:36 06.07.2020
265 Clouds 31 1010 52 0 2.18 287 12:18 06.07.2020
266 Clouds 31 1010 52 0 2.18 287 11:41 06.07.2020
267 Clouds 30 1011 55 0 2.05 302 11:23 06.07.2020
268 Clouds 30 1011 55 0 2.05 302 10:59 06.07.2020
269 Clouds 30 1011 55 0 2.05 302 10:40 06.07.2020
270 Clouds 29 1012 58 0 1.73 308 10:21 06.07.2020
271 Clouds 29 1012 58 0 1.73 308 09:55 06.07.2020
272 Clouds 29 1012 58 0 1.73 308 09:37 06.07.2020
273 Clouds 27 1012 68 0 1.13 350 09:18 06.07.2020
274 Clouds 27 1012 68 0 1.13 350 08:40 06.07.2020
275 Clouds 24 1011 80 0 0.48 6 08:22 06.07.2020
276 Clouds 24 1011 80 0 0.48 6 07:53 06.07.2020
277 Clouds 24 1011 80 0 0.48 6 07:31 06.07.2020
278 Clouds 23 1011 84 0 0.23 276 06:56 06.07.2020
279 Clouds 23 1011 84 0 0.23 276 06:37 06.07.2020
280 Clouds 23 1010 86 0 0.35 38 05:55 06.07.2020
281 Clouds 22 1010 87 0 0.2 339 05:28 06.07.2020
282 Clouds 22 1009 86 0 0.66 2 03:58 06.07.2020
283 Clouds 23 1009 84 0 0.7 2 02:41 06.07.2020
284 Clouds 23 1009 79 0 0.51 339 01:55 06.07.2020
285 Clouds 23 1010 77 0 0.58 345 00:49 06.07.2020
286 Clouds 24 1010 74 0 0.82 340 00:24 06.07.2020
287 Clouds 24 1010 74 0 0.82 340 23:57 05.07.2020
288 Clouds 24 1010 74 0 0.82 340 23:38 05.07.2020
289 Clouds 24 1010 71 0 0.81 319 23:20 05.07.2020
290 Clouds 24 1010 71 0 0.81 319 22:42 05.07.2020
291 Clouds 25 1010 69 0 0.74 300 22:21 05.07.2020
292 Clouds 25 1010 69 0 0.74 300 21:59 05.07.2020
293 Clouds 25 1010 69 0 0.74 300 21:41 05.07.2020
294 Clouds 25 1009 69 0 0.53 203 21:19 05.07.2020
295 Clouds 26 1008 65 0 0.4 259 20:59 05.07.2020
296 Clouds 26 1008 65 0 0.4 259 20:40 05.07.2020
297 Clouds 26 1007 65 0 0.96 215 20:22 05.07.2020
298 Clouds 26 1007 65 0 0.96 215 19:57 05.07.2020
299 Clouds 26 1007 65 0 0.96 215 19:38 05.07.2020
300 Clouds 27 1007 63 0 1.13 228 19:19 05.07.2020
301 Clouds 27 1007 63 0 1.13 228 18:42 05.07.2020
302 Clouds 24 1011 88 7000 3.1 90 18:22 05.07.2020
303 Clouds 24 1011 88 7000 3.1 90 17:56 05.07.2020
304 Clouds 24 1011 88 7000 3.1 90 17:38 05.07.2020
305 Clouds 31 1006 51 0 1.23 231 17:19 05.07.2020
306 Clouds 31 1006 51 0 1.23 231 16:44 05.07.2020
307 Clouds 31 1006 49 0 1.32 230 16:25 05.07.2020
308 Clouds 31 1006 49 0 1.32 230 15:58 05.07.2020
309 Clouds 33 1006 43 0 1.12 230 15:37 05.07.2020
310 Clouds 33 1006 43 0 1.12 230 15:19 05.07.2020
311 Clouds 33 1006 43 0 1.12 230 14:42 05.07.2020
312 Clouds 35 1007 39 0 0.8 228 14:23 05.07.2020
313 Clouds 35 1007 38 0 0.99 211 13:54 05.07.2020
314 Clouds 35 1007 38 0 0.99 211 13:36 05.07.2020
315 Clouds 35 1008 40 0 0.96 198 13:18 05.07.2020
316 Clouds 35 1008 40 0 0.96 198 12:38 05.07.2020
317 Rain 33 1009 48 0 0.98 196 12:20 05.07.2020
318 Rain 33 1009 48 0 0.98 196 11:55 05.07.2020
319 Rain 33 1009 48 0 0.98 196 11:36 05.07.2020
320 Clouds 33 1011 47 0 0.22 331 11:18 05.07.2020
321 Clouds 33 1011 47 0 0.22 331 10:42 05.07.2020
322 Clouds 30 1011 56 0 1.32 3 10:20 05.07.2020
323 Clouds 30 1011 56 0 1.32 3 09:59 05.07.2020
324 Clouds 30 1011 56 0 1.32 3 09:40 05.07.2020
325 Clouds 26 1012 66 0 1.19 9 09:20 05.07.2020
326 Clouds 26 1012 66 0 1.19 9 08:51 05.07.2020
327 Clouds 26 1012 66 0 1.19 9 08:33 05.07.2020
328 Clouds 25 1011 70 0 1.13 355 07:49 05.07.2020
329 Clouds 25 1011 70 0 1.13 355 07:30 05.07.2020
330 Clouds 24 1010 73 0 0.98 3 06:53 05.07.2020
331 Clouds 24 1009 69 0 0.5 331 05:48 05.07.2020
332 Clouds 25 1008 67 0 0.52 15 03:35 05.07.2020
333 Clouds 25 1009 66 0 0.29 11 02:43 05.07.2020
334 Clouds 25 1009 65 0 0.08 257 02:25 05.07.2020
335 Clouds 25 1009 66 0 0.12 68 01:41 05.07.2020
336 Clouds 25 1010 66 0 0.35 338 01:18 05.07.2020
337 Clouds 25 1010 66 0 0.35 338 00:40 05.07.2020
338 Clouds 24 1010 67 0 0.84 5 00:21 05.07.2020
339 Clouds 24 1010 67 0 0.84 5 23:47 04.07.2020
340 Clouds 25 1010 64 0 0.87 20 23:28 04.07.2020
341 Clouds 25 1010 64 0 0.87 20 22:57 04.07.2020
342 Clouds 25 1010 64 0 0.87 20 22:38 04.07.2020
343 Clouds 25 1010 64 0 0.87 20 22:38 04.07.2020
344 Clear 25 1010 63 0 0.92 23 22:19 04.07.2020
345 Clear 25 1010 63 0 0.92 23 21:43 04.07.2020
346 Clear 25 1009 61 0 0.54 22 21:23 04.07.2020
347 Clear 25 1009 61 0 0.54 22 21:23 04.07.2020
348 Clear 25 1009 62 0 0.63 36 20:58 04.07.2020
349 Clear 25 1009 62 0 0.63 36 20:40 04.07.2020
350 Clouds 26 1008 60 0 0.61 57 20:20 04.07.2020
351 Clouds 26 1008 60 0 0.61 57 19:45 04.07.2020
352 Clouds 27 1009 83 6000 0.39 84 19:22 04.07.2020
353 Clouds 27 1009 83 6000 0.39 84 18:57 04.07.2020
354 Clouds 27 1009 83 6000 0.39 84 18:39 04.07.2020
355 Thunderstorm 29 1009 74 6000 3.1 120 18:21 04.07.2020
356 Thunderstorm 29 1009 74 6000 3.1 120 17:44 04.07.2020
357 Thunderstorm 29 1009 74 6000 3.1 120 17:26 04.07.2020
358 Clouds 32 1006 45 0 0.73 158 16:58 04.07.2020
359 Clouds 32 1006 45 0 0.73 158 16:38 04.07.2020
360 Clouds 34 1006 36 0 1.37 169 16:20 04.07.2020
361 Clouds 34 1006 36 0 1.37 169 15:55 04.07.2020
362 Thunderstorm 32 1010 55 7000 4.1 180 15:37 04.07.2020
363 Thunderstorm 32 1010 55 7000 4.1 180 15:18 04.07.2020
364 Clouds 34 1006 35 0 1.57 167 14:38 04.07.2020
365 Clouds 35 1007 35 0 1.33 153 14:19 04.07.2020
366 Clouds 35 1007 35 0 1.33 153 13:58 04.07.2020
367 Clouds 35 1007 35 0 1.33 153 13:40 04.07.2020
368 Clouds 35 1009 37 0 1.19 157 13:18 04.07.2020
369 Clouds 35 1009 37 0 1.19 157 12:42 04.07.2020
370 Clouds 30 1013 70 7000 2.1 200 12:21 04.07.2020
371 Clouds 30 1013 70 7000 2.1 200 11:56 04.07.2020
372 Clouds 30 1013 70 7000 2.1 200 11:38 04.07.2020
373 Clouds 30 1013 70 7000 2.1 200 11:19 04.07.2020
374 Clouds 31 1011 54 0 0.79 40 10:41 04.07.2020
375 Clouds 26 1011 70 0 0.9 51 10:22 04.07.2020
376 Clouds 26 1011 70 0 0.9 51 09:59 04.07.2020
377 Clouds 26 1011 70 0 0.9 51 09:37 04.07.2020
378 Clouds 25 1012 75 0 0.9 108 09:19 04.07.2020
379 Clouds 25 1012 75 0 0.9 108 08:47 04.07.2020
380 Clouds 24 1012 77 0 1.02 91 08:28 04.07.2020
381 Clouds 24 1012 77 0 1.02 91 07:50 04.07.2020
382 Mist 21 1012 100 2000 2.1 210 07:31 04.07.2020
383 Mist 21 1012 100 2000 2.1 210 06:56 04.07.2020
384 Mist 21 1012 100 2000 2.1 210 06:23 04.07.2020
385 Clouds 22 1010 86 0 0.58 60 05:36 04.07.2020
386 Clouds 22 1009 84 0 0.68 31 04:50 04.07.2020
387 Clouds 23 1009 79 0 0.86 18 03:18 04.07.2020
388 Clouds 23 1009 77 0 0.47 32 02:26 04.07.2020
389 Clouds 23 1009 77 0 0.47 32 01:32 04.07.2020
390 Clouds 23 1010 75 0 0.54 53 00:44 04.07.2020
391 Clouds 24 1010 73 0 0.79 50 00:25 04.07.2020
392 Clouds 24 1010 73 0 0.79 50 23:41 03.07.2020
393 Clouds 24 1010 71 0 1.02 70 23:19 03.07.2020
394 Clouds 24 1010 71 0 1.02 70 22:58 03.07.2020
395 Clouds 24 1010 71 0 1.02 70 22:39 03.07.2020
396 Clouds 25 1009 68 0 0.94 96 22:21 03.07.2020
397 Clouds 25 1009 68 0 0.94 96 21:41 03.07.2020
398 Clouds 25 1008 66 0 0.94 125 21:20 03.07.2020
399 Clouds 25 1008 66 0 0.94 125 20:56 03.07.2020
400 Clouds 25 1008 66 0 0.94 125 20:56 03.07.2020
401 Clouds 25 1008 66 0 0.94 125 20:38 03.07.2020
402 Clouds 26 1008 63 0 0.87 143 20:20 03.07.2020
403 Clouds 26 1008 63 0 0.87 143 19:41 03.07.2020
404 Clouds 28 1008 59 0 0.66 169 19:20 03.07.2020
405 Clouds 28 1008 59 0 0.66 169 18:57 03.07.2020
406 Thunderstorm 29 1009 74 7000 3.1 160 18:39 03.07.2020
407 Thunderstorm 29 1009 74 7000 3.1 160 18:20 03.07.2020
408 Clouds 29 1007 58 0 0.72 179 17:43 03.07.2020
409 Clouds 33 1006 48 0 0.95 172 17:22 03.07.2020
410 Clouds 33 1006 48 0 0.95 172 16:46 03.07.2020
411 Clouds 31 1009 55 8000 1.65 167 16:28 03.07.2020
412 Clouds 31 1009 55 8000 1.65 167 15:49 03.07.2020
413 Clouds 31 1009 55 8000 1.77 170 15:26 03.07.2020
414 Clouds 31 1010 58 8000 3.1 180 15:00 03.07.2020
415 Clouds 31 1010 58 8000 3.1 180 14:41 03.07.2020
416 Clouds 31 1010 58 8000 3.1 180 14:41 03.07.2020
417 Clouds 31 1010 58 8000 3.1 180 14:22 03.07.2020
418 Clouds 31 1011 70 8000 3.1 200 13:56 03.07.2020
419 Clouds 31 1011 70 8000 3.1 200 13:37 03.07.2020
420 Clouds 31 1011 70 8000 3.1 200 13:19 03.07.2020
421 Clear 34 1009 39 0 1.71 155 12:40 03.07.2020
422 Clear 26 1013 83 6000 1.22 141 12:21 03.07.2020
423 Clear 26 1013 83 6000 1.22 141 11:44 03.07.2020
424 Clear 26 1013 83 6000 0.86 102 11:25 03.07.2020
425 Clear 32 1011 49 0 0.86 102 10:59 03.07.2020
426 Clear 32 1011 49 0 0.86 102 10:40 03.07.2020
427 Clouds 30 1012 58 0 0.96 74 10:21 03.07.2020
428 Clouds 30 1012 58 0 0.96 74 09:57 03.07.2020
429 Clear 29 1011 63 0 0.81 70 09:38 03.07.2020
430 Clear 26 1012 77 0 0.82 35 09:18 03.07.2020
431 Clear 26 1012 77 0 0.82 35 08:40 03.07.2020
432 Clouds 24 1012 89 0 0.43 29 08:19 03.07.2020
433 Clouds 24 1012 89 0 0.43 29 07:52 03.07.2020
434 Rain 22 1012 93 0 0.28 352 07:28 03.07.2020
435 Rain 22 1012 93 0 0.28 352 06:59 03.07.2020
436 Rain 21 1011 94 0 0.48 6 06:25 03.07.2020
437 Rain 21 1010 92 0 0.21 309 05:23 03.07.2020
438 Rain 22 1009 87 0 0.29 201 03:46 03.07.2020
439 Clear 22 1009 82 0 0.43 176 02:49 03.07.2020
440 Rain 22 1009 86 0 0.69 181 02:30 03.07.2020
441 Clear 23 1009 78 0 0.49 167 01:30 03.07.2020
442 Clear 23 1010 76 0 0.49 106 00:56 03.07.2020
443 Clear 23 1010 76 0 0.49 106 00:37 03.07.2020
444 Clear 24 1010 74 0 0.46 75 23:52 02.07.2020
445 Clear 24 1010 73 0 0.11 62 23:21 02.07.2020
446 Clear 24 1010 73 0 0.11 62 22:59 02.07.2020
447 Clear 24 1010 73 0 0.11 62 22:41 02.07.2020
448 Clouds 24 1010 72 0 0.29 170 22:21 02.07.2020
449 Clouds 24 1010 72 0 0.29 170 21:57 02.07.2020
450 Clouds 24 1010 72 0 0.29 170 21:39 02.07.2020
451 Clouds 25 1010 71 0 0.62 168 21:19 02.07.2020
452 Clouds 25 1009 71 0 0.66 163 20:58 02.07.2020
453 Clouds 25 1009 71 0 0.66 163 20:39 02.07.2020
454 Clouds 25 1009 70 0 0.84 179 20:18 02.07.2020
455 Clouds 25 1009 70 0 0.84 179 19:42 02.07.2020
456 Clouds 28 1010 78 7000 4.1 360 19:23 02.07.2020
457 Clouds 28 1010 78 7000 4.1 360 18:58 02.07.2020
458 Clouds 28 1010 78 7000 4.1 360 18:40 02.07.2020
459 Clouds 28 1010 78 7000 4.1 360 18:21 02.07.2020
460 Clouds 28 1007 63 0 0.68 164 17:55 02.07.2020
461 Clouds 28 1007 63 0 0.68 164 17:36 02.07.2020
462 Clouds 31 1007 55 0 0.73 144 17:18 02.07.2020
463 Clouds 31 1007 55 0 0.73 144 16:41 02.07.2020
464 Clouds 32 1007 50 0 0.82 150 16:20 02.07.2020
465 Clouds 32 1007 50 0 0.82 150 15:56 02.07.2020
466 Clouds 32 1007 50 0 0.82 150 15:56 02.07.2020
467 Clouds 32 1007 50 0 0.82 150 15:37 02.07.2020
468 Clouds 33 1007 42 0 1.23 162 15:18 02.07.2020
469 Clouds 33 1007 42 0 1.23 162 14:44 02.07.2020
470 Clouds 29 1012 70 10000 1.5 0 14:22 02.07.2020
471 Clouds 29 1012 70 10000 1.5 0 13:57 02.07.2020
472 Clouds 29 1012 70 10000 1.5 0 13:38 02.07.2020
473 Clouds 29 1012 70 10000 1.5 0 13:18 02.07.2020
474 Clouds 35 1009 41 0 0.57 166 12:41 02.07.2020
475 Clouds 34 1010 45 0 0.38 208 12:22 02.07.2020
476 Clouds 34 1010 45 0 0.38 208 11:59 02.07.2020
477 Clouds 34 1010 45 0 0.38 208 11:40 02.07.2020
478 Clouds 25 1014 88 7000 2.1 250 11:22 02.07.2020
479 Clouds 25 1014 88 7000 2.1 250 10:43 02.07.2020
480 Clouds 25 1014 88 7000 2.1 250 10:25 02.07.2020
481 Clouds 29 1012 62 0 0.46 200 09:55 02.07.2020
482 Clouds 29 1012 62 0 0.46 200 09:36 02.07.2020
483 Clear 26 1012 76 0 0.48 231 09:18 02.07.2020
484 Clouds 26 1012 78 0 0.38 257 08:42 02.07.2020
485 Clouds 23 1012 90 0 0.36 356 08:21 02.07.2020
486 Clouds 23 1012 90 0 0.36 356 07:43 02.07.2020
487 Clouds 22 1012 94 0 0.59 340 07:23 02.07.2020
488 Clouds 22 1012 94 0 0.59 340 06:53 02.07.2020
489 Clouds 22 1012 94 0 0.59 340 06:34 02.07.2020
490 Rain 21 1012 96 0 0.66 315 05:50 02.07.2020
491 Rain 21 1011 96 0 0.18 336 05:19 02.07.2020
492 Rain 21 1010 95 0 0.18 120 03:35 02.07.2020
493 Rain 21 1011 94 0 0.25 305 01:53 02.07.2020
494 Clouds 22 1011 94 0 0.35 346 00:46 02.07.2020
495 Clouds 22 1012 93 0 0.65 302 00:22 02.07.2020
496 Clouds 22 1012 93 0 0.65 302 23:45 01.07.2020
497 Clouds 22 1012 93 0 0.73 273 23:26 01.07.2020
498 Clouds 22 1012 93 0 0.73 273 22:55 01.07.2020
499 Clouds 22 1012 93 0 0.73 273 22:37 01.07.2020
500 Rain 22 1012 93 0 0.78 283 22:19 01.07.2020
501 Rain 22 1012 93 0 0.78 283 21:58 01.07.2020
502 Rain 22 1012 93 0 0.78 283 21:39 01.07.2020
503 Rain 23 1011 93 0 0.66 277 21:20 01.07.2020
504 Rain 23 1011 93 0 0.75 347 20:47 01.07.2020
505 Rain 23 1010 93 0 0.91 339 20:29 01.07.2020
506 Rain 23 1010 93 0 0.91 339 19:58 01.07.2020
507 Rain 23 1010 93 0 0.91 339 19:40 01.07.2020
508 Clouds 23 1010 92 0 0.75 318 19:21 01.07.2020
509 Clouds 23 1010 92 0 0.75 318 18:56 01.07.2020
510 Clouds 23 1010 92 0 0.75 318 18:38 01.07.2020
511 Rain 24 1009 91 0 0.91 304 18:20 01.07.2020
512 Rain 24 1009 91 0 0.91 304 17:41 01.07.2020
513 Rain 24 1009 91 0 0.91 304 17:41 01.07.2020
514 Rain 26 1009 88 0 1.02 300 17:21 01.07.2020
515 Rain 26 1009 88 0 1.02 300 16:57 01.07.2020
516 Rain 26 1009 88 0 1.02 300 16:39 01.07.2020
517 Rain 27 1008 85 0 1.44 281 16:20 01.07.2020
518 Rain 27 1008 85 0 1.44 281 15:42 01.07.2020
519 Rain 27 1008 82 0 1.7 277 15:23 01.07.2020
520 Rain 27 1008 82 0 1.7 277 14:58 01.07.2020
521 Rain 27 1008 82 0 1.7 277 14:38 01.07.2020
522 Rain 31 1009 56 0 1.63 282 14:20 01.07.2020
523 Rain 31 1009 56 0 1.63 282 13:54 01.07.2020
524 Clouds 27 1014 69 8000 9.3 320 13:36 01.07.2020
525 Clouds 27 1014 69 8000 9.3 320 13:18 01.07.2020
526 Clouds 27 1014 69 8000 9.3 320 12:41 01.07.2020
527 Clouds 27 1014 69 8000 9.3 320 12:23 01.07.2020
528 Clouds 27 1015 78 8000 4.1 330 11:58 01.07.2020
529 Rain 29 1011 60 0 1.66 332 11:40 01.07.2020
530 Rain 28 1013 67 0 1.4 335 11:21 01.07.2020
531 Rain 28 1013 67 0 1.4 335 10:55 01.07.2020
532 Rain 28 1013 67 0 1.4 335 10:36 01.07.2020
533 Clouds 27 1014 72 0 1.46 322 10:18 01.07.2020
534 Clouds 27 1014 72 0 1.46 322 09:38 01.07.2020
535 Clouds 24 1013 87 0 1.3 304 09:20 01.07.2020
536 Clouds 24 1013 87 0 1.3 304 08:57 01.07.2020
537 Clouds 24 1013 87 0 1.3 304 08:38 01.07.2020
538 Clouds 23 1013 91 0 1.1 303 08:19 01.07.2020
539 Clouds 23 1013 91 0 1.1 303 07:41 01.07.2020
540 Clouds 21 1012 95 0 0.77 320 07:22 01.07.2020
541 Clouds 21 1012 95 0 0.77 320 06:54 01.07.2020
542 Clouds 21 1012 95 0 0.77 320 06:32 01.07.2020
543 Clouds 21 1012 97 0 0.91 324 05:35 01.07.2020
544 Clouds 21 1010 96 0 1.07 291 03:55 01.07.2020
545 Clouds 21 1010 96 0 1.07 291 03:36 01.07.2020
546 Clouds 21 1011 95 0 0.78 269 03:18 01.07.2020
547 Clouds 22 1011 94 0 0.64 308 01:55 01.07.2020
548 Clouds 22 1011 94 0 0.8 315 00:48 01.07.2020
549 Clouds 22 1012 93 0 0.83 294 00:26 01.07.2020
550 Clouds 22 1012 93 0 0.83 294 23:57 30.06.2020
551 Clouds 22 1012 93 0 0.83 294 23:39 30.06.2020
552 Clouds 23 1011 93 0 0.64 305 23:19 30.06.2020
553 Clouds 23 1011 93 0 0.64 305 22:41 30.06.2020
554 Clouds 23 1011 92 0 0.88 323 22:18 30.06.2020
555 Clouds 23 1011 92 0 0.88 323 21:41 30.06.2020
556 Clouds 23 1011 91 0 0.97 328 21:19 30.06.2020
557 Clouds 23 1010 93 0 0.97 332 20:57 30.06.2020
558 Clouds 23 1010 93 0 0.97 332 20:39 30.06.2020
559 Clouds 23 1009 92 0 1.02 360 20:20 30.06.2020
560 Clouds 23 1009 92 0 1.02 360 19:43 30.06.2020
561 Rain 24 1009 90 0 1.11 17 19:20 30.06.2020
562 Rain 24 1009 90 0 1.11 17 18:54 30.06.2020
563 Rain 24 1009 90 0 1.11 17 18:36 30.06.2020
564 Rain 25 1008 90 0 0.35 42 18:18 30.06.2020
565 Rain 25 1008 90 0 0.35 42 17:38 30.06.2020
566 Rain 27 1007 86 0 0.51 294 17:19 30.06.2020
567 Rain 27 1007 86 0 0.51 294 16:55 30.06.2020
568 Rain 27 1007 86 0 0.51 294 16:36 30.06.2020
569 Rain 29 1007 70 0 1.26 314 16:18 30.06.2020
570 Rain 29 1007 70 0 1.26 314 15:41 30.06.2020
571 Rain 31 1007 57 0 1.62 307 15:22 30.06.2020
572 Rain 31 1007 57 0 1.62 307 14:58 30.06.2020
573 Rain 31 1007 57 0 1.62 307 14:39 30.06.2020
574 Rain 33 1008 49 0 1.03 320 14:18 30.06.2020
575 Rain 33 1008 49 0 1.03 320 13:41 30.06.2020
576 Rain 32 1009 50 0 1.28 321 13:21 30.06.2020
577 Rain 32 1009 50 0 1.28 321 12:59 30.06.2020
578 Rain 32 1009 50 0 1.28 321 12:40 30.06.2020
579 Clouds 31 1011 54 0 1.41 308 12:21 30.06.2020
580 Clouds 31 1011 54 0 1.41 308 11:59 30.06.2020
581 Clouds 31 1011 54 0 1.41 308 11:39 30.06.2020
582 Clouds 28 1012 64 0 1.07 308 11:20 30.06.2020
583 Clouds 28 1012 64 0 1.07 308 10:59 30.06.2020
584 Clouds 32 1007 50 0 1.02 137 16:44 28.06.2020
585 Clouds 33 1007 44 0 1.25 148 16:26 28.06.2020
586 Clouds 33 1007 44 0 1.25 148 15:57 28.06.2020
587 Clouds 33 1007 44 0 1.25 148 15:38 28.06.2020
588 Clouds 33 1007 41 0 1.33 146 15:19 28.06.2020
589 Clouds 33 1007 41 0 1.33 146 14:46 28.06.2020
590 Clouds 34 1008 39 0 1.43 136 14:28 28.06.2020
591 Clouds 34 1008 39 0 1.47 138 13:58 28.06.2020
592 Clouds 34 1008 39 0 1.47 138 13:38 28.06.2020
593 Clouds 34 1010 41 0 1.39 129 13:19 28.06.2020
594 Clouds 34 1010 41 0 1.39 129 12:56 28.06.2020
595 Clouds 34 1010 41 0 1.39 129 12:37 28.06.2020
596 Clouds 34 1011 43 0 0.8 119 12:19 28.06.2020
597 Clouds 34 1011 43 0 0.8 119 11:56 28.06.2020
598 Clouds 34 1011 43 0 0.8 119 11:37 28.06.2020
599 Clouds 33 1012 48 0 0.52 71 11:19 28.06.2020
600 Clouds 33 1012 48 0 0.52 71 10:55 28.06.2020
601 Clouds 33 1012 48 0 0.52 71 10:36 28.06.2020
602 Clouds 30 1012 57 0 1.05 52 10:18 28.06.2020
603 Clouds 30 1012 57 0 1.05 52 09:39 28.06.2020
604 Clouds 27 1012 66 0 1.41 37 09:20 28.06.2020
605 Clouds 27 1012 66 0 1.41 37 08:47 28.06.2020
606 Clouds 24 1012 77 0 1.13 38 08:25 28.06.2020
607 Clouds 24 1012 77 0 1.13 38 07:47 28.06.2020
608 Clouds 22 1012 88 0 0.86 27 07:28 28.06.2020
609 Clouds 22 1012 88 0 0.86 27 06:41 28.06.2020
610 Clouds 21 1011 92 0 0.68 7 06:22 28.06.2020
611 Clouds 21 1010 91 0 0.62 10 05:26 28.06.2020
612 Clouds 21 1010 90 0 0.76 19 03:32 28.06.2020
613 Clouds 21 1010 90 0 0.8 23 02:39 28.06.2020
614 Clouds 22 1010 87 0 0.86 49 01:53 28.06.2020
615 Clouds 22 1011 85 0 0.76 52 01:26 28.06.2020
616 Clouds 22 1011 85 0 0.76 52 00:46 28.06.2020
617 Clouds 22 1011 85 0 0.76 52 00:46 28.06.2020
618 Clouds 23 1011 84 0 0.86 38 00:24 28.06.2020
619 Clouds 23 1011 84 0 0.86 38 23:41 27.06.2020
620 Clouds 23 1011 81 0 0.82 18 23:23 27.06.2020
621 Clouds 23 1011 81 0 0.82 18 22:58 27.06.2020
622 Clouds 23 1011 81 0 0.82 18 22:40 27.06.2020
623 Clouds 24 1010 78 0 0.89 20 22:20 27.06.2020
624 Clouds 24 1010 78 0 0.89 20 21:54 27.06.2020
625 Clouds 24 1010 78 0 0.89 20 21:36 27.06.2020
626 Clouds 24 1009 73 0 1.18 16 21:18 27.06.2020
627 Clouds 24 1009 73 0 1.18 16 20:41 27.06.2020
628 Clouds 25 1009 69 0 0.87 33 20:18 27.06.2020
629 Clouds 25 1009 69 0 0.87 33 19:54 27.06.2020
630 Clouds 25 1009 69 0 0.87 33 19:36 27.06.2020
631 Clouds 26 1008 67 0 0.69 41 19:18 27.06.2020
632 Clouds 26 1008 67 0 0.69 41 18:43 27.06.2020
633 Clouds 27 1008 63 0 0.77 34 18:22 27.06.2020
634 Clouds 27 1008 63 0 0.77 34 17:55 27.06.2020
635 Clouds 27 1008 63 0 0.77 34 17:37 27.06.2020
636 Clouds 31 1007 52 0 0.61 31 17:19 27.06.2020
637 Clouds 31 1007 52 0 0.61 31 16:43 27.06.2020
638 Clouds 32 1007 44 0 0.23 90 16:24 27.06.2020
639 Clouds 32 1007 44 0 0.23 90 15:54 27.06.2020
640 Clouds 32 1007 44 0 0.23 90 15:36 27.06.2020
641 Clouds 33 1007 42 0 0.24 176 15:18 27.06.2020
642 Clouds 32 1007 50 0 0.53 286 14:41 27.06.2020
643 Clouds 30 1009 57 0 0.44 279 14:22 27.06.2020
644 Clouds 30 1009 57 0 0.44 279 13:57 27.06.2020
645 Clouds 30 1009 57 0 0.44 279 13:37 27.06.2020
646 Clouds 28 1010 65 0 0.54 311 13:19 27.06.2020
647 Clouds 28 1010 65 0 0.54 311 12:56 27.06.2020
648 Clouds 28 1010 65 0 0.54 311 12:37 27.06.2020
649 Clouds 27 1011 69 0 1 342 12:19 27.06.2020
650 Clouds 27 1011 69 0 1 342 11:41 27.06.2020
651 Clouds 27 1012 69 0 1.13 1 11:23 27.06.2020
652 Clouds 27 1012 69 0 1.13 1 10:55 27.06.2020
653 Clouds 27 1012 69 0 1.13 1 10:37 27.06.2020
654 Clouds 26 1012 71 0 0.98 15 10:18 27.06.2020
655 Clouds 26 1012 71 0 0.98 15 09:40 27.06.2020
656 Clouds 26 1012 77 0 0.62 9 09:21 27.06.2020
657 Clouds 26 1012 77 0 0.62 9 08:46 27.06.2020
658 Clouds 22 1012 91 0 0.48 33 08:23 27.06.2020
659 Clouds 22 1012 91 0 0.48 33 07:50 27.06.2020
660 Clouds 22 1012 91 0 0.48 33 07:30 27.06.2020
661 Clouds 21 1012 94 0 0.64 91 06:55 27.06.2020
662 Clouds 21 1012 94 0 0.64 91 06:34 27.06.2020
663 Clouds 20 1011 97 0 0.29 110 05:31 27.06.2020
664 Clouds 21 1010 95 0 0.22 167 04:19 27.06.2020
665 Clouds 21 1010 95 0 0.22 167 03:51 27.06.2020
666 Clouds 21 1010 95 0 0.48 152 02:47 27.06.2020
667 Clouds 21 1010 96 0 0.58 86 02:27 27.06.2020
668 Clouds 21 1010 96 0 0.58 86 01:40 27.06.2020
669 Clouds 21 1011 96 0 0.71 74 00:52 27.06.2020
670 Clouds 21 1011 96 0 0.88 82 23:58 26.06.2020
671 Clouds 21 1011 96 0 0.88 82 23:40 26.06.2020
672 Clouds 21 1011 96 0 0.94 73 23:21 26.06.2020
673 Clouds 21 1011 96 0 0.94 73 22:45 26.06.2020
674 Clouds 22 1011 95 0 0.98 43 22:26 26.06.2020
675 Clouds 22 1011 95 0 0.98 43 21:58 26.06.2020
676 Clouds 22 1011 95 0 0.98 43 21:40 26.06.2020
677 Clouds 22 1011 95 0 1.18 54 21:21 26.06.2020
678 Clouds 22 1010 95 0 1.21 64 20:59 26.06.2020
679 Clouds 22 1010 95 0 1.21 64 20:40 26.06.2020
680 Clouds 22 1010 95 0 1.4 67 20:18 26.06.2020
681 Clouds 22 1010 95 0 1.4 67 19:41 26.06.2020
682 Clouds 25 1011 83 7000 2.1 340 19:23 26.06.2020
683 Clouds 25 1011 83 7000 2.1 340 18:43 26.06.2020
684 Clouds 25 1011 83 7000 2.1 340 18:25 26.06.2020
685 Thunderstorm 25 1010 83 9000 3.1 60 17:57 26.06.2020
686 Thunderstorm 25 1010 83 9000 3.1 60 17:39 26.06.2020
687 Thunderstorm 25 1010 83 9000 3.1 60 17:21 26.06.2020
688 Thunderstorm 26 1011 78 9000 5.1 90 16:43 26.06.2020
689 Thunderstorm 26 1011 78 9000 5.1 90 16:23 26.06.2020
690 Rain 26 1007 87 0 1.23 72 15:42 26.06.2020
691 Rain 27 1008 83 0 1.15 69 15:22 26.06.2020
692 Rain 27 1008 83 0 1.15 69 14:59 26.06.2020
693 Rain 27 1008 83 0 1.15 69 14:40 26.06.2020
694 Clouds 28 1013 74 9000 3.1 30 14:22 26.06.2020
695 Clouds 28 1013 74 9000 3.1 30 13:57 26.06.2020
696 Clouds 28 1013 74 9000 3.1 30 13:38 26.06.2020
697 Clouds 28 1013 74 9000 2.1 110 13:18 26.06.2020
698 Clouds 28 1013 74 9000 2.1 110 12:41 26.06.2020
699 Clouds 28 1013 74 9000 2.1 110 12:23 26.06.2020
700 Clouds 28 1014 74 8000 1.59 23 11:58 26.06.2020
701 Rain 28 1012 66 0 1.59 23 11:39 26.06.2020
702 Clouds 27 1014 78 8000 1.41 25 11:21 26.06.2020
703 Clouds 27 1014 78 8000 1.41 25 10:57 26.06.2020
704 Clouds 28 1012 62 0 1.41 25 10:38 26.06.2020
705 Clouds 28 1013 66 0 1.31 1 10:18 26.06.2020
706 Clouds 28 1013 66 0 1.31 1 09:44 26.06.2020
707 Clouds 26 1013 75 0 1.47 345 09:25 26.06.2020
708 Clouds 26 1013 75 0 1.47 345 08:56 26.06.2020
709 Clouds 23 1012 85 0 1.57 349 08:28 26.06.2020
710 Clouds 23 1012 85 0 1.57 349 07:53 26.06.2020
711 Clouds 22 1012 92 0 1.12 32 07:25 26.06.2020
712 Clouds 22 1012 92 0 1.12 32 06:59 26.06.2020
713 Clouds 22 1012 92 0 1.33 352 06:41 26.06.2020
714 Clouds 21 1011 96 0 0.71 4 06:18 26.06.2020
715 Clouds 21 1011 96 0 0.71 4 05:41 26.06.2020
716 Clouds 21 1010 94 0 1.01 349 03:55 26.06.2020
717 Clouds 22 1010 92 0 0.81 332 02:22 26.06.2020
718 Clouds 22 1011 91 0 0.99 354 01:20 26.06.2020
719 Clouds 22 1011 91 0 0.99 354 00:41 26.06.2020
720 Clouds 22 1011 89 0 1.02 324 00:19 26.06.2020
721 Clouds 22 1011 89 0 1.02 324 23:42 25.06.2020
722 Clouds 23 1012 87 0 0.99 326 23:18 25.06.2020
723 Clouds 23 1012 87 0 0.99 326 22:56 25.06.2020
724 Clouds 23 1012 87 0 0.99 326 22:37 25.06.2020
725 Clouds 23 1011 85 0 1.31 304 22:18 25.06.2020
726 Clouds 23 1011 85 0 1.31 304 21:56 25.06.2020
727 Clouds 23 1011 85 0 1.31 304 21:56 25.06.2020
728 Clouds 26 1011 78 6000 2.1 0 21:38 25.06.2020
729 Clouds 26 1011 78 6000 2.1 0 21:19 25.06.2020
730 Clouds 26 1011 78 6000 2.1 0 21:19 25.06.2020
731 Clouds 26 1011 78 6000 2.1 0 20:44 25.06.2020
732 Clouds 26 1011 78 6000 2.1 0 20:23 25.06.2020
733 Clouds 24 1010 86 0 1.63 318 19:58 25.06.2020
734 Clouds 24 1010 86 0 1.63 318 19:39 25.06.2020
735 Clouds 27 1010 74 7000 3.1 290 19:19 25.06.2020
736 Clouds 27 1010 74 7000 3.1 290 18:55 25.06.2020
737 Clouds 27 1010 74 7000 3.1 290 18:36 25.06.2020
738 Rain 25 1008 84 0 1.36 305 18:18 25.06.2020
739 Rain 25 1008 84 0 1.36 305 17:39 25.06.2020
740 Clouds 27 1007 75 0 1.54 301 17:19 25.06.2020
741 Clouds 27 1007 75 0 1.54 301 16:42 25.06.2020
742 Clouds 27 1010 74 8000 3.1 30 16:22 25.06.2020
743 Clouds 27 1010 74 8000 3.1 30 15:59 25.06.2020
744 Clouds 27 1010 74 8000 3.1 30 15:40 25.06.2020
745 Clouds 27 1010 74 8000 3.1 30 15:19 25.06.2020
746 Clouds 28 1007 75 0 1.23 327 14:43 25.06.2020
747 Rain 30 1009 59 0 0.93 266 14:23 25.06.2020
748 Rain 30 1009 59 0 0.93 266 13:56 25.06.2020
749 Rain 30 1009 59 0 0.93 266 13:37 25.06.2020
750 Rain 29 1010 76 0 0.92 61 13:19 25.06.2020
751 Rain 29 1010 76 0 0.92 61 12:44 25.06.2020
752 Rain 27 1011 85 0 1.77 61 12:20 25.06.2020
753 Rain 27 1011 85 0 1.77 61 11:58 25.06.2020
754 Rain 27 1011 85 0 1.77 61 11:38 25.06.2020
755 Rain 26 1011 87 0 2.17 51 11:20 25.06.2020
756 Rain 26 1011 87 0 2.17 51 11:20 25.06.2020
757 Rain 26 1011 87 0 2.17 51 11:20 25.06.2020
758 Rain 26 1011 87 0 2.17 51 10:42 25.06.2020
759 Rain 25 1012 88 0 1.98 40 10:23 25.06.2020
760 Rain 25 1012 88 0 1.98 40 09:41 25.06.2020
761 Clouds 24 1011 87 0 1.24 111 09:23 25.06.2020
762 Clouds 25 1012 80 0 1.09 113 08:47 25.06.2020
763 Clouds 24 1011 86 0 1.31 68 08:21 25.06.2020
764 Clouds 24 1011 86 0 1.31 68 07:56 25.06.2020
765 Clouds 24 1011 86 0 1.31 68 07:38 25.06.2020
766 Clouds 23 1011 88 0 1.04 36 07:19 25.06.2020
767 Clouds 22 1010 91 0 0.9 54 06:28 25.06.2020
768 Clouds 22 1010 91 0 0.9 54 05:53 25.06.2020
769 Rain 22 1009 90 0 0.93 45 05:25 25.06.2020
770 Rain 22 1009 87 0 0.83 60 03:36 25.06.2020
771 Rain 23 1009 86 0 0.75 92 02:44 25.06.2020
772 Clouds 23 1009 83 0 0.63 68 02:19 25.06.2020
773 Clouds 22 1009 88 0 0.43 85 01:34 25.06.2020
774 Clouds 23 1010 87 0 0.75 44 00:47 25.06.2020
775 Rain 23 1010 86 0 0.92 59 00:22 25.06.2020
776 Rain 23 1010 86 0 0.92 59 23:58 24.06.2020
777 Rain 23 1010 86 0 0.92 59 23:37 24.06.2020
778 Clouds 23 1010 83 0 0.57 32 23:19 24.06.2020
779 Clouds 23 1010 83 0 0.57 32 22:41 24.06.2020
780 Clouds 24 1010 84 0 0.93 324 22:20 24.06.2020
781 Clouds 24 1010 84 0 0.93 324 21:57 24.06.2020
782 Clouds 24 1010 84 0 0.93 324 21:37 24.06.2020
783 Clear 25 1009 69 0 0.58 263 21:19 24.06.2020
784 Clear 25 1009 69 0 0.58 263 20:58 24.06.2020
785 Clear 25 1009 69 0 0.58 263 20:39 24.06.2020
786 Clouds 26 1009 68 0 0.78 202 20:20 24.06.2020
787 Clouds 26 1009 68 0 0.78 202 19:57 24.06.2020
788 Clouds 26 1009 68 0 0.78 202 19:38 24.06.2020
789 Clouds 26 1009 68 0 0.78 202 19:38 24.06.2020
790 Clouds 27 1008 64 0 0.63 193 19:19 24.06.2020
791 Clouds 27 1008 64 0 0.63 193 18:58 24.06.2020
792 Clouds 27 1008 64 0 0.63 193 18:39 24.06.2020
793 Clouds 29 1007 60 0 0.15 163 18:20 24.06.2020
794 Clouds 29 1007 60 0 0.15 163 17:55 24.06.2020
795 Clouds 29 1007 60 0 0.15 163 17:36 24.06.2020
796 Clouds 32 1007 49 0 0.41 179 17:18 24.06.2020
797 Clouds 32 1007 49 0 0.41 179 16:55 24.06.2020
798 Clouds 32 1007 49 0 0.41 179 16:36 24.06.2020
799 Clouds 33 1007 43 0 0.79 169 16:18 24.06.2020
800 Clouds 33 1007 43 0 0.79 169 15:39 24.06.2020
801 Clouds 33 1007 42 0 0.9 149 15:20 24.06.2020
802 Clouds 33 1007 42 0 0.9 149 14:58 24.06.2020
803 Clouds 33 1007 42 0 0.9 149 14:40 24.06.2020
804 Clouds 33 1007 42 0 0.9 149 14:40 24.06.2020
805 Clouds 33 1007 42 0 0.9 149 14:40 24.06.2020
806 Clouds 35 1008 40 0 0.49 189 14:21 24.06.2020
807 Clouds 35 1008 40 0 0.49 189 13:42 24.06.2020
808 Clouds 34 1009 42 0 0.24 175 13:21 24.06.2020
809 Clouds 34 1009 42 0 0.24 175 13:21 24.06.2020
810 Clouds 34 1009 42 0 0.24 175 12:43 24.06.2020
811 Clouds 32 1011 50 0 0.12 338 12:21 24.06.2020
812 Clouds 32 1011 50 0 0.12 338 11:58 24.06.2020
813 Clouds 32 1011 50 0 0.12 338 11:39 24.06.2020
814 Clouds 29 1011 61 0 0.3 66 11:21 24.06.2020
815 Clouds 29 1011 61 0 0.3 66 10:45 24.06.2020
816 Clouds 29 1012 65 0 0.34 150 10:19 24.06.2020
817 Clouds 29 1012 65 0 0.34 150 09:46 24.06.2020
818 Clouds 24 1012 85 0 0.56 157 09:26 24.06.2020
819 Clouds 26 1013 73 0 0.36 169 08:59 24.06.2020
820 Clouds 26 1013 73 0 0.36 169 08:40 24.06.2020
821 Clouds 23 1012 88 0 0.13 142 08:18 24.06.2020
822 Clouds 23 1012 88 0 0.13 142 07:46 24.06.2020
823 Clouds 22 1012 91 0 0.75 282 07:25 24.06.2020
824 Clouds 22 1012 91 0 0.75 282 06:45 24.06.2020
825 Clouds 21 1011 92 0 0.95 314 06:24 24.06.2020
826 Clouds 21 1011 92 0 0.95 314 05:39 24.06.2020
827 Clouds 21 1010 92 0 0.71 292 04:38 24.06.2020
828 Clouds 22 1010 91 0 0.69 245 03:38 24.06.2020
829 Rain 22 1010 91 0 0.35 206 02:54 24.06.2020
830 Rain 22 1010 90 0 0.78 172 02:23 24.06.2020
831 Rain 22 1011 88 0 1.01 152 00:52 24.06.2020
832 Rain 22 1011 88 0 1.01 152 00:33 24.06.2020
833 Clouds 23 1011 84 0 1.09 155 23:49 23.06.2020
834 Clouds 23 1011 84 0 1.35 158 23:23 23.06.2020
835 Clouds 23 1011 84 0 1.35 158 22:59 23.06.2020
836 Clouds 23 1011 84 0 1.35 158 22:41 23.06.2020
837 Rain 24 1011 78 0 1.9 175 22:19 23.06.2020
838 Rain 24 1011 78 0 1.9 175 21:56 23.06.2020
839 Rain 24 1011 78 0 1.9 175 21:37 23.06.2020
840 Clouds 26 1010 67 0 1.85 160 21:18 23.06.2020
841 Clouds 26 1010 67 0 1.85 160 20:55 23.06.2020
842 Thunderstorm 30 1010 66 6000 4.1 120 20:36 23.06.2020
843 Thunderstorm 30 1010 66 6000 4.1 120 20:36 23.06.2020
844 Thunderstorm 30 1010 66 6000 4.1 120 20:18 23.06.2020
845 Thunderstorm 30 1010 66 6000 4.1 120 19:41 23.06.2020
846 Thunderstorm 30 1010 66 6000 4.1 120 19:23 23.06.2020
847 Clouds 32 1009 59 7000 2.1 310 18:39 23.06.2020
848 Clouds 32 1009 59 7000 2.1 310 18:19 23.06.2020
849 Clouds 32 1009 59 7000 2.1 310 18:19 23.06.2020
850 Clouds 29 1008 60 0 0.46 191 17:43 23.06.2020
851 Clouds 31 1007 53 0 0.82 200 17:25 23.06.2020
852 Clouds 31 1007 53 0 0.82 200 16:57 23.06.2020
853 Clouds 31 1007 53 0 0.82 200 16:38 23.06.2020
854 Clouds 31 1007 52 0 1.05 199 16:20 23.06.2020
855 Clouds 31 1007 52 0 1.05 199 15:57 23.06.2020
856 Clouds 31 1007 52 0 1.05 199 15:57 23.06.2020
857 Clouds 31 1007 52 0 1.05 199 15:39 23.06.2020
858 Clouds 33 1007 44 0 1 192 15:18 23.06.2020
859 Clouds 33 1007 44 0 1 192 14:43 23.06.2020
860 Clouds 35 1008 36 0 0.78 203 14:20 23.06.2020
861 Clouds 35 1008 36 0 0.78 203 13:57 23.06.2020
862 Clouds 35 1008 36 0 0.78 203 13:39 23.06.2020
863 Clear 36 1010 36 0 0.42 198 13:20 23.06.2020
864 Clear 36 1010 36 0 0.42 198 12:45 23.06.2020
865 Clear 35 1011 39 0 0.45 216 12:23 23.06.2020
866 Clear 35 1011 39 0 0.45 216 11:58 23.06.2020
867 Clear 35 1011 39 0 0.45 216 11:40 23.06.2020
868 Clear 34 1012 44 0 0.67 231 11:19 23.06.2020
869 Clear 34 1012 44 0 0.67 231 10:57 23.06.2020
870 Clear 34 1012 44 0 0.67 231 10:39 23.06.2020
871 Clear 31 1013 50 0 0.24 227 10:21 23.06.2020
872 Clouds 32 1013 48 0 0.59 228 09:42 23.06.2020
873 Clouds 29 1013 56 0 0.2 178 09:21 23.06.2020
874 Clouds 29 1013 56 0 0.2 178 08:59 23.06.2020
875 Clouds 29 1013 56 0 0.2 178 08:41 23.06.2020
876 Clouds 26 1013 67 0 0.22 130 08:21 23.06.2020
877 Clouds 26 1013 67 0 0.22 130 07:41 23.06.2020
878 Clouds 23 1012 78 0 0.13 309 07:22 23.06.2020
879 Clouds 23 1012 78 0 0.13 309 06:50 23.06.2020
880 Clouds 23 1012 78 0 0.13 309 06:31 23.06.2020
881 Clouds 22 1011 78 0 0.45 229 05:45 23.06.2020
882 Clouds 23 1010 75 0 0.13 192 03:55 23.06.2020
883 Clouds 23 1010 75 0 0.61 156 02:57 23.06.2020
884 Clouds 23 1010 75 0 0.61 156 02:38 23.06.2020
885 Clouds 23 1010 73 0 0.45 73 02:20 23.06.2020
886 Clouds 23 1010 73 0 0.45 73 01:43 23.06.2020
887 Clear 23 1011 71 0 0.68 69 01:19 23.06.2020
888 Clear 24 1011 70 0 0.48 110 00:24 23.06.2020
889 Clear 24 1011 70 0 0.48 110 23:58 22.06.2020
890 Clear 24 1011 70 0 0.48 110 23:39 22.06.2020
891 Clouds 24 1011 69 0 0.49 143 23:19 22.06.2020
892 Clouds 24 1011 69 0 0.49 143 22:57 22.06.2020
893 Clouds 24 1011 69 0 0.49 143 22:39 22.06.2020
894 Clouds 24 1011 68 0 0.32 151 22:20 22.06.2020
895 Clouds 24 1011 68 0 0.32 151 21:57 22.06.2020
896 Clouds 24 1011 68 0 0.32 151 21:38 22.06.2020
897 Clouds 25 1011 69 0 0.22 32 21:20 22.06.2020
898 Clouds 25 1011 69 0 0.22 32 20:44 22.06.2020
899 Clouds 26 1010 68 0 0.32 151 20:25 22.06.2020
900 Clouds 26 1010 68 0 0.32 151 19:58 22.06.2020
901 Clouds 26 1010 68 0 0.32 151 19:38 22.06.2020
902 Clouds 26 1009 67 0 0.72 139 19:18 22.06.2020
903 Clouds 26 1009 67 0 0.72 139 18:42 22.06.2020
904 Clouds 27 1008 62 0 0.82 160 18:23 22.06.2020
905 Clouds 27 1008 62 0 0.82 160 17:57 22.06.2020
906 Clouds 27 1008 62 0 0.82 160 17:39 22.06.2020
907 Clouds 29 1007 58 0 0.74 214 17:21 22.06.2020
908 Clouds 29 1007 58 0 0.74 214 16:57 22.06.2020
909 Clouds 29 1007 58 0 0.74 214 16:38 22.06.2020
910 Clouds 31 1007 50 0 0.9 256 16:18 22.06.2020
911 Clouds 31 1007 50 0 0.9 256 15:44 22.06.2020
912 Clouds 33 1007 41 0 0.72 296 15:26 22.06.2020
913 Clouds 33 1007 41 0 0.72 296 14:58 22.06.2020
914 Clouds 33 1007 41 0 0.72 296 14:38 22.06.2020
915 Clouds 32 1008 43 0 0.81 314 14:19 22.06.2020
916 Clouds 32 1008 43 0 0.81 314 13:54 22.06.2020
917 Clouds 32 1008 43 0 0.81 314 13:36 22.06.2020
918 Clear 35 1010 38 0 0.99 297 13:18 22.06.2020
919 Clear 35 1010 38 0 0.99 297 12:41 22.06.2020
920 Clear 34 1011 40 0 0.99 308 12:22 22.06.2020
921 Clear 34 1011 40 0 0.99 308 11:38 22.06.2020
922 Clear 33 1012 44 0 0.94 337 11:19 22.06.2020
923 Clear 33 1012 44 0 0.94 337 10:57 22.06.2020
924 Clear 33 1012 44 0 0.94 337 10:38 22.06.2020
925 Clear 31 1013 51 0 0.73 5 10:19 22.06.2020
926 Clear 31 1013 51 0 0.73 5 09:57 22.06.2020
927 Clear 31 1013 51 0 0.73 5 09:39 22.06.2020
928 Clouds 28 1013 59 0 0.77 9 09:19 22.06.2020
929 Clouds 28 1013 59 0 0.77 9 08:56 22.06.2020
930 Clouds 28 1013 59 0 0.77 9 08:38 22.06.2020
931 Clouds 24 1013 70 0 0.36 20 08:19 22.06.2020
932 Clouds 24 1013 70 0 0.36 20 07:46 22.06.2020
933 Clouds 22 1012 80 0 0.5 22 07:25 22.06.2020
934 Clouds 22 1012 80 0 0.5 22 06:39 22.06.2020
935 Clouds 21 1012 79 0 0.54 10 06:20 22.06.2020
936 Clouds 21 1012 79 0 0.54 10 05:42 22.06.2020
937 Clouds 22 1010 77 0 0.43 94 03:47 22.06.2020
938 Clouds 23 1011 74 0 0.76 139 01:53 22.06.2020
939 Clouds 23 1012 73 0 0.46 127 00:59 22.06.2020
940 Clouds 23 1012 73 0 0.46 127 00:38 22.06.2020
941 Clouds 23 1012 72 0 0.45 81 23:57 21.06.2020
942 Clouds 23 1012 72 0 0.45 81 23:38 21.06.2020
943 Clouds 23 1012 70 0 0.42 56 23:20 21.06.2020
944 Clouds 23 1012 70 0 0.42 56 22:56 21.06.2020
945 Clouds 23 1012 70 0 0.42 56 22:36 21.06.2020
946 Clouds 24 1012 67 0 0.23 92 22:18 21.06.2020
947 Clouds 24 1012 67 0 0.23 92 21:55 21.06.2020
948 Clouds 24 1012 67 0 0.23 92 21:37 21.06.2020
949 Clouds 26 1011 63 0 0.41 121 21:19 21.06.2020
950 Clouds 26 1011 63 0 0.41 121 20:54 21.06.2020
951 Clouds 26 1011 63 0 0.41 121 20:36 21.06.2020
952 Clouds 26 1011 61 0 0.51 161 20:18 21.06.2020
953 Clouds 26 1011 61 0 0.51 161 19:41 21.06.2020
954 Clouds 27 1010 60 0 0.39 175 19:20 21.06.2020
955 Clouds 27 1010 60 0 0.39 175 18:56 21.06.2020
956 Clouds 27 1010 60 0 0.39 175 18:38 21.06.2020
957 Clouds 28 1009 60 0 0.28 181 18:19 21.06.2020
958 Clouds 28 1009 60 0 0.28 181 17:55 21.06.2020
959 Clouds 28 1009 60 0 0.28 181 17:36 21.06.2020
960 Clouds 30 1008 54 0 0.66 211 17:18 21.06.2020
961 Clouds 30 1008 54 0 0.66 211 16:40 21.06.2020
962 Clouds 31 1008 49 0 0.85 212 16:22 21.06.2020
963 Clouds 31 1008 49 0 0.85 212 15:42 21.06.2020
964 Clouds 33 1009 39 0 1.08 221 15:24 21.06.2020
965 Clouds 33 1009 39 0 1.08 221 14:59 21.06.2020
966 Clouds 33 1009 38 0 1.19 216 14:38 21.06.2020
967 Clouds 34 1010 36 0 1.12 216 14:19 21.06.2020
968 Clouds 34 1010 36 0 1.12 216 13:55 21.06.2020
969 Clouds 34 1010 36 0 1.12 216 13:37 21.06.2020
970 Clouds 34 1011 38 0 1 213 13:18 21.06.2020
971 Clouds 34 1011 38 0 1 213 12:43 21.06.2020
972 Clouds 33 1013 40 0 0.5 214 12:24 21.06.2020
973 Clouds 33 1013 40 0 0.5 214 11:43 21.06.2020
974 Clouds 33 1013 40 0 0.5 214 11:43 21.06.2020
975 Clouds 32 1014 45 0 0.36 81 11:25 21.06.2020
976 Clouds 32 1014 45 0 0.36 81 10:59 21.06.2020
977 Clouds 32 1014 45 0 0.36 81 10:41 21.06.2020
978 Clouds 29 1014 50 0 0.6 56 10:22 21.06.2020
979 Clouds 29 1014 50 0 0.6 56 09:58 21.06.2020
980 Clouds 29 1014 50 0 0.6 56 09:37 21.06.2020
981 Clouds 26 1015 62 0 0.61 8 09:18 21.06.2020
982 Clouds 26 1015 62 0 0.61 8 08:55 21.06.2020
983 Clouds 26 1015 62 0 0.61 8 08:36 21.06.2020
984 Clouds 24 1014 71 0 0.64 11 08:18 21.06.2020
985 Clouds 24 1014 71 0 0.64 11 07:41 21.06.2020
986 Clouds 22 1014 78 0 0.56 344 07:21 21.06.2020
987 Clouds 22 1014 78 0 0.56 344 06:48 21.06.2020
988 Clouds 21 1013 78 0 0.69 346 05:59 21.06.2020
989 Clouds 21 1013 78 0 0.69 346 05:30 21.06.2020
990 Clouds 21 1013 77 0 0.75 139 03:21 21.06.2020
991 Clouds 21 1013 77 0 0.75 139 02:59 21.06.2020
992 Clouds 21 1013 75 0 0.47 107 01:54 21.06.2020
993 Clouds 22 1014 74 0 0.61 41 01:21 21.06.2020
994 Clouds 22 1014 74 0 0.61 41 00:56 21.06.2020
995 Clouds 22 1014 74 0 0.61 41 00:38 21.06.2020
996 Clouds 22 1014 71 0 0.77 21 00:18 21.06.2020
997 Clouds 22 1014 71 0 0.77 21 23:43 20.06.2020
998 Clouds 23 1014 69 0 0.55 40 23:21 20.06.2020
999 Clouds 23 1014 69 0 0.55 40 22:55 20.06.2020
1000 Clouds 23 1014 69 0 0.55 40 22:37 20.06.2020
1001 Clouds 23 1014 68 0 0.71 146 22:18 20.06.2020
1002 Clouds 23 1014 68 0 0.71 146 21:56 20.06.2020
1003 Clouds 23 1014 68 0 0.71 146 21:37 20.06.2020
1004 Clouds 23 1013 66 0 0.66 293 21:19 20.06.2020
1005 Clouds 23 1013 66 0 0.66 293 20:55 20.06.2020
1006 Clouds 23 1013 66 0 0.66 293 20:37 20.06.2020
1007 Clouds 24 1012 65 0 0.84 277 20:19 20.06.2020
1008 Clouds 24 1012 65 0 0.84 277 19:43 20.06.2020
1009 Clear 24 1011 64 0 1.15 298 19:22 20.06.2020
1010 Clear 24 1011 64 0 1.15 298 19:22 20.06.2020
1011 Clear 24 1011 64 0 1.15 298 18:54 20.06.2020
1012 Clear 24 1011 64 0 1.15 298 18:36 20.06.2020
1013 Clear 26 1010 61 0 1.19 308 18:18 20.06.2020
1014 Clear 26 1010 61 0 1.19 308 17:54 20.06.2020
1015 Clear 26 1010 61 0 1.19 308 17:36 20.06.2020
1016 Clear 30 1010 49 0 1.14 263 17:18 20.06.2020
1017 Clear 30 1010 49 0 1.14 263 16:39 20.06.2020
1018 Clear 31 1010 41 0 1.71 239 16:18 20.06.2020
1019 Clear 31 1010 41 0 1.71 239 16:18 20.06.2020
1020 Clear 31 1010 41 0 1.71 239 15:42 20.06.2020
1021 Clear 31 1011 40 0 1.82 238 15:18 20.06.2020
1022 Clear 31 1011 40 0 1.82 238 14:56 20.06.2020
1023 Clear 31 1011 40 0 1.82 238 14:38 20.06.2020
1024 Clouds 31 1012 40 0 1.64 236 14:18 20.06.2020
1025 Clouds 31 1012 40 0 1.64 236 13:41 20.06.2020
1026 Clouds 30 1013 45 0 1.38 215 13:19 20.06.2020
1027 Clouds 30 1013 45 0 1.38 215 12:55 20.06.2020
1028 Clouds 30 1013 45 0 1.38 215 12:36 20.06.2020
1029 Clouds 27 1014 55 0 1.16 193 12:18 20.06.2020
1030 Clouds 27 1014 55 0 1.16 193 11:38 20.06.2020
1031 Clouds 25 1015 64 0 0.76 177 11:20 20.06.2020
1032 Clouds 25 1015 64 0 0.76 177 10:57 20.06.2020
1033 Clouds 25 1015 64 0 0.76 177 10:38 20.06.2020
1034 Clouds 24 1016 67 0 0.14 103 10:18 20.06.2020
1035 Clouds 24 1016 67 0 0.14 103 09:41 20.06.2020
1036 Clouds 25 1016 60 0 0.32 288 09:23 20.06.2020
1037 Clouds 25 1016 60 0 0.32 288 08:57 20.06.2020
1038 Clouds 25 1016 60 0 0.32 288 08:38 20.06.2020
1039 Clouds 23 1016 66 0 0.35 337 08:20 20.06.2020
1040 Clouds 23 1016 66 0 0.35 337 07:50 20.06.2020
1041 Clouds 20 1015 76 0 0.24 316 07:25 20.06.2020
1042 Clouds 20 1015 76 0 0.24 316 07:25 20.06.2020
1043 Clouds 20 1015 76 0 0.24 316 06:40 20.06.2020
1044 Clouds 19 1014 77 0 0.45 266 06:18 20.06.2020
1045 Clouds 19 1014 77 0 0.45 266 05:47 20.06.2020
1046 Clouds 20 1013 71 0 0.66 157 03:22 20.06.2020
1047 Clouds 20 1013 70 0 0.78 133 01:53 20.06.2020
1048 Clouds 20 1013 70 0 0.78 133 01:35 20.06.2020
1049 Clouds 21 1014 68 0 0.92 137 00:42 20.06.2020
1050 Clouds 21 1014 66 0 0.75 146 00:19 20.06.2020
1051 Clouds 21 1014 66 0 0.75 146 23:40 19.06.2020
1052 Clouds 22 1014 66 0 0.5 167 23:19 19.06.2020
1053 Clouds 22 1014 66 0 0.5 167 22:55 19.06.2020
1054 Clouds 22 1014 66 0 0.5 167 22:37 19.06.2020
1055 Clouds 22 1014 66 0 0.65 168 22:18 19.06.2020
1056 Clouds 22 1014 66 0 0.65 168 21:54 19.06.2020
1057 Clouds 23 1014 66 0 0.66 165 21:36 19.06.2020
1058 Clouds 23 1014 66 0 0.77 157 21:18 19.06.2020
1059 Clouds 23 1014 66 0 0.77 157 20:55 19.06.2020
1060 Clouds 23 1014 66 0 0.77 157 20:37 19.06.2020
1061 Clouds 23 1013 65 0 0.99 158 20:18 19.06.2020
1062 Clouds 23 1013 65 0 0.99 158 19:42 19.06.2020
1063 Clouds 23 1013 65 0 0.99 158 19:41 19.06.2020
1064 Clouds 24 1012 64 0 1.2 166 19:23 19.06.2020
1065 Clouds 24 1012 64 0 1.2 166 18:59 19.06.2020
1066 Clouds 24 1012 64 0 1.2 166 18:39 19.06.2020
1067 Clouds 27 1011 59 0 1.01 169 18:20 19.06.2020
1068 Clouds 27 1011 59 0 1.01 169 18:20 19.06.2020
1069 Clouds 27 1011 59 0 1.01 169 17:42 19.06.2020
1070 Clouds 27 1011 59 0 1.01 169 17:42 19.06.2020
1071 Clouds 31 1010 47 0 0.56 174 17:23 19.06.2020
1072 Clouds 31 1010 47 0 0.56 174 16:58 19.06.2020
1073 Clouds 31 1010 47 0 0.56 174 16:39 19.06.2020
1074 Clouds 32 1009 37 0 0.7 242 16:21 19.06.2020
1075 Clouds 32 1009 37 0 0.7 242 15:45 19.06.2020
1076 Clouds 32 1010 36 0 0.89 268 15:26 19.06.2020
1077 Clouds 32 1010 36 0 0.89 268 14:58 19.06.2020
1078 Clouds 32 1010 36 0 0.89 268 14:39 19.06.2020
1079 Clouds 32 1012 36 0 0.94 278 14:21 19.06.2020
1080 Clouds 32 1012 36 0 0.94 278 13:58 19.06.2020
1081 Clouds 32 1012 36 0 0.94 278 13:40 19.06.2020
1082 Clouds 31 1013 39 0 0.69 301 13:22 19.06.2020
1083 Clouds 31 1013 39 0 0.69 301 12:45 19.06.2020
1084 Clouds 27 1014 51 0 0.51 318 12:21 19.06.2020
1085 Clouds 27 1014 51 0 0.51 318 11:55 19.06.2020
1086 Clouds 27 1014 51 0 0.51 318 11:36 19.06.2020
1087 Clouds 25 1015 60 0 0.4 21 11:18 19.06.2020
1088 Clouds 25 1015 60 0 0.4 21 10:41 19.06.2020
1089 Clouds 24 1015 63 0 0.5 58 10:21 19.06.2020
1090 Clouds 24 1015 63 0 0.5 58 09:54 19.06.2020
1091 Clouds 28 1015 50 0 0.87 11 09:36 19.06.2020
1092 Clouds 23 1015 68 0 0.66 19 09:18 19.06.2020
1093 Clouds 25 1016 59 0 0.83 16 08:39 19.06.2020
1094 Clouds 23 1016 67 0 0.43 18 08:21 19.06.2020
1095 Clouds 23 1016 67 0 0.43 18 07:41 19.06.2020
1096 Clouds 21 1015 72 0 0.34 353 07:22 19.06.2020
1097 Clouds 21 1015 72 0 0.34 353 06:50 19.06.2020
1098 Clouds 20 1014 70 0 0.14 26 06:22 19.06.2020
1099 Clouds 20 1013 68 0 0.22 88 05:29 19.06.2020
1100 Clouds 20 1013 67 0 0.34 158 03:45 19.06.2020
1101 Clouds 21 1013 63 0 0.25 114 02:20 19.06.2020
1102 Clouds 21 1013 62 0 0.23 114 00:45 19.06.2020
1103 Clouds 22 1013 61 0 0.04 114 00:22 19.06.2020
1104 Clouds 22 1013 61 0 0.04 114 23:57 18.06.2020
1105 Clouds 22 1013 61 0 0.04 114 23:39 18.06.2020
1106 Clouds 22 1014 60 0 0.1 340 23:20 18.06.2020
1107 Clouds 22 1014 60 0 0.1 340 22:41 18.06.2020
1108 Clouds 22 1014 58 0 0.32 18 22:20 18.06.2020
1109 Clouds 22 1014 58 0 0.32 18 21:56 18.06.2020
1110 Clouds 22 1014 58 0 0.32 18 21:37 18.06.2020
1111 Clouds 23 1013 56 0 0.46 326 21:19 18.06.2020
1112 Clouds 23 1013 56 0 0.46 326 20:41 18.06.2020
1113 Clouds 24 1012 55 0 0.48 287 20:21 18.06.2020
1114 Clouds 24 1012 55 0 0.48 287 19:57 18.06.2020
1115 Clouds 24 1012 55 0 0.48 287 19:39 18.06.2020
1116 Clouds 24 1011 54 0 0.78 286 19:19 18.06.2020
1117 Clouds 24 1011 54 0 0.78 286 19:19 18.06.2020
1118 Clouds 24 1011 54 0 0.78 286 18:41 18.06.2020
1119 Clouds 26 1010 54 0 0.88 285 18:22 18.06.2020
1120 Clouds 26 1010 54 0 0.88 285 17:55 18.06.2020
1121 Clouds 26 1010 54 0 0.88 285 17:37 18.06.2020
1122 Clouds 29 1009 45 0 0.89 255 17:18 18.06.2020
1123 Clouds 29 1009 45 0 0.89 255 16:42 18.06.2020
1124 Clouds 31 1008 34 0 1.66 221 16:24 18.06.2020
1125 Clouds 31 1008 34 0 1.66 221 15:58 18.06.2020
1126 Clouds 31 1008 34 0 1.66 221 15:39 18.06.2020
1127 Clear 32 1009 32 0 1.78 204 15:20 18.06.2020
1128 Clear 32 1009 32 0 1.78 204 14:56 18.06.2020
1129 Clear 32 1009 32 0 1.78 204 14:38 18.06.2020
1130 Clouds 32 1010 33 0 1.81 199 14:20 18.06.2020
1131 Clouds 32 1010 33 0 2.11 200 13:47 18.06.2020
1132 Clouds 32 1012 35 0 1.75 191 13:28 18.06.2020
1133 Clouds 32 1012 35 0 1.75 191 12:57 18.06.2020
1134 Clouds 32 1012 35 0 1.75 191 12:39 18.06.2020
1135 Clouds 31 1013 43 0 1.34 190 12:20 18.06.2020
1136 Clouds 31 1013 43 0 1.34 190 11:57 18.06.2020
1137 Clouds 31 1013 43 0 1.34 190 11:38 18.06.2020
1138 Rain 28 1013 59 0 1.04 172 11:18 18.06.2020
1139 Rain 28 1013 59 0 1.04 172 10:40 18.06.2020
1140 Clouds 27 1014 64 0 1.27 158 10:18 18.06.2020
1141 Clouds 27 1014 64 0 1.27 158 09:46 18.06.2020
1142 Rain 25 1014 77 0 0.34 184 09:27 18.06.2020
1143 Rain 25 1014 77 0 0.34 184 08:57 18.06.2020
1144 Rain 25 1014 77 0 0.34 184 08:37 18.06.2020
1145 Clouds 24 1014 77 0 0.2 234 08:19 18.06.2020
1146 Clouds 24 1014 77 0 0.2 234 07:44 18.06.2020
1147 Clouds 22 1014 86 0 0.36 301 07:25 18.06.2020
1148 Clouds 22 1014 86 0 0.36 301 06:37 18.06.2020
1149 Clouds 22 1012 83 0 0.46 306 05:25 18.06.2020
1150 Clouds 22 1011 83 0 0.1 309 04:18 18.06.2020
1151 Clouds 22 1011 88 0 0.24 22 01:44 18.06.2020
1152 Clouds 22 1012 85 0 0.48 4 01:22 18.06.2020
1153 Clouds 22 1012 85 0 0.48 4 00:52 18.06.2020
1154 Clouds 22 1012 85 0 0.48 4 00:30 18.06.2020
1155 Clouds 23 1012 81 0 0.77 30 23:55 17.06.2020
1156 Clouds 23 1012 81 0 0.77 30 23:36 17.06.2020
1157 Clouds 23 1012 77 0 0.71 356 23:18 17.06.2020
1158 Clouds 23 1012 77 0 0.71 356 22:54 17.06.2020
1159 Clouds 23 1012 77 0 0.71 356 22:36 17.06.2020
1160 Clouds 24 1012 73 0 0.32 332 22:18 17.06.2020
1161 Clouds 24 1012 73 0 0.32 332 21:40 17.06.2020
1162 Clouds 24 1012 73 0 1 354 21:21 17.06.2020
1163 Clouds 24 1012 73 0 1 354 20:56 17.06.2020
1164 Clouds 24 1012 73 0 1 354 20:37 17.06.2020
1165 Clouds 25 1011 67 0 0.31 279 20:19 17.06.2020
1166 Clouds 25 1011 67 0 0.31 279 19:43 17.06.2020
1167 Clouds 26 1010 63 0 0.63 231 19:22 17.06.2020
1168 Clouds 26 1010 63 0 0.63 231 18:56 17.06.2020
1169 Clouds 26 1010 63 0 0.63 231 18:37 17.06.2020
1170 Clouds 28 1009 62 0 0.69 218 18:19 17.06.2020
1171 Clouds 28 1009 62 0 0.69 218 17:42 17.06.2020
1172 Clouds 31 1009 51 0 1.06 211 17:21 17.06.2020
1173 Clouds 31 1009 51 0 1.06 211 16:56 17.06.2020
1174 Clouds 31 1009 51 0 1.06 211 16:38 17.06.2020
1175 Clouds 32 1008 43 0 1.38 199 16:19 17.06.2020
1176 Clouds 32 1008 43 0 1.38 199 15:40 17.06.2020
1177 Clouds 33 1008 41 0 1.64 195 15:21 17.06.2020
1178 Clouds 33 1008 41 0 1.64 195 14:59 17.06.2020
1179 Clouds 33 1008 41 0 1.64 195 14:40 17.06.2020
1180 Clouds 33 1010 41 0 1.91 194 14:21 17.06.2020
1181 Clouds 33 1010 41 0 1.79 195 13:58 17.06.2020
1182 Clouds 33 1010 41 0 1.79 195 13:40 17.06.2020
1183 Clouds 33 1011 40 0 1.69 189 13:21 17.06.2020
1184 Clouds 33 1011 40 0 1.69 189 12:55 17.06.2020
1185 Clouds 33 1011 40 0 1.69 189 12:37 17.06.2020
1186 Clouds 33 1012 42 0 1.37 193 12:19 17.06.2020
1187 Clouds 33 1012 42 0 1.37 193 11:44 17.06.2020
1188 Clouds 32 1012 47 0 0.98 179 11:24 17.06.2020
1189 Clouds 32 1012 47 0 0.98 179 10:55 17.06.2020
1190 Clouds 32 1012 47 0 0.98 179 10:36 17.06.2020
1191 Clouds 30 1013 54 0 0.88 120 10:18 17.06.2020
1192 Clouds 30 1013 54 0 0.88 120 09:54 17.06.2020
1193 Clouds 30 1013 54 0 0.88 120 09:36 17.06.2020
1194 Clouds 27 1014 64 0 0.87 100 09:18 17.06.2020
1195 Clouds 27 1014 64 0 0.87 100 08:41 17.06.2020
1196 Clouds 25 1014 74 0 0.31 73 08:19 17.06.2020
1197 Clouds 25 1014 74 0 0.31 73 08:19 17.06.2020
1198 Clouds 25 1014 74 0 0.31 73 07:43 17.06.2020
1199 Clouds 22 1013 85 0 0.54 68 07:22 17.06.2020
1200 Clouds 22 1013 85 0 0.54 68 06:57 17.06.2020
1201 Clouds 22 1013 85 0 0.54 68 06:38 17.06.2020
1202 Clouds 21 1012 85 0 0.43 79 06:20 17.06.2020
1203 Clouds 21 1012 85 0 0.43 79 05:31 17.06.2020
1204 Clouds 22 1011 83 0 0.56 52 03:30 17.06.2020
1205 Clouds 22 1011 79 0 0.54 77 01:54 17.06.2020
1206 Clouds 22 1011 77 0 0.89 146 00:48 17.06.2020
1207 Clouds 23 1012 76 0 0.22 174 00:25 17.06.2020
1208 Clouds 23 1012 76 0 0.22 174 23:57 16.06.2020
1209 Clouds 23 1012 76 0 0.22 174 23:38 16.06.2020
1210 Clouds 23 1012 74 0 0.44 226 23:19 16.06.2020
1211 Clouds 23 1012 74 0 0.44 226 22:56 16.06.2020
1212 Clouds 23 1012 74 0 0.44 226 22:37 16.06.2020
1213 Clouds 24 1012 74 0 0.41 235 22:18 16.06.2020
1214 Clouds 24 1012 74 0 0.41 235 21:47 16.06.2020
1215 Clouds 24 1011 71 0 0.87 194 21:24 16.06.2020
1216 Clouds 24 1011 71 0 0.87 194 20:58 16.06.2020
1217 Clouds 24 1011 71 0 0.87 194 20:40 16.06.2020
1218 Clouds 25 1011 71 0 0.94 169 20:19 16.06.2020
1219 Clouds 25 1011 71 0 0.94 169 19:58 16.06.2020
1220 Clouds 25 1011 71 0 0.94 169 19:39 16.06.2020
1221 Clouds 26 1010 69 0 1.09 160 19:21 16.06.2020
1222 Clouds 26 1010 69 0 1.09 160 18:55 16.06.2020
1223 Clouds 26 1010 69 0 1.09 160 18:36 16.06.2020
1224 Clouds 28 1009 67 0 1.22 169 18:18 16.06.2020
1225 Clouds 28 1009 67 0 1.22 169 17:54 16.06.2020
1226 Clouds 28 1009 67 0 1.22 169 17:36 16.06.2020
1227 Clouds 29 1008 61 0 1.13 172 17:18 16.06.2020
1228 Clouds 29 1008 61 0 1.13 172 16:42 16.06.2020
1229 Clouds 32 1008 51 0 1.24 182 16:20 16.06.2020
1230 Clouds 32 1008 51 0 1.24 182 15:58 16.06.2020
1231 Clouds 32 1008 51 0 1.24 182 15:40 16.06.2020
1232 Clouds 33 1008 44 0 1.42 181 15:21 16.06.2020
1233 Clouds 33 1008 44 0 1.42 181 14:57 16.06.2020
1234 Clouds 33 1008 44 0 1.42 181 14:38 16.06.2020
1235 Clouds 33 1010 45 0 1.57 171 14:20 16.06.2020
1236 Clouds 32 1010 46 0 1.84 171 13:48 16.06.2020
1237 Clouds 32 1011 49 0 2.03 154 13:26 16.06.2020
1238 Clouds 32 1011 49 0 2.03 154 12:57 16.06.2020
1239 Clouds 32 1011 49 0 2.03 154 12:38 16.06.2020
1240 Rain 30 1011 59 0 1.78 147 12:20 16.06.2020
1241 Rain 30 1011 59 0 1.78 147 11:54 16.06.2020
1242 Rain 30 1011 59 0 1.78 147 11:36 16.06.2020
1243 Rain 30 1011 59 0 1.78 147 11:36 16.06.2020
1244 Rain 30 1012 60 0 1.06 172 11:18 16.06.2020
1245 Rain 30 1012 60 0 1.06 172 10:42 16.06.2020
1246 Clear 30 1013 60 0 0.81 158 10:21 16.06.2020
1247 Clear 30 1013 60 0 0.81 158 09:57 16.06.2020
1248 Clear 30 1013 60 0 0.81 158 09:39 16.06.2020
1249 Clear 28 1013 66 0 0.49 117 09:21 16.06.2020
1250 Clear 28 1013 66 0 0.49 117 08:43 16.06.2020
1251 Clouds 25 1013 77 0 0.18 102 08:25 16.06.2020
1252 Clouds 25 1013 77 0 0.18 102 07:47 16.06.2020
1253 Clouds 22 1012 88 0 0.29 61 07:26 16.06.2020
1254 Clouds 22 1012 88 0 0.29 61 06:48 16.06.2020
1255 Clouds 21 1012 91 0 0.17 147 06:26 16.06.2020
1256 Clouds 21 1012 91 0 0.17 147 06:26 16.06.2020
1257 Clouds 21 1012 91 0 0.17 147 05:32 16.06.2020
1258 Clouds 21 1011 90 0 0.42 130 04:31 16.06.2020
1259 Clouds 22 1011 88 0 0.72 126 02:58 16.06.2020
1260 Clouds 22 1012 87 0 0.64 141 01:58 16.06.2020
1261 Clouds 22 1012 86 0 0.44 136 01:23 16.06.2020
1262 Clouds 22 1012 86 0 0.44 136 00:43 16.06.2020
1263 Clouds 23 1013 85 0 0.6 98 00:19 16.06.2020
1264 Clouds 23 1013 85 0 0.6 98 23:41 15.06.2020
1265 Clouds 23 1013 84 0 0.74 99 23:22 15.06.2020
1266 Clouds 23 1013 84 0 0.74 99 22:55 15.06.2020
1267 Clouds 23 1013 84 0 0.74 99 22:37 15.06.2020
1268 Clouds 24 1013 81 0 0.53 80 22:18 15.06.2020
1269 Clouds 24 1013 81 0 0.53 80 21:55 15.06.2020
1270 Clouds 24 1013 78 0 0.65 163 21:36 15.06.2020
1271 Clouds 24 1012 80 0 0.7 15 21:18 15.06.2020
1272 Clouds 24 1012 77 0 0.59 83 20:55 15.06.2020
1273 Clouds 24 1012 77 0 0.59 83 20:36 15.06.2020
1274 Clouds 24 1012 77 0 0.84 52 20:18 15.06.2020
1275 Clouds 24 1012 77 0 0.84 52 19:41 15.06.2020
1276 Clouds 25 1011 76 0 0.96 41 19:22 15.06.2020
1277 Clouds 25 1011 76 0 0.96 41 19:22 15.06.2020
1278 Clouds 25 1011 76 0 0.96 41 18:59 15.06.2020
1279 Clouds 25 1011 76 0 0.96 41 18:41 15.06.2020
1280 Rain 25 1010 75 0 0.63 350 18:21 15.06.2020
1281 Rain 25 1010 75 0 0.63 350 17:58 15.06.2020
1282 Rain 25 1010 75 0 0.63 350 17:40 15.06.2020
1283 Clouds 26 1009 71 0 0.47 222 17:20 15.06.2020
1284 Clouds 26 1009 71 0 0.47 222 16:57 15.06.2020
1285 Clouds 26 1009 71 0 0.47 222 16:39 15.06.2020
1286 Clouds 28 1009 65 0 1.67 192 16:18 15.06.2020
1287 Clouds 28 1009 65 0 1.67 192 15:41 15.06.2020
1288 Clouds 32 1009 48 0 1.76 199 15:21 15.06.2020
1289 Clouds 32 1009 48 0 1.76 199 14:59 15.06.2020
1290 Clouds 32 1009 48 0 1.76 199 14:40 15.06.2020
1291 Clear 34 1010 41 0 1.28 208 14:20 15.06.2020
1292 Clear 34 1010 41 0 1.28 208 13:57 15.06.2020
1293 Clear 34 1010 41 0 1.28 208 13:38 15.06.2020
1294 Clear 34 1012 42 0 1.16 206 13:19 15.06.2020
1295 Clear 34 1012 42 0 1.16 206 12:43 15.06.2020
1296 Clear 34 1012 44 0 0.45 206 12:22 15.06.2020
1297 Clear 34 1012 44 0 0.45 206 12:00 15.06.2020
1298 Clear 34 1012 44 0 0.45 206 11:41 15.06.2020
1299 Clear 32 1014 50 0 0.31 346 11:23 15.06.2020
1300 Clear 32 1014 50 0 0.31 346 10:43 15.06.2020
1301 Clear 30 1014 58 0 0.79 15 10:22 15.06.2020
1302 Clear 30 1014 58 0 0.79 15 09:45 15.06.2020
1303 Clouds 27 1015 67 0 0.66 20 09:23 15.06.2020
1304 Clouds 27 1015 67 0 0.66 20 08:55 15.06.2020
1305 Clouds 27 1015 67 0 0.66 20 08:36 15.06.2020
1306 Clouds 24 1014 78 0 0.61 5 08:18 15.06.2020
1307 Clouds 24 1014 78 0 0.61 5 07:41 15.06.2020
1308 Clouds 21 1014 88 0 0.62 358 07:20 15.06.2020
1309 Clouds 21 1014 88 0 0.62 358 06:30 15.06.2020
1310 Clouds 21 1013 90 0 0.55 22 05:51 15.06.2020
1311 Clouds 21 1013 90 0 0.55 22 05:31 15.06.2020
1312 Clouds 21 1012 88 0 0.88 96 04:23 15.06.2020
1313 Clouds 21 1012 88 0 0.88 96 03:49 15.06.2020
1314 Clouds 21 1012 86 0 0.84 104 03:27 15.06.2020
1315 Clouds 21 1012 87 0 0.97 94 02:33 15.06.2020
1316 Clouds 21 1013 85 0 0.96 92 01:49 15.06.2020
1317 Clouds 22 1013 85 0 1.04 93 01:29 15.06.2020
1318 Clouds 22 1013 85 0 1.04 93 00:56 15.06.2020
1319 Clouds 22 1013 85 0 1.04 93 00:38 15.06.2020
1320 Clouds 22 1013 83 0 0.89 75 00:18 15.06.2020
1321 Clouds 22 1013 83 0 0.89 75 23:42 14.06.2020
1322 Clouds 22 1013 82 0 0.33 71 23:24 14.06.2020
1323 Clouds 22 1013 82 0 0.33 71 22:58 14.06.2020
1324 Clouds 22 1013 82 0 0.33 71 22:38 14.06.2020
1325 Clouds 22 1012 81 0 0.15 145 22:19 14.06.2020
1326 Clouds 22 1012 81 0 0.15 145 21:57 14.06.2020
1327 Clouds 22 1012 81 0 0.15 145 21:38 14.06.2020
1328 Clouds 23 1012 90 0 0.75 130 21:19 14.06.2020
1329 Clouds 23 1012 90 0 0.75 130 20:58 14.06.2020
1330 Clouds 23 1012 90 0 0.75 130 20:38 14.06.2020
1331 Clouds 23 1012 90 0 0.6 102 20:19 14.06.2020
1332 Clouds 23 1012 90 0 0.6 102 19:57 14.06.2020
1333 Clouds 23 1012 90 0 0.6 102 19:37 14.06.2020
1334 Clouds 23 1012 91 0 0.67 103 19:19 14.06.2020
1335 Clouds 23 1012 91 0 0.67 103 18:56 14.06.2020
1336 Clouds 23 1012 91 0 0.67 103 18:37 14.06.2020
1337 Clouds 24 1012 91 0 0.77 115 18:19 14.06.2020
1338 Clouds 24 1012 91 0 0.77 115 17:56 14.06.2020
1339 Clouds 24 1012 91 0 0.77 115 17:38 14.06.2020
1340 Clouds 25 1011 90 0 0.75 118 17:19 14.06.2020
1341 Clouds 25 1011 90 0 0.75 118 16:40 14.06.2020
1342 Rain 26 1011 84 0 0.39 80 16:20 14.06.2020
1343 Rain 26 1011 84 0 0.39 80 15:58 14.06.2020
1344 Rain 26 1011 84 0 0.39 80 15:40 14.06.2020
1345 Rain 27 1011 81 0 0.86 349 15:18 14.06.2020
1346 Rain 27 1011 81 0 0.86 349 14:58 14.06.2020
1347 Rain 27 1011 81 0 0.86 349 14:58 14.06.2020
1348 Rain 27 1011 81 0 0.86 349 14:40 14.06.2020
1349 Rain 28 1013 69 0 1.69 16 14:19 14.06.2020
1350 Rain 28 1013 69 0 1.69 16 13:42 14.06.2020
1351 Rain 27 1014 77 0 2.13 16 13:22 14.06.2020
1352 Rain 27 1014 77 0 2.13 16 12:59 14.06.2020
1353 Rain 27 1014 77 0 2.13 16 12:41 14.06.2020
1354 Rain 24 1014 91 0 2.48 10 12:23 14.06.2020
1355 Rain 24 1014 91 0 2.48 10 11:59 14.06.2020
1356 Rain 24 1014 91 0 2.48 10 11:41 14.06.2020
1357 Rain 23 1015 94 0 1.97 6 11:22 14.06.2020
1358 Rain 23 1015 94 0 1.97 6 11:00 14.06.2020
1359 Rain 23 1015 94 0 1.97 6 10:40 14.06.2020
1360 Rain 24 1015 94 0 1.38 5 10:18 14.06.2020
1361 Rain 24 1015 94 0 1.38 5 10:18 14.06.2020
1362 Rain 24 1015 94 0 1.38 5 09:44 14.06.2020
1363 Rain 25 1015 90 0 0.27 57 09:24 14.06.2020
1364 Rain 23 1015 93 0 1.57 13 08:43 14.06.2020
1365 Rain 23 1015 95 0 1.22 16 08:22 14.06.2020
1366 Rain 23 1015 95 0 1.22 16 07:56 14.06.2020
1367 Rain 23 1015 95 0 1.22 16 07:37 14.06.2020
1368 Rain 22 1014 96 0 0.53 337 07:19 14.06.2020
1369 Rain 21 1013 97 0 0.23 19 05:58 14.06.2020
1370 Rain 21 1013 97 0 0.23 19 05:39 14.06.2020
1371 Rain 21 1012 97 0 0.38 48 04:43 14.06.2020
1372 Rain 21 1012 97 0 0.17 284 03:57 14.06.2020
1373 Rain 21 1012 97 0 0.4 194 02:44 14.06.2020
1374 Rain 22 1013 95 0 0.71 173 02:23 14.06.2020
1375 Clouds 22 1013 92 0 0.59 186 01:36 14.06.2020
1376 Clouds 22 1013 90 0 0.94 147 00:49 14.06.2020
1377 Clouds 22 1013 90 0 0.94 147 00:30 14.06.2020
1378 Clouds 23 1013 89 0 0.96 155 23:56 13.06.2020
1379 Clouds 23 1013 89 0 0.96 155 23:38 13.06.2020
1380 Clouds 23 1013 86 0 1.03 150 23:20 13.06.2020
1381 Clouds 23 1013 86 0 1.03 150 22:54 13.06.2020
1382 Clouds 23 1013 86 0 1.03 150 22:36 13.06.2020
1383 Clouds 23 1012 84 0 1.13 138 22:18 13.06.2020
1384 Clouds 23 1012 84 0 1.13 138 21:42 13.06.2020
1385 Clouds 20 1012 95 0 1.03 144 21:24 13.06.2020
1386 Clouds 20 1012 95 0 1.03 144 20:57 13.06.2020
1387 Clouds 20 1012 95 0 1.03 144 20:39 13.06.2020
1388 Rain 20 1012 94 0 1.28 184 20:18 13.06.2020
1389 Rain 20 1012 94 0 1.28 184 19:40 13.06.2020
1390 Rain 21 1011 94 0 2.87 198 19:20 13.06.2020
1391 Rain 21 1011 94 0 2.87 198 18:59 13.06.2020
1392 Rain 21 1011 94 0 2.87 198 18:40 13.06.2020
1393 Rain 22 1010 94 0 3.48 178 18:20 13.06.2020
1394 Rain 22 1010 94 0 3.48 178 17:57 13.06.2020
1395 Rain 22 1010 94 0 3.48 178 17:39 13.06.2020
1396 Rain 23 1009 92 0 2.8 144 17:20 13.06.2020
1397 Rain 23 1009 92 0 2.8 144 16:54 13.06.2020
1398 Rain 23 1009 92 0 2.8 144 16:36 13.06.2020
1399 Rain 26 1009 79 0 3.02 127 16:18 13.06.2020
1400 Rain 26 1009 79 0 3.02 127 15:42 13.06.2020
1401 Clouds 30 1009 55 0 1.56 54 15:22 13.06.2020
1402 Clouds 30 1009 55 0 1.56 54 14:44 13.06.2020
1403 Clouds 32 1010 47 0 0.9 48 14:25 13.06.2020
1404 Clouds 31 1011 50 0 1.29 40 13:58 13.06.2020
1405 Clouds 31 1011 50 0 1.29 40 13:39 13.06.2020
1406 Clear 34 1012 43 0 0.2 248 13:20 13.06.2020
1407 Clear 34 1012 43 0 0.2 248 12:43 13.06.2020
1408 Clear 33 1012 44 0 0.67 255 12:25 13.06.2020
1409 Clear 33 1012 44 0 0.67 255 11:57 13.06.2020
1410 Clear 33 1012 44 0 0.67 255 11:38 13.06.2020
1411 Clear 32 1013 49 0 0.71 291 11:19 13.06.2020
1412 Clear 32 1013 49 0 0.71 291 10:55 13.06.2020
1413 Clear 32 1013 49 0 0.71 291 10:37 13.06.2020
1414 Clear 30 1014 55 0 0.58 308 10:18 13.06.2020
1415 Clear 30 1014 55 0 0.58 308 09:42 13.06.2020
1416 Clouds 27 1014 67 0 0.22 359 09:20 13.06.2020
1417 Clouds 27 1014 67 0 0.22 359 08:46 13.06.2020
1418 Clouds 24 1014 78 0 0.26 292 08:28 13.06.2020
1419 Clouds 24 1014 78 0 0.26 292 07:50 13.06.2020
1420 Clouds 22 1013 87 0 0.37 312 07:27 13.06.2020
1421 Clouds 22 1013 87 0 0.37 312 06:47 13.06.2020
1422 Clouds 21 1012 87 0 0.3 321 06:27 13.06.2020
1423 Clouds 21 1012 87 0 0.3 321 05:36 13.06.2020
1424 Clouds 21 1012 86 0 0.18 4 04:59 13.06.2020
1425 Clouds 21 1011 85 0 0.3 322 03:46 13.06.2020
1426 Clouds 22 1011 85 0 0.39 308 02:53 13.06.2020
1427 Clear 22 1012 84 0 0.51 298 02:25 13.06.2020
1428 Clouds 23 1012 78 0 0.89 284 01:26 13.06.2020
1429 Clouds 23 1012 78 0 0.89 284 00:58 13.06.2020
1430 Clouds 23 1012 78 0 0.89 284 00:38 13.06.2020
1431 Clouds 23 1012 78 0 0.83 276 00:19 13.06.2020
1432 Clouds 23 1012 78 0 0.83 276 23:40 12.06.2020
1433 Clouds 23 1012 77 0 0.84 277 23:18 12.06.2020
1434 Clouds 23 1012 77 0 0.84 277 22:56 12.06.2020
1435 Clouds 23 1012 77 0 0.84 277 22:37 12.06.2020
1436 Clouds 24 1011 75 0 0.8 286 22:18 12.06.2020
1437 Clouds 24 1011 75 0 0.8 286 21:44 12.06.2020
1438 Clouds 24 1011 73 0 0.81 276 21:24 12.06.2020
1439 Clouds 25 1011 73 0 0.53 342 20:57 12.06.2020
1440 Clouds 25 1011 73 0 0.53 342 20:39 12.06.2020
1441 Clouds 25 1010 73 0 0.5 283 20:20 12.06.2020
1442 Clouds 25 1010 73 0 0.5 283 19:46 12.06.2020
1443 Clouds 26 1009 71 0 0.81 261 19:22 12.06.2020
1444 Clouds 26 1009 71 0 0.81 261 18:59 12.06.2020
1445 Clouds 26 1009 71 0 0.81 261 18:37 12.06.2020
1446 Clouds 27 1009 70 0 0.81 263 18:18 12.06.2020
1447 Clouds 27 1009 70 0 0.81 263 17:44 12.06.2020
1448 Clouds 29 1008 63 0 0.63 263 17:26 12.06.2020
1449 Clouds 29 1008 63 0 0.63 263 16:47 12.06.2020
1450 Clouds 31 1008 56 0 0.5 256 16:24 12.06.2020
1451 Clouds 31 1008 56 0 0.5 256 15:59 12.06.2020
1452 Clouds 31 1008 56 0 0.5 256 15:41 12.06.2020
1453 Clouds 32 1008 45 0 0.5 198 15:19 12.06.2020
1454 Clouds 32 1008 45 0 0.5 198 14:42 12.06.2020
1455 Clouds 33 1010 44 0 0.75 179 14:22 12.06.2020
1456 Clouds 33 1010 44 0 0.75 179 13:57 12.06.2020
1457 Clouds 33 1010 44 0 0.75 179 13:39 12.06.2020
1458 Clouds 34 1011 44 0 0.6 182 13:18 12.06.2020
1459 Clouds 34 1011 44 0 0.6 182 12:40 12.06.2020
1460 Clouds 34 1011 44 0 0.6 182 12:40 12.06.2020
1461 Clouds 33 1012 48 0 0.43 199 12:19 12.06.2020
1462 Clouds 33 1012 48 0 0.43 199 11:49 12.06.2020
1463 Clouds 31 1013 54 0 0.5 161 11:23 12.06.2020
1464 Clouds 31 1013 54 0 0.5 161 10:58 12.06.2020
1465 Clouds 31 1013 54 0 0.5 161 10:40 12.06.2020
1466 Clouds 29 1013 63 0 0.84 149 10:21 12.06.2020
1467 Clouds 29 1013 63 0 0.84 149 09:44 12.06.2020
1468 Clouds 25 1014 79 0 1.07 145 09:21 12.06.2020
1469 Clouds 25 1014 79 0 1.07 145 08:43 12.06.2020
1470 Clouds 22 1014 92 0 1.03 131 08:24 12.06.2020
1471 Clouds 22 1014 92 0 1.03 131 07:43 12.06.2020
1472 Clouds 21 1013 97 0 1.01 126 07:24 12.06.2020
1473 Clouds 21 1013 97 0 1.01 126 06:44 12.06.2020
1474 Clouds 20 1012 98 0 0.94 138 06:24 12.06.2020
1475 Clouds 20 1012 98 0 0.94 138 05:50 12.06.2020
1476 Clouds 20 1012 98 0 0.95 130 05:26 12.06.2020
1477 Clouds 20 1012 98 0 0.98 113 03:58 12.06.2020
1478 Clouds 20 1012 97 0 0.43 131 02:43 12.06.2020
1479 Clouds 20 1012 97 0 1.02 262 01:51 12.06.2020
1480 Clouds 20 1012 96 0 0.27 279 01:23 12.06.2020
1481 Clouds 20 1012 96 0 0.27 279 00:42 12.06.2020
1482 Clouds 20 1013 96 0 0.68 49 00:24 12.06.2020
1483 Clouds 20 1013 96 0 0.68 49 23:58 11.06.2020
1484 Clouds 20 1013 96 0 0.68 49 23:40 11.06.2020
1485 Clouds 20 1013 96 0 0.68 49 23:40 11.06.2020
1486 Clouds 21 1014 96 0 0.98 55 23:20 11.06.2020
1487 Clouds 21 1014 96 0 0.98 55 22:57 11.06.2020
1488 Clouds 21 1014 96 0 0.98 55 22:38 11.06.2020
1489 Clouds 21 1014 96 0 1.2 48 22:19 11.06.2020
1490 Clouds 21 1014 96 0 1.2 48 21:54 11.06.2020
1491 Clouds 21 1014 96 0 1.2 48 21:36 11.06.2020
1492 Clouds 22 1014 97 0 1.32 47 21:18 11.06.2020
1493 Clouds 22 1013 93 0 0.85 85 20:43 11.06.2020
1494 Clouds 22 1013 92 0 0.76 78 20:21 11.06.2020
1495 Clouds 22 1013 92 0 0.76 78 19:44 11.06.2020
1496 Clouds 23 1012 90 0 0.89 77 19:23 11.06.2020
1497 Clouds 23 1012 90 0 0.89 77 18:58 11.06.2020
1498 Clouds 23 1012 90 0 0.89 77 18:40 11.06.2020
1499 Clouds 24 1011 88 0 0.85 63 18:20 11.06.2020
1500 Clouds 24 1011 88 0 0.85 63 17:56 11.06.2020
1501 Clouds 24 1011 88 0 0.85 63 17:37 11.06.2020
1502 Rain 25 1011 83 0 1.3 50 17:19 11.06.2020
1503 Rain 25 1011 83 0 1.3 50 16:45 11.06.2020
1504 Rain 26 1011 82 0 1.69 48 16:27 11.06.2020
1505 Rain 26 1011 82 0 1.69 48 15:59 11.06.2020
1506 Rain 26 1011 82 0 1.69 48 15:40 11.06.2020
1507 Rain 26 1011 82 0 1.75 36 15:22 11.06.2020
1508 Rain 26 1011 82 0 1.75 36 14:46 11.06.2020
1509 Rain 28 1012 73 0 1.37 16 14:22 11.06.2020
1510 Rain 28 1013 64 0 1.69 18 13:58 11.06.2020
1511 Rain 28 1013 64 0 1.69 18 13:39 11.06.2020
1512 Clouds 28 1014 64 0 1.69 6 13:21 11.06.2020
1513 Clouds 28 1014 64 0 1.69 6 12:59 11.06.2020
1514 Clouds 28 1014 64 0 1.69 6 12:39 11.06.2020
1515 Clouds 26 1015 72 0 1.27 8 12:20 11.06.2020
1516 Clouds 26 1015 72 0 1.27 8 11:58 11.06.2020
1517 Clouds 26 1015 72 0 1.27 8 11:40 11.06.2020
1518 Clouds 24 1015 82 0 1.03 42 11:21 11.06.2020
1519 Clouds 24 1015 82 0 1.03 42 11:21 11.06.2020
1520 Clouds 24 1015 82 0 1.03 42 10:57 11.06.2020
1521 Clouds 24 1015 82 0 1.03 42 10:38 11.06.2020
1522 Clouds 23 1015 91 0 1.01 52 10:18 11.06.2020
1523 Clouds 23 1015 91 0 1.01 52 09:42 11.06.2020
1524 Clouds 22 1015 93 0 1.01 45 09:23 11.06.2020
1525 Clouds 21 1016 95 0 0.56 31 08:44 11.06.2020
1526 Clouds 21 1015 96 0 0.69 35 08:20 11.06.2020
1527 Clouds 21 1015 96 0 0.69 35 07:57 11.06.2020
1528 Clouds 21 1015 96 0 0.69 35 07:57 11.06.2020
1529 Clouds 21 1015 96 0 0.69 35 07:39 11.06.2020
1530 Clouds 21 1014 97 0 0.8 37 07:20 11.06.2020
1531 Clouds 21 1014 96 0 1.14 323 06:28 11.06.2020
1532 Clouds 21 1014 96 0 1.14 323 05:36 11.06.2020
1533 Clouds 21 1013 97 0 1.47 307 03:50 11.06.2020
1534 Clouds 21 1013 97 0 1.54 307 03:23 11.06.2020
1535 Clouds 21 1012 98 0 1.24 321 02:32 11.06.2020
1536 Clouds 21 1013 97 0 1.51 305 01:50 11.06.2020
1537 Clouds 21 1014 97 0 1.81 304 01:24 11.06.2020
1538 Clouds 21 1014 97 0 1.81 304 00:50 11.06.2020
1539 Clouds 21 1014 97 0 1.93 305 00:27 11.06.2020
1540 Clouds 21 1014 97 0 1.93 305 23:47 10.06.2020
1541 Clouds 21 1014 97 0 1.54 296 23:27 10.06.2020
1542 Clouds 21 1014 97 0 1.54 296 22:57 10.06.2020
1543 Clouds 21 1014 97 0 1.54 296 22:38 10.06.2020
1544 Rain 22 1014 96 0 1.58 293 22:19 10.06.2020
1545 Rain 22 1014 96 0 1.58 293 21:56 10.06.2020
1546 Rain 22 1014 96 0 1.58 293 21:38 10.06.2020
1547 Clouds 22 1014 96 0 1.29 310 21:18 10.06.2020
1548 Clouds 22 1014 96 0 1.29 310 20:56 10.06.2020
1549 Clouds 22 1014 96 0 1.29 310 20:38 10.06.2020
1550 Rain 22 1013 96 0 1.23 310 20:20 10.06.2020
1551 Rain 22 1013 96 0 1.23 310 19:41 10.06.2020
1552 Rain 22 1013 95 0 1.12 303 19:20 10.06.2020
1553 Rain 22 1013 95 0 1.12 303 18:58 10.06.2020
1554 Rain 22 1013 95 0 1.12 303 18:58 10.06.2020
1555 Rain 22 1013 95 0 1.12 303 18:40 10.06.2020
1556 Rain 22 1012 95 0 1.24 300 18:19 10.06.2020
1557 Rain 22 1012 95 0 1.24 300 17:56 10.06.2020
1558 Rain 22 1012 95 0 1.24 300 17:37 10.06.2020
1559 Rain 22 1012 95 0 1.24 300 17:37 10.06.2020
1560 Rain 23 1011 95 0 1.2 296 17:19 10.06.2020
1561 Rain 23 1011 95 0 1.2 296 16:57 10.06.2020
1562 Rain 23 1011 95 0 1.2 296 16:39 10.06.2020
1563 Rain 24 1010 94 0 1.03 295 16:19 10.06.2020
1564 Rain 24 1010 94 0 1.03 295 15:40 10.06.2020
1565 Rain 25 1011 93 0 0.99 294 15:22 10.06.2020
1566 Rain 25 1011 93 0 0.99 294 14:56 10.06.2020
1567 Rain 25 1011 93 0 0.99 294 14:38 10.06.2020
1568 Rain 25 1012 92 0 0.74 328 14:20 10.06.2020
1569 Rain 25 1012 92 0 0.74 328 13:41 10.06.2020
1570 Rain 26 1012 91 0 0.62 332 13:21 10.06.2020
1571 Rain 26 1012 91 0 0.62 332 12:45 10.06.2020
1572 Rain 26 1013 90 0 0.76 327 12:23 10.06.2020
1573 Rain 26 1013 90 0 0.76 327 11:58 10.06.2020
1574 Rain 26 1013 90 0 0.76 327 11:40 10.06.2020
1575 Rain 25 1013 93 0 0.43 8 11:19 10.06.2020
1576 Rain 25 1013 93 0 0.43 8 10:57 10.06.2020
1577 Rain 25 1013 93 0 0.43 8 10:39 10.06.2020
1578 Rain 25 1013 86 0 0.74 7 10:20 10.06.2020
1579 Rain 25 1013 86 0 0.74 7 09:41 10.06.2020
1580 Rain 25 1013 86 0 0.74 7 09:41 10.06.2020
1581 Clouds 23 1013 91 0 0.91 340 09:23 10.06.2020
1582 Clouds 24 1013 89 0 0.91 334 08:44 10.06.2020
1583 Clouds 22 1014 95 0 0.63 312 08:24 10.06.2020
1584 Clouds 22 1014 95 0 0.63 312 07:58 10.06.2020
1585 Clouds 22 1014 95 0 0.63 312 07:38 10.06.2020
1586 Clouds 22 1013 96 0 0.73 285 07:20 10.06.2020
1587 Clouds 22 1013 96 0 0.73 285 06:44 10.06.2020
1588 Clouds 21 1011 96 0 0.82 312 06:22 10.06.2020
1589 Clouds 21 1011 96 0 0.82 312 05:55 10.06.2020
1590 Rain 21 1010 97 0 0.99 318 05:25 10.06.2020
1591 Rain 21 1010 97 0 0.99 318 04:35 10.06.2020
1592 Clouds 22 1010 95 0 1 319 02:56 10.06.2020
1593 Clouds 22 1010 93 0 0.69 305 02:20 10.06.2020
1594 Clouds 22 1010 93 0 0.69 305 01:36 10.06.2020
1595 Clouds 22 1011 93 0 0.51 278 00:39 10.06.2020
1596 Clouds 22 1011 94 0 0.51 261 00:21 10.06.2020
1597 Clouds 22 1011 94 0 0.51 261 23:56 09.06.2020
1598 Clouds 22 1011 94 0 0.51 261 23:37 09.06.2020
1599 Clouds 22 1011 94 0 0.66 316 23:19 09.06.2020
1600 Clouds 22 1011 94 0 0.66 316 22:55 09.06.2020
1601 Clouds 22 1011 94 0 0.66 316 22:37 09.06.2020
1602 Clouds 22 1010 94 0 0.87 318 22:18 09.06.2020
1603 Clouds 22 1010 94 0 0.87 318 21:55 09.06.2020
1604 Clouds 22 1010 94 0 0.87 318 21:37 09.06.2020
1605 Clouds 22 1010 94 0 0.87 318 21:37 09.06.2020
1606 Clouds 23 1010 93 0 0.89 294 21:19 09.06.2020
1607 Clouds 23 1010 93 0 1.08 303 20:56 09.06.2020
1608 Clouds 23 1010 93 0 1.08 303 20:38 09.06.2020
1609 Clouds 23 1010 92 0 1.04 294 20:18 09.06.2020
1610 Clouds 23 1010 92 0 1.04 294 19:55 09.06.2020
1611 Clouds 23 1010 92 0 1.04 294 19:37 09.06.2020
1612 Rain 24 1009 88 0 1.27 297 19:18 09.06.2020
1613 Rain 24 1009 88 0 1.27 297 18:45 09.06.2020
1614 Rain 26 1009 81 0 0.59 255 18:26 09.06.2020
1615 Rain 26 1009 81 0 0.59 255 17:57 09.06.2020
1616 Rain 26 1009 81 0 0.59 255 17:39 09.06.2020
1617 Rain 29 1008 64 0 0.66 178 17:21 09.06.2020
1618 Rain 29 1008 64 0 0.66 178 16:56 09.06.2020
1619 Rain 29 1008 64 0 0.66 178 16:37 09.06.2020
1620 Clouds 31 1007 54 0 0.98 161 16:19 09.06.2020
1621 Clouds 31 1007 54 0 0.98 161 15:40 09.06.2020
1622 Clouds 33 1008 45 0 1.07 152 15:21 09.06.2020
1623 Clouds 33 1008 45 0 1.07 152 14:57 09.06.2020
1624 Clouds 33 1008 45 0 1.07 152 14:38 09.06.2020
1625 Clouds 34 1009 43 0 0.95 163 14:19 09.06.2020
1626 Clouds 33 1009 44 0 1.06 177 13:54 09.06.2020
1627 Clouds 33 1009 44 0 1.06 177 13:36 09.06.2020
1628 Clouds 33 1009 44 0 1.06 177 13:36 09.06.2020
1629 Clouds 33 1010 45 0 0.92 192 13:18 09.06.2020
1630 Clouds 33 1010 45 0 0.92 192 12:41 09.06.2020
1631 Clouds 33 1011 48 0 0.34 211 12:20 09.06.2020
1632 Clouds 33 1011 48 0 0.34 211 11:56 09.06.2020
1633 Clouds 33 1011 48 0 0.34 211 11:37 09.06.2020
1634 Clouds 33 1011 48 0 0.34 211 11:37 09.06.2020
1635 Clouds 32 1012 52 0 0.12 170 11:19 09.06.2020
1636 Clouds 32 1012 52 0 0.12 170 10:45 09.06.2020
1637 Clouds 29 1013 60 0 0.32 80 10:27 09.06.2020
1638 Clouds 29 1013 60 0 0.32 80 09:59 09.06.2020
1639 Clouds 29 1013 60 0 0.32 80 09:39 09.06.2020
1640 Clouds 24 1013 84 0 0.53 66 09:19 09.06.2020
1641 Clouds 24 1013 84 0 0.53 66 08:40 09.06.2020
1642 Clouds 22 1013 90 0 0.04 12 08:21 09.06.2020
1643 Clouds 22 1013 90 0 0.04 12 08:21 09.06.2020
1644 Clouds 22 1013 90 0 0.04 12 07:43 09.06.2020
1645 Clouds 21 1012 92 0 0.36 244 07:23 09.06.2020
1646 Clouds 21 1012 92 0 0.36 244 06:56 09.06.2020
1647 Clouds 21 1012 92 0 0.36 244 06:36 09.06.2020
1648 Clear 20 1011 94 0 0.41 273 05:48 09.06.2020
1649 Clear 21 1009 94 0 0.76 336 04:22 09.06.2020
1650 Clear 21 1009 94 0 0.54 329 02:47 09.06.2020
1651 Clear 21 1010 93 0 0.28 20 01:38 09.06.2020
1652 Clear 22 1011 93 0 0.45 86 01:19 09.06.2020
1653 Clear 22 1011 93 0 0.45 86 00:44 09.06.2020
1654 Clear 22 1011 92 0 0.31 115 00:19 09.06.2020
1655 Clear 22 1011 92 0 0.31 115 23:42 08.06.2020
1656 Clear 22 1011 93 0 0.24 210 23:22 08.06.2020
1657 Clear 22 1011 93 0 0.24 210 22:59 08.06.2020
1658 Clear 22 1011 93 0 0.24 210 22:39 08.06.2020
1659 Clear 22 1011 93 0 0.58 215 22:20 08.06.2020
1660 Clear 22 1011 93 0 0.58 215 21:56 08.06.2020
1661 Clear 22 1011 93 0 0.58 215 21:38 08.06.2020
1662 Clouds 22 1010 93 0 0.68 195 21:19 08.06.2020
1663 Clouds 22 1010 93 0 0.68 195 20:55 08.06.2020
1664 Clouds 22 1010 93 0 0.68 195 20:37 08.06.2020
1665 Clouds 23 1010 92 0 0.96 206 20:18 08.06.2020
1666 Clouds 23 1010 92 0 0.96 206 20:18 08.06.2020
1667 Clouds 23 1010 92 0 0.96 206 19:43 08.06.2020
1668 Clouds 23 1010 93 0 1.03 225 19:21 08.06.2020
1669 Clouds 23 1010 93 0 1.03 225 18:44 08.06.2020
1670 Rain 24 1009 92 0 1.02 215 18:22 08.06.2020
1671 Rain 24 1009 92 0 1.02 215 17:58 08.06.2020
1672 Rain 24 1009 92 0 1.02 215 17:40 08.06.2020
1673 Rain 26 1008 89 0 1.32 203 17:22 08.06.2020
1674 Rain 26 1008 89 0 1.32 203 16:58 08.06.2020
1675 Rain 26 1008 89 0 1.32 203 16:58 08.06.2020
1676 Rain 26 1008 89 0 1.32 203 16:40 08.06.2020
1677 Rain 28 1008 75 0 1.46 221 16:21 08.06.2020
1678 Rain 28 1008 75 0 1.46 221 15:44 08.06.2020
1679 Rain 30 1008 65 0 1.42 267 15:22 08.06.2020
1680 Rain 30 1008 65 0 1.42 267 14:58 08.06.2020
1681 Clouds 30 1012 70 10000 3.1 240 14:39 08.06.2020
1682 Clouds 30 1012 70 10000 3.1 240 14:19 08.06.2020
1683 Clouds 30 1012 70 10000 3.1 240 13:43 08.06.2020
1684 Clouds 30 1012 70 10000 3.1 240 13:24 08.06.2020
1685 Clouds 29 1013 74 10000 3.1 200 12:43 08.06.2020
1686 Clouds 28 1013 78 10000 2.1 160 12:21 08.06.2020
1687 Clouds 28 1013 78 10000 2.1 160 11:59 08.06.2020
1688 Clouds 28 1013 78 10000 2.1 160 11:41 08.06.2020
1689 Clouds 28 1013 78 10000 2.1 160 11:40 08.06.2020
1690 Clouds 28 1013 78 10000 2.1 160 11:22 08.06.2020
1691 Rain 25 1013 79 0 1.59 344 10:58 08.06.2020
1692 Rain 25 1013 79 0 1.59 344 10:38 08.06.2020
1693 Rain 25 1013 79 0 1.59 344 10:38 08.06.2020
1694 Clouds 26 1013 73 0 1.57 336 10:20 08.06.2020
1695 Clouds 26 1013 73 0 1.57 336 09:58 08.06.2020
1696 Clouds 26 1013 73 0 1.57 336 09:58 08.06.2020
1697 Mist 23 1014 94 3000 2.1 90 09:39 08.06.2020
1698 Mist 23 1014 94 3000 2.1 90 09:21 08.06.2020
1699 Mist 23 1014 94 3000 2.1 90 08:46 08.06.2020
1700 Mist 23 1014 94 3000 2.1 90 08:22 08.06.2020
1701 Clouds 23 1013 91 0 0.33 323 07:46 08.06.2020
1702 Rain 22 1012 96 0 0.68 344 07:23 08.06.2020
1703 Rain 22 1012 96 0 0.68 344 06:50 08.06.2020
1704 Rain 22 1012 96 0 0.68 344 06:30 08.06.2020
1705 Rain 21 1011 96 0 1.07 336 05:51 08.06.2020
1706 Clouds 22 1010 93 0 0.41 187 04:29 08.06.2020
1707 Clouds 22 1010 93 0 0.33 142 02:32 08.06.2020
1708 Clouds 22 1010 88 0 0.54 142 01:49 08.06.2020
1709 Clouds 22 1010 88 0 0.54 142 01:30 08.06.2020
1710 Clouds 23 1011 84 0 0.88 170 00:30 08.06.2020
1711 Clouds 23 1011 82 0 0.38 197 23:42 07.06.2020
1712 Clouds 23 1011 84 0 0.63 204 23:20 07.06.2020
1713 Clouds 23 1011 84 0 0.63 204 22:59 07.06.2020
1714 Clouds 23 1011 84 0 0.63 204 22:39 07.06.2020
1715 Clouds 23 1010 85 0 0.88 200 22:19 07.06.2020
1716 Clouds 23 1010 85 0 0.88 200 21:59 07.06.2020
1717 Clouds 23 1010 85 0 0.88 200 21:38 07.06.2020
1718 Clear 24 1010 85 0 1.1 224 21:20 07.06.2020
1719 Clear 24 1010 86 0 0.96 237 21:20 07.06.2020
1720 Clear 24 1010 86 0 0.96 237 21:20 07.06.2020
1721 Clear 24 1010 85 0 1.1 224 21:20 07.06.2020
1722 Clear 24 1010 86 0 0.96 237 20:56 07.06.2020
1723 Rain 23 1010 90 0 1.52 127 20:38 07.06.2020
1724 Rain 24 1009 85 0 1.13 232 20:18 07.06.2020
1725 Rain 24 1009 85 0 1.13 232 19:55 07.06.2020
1726 Rain 24 1009 85 0 1.13 232 19:37 07.06.2020
1727 Rain 25 1009 81 0 1.24 239 19:19 07.06.2020
1728 Clouds 25 1009 81 0 1.24 239 18:54 07.06.2020
1729 Rain 25 1009 81 0 1.24 239 18:36 07.06.2020
1730 Rain 27 1008 71 0 0.86 10 18:18 07.06.2020
1731 Rain 27 1008 71 0 0.86 10 17:41 07.06.2020
1732 Clouds 31 1008 61 0 1.28 263 17:22 07.06.2020
1733 Clouds 31 1008 61 0 1.28 263 16:45 07.06.2020
1734 Rain 31 1008 59 0 1.23 281 16:23 07.06.2020
1735 Rain 31 1008 59 0 1.23 281 15:45 07.06.2020
1736 Clouds 31 1008 56 0 1.01 293 15:24 07.06.2020
1737 Clouds 31 1008 56 0 1.01 293 15:00 07.06.2020
1738 Clouds 31 1008 56 0 1.01 293 14:38 07.06.2020
1739 Clouds 34 1009 44 0 0.88 285 14:19 07.06.2020
1740 Clouds 34 1009 42 0 0.83 246 13:45 07.06.2020
1741 Clouds 34 1009 42 0 0.83 246 13:45 07.06.2020
1742 Clouds 34 1009 42 0 0.83 246 13:45 07.06.2020
1743 Clouds 34 1009 42 0 0.83 246 13:45 07.06.2020
1744 Clouds 35 1010 41 0 0.48 272 13:20 07.06.2020
1745 Clouds 35 1010 41 0 0.48 272 12:44 07.06.2020
1746 Clouds 34 1011 45 0 0.73 348 12:26 07.06.2020
1747 Clouds 34 1011 45 0 0.73 348 12:26 07.06.2020
1748 Clouds 34 1011 45 0 0.73 348 11:56 07.06.2020
1749 Clouds 34 1011 45 0 0.73 348 11:56 07.06.2020
1750 Clouds 34 1011 45 0 0.73 348 11:56 07.06.2020
1751 Clouds 34 1011 45 0 0.73 348 11:38 07.06.2020
1752 Clouds 32 1012 50 0 0.96 3 11:20 07.06.2020
1753 Clouds 32 1012 50 0 0.96 3 10:58 07.06.2020
1754 Clouds 32 1012 50 0 0.96 3 10:39 07.06.2020
1755 Clouds 30 1013 57 0 0.97 13 10:19 07.06.2020
1756 Clouds 30 1013 57 0 0.97 13 09:56 07.06.2020
1757 Clouds 30 1013 57 0 0.97 13 09:38 07.06.2020
1758 Clouds 27 1013 66 0 1.24 357 09:19 07.06.2020
1759 Clouds 27 1013 67 0 1.18 3 08:45 07.06.2020
1760 Mist 22 1014 94 1500 1.13 5 08:23 07.06.2020
1761 Mist 22 1014 94 1500 1.13 5 07:47 07.06.2020
1762 Mist 22 1014 94 1500 1.13 5 07:28 07.06.2020
1763 Clear 22 1012 87 0 0.88 10 06:38 07.06.2020
1764 Clear 21 1012 90 0 0.78 31 05:36 07.06.2020
1765 Clear 21 1011 89 0 0.18 216 04:20 07.06.2020
1766 Clear 21 1011 89 0 0.18 216 04:20 07.06.2020
1767 Clear 22 1010 88 0 0.21 239 02:31 07.06.2020
1768 Clear 22 1010 88 0 0.21 239 02:31 07.06.2020
1769 Clouds 22 1011 87 0 0.64 355 01:50 07.06.2020
1770 Clouds 23 1011 84 0 0.92 8 01:25 07.06.2020
1771 Clouds 23 1011 84 0 0.92 8 00:42 07.06.2020
1772 Clouds 23 1011 83 0 0.41 59 00:18 07.06.2020
1773 Clouds 23 1011 83 0 0.41 59 23:57 06.06.2020
1774 Clouds 23 1011 83 0 0.41 59 23:36 06.06.2020
1775 Clouds 23 1011 81 0 0.17 78 23:18 06.06.2020
1776 Clouds 23 1011 81 0 0.17 78 22:56 06.06.2020
1777 Clouds 23 1011 81 0 0.17 78 22:37 06.06.2020
1778 Clouds 24 1011 79 0 0.5 318 22:18 06.06.2020
1779 Clouds 24 1011 79 0 0.5 318 21:43 06.06.2020
1780 Clear 24 1011 74 0 0.74 340 21:22 06.06.2020
1781 Clear 24 1010 78 0 1.22 155 20:56 06.06.2020
1782 Clear 24 1010 78 0 1.22 155 20:37 06.06.2020
1783 Clouds 26 1010 70 0 1.29 162 20:18 06.06.2020
1784 Clouds 26 1010 70 0 1.29 162 19:56 06.06.2020
1785 Clouds 26 1010 70 0 1.29 162 19:36 06.06.2020
1786 Clouds 27 1010 65 0 0.27 257 19:18 06.06.2020
1787 Clouds 27 1010 65 0 0.27 257 18:42 06.06.2020
1788 Clouds 28 1009 64 0 0.3 332 18:24 06.06.2020
1789 Clouds 28 1009 64 0 0.3 332 17:57 06.06.2020
1790 Clouds 28 1009 64 0 0.3 332 17:39 06.06.2020
1791 Clouds 32 1013 59 8000 3.1 360 17:18 06.06.2020
1792 Clouds 32 1009 53 0 0.27 172 16:40 06.06.2020
1793 Clouds 33 1009 43 0 0.57 170 16:21 06.06.2020
1794 Clouds 33 1009 43 0 0.57 170 15:55 06.06.2020
1795 Clouds 32 1013 59 8000 4.1 320 15:36 06.06.2020
1796 Clouds 32 1013 59 8000 4.1 320 15:18 06.06.2020
1797 Clouds 32 1013 59 8000 4.1 320 14:39 06.06.2020
1798 Clouds 32 1013 59 8000 4.1 320 14:20 06.06.2020
1799 Clouds 32 1014 59 8000 4.1 320 13:55 06.06.2020
1800 Clouds 32 1014 59 8000 4.1 320 13:37 06.06.2020
1801 Clouds 32 1012 52 0 0.63 36 13:18 06.06.2020
1802 Clouds 32 1012 52 0 0.63 36 12:42 06.06.2020
1803 Clouds 30 1016 66 8000 3.1 30 12:23 06.06.2020
1804 Clouds 30 1016 66 8000 3.1 30 11:58 06.06.2020
1805 Clouds 30 1016 66 8000 3.1 30 11:38 06.06.2020
1806 Clouds 30 1016 66 8000 3.1 30 11:19 06.06.2020
1807 Rain 28 1014 75 0 1.49 22 10:57 06.06.2020
1808 Rain 28 1014 75 0 1.49 22 10:39 06.06.2020
1809 Clouds 26 1015 77 0 1.72 29 10:20 06.06.2020
1810 Clouds 26 1015 77 0 1.72 29 09:45 06.06.2020
1811 Clouds 24 1015 89 0 1.41 68 09:27 06.06.2020
1812 Clouds 23 1015 94 0 1.57 50 08:56 06.06.2020
1813 Clouds 23 1015 94 0 1.57 50 08:38 06.06.2020
1814 Rain 22 1015 95 0 1.47 74 08:18 06.06.2020
1815 Rain 22 1015 95 0 1.47 74 07:45 06.06.2020
1816 Mist 21 1014 100 4000 2.1 250 07:20 06.06.2020
1817 Mist 21 1014 100 4000 2.1 250 06:46 06.06.2020
1818 Mist 21 1014 100 4000 2.1 250 06:27 06.06.2020
1819 Rain 21 1014 94 0 1.88 43 05:50 06.06.2020
1820 Rain 22 1013 91 0 1.3 61 05:25 06.06.2020
1821 Rain 22 1013 91 0 1.3 61 04:38 06.06.2020
1822 Clouds 22 1011 87 0 0.52 185 02:36 06.06.2020
1823 Clouds 22 1012 91 0 0.66 189 01:42 06.06.2020
1824 Rain 22 1013 90 0 0.3 175 01:18 06.06.2020
1825 Rain 22 1013 90 0 0.3 175 00:41 06.06.2020
1826 Rain 23 1013 84 0 0.67 0 00:23 06.06.2020
1827 Rain 23 1013 84 0 0.67 0 23:40 05.06.2020
1828 Clouds 23 1013 81 0 0.55 272 23:21 05.06.2020
1829 Clouds 23 1013 81 0 0.55 272 22:59 05.06.2020
1830 Clouds 23 1013 81 0 0.55 272 22:41 05.06.2020
1831 Clouds 24 1013 79 0 0.83 224 22:22 05.06.2020
1832 Clouds 24 1013 79 0 0.83 224 21:57 05.06.2020
1833 Clouds 24 1013 79 0 0.83 224 21:39 05.06.2020
1834 Clear 25 1012 75 0 0.19 239 21:19 05.06.2020
1835 Clear 25 1012 75 0 0.19 239 20:55 05.06.2020
1836 Clear 25 1012 75 0 0.19 239 20:37 05.06.2020
1837 Clouds 25 1011 73 0 0.6 283 20:18 05.06.2020
1838 Clouds 25 1011 73 0 0.6 283 19:40 05.06.2020
1839 Clouds 26 1010 71 0 0.87 247 19:21 05.06.2020
1840 Clouds 26 1010 71 0 0.87 247 18:40 05.06.2020
1841 Thunderstorm 23 1011 88 6000 3.1 360 18:21 05.06.2020
1842 Thunderstorm 23 1011 88 6000 3.1 360 17:59 05.06.2020
1843 Clouds 28 1009 69 0 0.53 232 17:41 05.06.2020
1844 Thunderstorm 28 1012 74 6000 3.1 20 17:22 05.06.2020
1845 Thunderstorm 28 1012 74 6000 3.1 20 16:58 05.06.2020
1846 Thunderstorm 28 1012 74 6000 3.1 20 16:37 05.06.2020
1847 Thunderstorm 28 1012 74 6000 3.1 20 16:19 05.06.2020
1848 Clouds 32 1009 52 0 0.82 190 15:40 05.06.2020
1849 Clouds 32 1013 59 9000 0.77 181 15:21 05.06.2020
1850 Clouds 32 1013 59 9000 0.77 181 14:58 05.06.2020
1851 Clouds 32 1013 59 9000 0.77 181 14:39 05.06.2020
1852 Clouds 32 1013 59 9000 0.77 181 14:39 05.06.2020
1853 Clouds 32 1013 59 9000 1.29 166 14:21 05.06.2020
1854 Clear 34 1010 41 0 1.37 166 13:47 05.06.2020
1855 Clouds 31 1015 66 8000 1.5 0 13:28 05.06.2020
1856 Clouds 31 1015 66 8000 1.5 0 12:57 05.06.2020
1857 Clouds 31 1015 66 8000 1.5 0 12:38 05.06.2020
1858 Clouds 31 1015 66 8000 1.5 0 12:19 05.06.2020
1859 Clear 33 1012 48 0 0.95 156 11:43 05.06.2020
1860 Clear 29 1016 70 7000 3.1 360 11:24 05.06.2020
1861 Clear 29 1016 70 7000 3.1 360 10:58 05.06.2020
1862 Clear 29 1016 70 7000 3.1 360 10:39 05.06.2020
1863 Clear 29 1016 70 7000 3.1 360 10:39 05.06.2020
1864 Clear 29 1016 70 7000 3.1 360 10:19 05.06.2020
1865 Clear 30 1014 61 0 0.47 96 09:57 05.06.2020
1866 Clear 30 1014 61 0 0.47 96 09:37 05.06.2020
1867 Clear 27 1014 74 0 0.71 40 09:19 05.06.2020
1868 Clear 27 1014 74 0 0.71 40 08:57 05.06.2020
1869 Clear 27 1014 74 0 0.71 40 08:38 05.06.2020
1870 Clear 24 1014 88 0 0.58 34 08:18 05.06.2020
1871 Clear 24 1014 88 0 0.58 34 07:48 05.06.2020
1872 Clear 24 1014 88 0 0.58 34 07:30 05.06.2020
1873 Clear 21 1014 95 0 0.54 44 06:37 05.06.2020
1874 Clear 21 1012 97 0 0.74 22 05:22 05.06.2020
1875 Clear 21 1012 98 0 0.61 18 04:27 05.06.2020
1876 Clear 21 1012 98 0 0.61 18 03:29 05.06.2020
1877 Clear 21 1012 97 0 0.28 325 02:28 05.06.2020
1878 Clouds 21 1012 97 0 0.7 233 01:58 05.06.2020
1879 Clouds 21 1012 97 0 0.7 233 01:30 05.06.2020
1880 Clouds 21 1013 98 0 0.87 243 00:43 05.06.2020
1881 Clouds 22 1013 96 0 1.25 233 00:21 05.06.2020
1882 Clouds 22 1013 96 0 1.25 233 23:47 04.06.2020
1883 Clouds 22 1013 96 0 1.25 233 23:29 04.06.2020
1884 Clouds 22 1013 95 0 0.67 203 22:57 04.06.2020
1885 Clouds 22 1013 95 0 0.67 203 22:37 04.06.2020
1886 Clouds 22 1013 95 0 0.38 68 22:18 04.06.2020
1887 Clouds 22 1013 95 0 0.38 68 21:57 04.06.2020
1888 Clouds 22 1013 95 0 0.38 68 21:38 04.06.2020
1889 Clouds 22 1013 94 0 0.47 96 21:19 04.06.2020
1890 Clouds 22 1013 94 0 0.47 96 20:55 04.06.2020
1891 Clouds 22 1013 94 0 0.47 96 20:37 04.06.2020
1892 Clouds 22 1013 94 0 0.35 66 20:18 04.06.2020
1893 Clouds 22 1013 94 0 0.35 66 19:40 04.06.2020
1894 Clouds 22 1012 95 0 0.76 2 19:21 04.06.2020
1895 Clouds 22 1012 95 0 0.76 2 19:21 04.06.2020
1896 Clouds 22 1012 95 0 0.76 2 18:56 04.06.2020
1897 Clouds 22 1012 95 0 0.76 2 18:38 04.06.2020
1898 Clouds 30 1012 66 8000 2.1 340 18:20 04.06.2020
1899 Clouds 30 1012 66 8000 2.1 340 17:43 04.06.2020
1900 Clouds 30 1012 66 8000 2.1 340 17:21 04.06.2020
1901 Rain 23 1011 95 0 0.93 53 16:57 04.06.2020
1902 Rain 23 1011 95 0 0.93 53 16:39 04.06.2020
1903 Rain 24 1010 94 0 1.15 32 16:18 04.06.2020
1904 Rain 24 1010 94 0 1.15 32 15:43 04.06.2020
1905 Clouds 30 1013 66 10000 3.1 340 15:24 04.06.2020
1906 Clouds 30 1013 66 10000 3.1 340 14:41 04.06.2020
1907 Clouds 30 1013 66 10000 3.1 340 14:22 04.06.2020
1908 Clouds 30 1013 66 10000 3.1 340 14:22 04.06.2020
1909 Rain 28 1011 79 0 0.98 22 13:58 04.06.2020
1910 Rain 28 1011 79 0 0.98 22 13:39 04.06.2020
1911 Clouds 29 1015 70 10000 1.62 40 13:20 04.06.2020
1912 Clouds 29 1015 70 10000 1.62 40 12:58 04.06.2020
1913 Clouds 29 1015 70 10000 1.62 40 12:58 04.06.2020
1914 Clouds 29 1015 70 10000 1.62 40 12:40 04.06.2020
1915 Clouds 29 1015 70 10000 1.97 35 12:21 04.06.2020
1916 Clouds 26 1015 78 10000 2.1 90 11:54 04.06.2020
1917 Clouds 26 1015 78 10000 2.1 90 11:36 04.06.2020
1918 Clouds 26 1015 78 10000 2.1 90 11:18 04.06.2020
1919 Clouds 25 1016 83 10000 1.28 32 10:39 04.06.2020
1920 Clouds 25 1016 83 10000 0.62 52 10:21 04.06.2020
1921 Clouds 23 1016 88 8000 0.62 52 09:56 04.06.2020
1922 Clouds 23 1016 88 8000 0.62 52 09:38 04.06.2020
1923 Clouds 23 1016 88 8000 0.53 347 09:19 04.06.2020
1924 Clouds 23 1016 88 8000 0.53 347 09:19 04.06.2020
1925 Clouds 27 1014 74 0 0.59 322 08:41 04.06.2020
1926 Mist 21 1014 100 4000 2.1 0 08:22 04.06.2020
1927 Mist 21 1014 100 4000 2.1 0 07:33 04.06.2020
1928 Clouds 22 1013 95 0 0.31 312 06:58 04.06.2020
1929 Clouds 22 1013 95 0 0.31 312 06:58 04.06.2020
1930 Clouds 22 1013 95 0 0.31 312 06:39 04.06.2020
1931 Clouds 22 1013 95 0 0.31 312 06:39 04.06.2020
1932 Clouds 21 1012 97 0 0.5 327 06:20 04.06.2020
1933 Clouds 21 1012 97 0 0.5 327 05:33 04.06.2020
1934 Clouds 21 1012 97 0 0.5 327 05:33 04.06.2020
1935 Clouds 21 1011 97 0 0.64 296 03:50 04.06.2020
1936 Clouds 21 1011 97 0 0.87 312 02:21 04.06.2020
1937 Clouds 21 1011 97 0 0.87 312 01:39 04.06.2020
1938 Clouds 22 1012 96 0 1.01 302 01:18 04.06.2020
1939 Clouds 22 1012 96 0 1.01 300 00:20 04.06.2020
1940 Clouds 22 1012 96 0 1.01 300 23:39 03.06.2020
1941 Clouds 22 1012 96 0 0.87 286 23:19 03.06.2020
1942 Clouds 22 1012 96 0 0.87 286 22:56 03.06.2020
1943 Clouds 22 1012 96 0 0.87 286 22:38 03.06.2020
1944 Clouds 22 1012 97 0 0.99 296 22:18 03.06.2020
1945 Clouds 22 1012 97 0 0.99 296 21:55 03.06.2020
1946 Clouds 22 1012 97 0 0.99 296 21:37 03.06.2020
1947 Rain 22 1012 97 0 1.38 307 21:19 03.06.2020
1948 Clouds 22 1012 97 0 1.13 315 20:42 03.06.2020
1949 Rain 22 1011 97 0 1.19 328 20:21 03.06.2020
1950 Rain 22 1011 97 0 1.19 328 19:58 03.06.2020
1951 Rain 22 1011 97 0 1.19 328 19:39 03.06.2020
1952 Rain 23 1011 96 0 1.6 334 19:21 03.06.2020
1953 Rain 23 1011 96 0 1.6 334 18:59 03.06.2020
1954 Rain 23 1011 96 0 1.6 334 18:41 03.06.2020
1955 Rain 24 1010 90 0 1.51 2 18:20 03.06.2020
1956 Rain 24 1010 90 0 1.51 2 17:45 03.06.2020
1957 Thunderstorm 26 1011 83 8000 4.1 330 17:23 03.06.2020
1958 Thunderstorm 26 1011 83 8000 4.1 330 16:59 03.06.2020
1959 Rain 29 1009 66 0 0.46 11 16:41 03.06.2020
1960 Thunderstorm 28 1012 78 6000 3.1 360 16:19 03.06.2020
1961 Thunderstorm 28 1012 78 6000 3.1 360 15:55 03.06.2020
1962 Thunderstorm 28 1012 78 6000 3.1 360 15:37 03.06.2020
1963 Thunderstorm 28 1012 78 6000 3.1 360 15:18 03.06.2020
1964 Clouds 29 1012 74 8000 3.1 300 14:44 03.06.2020
1965 Clouds 29 1012 74 8000 3.1 300 14:24 03.06.2020
1966 Clouds 30 1012 66 8000 4.1 290 13:41 03.06.2020
1967 Clouds 30 1012 66 8000 4.1 290 13:22 03.06.2020
1968 Rain 31 1011 60 0 1.99 179 12:57 03.06.2020
1969 Rain 31 1011 60 0 1.99 179 12:39 03.06.2020
1970 Rain 32 1011 55 0 1.34 218 12:19 03.06.2020
1971 Rain 32 1011 55 0 1.34 218 11:44 03.06.2020
1972 Rain 31 1012 57 0 0.86 227 11:26 03.06.2020
1973 Rain 31 1012 57 0 0.86 227 10:55 03.06.2020
1974 Rain 31 1012 57 0 0.86 227 10:36 03.06.2020
1975 Rain 29 1013 65 0 0.53 185 10:18 03.06.2020
1976 Rain 29 1013 65 0 0.53 185 09:41 03.06.2020
1977 Clouds 27 1013 75 0 0.6 359 09:19 03.06.2020
1978 Clouds 27 1013 71 0 1.08 336 08:47 03.06.2020
1979 Clouds 24 1013 83 0 0.87 345 08:22 03.06.2020
1980 Clouds 24 1013 83 0 0.87 345 07:57 03.06.2020
1981 Clouds 24 1013 83 0 0.87 345 07:36 03.06.2020
1982 Clouds 23 1012 86 0 0.49 337 07:18 03.06.2020
1983 Clouds 23 1012 86 0 0.49 337 06:44 03.06.2020
1984 Clouds 22 1012 89 0 0.28 271 06:22 03.06.2020
1985 Clouds 22 1012 89 0 0.28 271 05:44 03.06.2020
1986 Clouds 22 1010 88 0 0.18 276 04:20 03.06.2020
1987 Clouds 22 1010 88 0 0.18 276 03:41 03.06.2020
1988 Clouds 22 1010 87 0 0.25 271 02:34 03.06.2020
1989 Clouds 23 1010 83 0 0.36 232 01:44 03.06.2020
1990 Clouds 23 1011 83 0 0.37 237 00:39 03.06.2020
1991 Clouds 24 1011 82 0 0.23 311 00:19 03.06.2020
1992 Clouds 24 1011 82 0 0.23 311 23:45 02.06.2020
1993 Clouds 24 1011 79 0 0.37 343 23:27 02.06.2020
1994 Clouds 24 1011 79 0 0.37 343 22:55 02.06.2020
1995 Clouds 24 1011 79 0 0.37 343 22:36 02.06.2020
1996 Clouds 25 1010 77 0 0.41 340 22:18 02.06.2020
1997 Clouds 25 1010 77 0 0.41 340 21:54 02.06.2020
1998 Clouds 25 1010 77 0 0.41 340 21:36 02.06.2020
1999 Clouds 25 1010 77 0 0.41 340 21:36 02.06.2020
2000 Clear 25 1010 76 0 0.37 147 21:18 02.06.2020
2001 Clear 25 1010 76 0 0.37 147 20:42 02.06.2020
2002 Clouds 25 1010 74 0 0.39 105 20:23 02.06.2020
2003 Clouds 25 1010 74 0 0.39 105 19:46 02.06.2020
2004 Clouds 31 1010 66 8000 2.1 160 19:27 02.06.2020
2005 Clouds 31 1010 66 8000 2.1 160 18:59 02.06.2020
2006 Clouds 26 1009 70 0 0.46 51 18:41 02.06.2020
2007 Clouds 28 1009 66 0 0.31 22 18:21 02.06.2020
2008 Clouds 28 1009 66 0 0.31 22 17:59 02.06.2020
2009 Clouds 28 1009 66 0 0.31 22 17:41 02.06.2020
2010 Clouds 31 1008 56 0 0.15 151 17:21 02.06.2020
2011 Clouds 31 1008 56 0 0.15 151 16:56 02.06.2020
2012 Clouds 31 1008 56 0 0.15 151 16:38 02.06.2020
2013 Clouds 32 1008 45 0 0.66 148 16:20 02.06.2020
2014 Clouds 32 1008 45 0 0.66 148 15:42 02.06.2020
2015 Clouds 33 1008 45 0 1.01 111 15:23 02.06.2020
2016 Clouds 33 1008 45 0 1.01 111 14:49 02.06.2020
2017 Rain 31 1009 56 0 0.98 24 14:30 02.06.2020
2018 Rain 30 1010 59 0 1.76 41 13:58 02.06.2020
2019 Rain 30 1010 59 0 1.76 41 13:39 02.06.2020
2020 Clouds 32 1013 59 10000 3.1 200 13:19 02.06.2020
2021 Clouds 32 1013 59 10000 3.1 200 12:58 02.06.2020
2022 Clouds 32 1013 59 10000 3.1 200 12:39 02.06.2020
2023 Clouds 32 1013 59 10000 3.1 200 12:20 02.06.2020
2024 Rain 33 1011 48 0 1.38 115 11:55 02.06.2020
2025 Rain 33 1011 48 0 1.38 115 11:36 02.06.2020
2026 Rain 32 1012 53 0 1.11 161 11:18 02.06.2020
2027 Rain 32 1012 53 0 1.11 161 10:46 02.06.2020
2028 Clouds 30 1013 59 0 0.57 147 10:28 02.06.2020
2029 Clouds 30 1013 59 0 0.57 147 09:55 02.06.2020
2030 Clouds 31 1013 60 0 0.46 24 09:36 02.06.2020
2031 Clouds 27 1013 74 0 0.63 37 09:18 02.06.2020
2032 Clouds 27 1013 74 0 0.63 37 08:45 02.06.2020
2033 Clear 24 1013 86 0 0.57 45 08:20 02.06.2020
2034 Clear 24 1013 86 0 0.57 45 07:44 02.06.2020
2035 Clear 22 1013 94 0 0.81 36 07:25 02.06.2020
2036 Clear 22 1013 94 0 0.81 36 06:43 02.06.2020
2037 Clear 22 1013 94 0 0.81 36 06:43 02.06.2020
2038 Rain 21 1012 96 0 0.87 57 05:54 02.06.2020
2039 Rain 21 1011 94 0 0.56 106 04:57 02.06.2020
2040 Clear 22 1011 92 0 0.88 158 03:21 02.06.2020
2041 Clouds 22 1011 91 0 0.98 151 02:24 02.06.2020
2042 Clouds 22 1012 85 0 0.34 317 00:58 02.06.2020
2043 Clouds 23 1011 84 0 0.45 279 00:25 02.06.2020
2044 Clouds 23 1011 84 0 0.45 279 23:54 01.06.2020
2045 Clouds 23 1011 84 0 0.45 279 23:36 01.06.2020
2046 Clouds 23 1011 84 0 0.45 279 23:36 01.06.2020
2047 Clouds 23 1011 82 0 0.72 245 23:18 01.06.2020
2048 Clouds 23 1011 82 0 0.72 245 22:41 01.06.2020
2049 Clear 23 1011 81 0 0.72 230 22:20 01.06.2020
2050 Clear 23 1011 81 0 0.72 230 21:57 01.06.2020
2051 Clear 23 1011 81 0 0.72 230 21:37 01.06.2020
2052 Clear 24 1011 77 0 1 189 21:18 01.06.2020
2053 Rain 23 1011 85 0 1.17 184 20:55 01.06.2020
2054 Rain 23 1011 85 0 1.17 184 20:36 01.06.2020
2055 Rain 23 1011 85 0 1.17 184 20:36 01.06.2020
2056 Rain 25 1011 69 0 0.49 164 20:18 01.06.2020
2057 Rain 25 1011 69 0 0.49 164 19:43 01.06.2020
2058 Clouds 26 1010 67 0 0.65 166 19:21 01.06.2020
2059 Clouds 26 1010 67 0 0.65 166 18:59 01.06.2020
2060 Clouds 26 1010 67 0 0.65 166 18:39 01.06.2020
2061 Clouds 31 1011 62 10000 2.1 180 18:19 01.06.2020
2062 Clouds 31 1011 62 10000 2.1 180 17:56 01.06.2020
2063 Clouds 31 1011 62 10000 2.1 180 17:38 01.06.2020
2064 Clouds 31 1011 62 10000 2.1 180 17:18 01.06.2020
2065 Clouds 31 1011 58 10000 2.1 340 16:40 01.06.2020
2066 Clouds 31 1011 58 10000 2.1 340 16:22 01.06.2020
2067 Clouds 32 1008 49 0 1.45 167 15:56 01.06.2020
2068 Clouds 32 1008 49 0 1.45 167 15:37 01.06.2020
2069 Clouds 33 1009 43 0 1.61 170 15:18 01.06.2020
2070 Clouds 33 1009 43 0 1.61 170 14:56 01.06.2020
2071 Clouds 33 1009 43 0 1.61 170 14:38 01.06.2020
2072 Clouds 35 1010 41 0 0.87 180 14:20 01.06.2020
2073 Clouds 35 1010 41 0 0.87 180 13:43 01.06.2020
2074 Clouds 35 1012 41 0 0.61 176 13:22 01.06.2020
2075 Clouds 35 1012 41 0 0.61 176 12:58 01.06.2020
2076 Clouds 35 1012 41 0 0.61 176 12:40 01.06.2020
2077 Clouds 35 1012 41 0 0.61 176 12:40 01.06.2020
2078 Clouds 34 1012 45 0 0.06 352 12:21 01.06.2020
2079 Clouds 34 1012 45 0 0.06 352 11:58 01.06.2020
2080 Clouds 34 1012 45 0 0.06 352 11:37 01.06.2020
2081 Clouds 32 1013 52 0 0.46 8 11:19 01.06.2020
2082 Clouds 32 1013 52 0 0.46 8 11:19 01.06.2020
2083 Clouds 32 1013 52 0 0.46 8 10:56 01.06.2020
2084 Clouds 32 1013 52 0 0.46 8 10:36 01.06.2020
2085 Clouds 29 1014 63 0 0.91 34 10:18 01.06.2020
2086 Clouds 29 1014 63 0 0.91 34 09:44 01.06.2020
2087 Clouds 25 1014 84 0 0.76 42 09:25 01.06.2020
2088 Clouds 25 1014 84 0 0.76 42 08:57 01.06.2020
2089 Clouds 25 1014 84 0 0.76 42 08:34 01.06.2020
2090 Clouds 22 1015 96 0 0.78 29 07:59 01.06.2020
2091 Clouds 22 1015 96 0 0.78 29 07:40 01.06.2020
2092 Rain 21 1014 98 0 0.99 349 07:22 01.06.2020
2093 Rain 21 1014 98 0 0.99 349 06:49 01.06.2020
2094 Rain 21 1014 98 0 0.56 313 05:57 01.06.2020
2095 Rain 21 1013 98 0 0.71 272 04:56 01.06.2020
2096 Rain 21 1013 98 0 0.85 255 03:57 01.06.2020
2097 Rain 21 1013 98 0 0.85 255 03:37 01.06.2020
2098 Rain 21 1013 98 0 1.47 268 02:49 01.06.2020
2099 Clouds 22 1013 97 0 0.99 236 01:40 01.06.2020
2100 Clouds 22 1013 97 0 0.78 232 01:18 01.06.2020
2101 Clouds 22 1013 97 0 0.78 232 00:46 01.06.2020
2102 Rain 22 1014 98 0 0.56 254 00:21 01.06.2020
2103 Rain 22 1014 98 0 0.56 254 23:59 31.05.2020
2104 Rain 22 1014 98 0 0.56 254 23:40 31.05.2020
2105 Rain 22 1013 97 0 1.62 284 23:22 31.05.2020
2106 Rain 22 1013 97 0 1.62 284 22:58 31.05.2020
2107 Rain 22 1013 97 0 1.62 284 22:40 31.05.2020
2108 Rain 22 1013 98 0 1.58 313 22:21 31.05.2020
2109 Rain 22 1013 98 0 1.58 313 21:57 31.05.2020
2110 Rain 22 1013 98 0 1.58 313 21:38 31.05.2020
2111 Clouds 23 1012 92 0 0.27 295 21:20 31.05.2020
2112 Clouds 23 1012 92 0 0.27 295 20:42 31.05.2020
2113 Clouds 24 1012 89 0 0.67 330 20:24 31.05.2020
2114 Clouds 24 1012 89 0 0.67 330 19:56 31.05.2020
2115 Clouds 24 1012 89 0 0.67 330 19:37 31.05.2020
2116 Clouds 24 1011 85 0 0.74 3 19:19 31.05.2020
2117 Clouds 24 1011 85 0 0.74 3 18:44 31.05.2020
2118 Rain 26 1011 82 0 0.81 29 18:25 31.05.2020
2119 Rain 26 1011 82 0 0.81 29 17:57 31.05.2020
2120 Rain 26 1011 82 0 0.81 29 17:39 31.05.2020
2121 Clouds 27 1010 76 0 0.78 53 17:19 31.05.2020
2122 Clouds 27 1010 76 0 0.78 53 16:41 31.05.2020
2123 Clouds 29 1010 67 0 0.8 54 16:21 31.05.2020
2124 Clouds 29 1010 67 0 0.8 54 16:21 31.05.2020
2125 Clouds 29 1010 67 0 0.8 54 16:21 31.05.2020
2126 Clouds 29 1010 67 0 0.8 54 15:41 31.05.2020
2127 Rain 30 1010 63 0 0.78 119 15:23 31.05.2020
2128 Rain 30 1010 63 0 0.78 119 14:58 31.05.2020
2129 Rain 30 1010 63 0 0.78 119 14:40 31.05.2020
2130 Rain 30 1012 62 0 1.55 156 14:19 31.05.2020
2131 Rain 30 1012 62 0 1.55 156 13:55 31.05.2020
2132 Rain 30 1012 62 0 1.55 156 13:36 31.05.2020
2133 Rain 30 1013 59 0 2.16 173 13:18 31.05.2020
2134 Rain 30 1013 59 0 2.16 173 12:41 31.05.2020
2135 Rain 27 1014 75 0 2.42 178 12:23 31.05.2020
2136 Rain 27 1014 75 0 2.42 178 11:49 31.05.2020
2137 Rain 26 1014 74 0 2.41 180 11:25 31.05.2020
2138 Rain 26 1014 74 0 2.41 180 10:59 31.05.2020
2139 Rain 26 1014 74 0 2.41 180 10:41 31.05.2020
2140 Rain 25 1015 86 0 2.81 172 10:23 31.05.2020
2141 Rain 25 1015 86 0 2.81 172 10:23 31.05.2020
2142 Rain 25 1015 86 0 2.81 172 09:56 31.05.2020
2143 Rain 25 1015 86 0 2.81 172 09:38 31.05.2020
2144 Rain 25 1015 86 0 2.81 172 09:38 31.05.2020
2145 Rain 24 1015 91 0 2.61 153 09:19 31.05.2020
2146 Rain 24 1015 91 0 2.61 153 08:42 31.05.2020
2147 Rain 24 1015 93 0 1.19 137 08:23 31.05.2020
2148 Rain 24 1015 93 0 1.19 137 07:48 31.05.2020
2149 Rain 22 1014 93 0 0.93 105 07:21 31.05.2020
2150 Rain 22 1014 93 0 0.93 105 06:56 31.05.2020
2151 Rain 22 1014 93 0 0.93 105 06:34 31.05.2020
2152 Clouds 22 1013 90 0 0.78 80 05:48 31.05.2020
2153 Clouds 22 1013 90 0 0.78 80 05:30 31.05.2020
2154 Clouds 22 1010 89 0 0.24 185 03:57 31.05.2020
2155 Clouds 22 1011 90 0 0.36 261 02:59 31.05.2020
2156 Clouds 23 1011 87 0 0.22 12 02:33 31.05.2020
2157 Clouds 23 1011 88 0 0.38 17 01:39 31.05.2020
2158 Clouds 23 1012 89 0 0.24 137 00:37 31.05.2020
2159 Clouds 22 1012 93 0 0.08 139 00:19 31.05.2020
2160 Clouds 22 1012 93 0 0.08 139 23:41 30.05.2020
2161 Clouds 22 1012 93 0 0.23 48 23:23 30.05.2020
2162 Clouds 22 1012 93 0 0.23 48 22:42 30.05.2020
2163 Clouds 22 1011 92 0 0.09 282 22:23 30.05.2020
2164 Clouds 22 1011 92 0 0.09 282 21:58 30.05.2020
2165 Clouds 22 1011 92 0 0.09 282 21:58 30.05.2020
2166 Clouds 22 1011 92 0 0.09 282 21:39 30.05.2020
2167 Rain 23 1011 93 0 0.32 53 21:20 30.05.2020
2168 Rain 23 1011 93 0 0.32 53 20:57 30.05.2020
2169 Rain 23 1011 93 0 0.32 53 20:39 30.05.2020
2170 Clouds 24 1011 86 0 0.23 245 20:20 30.05.2020
2171 Clouds 24 1011 86 0 0.23 245 19:43 30.05.2020
2172 Clouds 25 1011 81 0 0.46 269 19:22 30.05.2020
2173 Clouds 25 1011 81 0 0.46 269 18:56 30.05.2020
2174 Clouds 25 1011 81 0 0.46 269 18:38 30.05.2020
2175 Clouds 26 1010 77 0 0.5 277 18:18 30.05.2020
2176 Clouds 26 1010 77 0 0.5 277 17:39 30.05.2020
2177 Clouds 28 1009 70 0 0.58 284 17:20 30.05.2020
2178 Clouds 28 1009 70 0 0.58 284 16:45 30.05.2020
2179 Clouds 29 1008 61 0 0.63 347 16:23 30.05.2020
2180 Clouds 29 1008 61 0 0.63 347 15:58 30.05.2020
2181 Clouds 29 1008 61 0 0.63 347 15:39 30.05.2020
2182 Clouds 29 1009 61 0 1 360 15:21 30.05.2020
2183 Clouds 29 1009 61 0 1 360 14:42 30.05.2020
2184 Clouds 25 1013 83 7000 2.1 290 14:22 30.05.2020
2185 Clouds 25 1013 83 7000 2.1 290 13:42 30.05.2020
2186 Clouds 24 1014 88 7000 3.1 330 13:20 30.05.2020
2187 Clouds 24 1014 88 7000 3.1 330 12:42 30.05.2020
2188 Rain 28 1012 70 0 1.28 48 12:20 30.05.2020
2189 Rain 28 1012 70 0 1.28 48 11:56 30.05.2020
2190 Rain 28 1012 70 0 1.28 48 11:38 30.05.2020
2191 Clouds 27 1012 73 0 0.56 74 11:20 30.05.2020
2192 Clouds 27 1012 73 0 0.56 74 10:40 30.05.2020
2193 Clouds 27 1012 74 0 0.38 90 10:21 30.05.2020
2194 Clouds 27 1012 74 0 0.38 90 09:48 30.05.2020
2195 Rain 24 1013 85 0 1 54 09:30 30.05.2020
2196 Rain 24 1013 85 0 1 54 09:30 30.05.2020
2197 Clouds 25 1013 81 0 1.13 30 08:47 30.05.2020
2198 Clouds 24 1012 84 0 0.94 59 08:28 30.05.2020
2199 Clouds 24 1012 84 0 0.94 59 07:44 30.05.2020
2200 Clouds 22 1011 91 0 1.05 61 07:23 30.05.2020
2201 Clouds 22 1011 91 0 1.05 61 06:39 30.05.2020
2202 Clouds 22 1010 92 0 0.92 68 06:20 30.05.2020
2203 Clouds 22 1010 92 0 0.92 68 05:49 30.05.2020
2204 Clouds 22 1008 89 0 0.63 110 03:39 30.05.2020
2205 Clouds 23 1009 88 0 0.35 73 02:30 30.05.2020
2206 Clouds 23 1010 87 0 1.43 263 01:46 30.05.2020
2207 Clouds 23 1010 88 0 1.24 288 00:38 30.05.2020
2208 Clouds 23 1010 90 0 1.16 310 00:19 30.05.2020
2209 Clouds 23 1010 90 0 1.16 310 23:57 29.05.2020
2210 Clouds 23 1010 90 0 1.16 310 23:37 29.05.2020
2211 Clouds 23 1010 90 0 1.14 329 23:18 29.05.2020
2212 Clouds 23 1010 90 0 1.14 329 22:40 29.05.2020
2213 Clouds 23 1010 90 0 1.25 324 22:19 29.05.2020
2214 Clouds 23 1010 90 0 1.25 324 21:58 29.05.2020
2215 Clouds 23 1010 90 0 1.25 324 21:37 29.05.2020
2216 Clouds 23 1010 90 0 0.9 315 21:18 29.05.2020
2217 Clouds 24 1010 88 0 1.01 318 20:45 29.05.2020
2218 Clouds 24 1009 90 0 1.11 268 20:20 29.05.2020
2219 Clouds 24 1009 90 0 1.11 268 19:59 29.05.2020
2220 Clouds 24 1009 90 0 1.11 268 19:39 29.05.2020
2221 Clouds 24 1009 89 0 1.19 290 19:21 29.05.2020
2222 Clouds 24 1009 89 0 1.19 290 18:46 29.05.2020
2223 Clouds 26 1009 85 0 1.18 309 18:20 29.05.2020
2224 Clouds 26 1009 85 0 1.18 309 17:56 29.05.2020
2225 Clouds 26 1009 85 0 1.18 309 17:38 29.05.2020
2226 Rain 28 1008 74 0 1.2 312 17:19 29.05.2020
2227 Rain 28 1008 74 0 1.2 312 16:43 29.05.2020
2228 Rain 28 1008 70 0 1.12 309 16:24 29.05.2020
2229 Rain 28 1008 70 0 1.12 309 15:56 29.05.2020
2230 Rain 28 1008 70 0 1.12 309 15:38 29.05.2020
2231 Clouds 29 1008 66 0 0.9 291 15:19 29.05.2020
2232 Clouds 29 1008 66 0 0.9 291 14:43 29.05.2020
2233 Clouds 23 1013 94 8000 3.1 30 14:22 29.05.2020
2234 Clouds 23 1013 94 8000 3.1 30 13:44 29.05.2020
2235 Rain 27 1011 88 0 1.27 21 13:25 29.05.2020
2236 Rain 27 1011 88 0 1.27 21 12:59 29.05.2020
2237 Rain 27 1011 88 0 1.27 21 12:41 29.05.2020
2238 Rain 26 1012 91 0 1.57 26 12:22 29.05.2020
2239 Rain 26 1012 91 0 1.57 26 11:45 29.05.2020
2240 Rain 27 1012 90 0 2.11 39 11:26 29.05.2020
2241 Rain 27 1012 90 0 2.11 39 10:57 29.05.2020
2242 Clouds 24 1016 94 8000 5.1 90 10:37 29.05.2020
2243 Clouds 24 1016 94 8000 5.1 90 10:18 29.05.2020
2244 Clouds 24 1016 94 8000 5.1 90 09:43 29.05.2020
2245 Clouds 26 1013 87 0 1.46 29 09:20 29.05.2020
2246 Clouds 26 1013 87 0 1.46 29 09:20 29.05.2020
2247 Clouds 26 1013 87 0 1.46 29 08:48 29.05.2020
2248 Clouds 24 1013 95 0 1.42 27 08:26 29.05.2020
2249 Clouds 24 1013 95 0 1.42 27 07:59 29.05.2020
2250 Clouds 24 1013 95 0 1.42 27 07:59 29.05.2020
2251 Clouds 24 1013 95 0 1.42 27 07:39 29.05.2020
2252 Clouds 22 1012 97 0 1.29 36 07:21 29.05.2020
2253 Clouds 22 1012 97 0 1.29 36 06:46 29.05.2020
2254 Rain 22 1011 98 0 1.25 39 06:27 29.05.2020
2255 Rain 22 1011 98 0 1.25 39 05:46 29.05.2020
2256 Rain 22 1009 96 0 0.3 254 02:36 29.05.2020
2257 Rain 23 1010 90 0 0.75 235 01:29 29.05.2020
2258 Clouds 23 1010 86 0 0.69 244 00:54 29.05.2020
2259 Clouds 23 1010 86 0 0.69 244 00:34 29.05.2020
2260 Clouds 24 1010 84 0 0.45 302 23:59 28.05.2020
2261 Clouds 24 1010 84 0 0.45 302 23:39 28.05.2020
2262 Clouds 24 1010 83 0 0.31 294 23:18 28.05.2020
2263 Clouds 24 1010 83 0 0.31 294 22:42 28.05.2020
2264 Rain 24 1010 81 0 0.57 272 22:24 28.05.2020
2265 Rain 24 1010 81 0 0.57 272 21:57 28.05.2020
2266 Rain 24 1010 81 0 0.57 272 21:38 28.05.2020
2267 Rain 25 1009 78 0 0.47 144 21:20 28.05.2020
2268 Clouds 26 1009 74 0 0.39 209 20:57 28.05.2020
2269 Clouds 26 1009 74 0 0.39 209 20:57 28.05.2020
2270 Clouds 26 1009 74 0 0.39 209 20:38 28.05.2020
2271 Clouds 26 1009 71 0 0.71 214 20:18 28.05.2020
2272 Clouds 26 1009 71 0 0.71 214 19:54 28.05.2020
2273 Clouds 26 1009 71 0 0.71 214 19:54 28.05.2020
2274 Clouds 26 1009 71 0 0.71 214 19:36 28.05.2020
2275 Clouds 27 1008 70 0 0.74 202 19:18 28.05.2020
2276 Clouds 27 1008 70 0 0.74 202 18:41 28.05.2020
2277 Clouds 29 1007 69 0 0.54 184 18:22 28.05.2020
2278 Clouds 29 1007 69 0 0.54 184 17:43 28.05.2020
2279 Clouds 34 1008 52 10000 1.5 0 17:22 28.05.2020
2280 Clouds 34 1008 52 10000 1.5 0 16:58 28.05.2020
2281 Clouds 34 1008 52 10000 1.5 0 16:58 28.05.2020
2282 Clouds 31 1007 62 0 0.52 164 16:38 28.05.2020
2283 Clouds 34 1009 49 10000 3.1 200 16:20 28.05.2020
2284 Clouds 34 1009 49 10000 3.1 200 15:42 28.05.2020
2285 Clouds 33 1010 52 10000 3.1 200 15:24 28.05.2020
2286 Clouds 33 1010 52 10000 3.1 200 14:57 28.05.2020
2287 Clouds 33 1012 55 10000 3.1 210 14:38 28.05.2020
2288 Clouds 33 1012 55 10000 3.1 210 14:20 28.05.2020
2289 Clouds 33 1008 46 0 1.28 141 13:40 28.05.2020
2290 Clouds 32 1012 55 10000 3.1 90 13:21 28.05.2020
2291 Clouds 35 1009 39 0 1.49 130 12:42 28.05.2020
2292 Clouds 35 1010 41 0 1.44 123 12:19 28.05.2020
2293 Clouds 35 1010 41 0 1.44 123 11:44 28.05.2020
2294 Clouds 24 1023 69 6000 4.1 220 11:26 28.05.2020
2295 Clouds 24 1023 69 6000 4.1 220 10:57 28.05.2020
2296 Clouds 24 1023 69 6000 4.1 220 10:57 28.05.2020
2297 Clouds 33 1011 46 0 1.23 114 10:39 28.05.2020
2298 Clouds 33 1011 46 0 1.23 114 10:39 28.05.2020
2299 Clouds 31 1012 53 0 1.15 117 10:20 28.05.2020
2300 Clouds 31 1012 53 0 1.15 117 09:39 28.05.2020
2301 Clouds 31 1012 53 0 1.15 117 09:39 28.05.2020
2302 Clouds 29 1012 62 0 1.07 117 09:21 28.05.2020
2303 Clouds 29 1013 63 0 0.96 102 08:50 28.05.2020
2304 Clouds 26 1012 74 0 0.75 125 08:27 28.05.2020
2305 Clouds 26 1012 74 0 0.75 125 07:46 28.05.2020
2306 Clouds 23 1012 85 0 0.79 148 07:26 28.05.2020
2307 Clouds 23 1012 85 0 0.79 148 06:59 28.05.2020
2308 Clouds 23 1012 85 0 0.79 148 06:38 28.05.2020
2309 Clouds 22 1011 88 0 0.78 135 06:19 28.05.2020
2310 Clouds 22 1011 88 0 0.78 135 05:36 28.05.2020
2311 Clear 22 1010 87 0 0.76 111 04:32 28.05.2020
2312 Clear 22 1010 87 0 0.54 114 03:46 28.05.2020
2313 Clear 22 1010 87 0 0.3 149 02:45 28.05.2020
2314 Clear 22 1010 87 0 0.3 149 02:45 28.05.2020
2315 Clouds 23 1010 85 0 0.21 179 01:53 28.05.2020
2316 Clouds 23 1011 84 0 0.18 205 00:56 28.05.2020
2317 Clouds 23 1011 84 0 0.18 205 00:38 28.05.2020
2318 Clouds 23 1011 83 0 0.43 235 00:18 28.05.2020
2319 Clouds 23 1011 83 0 0.43 235 23:39 27.05.2020
2320 Clouds 24 1012 80 0 0.39 207 23:21 27.05.2020
2321 Clouds 24 1012 80 0 0.39 207 22:59 27.05.2020
2322 Clouds 24 1012 80 0 0.39 207 22:40 27.05.2020
2323 Clouds 24 1011 78 0 0.31 200 22:21 27.05.2020
2324 Clouds 24 1011 78 0 0.31 200 21:42 27.05.2020
2325 Clouds 25 1011 76 0 0.36 195 21:24 27.05.2020
2326 Clouds 25 1011 79 0 0.63 250 20:59 27.05.2020
2327 Clouds 25 1011 79 0 0.63 250 20:41 27.05.2020
2328 Clouds 25 1010 77 0 0.72 245 20:22 27.05.2020
2329 Clouds 25 1010 77 0 0.72 245 19:59 27.05.2020
2330 Clouds 25 1010 77 0 0.72 245 19:40 27.05.2020
2331 Clouds 26 1010 72 0 0.45 229 19:19 27.05.2020
2332 Clouds 26 1010 72 0 0.45 229 18:41 27.05.2020
2333 Clouds 28 1009 70 0 0.28 144 18:20 27.05.2020
2334 Clouds 28 1009 70 0 0.28 144 17:56 27.05.2020
2335 Clouds 28 1009 70 0 0.28 144 17:37 27.05.2020
2336 Clouds 31 1008 58 0 0.57 123 17:19 27.05.2020
2337 Clouds 31 1008 58 0 0.57 123 16:55 27.05.2020
2338 Clouds 29 1019 45 10000 0.57 123 16:36 27.05.2020
2339 Clouds 29 1019 45 10000 0.77 152 16:18 27.05.2020
2340 Clouds 33 1008 47 0 0.77 152 15:40 27.05.2020
2341 Clouds 32 1012 59 10000 4.1 160 15:21 27.05.2020
2342 Clouds 34 1008 45 0 0.89 169 14:44 27.05.2020
2343 Clouds 31 1013 35 10000 4.1 170 14:22 27.05.2020
2344 Clouds 31 1013 35 10000 4.1 170 13:55 27.05.2020
2345 Clouds 29 1014 74 10000 0.81 239 13:37 27.05.2020
2346 Clouds 29 1014 74 10000 0.44 257 13:19 27.05.2020
2347 Clouds 29 1015 74 10000 3.1 90 12:40 27.05.2020
2348 Rain 34 1011 48 0 0.44 257 12:40 27.05.2020
2349 Clouds 29 1015 74 10000 3.1 90 12:22 27.05.2020
2350 Clouds 29 1015 74 10000 3.1 90 11:41 27.05.2020
2351 Clouds 27 1016 78 10000 3.1 130 11:22 27.05.2020
2352 Clouds 27 1016 78 10000 3.1 130 10:59 27.05.2020
2353 Rain 29 1013 80 0 0.62 59 10:40 27.05.2020
2354 Rain 29 1013 72 0 0.76 33 10:22 27.05.2020
2355 Rain 29 1013 72 0 0.76 33 09:42 27.05.2020
2356 Clouds 26 1014 84 0 0.42 15 09:23 27.05.2020
2357 Clouds 26 1014 84 0 0.42 15 08:58 27.05.2020
2358 Clouds 26 1014 84 0 0.42 15 08:40 27.05.2020
2359 Clouds 24 1014 93 0 0.31 318 08:22 27.05.2020
2360 Clouds 24 1014 93 0 0.31 318 07:51 27.05.2020
2361 Clouds 24 1014 93 0 0.31 318 07:51 27.05.2020
2362 Clouds 24 1014 93 0 0.31 318 07:33 27.05.2020
2363 Clouds 22 1013 97 0 0.18 279 06:52 27.05.2020
2364 Rain 21 1012 98 0 0.33 34 06:24 27.05.2020
2365 Rain 21 1012 98 0 0.33 34 05:50 27.05.2020
2366 Rain 22 1012 97 0 0.37 40 05:23 27.05.2020
2367 Rain 22 1011 97 0 0.54 214 02:42 27.05.2020
2368 Rain 22 1011 96 0 0.88 158 02:18 27.05.2020
2369 Rain 22 1012 94 0 0.55 119 01:30 27.05.2020
2370 Rain 22 1012 94 0 0.55 119 00:47 27.05.2020
2371 Rain 23 1012 94 0 0.74 150 00:20 27.05.2020
2372 Rain 23 1012 94 0 0.74 150 23:57 26.05.2020
2373 Rain 23 1012 94 0 0.74 150 23:38 26.05.2020
2374 Rain 23 1012 90 0 0.85 125 23:20 26.05.2020
2375 Rain 23 1012 90 0 0.85 125 22:41 26.05.2020
2376 Clouds 24 1012 88 0 0.98 121 22:23 26.05.2020
2377 Clouds 24 1012 88 0 0.98 121 22:23 26.05.2020
2378 Clouds 24 1012 88 0 0.98 121 21:59 26.05.2020
2379 Clouds 24 1012 88 0 0.98 121 21:40 26.05.2020
2380 Clouds 24 1011 88 0 1.18 121 21:22 26.05.2020
2381 Clouds 25 1010 78 0 1.08 139 20:57 26.05.2020
2382 Clouds 25 1010 78 0 1.08 139 20:39 26.05.2020
2383 Clouds 25 1010 78 0 1.08 139 20:39 26.05.2020
2384 Clouds 25 1011 78 0 1.25 146 20:19 26.05.2020
2385 Clouds 25 1011 78 0 1.25 146 19:40 26.05.2020
2386 Clouds 26 1010 78 0 1.44 148 19:20 26.05.2020
2387 Clouds 26 1010 78 0 1.44 148 18:58 26.05.2020
2388 Clouds 26 1010 78 0 1.44 148 18:39 26.05.2020
2389 Thunderstorm 31 1010 66 9000 3.1 250 18:20 26.05.2020
2390 Clouds 28 1009 71 0 1.91 168 17:39 26.05.2020
2391 Clouds 34 1010 49 9000 3.1 270 17:21 26.05.2020
2392 Clouds 34 1010 49 9000 3.1 270 16:48 26.05.2020
2393 Clouds 34 1011 56 10000 3.1 210 16:23 26.05.2020
2394 Clouds 34 1011 56 10000 3.1 210 15:58 26.05.2020
2395 Clouds 33 1007 49 0 0.63 192 15:39 26.05.2020
2396 Clouds 33 1012 55 10000 3.1 260 15:19 26.05.2020
2397 Clouds 33 1012 55 10000 3.1 260 14:44 26.05.2020
2398 Clouds 33 1013 55 10000 3.1 290 14:25 26.05.2020
2399 Clouds 33 1013 55 10000 3.1 290 13:57 26.05.2020
2400 Clouds 36 1010 41 0 0.26 342 13:39 26.05.2020
2401 Clouds 33 1014 59 8000 3.1 310 13:21 26.05.2020
2402 Clouds 33 1014 59 8000 3.1 310 12:44 26.05.2020
2403 Clouds 32 1014 62 8000 3.1 210 12:22 26.05.2020
2404 Clouds 35 1012 44 0 0.47 279 11:59 26.05.2020
2405 Clouds 35 1012 44 0 0.47 279 11:40 26.05.2020
2406 Clouds 31 1015 66 7000 0.39 355 11:19 26.05.2020
2407 Clouds 31 1015 66 7000 0.39 355 10:44 26.05.2020
2408 Clouds 31 1013 56 0 0.91 27 10:19 26.05.2020
2409 Clouds 31 1013 56 0 0.91 27 09:55 26.05.2020
2410 Clouds 31 1013 56 0 0.91 27 09:37 26.05.2020
2411 Clouds 28 1013 66 0 1.04 38 09:18 26.05.2020
2412 Clouds 28 1013 66 0 1.04 38 08:39 26.05.2020
2413 Clouds 25 1013 77 0 1.21 36 08:21 26.05.2020
2414 Clouds 25 1013 77 0 1.21 36 07:41 26.05.2020
2415 Clouds 22 1012 86 0 1.31 46 07:22 26.05.2020
2416 Clouds 22 1012 86 0 1.31 46 06:49 26.05.2020
2417 Clouds 22 1012 87 0 0.43 39 06:23 26.05.2020
2418 Clouds 22 1012 87 0 0.43 39 05:41 26.05.2020
2419 Clouds 22 1011 86 0 0.33 281 04:59 26.05.2020
2420 Clouds 22 1011 86 0 0.33 281 04:41 26.05.2020
2421 Clear 22 1010 85 0 0.7 256 04:22 26.05.2020
2422 Clear 22 1010 85 0 0.7 256 03:34 26.05.2020
2423 Clear 22 1010 84 0 0.86 244 02:34 26.05.2020
2424 Clear 23 1010 82 0 0.78 223 01:42 26.05.2020
2425 Clear 23 1011 83 0 0.64 223 00:39 26.05.2020
2426 Clouds 23 1011 83 0 0.59 214 00:20 26.05.2020
2427 Clouds 23 1011 83 0 0.59 214 23:58 25.05.2020
2428 Clouds 23 1011 83 0 0.59 214 23:38 25.05.2020
2429 Clouds 24 1011 84 0 0.72 197 23:19 25.05.2020
2430 Clouds 24 1011 84 0 0.72 197 22:56 25.05.2020
2431 Clouds 24 1011 84 0 0.72 197 22:37 25.05.2020
2432 Clouds 24 1011 83 0 0.96 199 22:19 25.05.2020
2433 Clouds 24 1011 83 0 0.96 199 21:58 25.05.2020
2434 Clouds 24 1011 83 0 0.96 199 21:37 25.05.2020
2435 Clear 24 1010 79 0 1.17 160 21:18 25.05.2020
2436 Clear 24 1010 79 0 1.17 160 20:57 25.05.2020
2437 Clear 24 1010 79 0 1.17 160 20:38 25.05.2020
2438 Clouds 25 1010 74 0 0.99 177 20:20 25.05.2020
2439 Clouds 25 1010 74 0 0.99 177 19:42 25.05.2020
2440 Clouds 31 1009 66 7000 2.1 230 19:20 25.05.2020
2441 Clouds 31 1009 66 7000 2.1 230 18:58 25.05.2020
2442 Clouds 26 1009 71 0 0.98 219 18:40 25.05.2020
2443 Clouds 28 1008 69 0 0.85 229 18:21 25.05.2020
2444 Clouds 28 1008 69 0 0.85 229 17:44 25.05.2020
2445 Clouds 31 1007 58 0 0.73 225 17:26 25.05.2020
2446 Clouds 31 1007 58 0 0.73 225 16:59 25.05.2020
2447 Clouds 31 1007 58 0 0.73 225 16:40 25.05.2020
2448 Clear 33 1008 47 0 0.74 193 16:22 25.05.2020
2449 Clear 33 1008 47 0 0.74 193 15:55 25.05.2020
2450 Clear 33 1008 47 0 0.74 193 15:36 25.05.2020
2451 Clear 33 1008 45 0 0.89 171 15:18 25.05.2020
2452 Clear 33 1008 45 0 0.89 171 14:42 25.05.2020
2453 Clouds 33 1012 55 10000 4.1 260 14:23 25.05.2020
2454 Clouds 33 1012 55 10000 4.1 260 13:57 25.05.2020
2455 Clouds 32 1013 62 10000 3.1 240 13:37 25.05.2020
2456 Clouds 32 1013 62 10000 3.1 240 13:37 25.05.2020
2457 Clouds 32 1013 62 10000 3.1 240 13:19 25.05.2020
2458 Clear 33 1011 47 0 1.4 159 12:40 25.05.2020
2459 Clouds 31 1014 66 6000 2.1 260 12:21 25.05.2020
2460 Clouds 31 1014 66 6000 2.1 260 11:58 25.05.2020
2461 Rain 31 1012 57 0 1.15 143 11:38 25.05.2020
2462 Rain 28 1012 81 0 0.87 96 11:18 25.05.2020
2463 Rain 28 1012 81 0 0.87 96 10:43 25.05.2020
2464 Rain 27 1013 88 0 0.96 69 10:21 25.05.2020
2465 Rain 27 1013 88 0 0.96 69 09:57 25.05.2020
2466 Rain 27 1013 88 0 0.96 69 09:38 25.05.2020
2467 Rain 27 1014 79 0 0.63 62 09:19 25.05.2020
2468 Rain 26 1014 82 0 0.33 33 08:57 25.05.2020
2469 Rain 26 1014 82 0 0.33 33 08:36 25.05.2020
2470 Rain 26 1014 82 0 0.33 33 08:36 25.05.2020
2471 Rain 24 1014 92 0 0.33 347 08:18 25.05.2020
2472 Rain 24 1014 92 0 0.33 347 07:43 25.05.2020
2473 Rain 22 1013 93 0 0.18 181 07:21 25.05.2020
2474 Rain 22 1013 93 0 0.18 181 06:50 25.05.2020
2475 Clear 21 1012 96 0 0.38 215 06:31 25.05.2020
2476 Clear 22 1010 96 0 0.68 281 04:18 25.05.2020
2477 Clear 22 1011 97 0 0.75 293 03:23 25.05.2020
2478 Clear 22 1011 97 0 0.75 293 02:45 25.05.2020
2479 Clouds 22 1011 95 0 0.75 297 01:51 25.05.2020
2480 Clouds 22 1012 95 0 0.64 287 01:28 25.05.2020
2481 Clouds 22 1012 95 0 0.64 287 00:37 25.05.2020
2482 Clouds 22 1012 94 0 0.47 270 00:18 25.05.2020
2483 Clouds 22 1012 94 0 0.47 270 23:43 24.05.2020
2484 Clouds 23 1012 93 0 0.51 259 23:23 24.05.2020
2485 Clouds 23 1012 93 0 0.51 259 22:59 24.05.2020
2486 Clouds 23 1012 93 0 0.51 259 22:41 24.05.2020
2487 Clouds 23 1012 92 0 0.34 236 22:19 24.05.2020
2488 Clouds 23 1012 92 0 0.34 236 21:56 24.05.2020
2489 Clouds 23 1012 92 0 0.34 236 21:56 24.05.2020
2490 Clouds 23 1012 92 0 0.34 236 21:38 24.05.2020
2491 Clouds 23 1011 88 0 0.49 222 21:19 24.05.2020
2492 Clouds 23 1011 88 0 0.49 222 20:43 24.05.2020
2493 Clouds 24 1011 85 0 0.55 196 20:22 24.05.2020
2494 Clouds 24 1011 85 0 0.55 196 19:59 24.05.2020
2495 Clouds 24 1011 85 0 0.55 196 19:41 24.05.2020
2496 Clouds 25 1010 82 0 0.58 176 19:19 24.05.2020
2497 Clouds 25 1010 82 0 0.58 176 18:56 24.05.2020
2498 Clouds 25 1010 82 0 0.58 176 18:37 24.05.2020
2499 Clouds 26 1009 80 0 0.59 150 18:19 24.05.2020
2500 Clouds 26 1009 80 0 0.59 150 17:41 24.05.2020
2501 Rain 29 1008 71 0 0.74 140 17:22 24.05.2020
2502 Rain 29 1008 71 0 0.74 140 16:57 24.05.2020
2503 Rain 29 1008 71 0 0.74 140 16:38 24.05.2020
2504 Thunderstorm 28 1011 65 8000 4.1 120 16:20 24.05.2020
2505 Thunderstorm 28 1011 65 8000 4.1 120 16:20 24.05.2020
2506 Thunderstorm 28 1011 65 8000 4.1 120 15:57 24.05.2020
2507 Rain 30 1008 64 0 0.86 143 15:38 24.05.2020
2508 Rain 30 1008 64 0 0.86 143 15:38 24.05.2020
2509 Rain 30 1008 67 0 0.87 163 15:19 24.05.2020
2510 Rain 30 1008 67 0 0.87 163 15:19 24.05.2020
2511 Rain 30 1008 67 0 0.87 163 14:46 24.05.2020
2512 Clouds 31 1012 62 10000 0.6 223 14:24 24.05.2020
2513 Clouds 31 1012 62 10000 0.65 228 13:59 24.05.2020
2514 Clouds 31 1012 62 10000 0.65 228 13:41 24.05.2020
2515 Clouds 31 1014 70 10000 0.73 303 13:22 24.05.2020
2516 Clouds 31 1014 70 10000 0.73 303 12:59 24.05.2020
2517 Rain 29 1012 76 0 0.73 303 12:40 24.05.2020
2518 Rain 29 1012 73 0 1.01 350 12:22 24.05.2020
2519 Rain 29 1012 73 0 1.01 350 11:59 24.05.2020
2520 Rain 29 1012 73 0 1.01 350 11:41 24.05.2020
2521 Rain 29 1012 73 0 1.01 350 11:41 24.05.2020
2522 Rain 29 1012 73 0 1.01 350 11:41 24.05.2020
2523 Rain 29 1012 73 0 1.01 350 11:41 24.05.2020
2524 Clouds 28 1015 83 8000 1.46 6 11:22 24.05.2020
2525 Clouds 28 1015 83 8000 1.46 6 10:58 24.05.2020
2526 Rain 28 1013 77 0 1.46 6 10:39 24.05.2020
2527 Rain 27 1013 79 0 1.53 10 10:21 24.05.2020
2528 Rain 27 1013 79 0 1.53 10 09:41 24.05.2020
2529 Clouds 25 1014 88 0 1.13 20 09:19 24.05.2020
2530 Clouds 25 1014 88 0 1.13 20 08:57 24.05.2020
2531 Clouds 25 1014 88 0 1.13 20 08:39 24.05.2020
2532 Rain 23 1014 96 0 0.86 29 08:21 24.05.2020
2533 Rain 23 1014 96 0 0.86 29 07:51 24.05.2020
2534 Rain 22 1013 97 0 0.8 30 07:26 24.05.2020
2535 Rain 22 1013 97 0 0.8 30 06:57 24.05.2020
2536 Rain 22 1013 97 0 0.8 30 06:36 24.05.2020
2537 Rain 21 1011 98 0 0.11 31 05:20 24.05.2020
2538 Rain 21 1011 98 0 0.39 114 03:42 24.05.2020
2539 Rain 22 1011 97 0 0.52 175 02:46 24.05.2020
2540 Clouds 22 1012 92 0 0.85 197 01:50 24.05.2020
2541 Clouds 23 1012 91 0 1.05 212 00:41 24.05.2020
2542 Clouds 23 1012 89 0 1.09 206 00:22 24.05.2020
2543 Clouds 23 1012 89 0 1.09 206 00:22 24.05.2020
2544 Clouds 23 1012 89 0 1.09 206 23:46 23.05.2020
2545 Clouds 23 1012 85 0 1.1 212 23:26 23.05.2020
2546 Clouds 23 1012 85 0 1.1 212 22:59 23.05.2020
2547 Clouds 23 1012 85 0 1.1 212 22:39 23.05.2020
2548 Clouds 24 1012 80 0 1.36 199 22:20 23.05.2020
2549 Clouds 24 1012 80 0 1.36 199 21:58 23.05.2020
2550 Clouds 24 1012 80 0 1.36 199 21:40 23.05.2020
2551 Clouds 25 1011 79 0 0.86 183 21:20 23.05.2020
2552 Clouds 25 1011 76 0 0.17 232 21:20 23.05.2020
2553 Clouds 25 1011 79 0 0.86 183 20:59 23.05.2020
2554 Clouds 25 1011 79 0 0.86 183 20:59 23.05.2020
2555 Clouds 25 1011 79 0 0.86 183 20:38 23.05.2020
2556 Clouds 25 1011 75 0 0.58 186 20:19 23.05.2020
2557 Clouds 25 1011 75 0 0.58 186 19:55 23.05.2020
2558 Clouds 25 1011 75 0 0.58 186 19:37 23.05.2020
2559 Clouds 26 1010 70 0 0.12 214 19:18 23.05.2020
2560 Clouds 26 1010 70 0 0.12 214 18:40 23.05.2020
2561 Clouds 28 1009 67 0 0.24 17 18:22 23.05.2020
2562 Clouds 28 1009 67 0 0.24 17 17:57 23.05.2020
2563 Clouds 28 1009 67 0 0.24 17 17:39 23.05.2020
2564 Clouds 32 1008 57 0 0.56 39 17:19 23.05.2020
2565 Clouds 32 1008 57 0 0.56 39 16:57 23.05.2020
2566 Clouds 32 1008 57 0 0.56 39 16:39 23.05.2020
2567 Clouds 32 1008 54 0 0.66 34 16:20 23.05.2020
2568 Clouds 32 1008 54 0 0.66 34 15:44 23.05.2020
2569 Clouds 34 1008 42 0 1.22 32 15:24 23.05.2020
2570 Clouds 34 1008 42 0 1.22 32 15:24 23.05.2020
2571 Clouds 34 1008 42 0 1.22 32 14:59 23.05.2020
2572 Clouds 34 1008 42 0 1.22 32 14:41 23.05.2020
2573 Clouds 34 1010 41 0 1.27 37 14:22 23.05.2020
2574 Clouds 34 1010 41 0 1.37 28 13:42 23.05.2020
2575 Clouds 30 1015 70 10000 2.1 340 13:19 23.05.2020
2576 Clouds 30 1015 70 10000 2.1 340 13:19 23.05.2020
2577 Clouds 30 1015 70 10000 2.1 340 12:57 23.05.2020
2578 Clouds 30 1015 70 10000 2.1 340 12:57 23.05.2020
2579 Clouds 34 1011 43 0 1.48 30 12:39 23.05.2020
2580 Clouds 29 1016 74 10000 1.59 35 12:19 23.05.2020
2581 Clouds 29 1016 74 10000 1.59 35 11:43 23.05.2020
2582 Clouds 27 1016 78 10000 2.1 340 11:22 23.05.2020
2583 Clouds 27 1016 78 10000 2.1 340 10:58 23.05.2020
2584 Clouds 31 1013 55 0 1.65 47 10:39 23.05.2020
2585 Clouds 24 1016 88 10000 2.1 340 10:20 23.05.2020
2586 Clouds 24 1016 88 10000 2.1 340 09:59 23.05.2020
2587 Clouds 29 1014 64 0 1.57 57 09:41 23.05.2020
2588 Clouds 23 1016 94 8000 2.1 340 09:22 23.05.2020
2589 Clouds 23 1016 94 8000 2.1 340 08:44 23.05.2020
2590 Clouds 24 1015 88 0 0.87 38 08:20 23.05.2020
2591 Clouds 24 1015 88 0 0.87 38 08:20 23.05.2020
2592 Clouds 24 1015 88 0 0.87 38 07:59 23.05.2020
2593 Clouds 24 1015 88 0 0.87 38 07:39 23.05.2020
2594 Clouds 22 1014 95 0 0.57 62 07:21 23.05.2020
2595 Clouds 22 1014 95 0 0.57 62 06:40 23.05.2020
2596 Clouds 21 1013 98 0 0.56 69 05:46 23.05.2020
2597 Clouds 21 1012 97 0 0.9 52 03:48 23.05.2020
2598 Clouds 21 1012 96 0 0.78 57 03:21 23.05.2020
2599 Clouds 22 1013 94 0 0.44 29 01:59 23.05.2020
2600 Clouds 22 1013 94 0 0.44 29 01:59 23.05.2020
2601 Clouds 22 1014 94 0 0.49 23 01:27 23.05.2020
2602 Clouds 22 1014 94 0 0.49 23 00:47 23.05.2020
2603 Clouds 22 1014 94 0 0.49 23 00:47 23.05.2020
2604 Clouds 22 1014 94 0 0.49 23 00:29 23.05.2020
2605 Clouds 22 1014 93 0 0.53 46 23:58 22.05.2020
2606 Clouds 22 1014 93 0 0.53 46 23:39 22.05.2020
2607 Clouds 22 1014 92 0 0.34 24 23:19 22.05.2020
2608 Clouds 22 1014 92 0 0.34 24 22:55 22.05.2020
2609 Clouds 22 1014 92 0 0.34 24 22:55 22.05.2020
2610 Clouds 22 1014 92 0 0.34 24 22:37 22.05.2020
2611 Clouds 23 1014 91 0 0.28 57 22:18 22.05.2020
2612 Clouds 23 1014 91 0 0.28 57 21:42 22.05.2020
2613 Rain 24 1014 89 0 0.19 91 21:21 22.05.2020
2614 Clouds 23 1013 93 0 0.26 244 20:46 22.05.2020
2615 Clouds 23 1013 93 0 0.06 274 20:22 22.05.2020
2616 Clouds 23 1013 93 0 0.06 274 19:59 22.05.2020
2617 Clouds 23 1013 93 0 0.06 274 19:41 22.05.2020
2618 Clouds 30 1012 66 8000 2.1 120 19:22 22.05.2020
2619 Clouds 24 1013 93 0 0.29 0 18:40 22.05.2020
2620 Clouds 32 1012 59 9000 2.1 30 18:21 22.05.2020
2621 Rain 25 1011 91 0 0.22 318 17:58 22.05.2020
2622 Rain 25 1011 91 0 0.22 318 17:38 22.05.2020
2623 Rain 27 1010 90 0 0.34 353 17:18 22.05.2020
2624 Rain 27 1010 90 0 0.34 353 16:44 22.05.2020
2625 Rain 27 1010 84 0 0.27 45 16:20 22.05.2020
2626 Rain 27 1010 84 0 0.27 45 15:59 22.05.2020
2627 Rain 27 1010 84 0 0.27 45 15:41 22.05.2020
2628 Rain 28 1011 83 0 0.7 51 15:20 22.05.2020
2629 Rain 28 1011 83 0 0.7 51 14:44 22.05.2020
2630 Clouds 31 1015 66 10000 3.1 160 14:24 22.05.2020
2631 Clouds 31 1015 66 10000 3.1 160 13:46 22.05.2020
2632 Rain 28 1013 84 0 1.37 20 13:21 22.05.2020
2633 Rain 28 1013 84 0 1.37 20 12:55 22.05.2020
2634 Rain 28 1013 84 0 1.37 20 12:36 22.05.2020
2635 Rain 27 1013 86 0 1.47 10 12:18 22.05.2020
2636 Rain 27 1013 86 0 1.47 10 11:43 22.05.2020
2637 Rain 26 1014 85 0 1.34 17 11:21 22.05.2020
2638 Rain 26 1014 85 0 1.34 17 10:55 22.05.2020
2639 Rain 26 1014 85 0 1.34 17 10:37 22.05.2020
2640 Rain 27 1015 80 0 1.16 355 10:18 22.05.2020
2641 Rain 27 1015 80 0 1.16 355 09:42 22.05.2020
2642 Rain 25 1016 88 0 0.98 6 09:19 22.05.2020
2643 Rain 25 1016 88 0 0.98 6 08:45 22.05.2020
2644 Clouds 25 1016 84 0 0.82 21 08:22 22.05.2020
2645 Clouds 25 1016 84 0 0.82 21 07:57 22.05.2020
2646 Clouds 23 1014 93 0 0.71 53 07:27 22.05.2020
2647 Clouds 23 1014 93 0 0.71 53 06:59 22.05.2020
2648 Clouds 23 1014 93 0 0.71 53 06:40 22.05.2020
2649 Clouds 22 1013 97 0 0.82 73 05:53 22.05.2020
2650 Clouds 22 1013 97 0 0.82 73 05:32 22.05.2020
2651 Clouds 22 1012 97 0 0.63 77 04:44 22.05.2020
2652 Clouds 22 1012 97 0 0.47 45 03:49 22.05.2020
2653 Clouds 22 1012 97 0 0.57 10 03:23 22.05.2020
2654 Clouds 22 1013 96 0 0.45 351 01:57 22.05.2020
2655 Clouds 22 1013 96 0 0.45 351 01:29 22.05.2020
2656 Clouds 22 1013 97 0 0.39 350 00:49 22.05.2020
2657 Clouds 22 1014 96 0 0.4 345 00:28 22.05.2020
2658 Clouds 22 1014 96 0 0.4 345 23:45 21.05.2020
2659 Clouds 22 1013 97 0 0.41 318 23:25 21.05.2020
2660 Clouds 22 1013 97 0 0.41 318 22:59 21.05.2020
2661 Clouds 22 1013 97 0 0.41 318 22:59 21.05.2020
2662 Clouds 22 1013 97 0 0.41 318 22:40 21.05.2020
2663 Clouds 22 1014 94 0 0.49 294 22:22 21.05.2020
2664 Clouds 22 1014 94 0 0.49 294 21:59 21.05.2020
2665 Clouds 22 1014 94 0 0.49 294 21:59 21.05.2020
2666 Clouds 22 1014 94 0 0.49 294 21:41 21.05.2020
2667 Clouds 23 1014 93 0 0.55 262 21:22 21.05.2020
2668 Clouds 23 1014 94 0 0.32 48 20:46 21.05.2020
2669 Clouds 23 1013 93 0 0.22 64 20:22 21.05.2020
2670 Clouds 23 1013 93 0 0.22 64 19:55 21.05.2020
2671 Clouds 23 1013 93 0 0.22 64 19:36 21.05.2020
2672 Clouds 23 1013 93 0 0.39 326 19:18 21.05.2020
2673 Clouds 23 1013 93 0 0.39 326 18:40 21.05.2020
2674 Clouds 23 1013 93 0 0.39 326 18:40 21.05.2020
2675 Clouds 28 1011 69 10000 0.72 335 18:20 21.05.2020
2676 Clouds 28 1011 69 10000 0.72 335 17:58 21.05.2020
2677 Clouds 23 1011 92 0 0.72 335 17:40 21.05.2020
2678 Rain 24 1011 91 0 1 355 17:22 21.05.2020
2679 Rain 24 1011 91 0 1 355 16:46 21.05.2020
2680 Rain 25 1011 88 0 1.07 20 16:24 21.05.2020
2681 Rain 25 1011 88 0 1.07 20 15:47 21.05.2020
2682 Thunderstorm 28 1014 69 9000 4.1 140 15:24 21.05.2020
2683 Thunderstorm 28 1014 69 9000 4.1 140 14:57 21.05.2020
2684 Rain 26 1012 87 0 1.31 74 14:38 21.05.2020
2685 Rain 25 1013 91 0 1.64 86 14:18 21.05.2020
2686 Rain 27 1013 78 0 1.11 68 13:41 21.05.2020
2687 Rain 24 1014 91 0 1.14 88 13:22 21.05.2020
2688 Rain 24 1014 91 0 1.14 88 12:57 21.05.2020
2689 Rain 24 1014 91 0 1.14 88 12:37 21.05.2020
2690 Rain 25 1014 92 0 1.22 91 12:18 21.05.2020
2691 Rain 25 1014 92 0 1.22 91 11:41 21.05.2020
2692 Rain 25 1015 92 0 0.87 72 11:23 21.05.2020
2693 Rain 25 1015 92 0 0.87 72 10:57 21.05.2020
2694 Rain 25 1015 92 0 0.87 72 10:39 21.05.2020
2695 Rain 25 1015 81 0 0.92 64 10:19 21.05.2020
2696 Rain 25 1015 81 0 0.92 64 09:43 21.05.2020
2697 Clouds 25 1015 79 0 0.75 78 09:25 21.05.2020
2698 Clouds 25 1015 79 0 0.75 78 08:59 21.05.2020
2699 Clouds 25 1015 79 0 0.75 78 08:40 21.05.2020
2700 Clouds 23 1015 84 0 0.2 71 08:22 21.05.2020
2701 Clouds 23 1015 84 0 0.2 71 07:44 21.05.2020
2702 Clouds 22 1014 86 0 0.14 45 07:25 21.05.2020
2703 Clouds 22 1014 86 0 0.14 45 06:48 21.05.2020
2704 Clouds 22 1013 88 0 0.26 53 05:54 21.05.2020
2705 Clouds 21 1012 90 0 0.43 358 04:56 21.05.2020
2706 Clouds 21 1011 91 0 0.56 342 03:22 21.05.2020
2707 Clouds 21 1011 91 0 0.56 342 02:38 21.05.2020
2708 Clouds 21 1012 90 0 0.48 16 02:20 21.05.2020
2709 Clouds 21 1012 90 0 0.48 16 01:42 21.05.2020
2710 Clear 21 1012 89 0 0.12 347 01:19 21.05.2020
2711 Clear 21 1012 89 0 0.12 347 00:45 21.05.2020
2712 Clear 21 1012 89 0 0.12 347 00:45 21.05.2020
2713 Clear 22 1013 88 0 0.26 88 00:22 21.05.2020
2714 Clear 22 1013 88 0 0.26 88 23:41 20.05.2020
2715 Clouds 22 1013 85 0 0.44 143 23:20 20.05.2020
2716 Clouds 22 1013 85 0 0.44 143 22:57 20.05.2020
2717 Clouds 22 1013 85 0 0.44 143 22:38 20.05.2020
2718 Clouds 22 1012 83 0 0.45 165 22:20 20.05.2020
2719 Clouds 22 1012 83 0 0.45 165 21:40 20.05.2020
2720 Clouds 22 1013 92 0 1.1 88 21:21 20.05.2020
2721 Clouds 22 1013 92 0 1.1 88 20:44 20.05.2020
2722 Clouds 22 1012 90 0 0.84 77 20:24 20.05.2020
2723 Clouds 22 1012 90 0 0.84 77 19:56 20.05.2020
2724 Clouds 22 1012 90 0 0.84 77 19:37 20.05.2020
2725 Clouds 23 1012 88 0 0.71 27 19:19 20.05.2020
2726 Clouds 23 1012 88 0 0.71 27 18:43 20.05.2020
2727 Clouds 23 1011 87 0 0.68 357 18:23 20.05.2020
2728 Clouds 23 1011 87 0 0.68 357 17:42 20.05.2020
2729 Clouds 24 1010 86 0 0.48 289 17:22 20.05.2020
2730 Clouds 24 1010 86 0 0.48 289 16:58 20.05.2020
2731 Clouds 24 1010 86 0 0.48 289 16:39 20.05.2020
2732 Clouds 25 1010 81 0 0.72 293 16:21 20.05.2020
2733 Clouds 25 1010 81 0 0.72 293 15:44 20.05.2020
2734 Clouds 27 1011 71 0 0.65 301 15:25 20.05.2020
2735 Clouds 27 1011 71 0 0.65 301 14:59 20.05.2020
2736 Clouds 27 1011 71 0 0.65 301 14:37 20.05.2020
2737 Rain 27 1012 79 0 0.84 34 14:19 20.05.2020
2738 Rain 27 1012 79 0 0.84 34 13:39 20.05.2020
2739 Rain 27 1013 83 0 0.84 104 13:18 20.05.2020
2740 Rain 27 1013 83 0 0.84 104 12:42 20.05.2020
2741 Rain 26 1014 88 0 1.39 127 12:21 20.05.2020
2742 Rain 26 1014 88 0 1.39 127 11:39 20.05.2020
2743 Rain 25 1014 94 0 1.36 121 11:20 20.05.2020
2744 Rain 25 1014 94 0 1.36 121 10:55 20.05.2020
2745 Rain 25 1014 94 0 1.36 121 10:55 20.05.2020
2746 Rain 25 1014 94 0 1.36 121 10:37 20.05.2020
2747 Rain 24 1015 96 0 0.93 119 10:18 20.05.2020
2748 Rain 24 1015 96 0 0.93 119 09:41 20.05.2020
2749 Rain 23 1015 96 0 0.49 85 09:20 20.05.2020
2750 Rain 23 1015 96 0 0.49 85 08:42 20.05.2020
2751 Rain 22 1015 98 0 0.36 358 08:19 20.05.2020
2752 Rain 22 1015 98 0 0.36 358 07:50 20.05.2020
2753 Rain 22 1014 97 0 0.64 244 07:25 20.05.2020
2754 Rain 22 1014 97 0 0.64 244 06:53 20.05.2020
2755 Rain 22 1013 97 0 0.27 243 06:20 20.05.2020
2756 Rain 22 1012 97 0 0.32 233 04:40 20.05.2020
2757 Rain 22 1011 97 0 0.34 215 04:18 20.05.2020
2758 Rain 22 1011 97 0 0.34 215 03:35 20.05.2020
2759 Clouds 22 1012 97 0 0.3 323 01:45 20.05.2020
2760 Clouds 22 1012 96 0 0.44 317 01:23 20.05.2020
2761 Clouds 22 1012 96 0 0.44 317 00:41 20.05.2020
2762 Rain 22 1012 96 0 0.38 20 00:21 20.05.2020
2763 Rain 22 1012 96 0 0.38 20 23:37 19.05.2020
2764 Rain 22 1012 96 0 0.67 20 23:19 19.05.2020
2765 Rain 22 1012 96 0 0.67 20 22:55 19.05.2020
2766 Rain 22 1012 96 0 0.67 20 22:36 19.05.2020
2767 Clouds 23 1012 94 0 0.91 16 22:18 19.05.2020
2768 Clouds 23 1012 94 0 0.91 16 21:55 19.05.2020
2769 Clouds 23 1012 96 0 0.86 37 21:36 19.05.2020
2770 Clouds 23 1012 96 0 1.05 25 21:18 19.05.2020
2771 Clouds 23 1012 96 0 1.05 25 20:55 19.05.2020
2772 Clouds 23 1012 96 0 1.05 25 20:37 19.05.2020
2773 Clouds 23 1012 96 0 1.22 18 20:19 19.05.2020
2774 Clouds 23 1012 96 0 1.22 18 19:38 19.05.2020
2775 Rain 24 1011 95 0 1.11 12 19:20 19.05.2020
2776 Rain 24 1011 95 0 1.11 12 18:44 19.05.2020
2777 Rain 24 1010 94 0 1.15 4 18:23 19.05.2020
2778 Rain 24 1010 94 0 1.15 4 17:58 19.05.2020
2779 Rain 24 1010 94 0 1.15 4 17:39 19.05.2020
2780 Rain 26 1009 91 0 1.01 10 17:20 19.05.2020
2781 Rain 26 1009 91 0 1.01 10 16:42 19.05.2020
2782 Rain 28 1008 87 0 0.87 15 16:23 19.05.2020
2783 Rain 28 1008 87 0 0.87 15 15:58 19.05.2020
2784 Rain 28 1008 87 0 0.87 15 15:39 19.05.2020
2785 Rain 29 1009 82 0 0.6 346 15:20 19.05.2020
2786 Rain 29 1009 82 0 0.6 346 14:54 19.05.2020
2787 Rain 29 1009 82 0 0.6 346 14:36 19.05.2020
2788 Rain 29 1010 81 0 0.39 233 14:18 19.05.2020
2789 Rain 29 1010 81 0 0.39 233 13:55 19.05.2020
2790 Rain 29 1010 81 0 0.39 233 13:36 19.05.2020
2791 Rain 28 1011 88 0 1.13 196 13:18 19.05.2020
2792 Rain 28 1011 88 0 1.13 196 12:40 19.05.2020
2793 Rain 29 1012 75 0 1.3 171 12:22 19.05.2020
2794 Rain 29 1012 75 0 1.3 171 11:59 19.05.2020
2795 Rain 29 1012 75 0 1.3 171 11:40 19.05.2020
2796 Rain 29 1012 72 0 1.55 144 11:21 19.05.2020
2797 Rain 29 1012 72 0 1.55 144 10:49 19.05.2020
2798 Rain 29 1012 72 0 1.55 144 10:30 19.05.2020
2799 Rain 27 1013 83 0 1.45 118 09:59 19.05.2020
2800 Rain 27 1013 83 0 1.45 118 09:41 19.05.2020
2801 Rain 26 1014 85 0 0.65 162 09:23 19.05.2020
2802 Rain 26 1014 85 0 0.65 162 08:44 19.05.2020
2803 Clouds 25 1014 84 0 0.37 200 08:24 19.05.2020
2804 Clouds 25 1014 84 0 0.37 200 07:45 19.05.2020
2805 Clouds 23 1014 93 0 0.26 270 07:27 19.05.2020
2806 Clouds 23 1014 93 0 0.26 270 06:54 19.05.2020
2807 Clouds 22 1013 98 0 0.46 261 06:25 19.05.2020
2808 Clouds 22 1013 98 0 0.46 261 05:42 19.05.2020
2809 Clouds 22 1011 97 0 0.62 249 04:57 19.05.2020
2810 Clouds 22 1011 97 0 0.62 249 04:34 19.05.2020
2811 Clouds 22 1012 97 0 0.7 292 01:51 19.05.2020
2812 Clear 22 1012 97 0 0.67 282 00:47 19.05.2020
2813 Clear 22 1013 98 0 0.86 270 00:25 19.05.2020
2814 Clear 22 1013 98 0 0.86 270 23:58 18.05.2020
2815 Clear 22 1013 98 0 0.86 270 23:39 18.05.2020
2816 Clear 23 1013 96 0 0.85 269 23:19 18.05.2020
2817 Clear 23 1013 96 0 0.85 269 22:41 18.05.2020
2818 Clear 23 1013 95 0 0.98 278 22:22 18.05.2020
2819 Clear 23 1013 95 0 0.98 278 21:58 18.05.2020
2820 Clear 23 1013 95 0 0.98 278 21:39 18.05.2020
2821 Clear 23 1012 94 0 0.99 284 21:19 18.05.2020
2822 Clear 23 1012 94 0 0.99 284 20:56 18.05.2020
2823 Clear 23 1012 94 0 0.99 284 20:36 18.05.2020
2824 Clouds 23 1012 91 0 1.2 296 20:18 18.05.2020
2825 Clouds 23 1012 91 0 1.2 296 19:41 18.05.2020
2826 Clouds 24 1011 86 0 1.53 314 19:19 18.05.2020
2827 Clouds 23 1012 94 0 0.85 308 18:46 18.05.2020
2828 Clouds 26 1010 79 0 1.54 324 18:25 18.05.2020
2829 Clouds 26 1010 79 0 1.54 324 17:55 18.05.2020
2830 Clouds 24 1011 91 0 1.3 321 17:37 18.05.2020
2831 Clouds 28 1010 68 0 1.9 321 17:18 18.05.2020
2832 Clouds 28 1010 68 0 1.9 321 16:44 18.05.2020
2833 Clear 29 1009 63 0 2 322 16:22 18.05.2020
2834 Clouds 24 1010 89 0 1.29 335 16:00 18.05.2020
2835 Clear 29 1009 63 0 2 322 15:41 18.05.2020
2836 Clouds 30 1010 60 0 1.91 323 15:22 18.05.2020
2837 Clouds 30 1010 60 0 1.91 323 14:58 18.05.2020
2838 Clouds 30 1010 60 0 1.91 323 14:39 18.05.2020
2839 Clouds 25 1012 88 0 1.11 346 14:20 18.05.2020
2840 Clouds 25 1012 88 0 1.11 346 13:42 18.05.2020
2841 Clouds 24 1014 94 0 1.03 349 13:21 18.05.2020
2842 Clouds 24 1014 94 0 1.03 349 13:21 18.05.2020
2843 Clouds 24 1014 94 0 1.03 349 12:58 18.05.2020
2844 Clouds 24 1014 94 0 1.03 349 12:40 18.05.2020
2845 Rain 24 1015 97 0 0.8 357 12:20 18.05.2020
2846 Rain 24 1015 97 0 0.8 357 11:59 18.05.2020
2847 Rain 24 1015 97 0 0.8 357 11:40 18.05.2020
2848 Rain 23 1015 97 0 0.53 11 11:22 18.05.2020
2849 Rain 23 1015 97 0 0.53 11 10:46 18.05.2020
2850 Rain 23 1015 98 0 0.62 11 10:23 18.05.2020
2851 Rain 23 1015 98 0 0.62 11 09:46 18.05.2020
2852 Rain 23 1015 98 0 0.74 24 09:27 18.05.2020
2853 Rain 23 1015 97 0 0.29 85 08:57 18.05.2020
2854 Rain 23 1015 97 0 0.29 85 08:39 18.05.2020
2855 Rain 23 1015 98 0 0.71 162 08:20 18.05.2020
2856 Rain 23 1015 98 0 0.71 162 07:42 18.05.2020
2857 Rain 22 1014 98 0 1.3 125 07:21 18.05.2020
2858 Rain 22 1014 98 0 1.3 125 06:47 18.05.2020
2859 Rain 22 1013 98 0 0.92 92 06:21 18.05.2020
2860 Rain 22 1013 98 0 0.92 92 05:42 18.05.2020
2861 Rain 22 1011 98 0 0.83 357 03:38 18.05.2020
2862 Rain 22 1011 97 0 1.28 312 02:35 18.05.2020
2863 Rain 22 1011 97 0 0.83 275 01:45 18.05.2020
2864 Rain 22 1012 97 0 0.96 255 00:38 18.05.2020
2865 Rain 22 1012 97 0 0.96 255 00:38 18.05.2020
2866 Rain 22 1012 96 0 0.83 208 00:18 18.05.2020
2867 Rain 22 1012 96 0 0.83 208 23:42 17.05.2020
2868 Rain 23 1012 93 0 0.78 153 23:20 17.05.2020
2869 Rain 23 1012 93 0 0.78 153 22:59 17.05.2020
2870 Rain 23 1012 93 0 0.78 153 22:39 17.05.2020
2871 Rain 23 1011 91 0 0.79 138 22:21 17.05.2020
2872 Rain 23 1011 91 0 0.79 138 21:59 17.05.2020
2873 Rain 23 1011 91 0 0.79 138 21:41 17.05.2020
2874 Clear 25 1010 74 0 1.11 164 21:19 17.05.2020
2875 Clear 25 1010 74 0 1.11 164 20:55 17.05.2020
2876 Clear 25 1010 74 0 1.11 164 20:37 17.05.2020
2877 Clouds 26 1009 69 0 1.15 177 20:18 17.05.2020
2878 Clouds 26 1009 69 0 1.15 177 19:42 17.05.2020
2879 Clouds 27 1008 64 0 0.8 148 19:23 17.05.2020
2880 Clouds 27 1008 64 0 0.8 148 18:56 17.05.2020
2881 Clouds 27 1008 64 0 0.8 148 18:37 17.05.2020
2882 Clouds 29 1008 64 0 0.61 185 18:19 17.05.2020
2883 Clouds 29 1008 64 0 0.61 185 17:40 17.05.2020
2884 Clouds 31 1008 56 0 0.89 200 17:21 17.05.2020
2885 Clouds 31 1008 56 0 0.89 200 16:57 17.05.2020
2886 Clouds 31 1008 56 0 0.89 200 16:38 17.05.2020
2887 Clouds 33 1007 48 0 0.92 198 16:19 17.05.2020
2888 Clouds 33 1007 48 0 0.92 198 15:45 17.05.2020
2889 Clear 35 1008 36 0 1.16 203 15:24 17.05.2020
2890 Clear 35 1008 36 0 1.16 203 14:58 17.05.2020
2891 Clear 35 1008 36 0 1.16 203 14:39 17.05.2020
2892 Clouds 34 1009 45 0 0.31 154 14:19 17.05.2020
2893 Clouds 34 1009 45 0 0.31 154 14:19 17.05.2020
2894 Clouds 34 1009 45 0 0.31 154 13:41 17.05.2020
2895 Clouds 34 1011 47 0 0.58 152 13:20 17.05.2020
2896 Rain 22 1011 96 0 1.08 145 05:22 17.05.2020
2897 Rain 22 1010 95 0 0.96 185 03:31 17.05.2020
2898 Rain 22 1010 92 0 1.04 156 02:26 17.05.2020
2899 Clouds 23 1011 87 0 0.93 185 01:54 17.05.2020
2900 Clouds 24 1011 83 0 1.29 164 00:48 17.05.2020
2901 Clouds 24 1011 83 0 1.29 164 00:30 17.05.2020
2902 Clouds 24 1011 81 0 1.02 160 23:42 16.05.2020
2903 Clouds 25 1010 79 0 0.8 215 23:24 16.05.2020
2904 Clouds 25 1010 79 0 0.8 215 22:59 16.05.2020
2905 Clouds 25 1010 79 0 0.8 215 22:41 16.05.2020
2906 Clouds 25 1010 78 0 0.42 236 22:22 16.05.2020
2907 Clouds 25 1010 78 0 0.42 236 21:56 16.05.2020
2908 Clouds 25 1010 78 0 0.42 236 21:38 16.05.2020
2909 Clear 25 1009 76 0 0.86 225 21:19 16.05.2020
2910 Clear 26 1009 73 0 0.94 235 20:56 16.05.2020
2911 Clear 26 1009 73 0 0.94 235 20:56 16.05.2020
2912 Clear 26 1009 73 0 0.94 235 20:38 16.05.2020
2913 Clouds 27 1008 69 0 1.13 209 20:19 16.05.2020
2914 Clouds 27 1008 69 0 1.13 209 19:42 16.05.2020
2915 Clouds 28 1008 66 0 1.19 206 19:23 16.05.2020
2916 Clouds 28 1008 66 0 1.19 206 18:57 16.05.2020
2917 Clouds 28 1008 66 0 1.19 206 18:38 16.05.2020
2918 Clouds 29 1008 65 0 1.06 203 18:20 16.05.2020
2919 Clouds 29 1008 65 0 1.06 203 17:42 16.05.2020
2920 Clouds 30 1008 61 0 0.81 206 17:21 16.05.2020
2921 Clouds 30 1008 61 0 0.81 206 16:55 16.05.2020
2922 Clouds 30 1008 61 0 0.81 206 16:37 16.05.2020
2923 Clouds 32 1007 54 0 0.87 206 16:18 16.05.2020
2924 Clouds 32 1007 54 0 0.87 206 15:42 16.05.2020
2925 Clouds 35 1007 39 0 1.39 197 15:21 16.05.2020
2926 Clouds 35 1007 39 0 1.39 197 14:58 16.05.2020
2927 Clouds 35 1007 39 0 1.39 197 14:38 16.05.2020
2928 Clouds 35 1008 39 0 1.44 186 14:19 16.05.2020
2929 Clouds 35 1008 38 0 1.39 187 13:42 16.05.2020
2930 Clouds 35 1010 41 0 1.44 190 13:24 16.05.2020
2931 Clouds 35 1010 41 0 1.44 190 12:59 16.05.2020
2932 Clouds 35 1010 41 0 1.44 190 12:40 16.05.2020
2933 Clouds 34 1011 45 0 1.35 172 12:19 16.05.2020
2934 Clouds 34 1011 45 0 1.35 172 11:42 16.05.2020
2935 Clouds 33 1012 49 0 1.33 151 11:23 16.05.2020
2936 Clouds 33 1012 49 0 1.33 151 10:58 16.05.2020
2937 Clouds 33 1012 49 0 1.33 151 10:39 16.05.2020
2938 Clouds 31 1013 56 0 1.2 139 10:21 16.05.2020
2939 Clouds 31 1013 56 0 1.2 139 09:47 16.05.2020
2940 Clouds 30 1013 57 0 1.22 134 09:29 16.05.2020
2941 Clouds 30 1013 57 0 1.22 134 09:29 16.05.2020
2942 Clouds 27 1013 72 0 1.24 123 08:59 16.05.2020
2943 Clouds 27 1013 72 0 1.24 123 08:40 16.05.2020
2944 Clouds 24 1013 84 0 0.91 120 08:19 16.05.2020
2945 Clouds 24 1013 84 0 0.91 120 07:43 16.05.2020
2946 Clouds 24 1013 84 0 0.91 120 07:43 16.05.2020
2947 Clouds 22 1013 93 0 0.5 124 07:21 16.05.2020
2948 Clouds 22 1013 93 0 0.5 124 06:47 16.05.2020
2949 Clouds 22 1012 96 0 0.23 53 06:21 16.05.2020
2950 Clouds 22 1012 96 0 0.23 53 05:43 16.05.2020
2951 Clouds 22 1011 95 0 0.47 68 05:24 16.05.2020
2952 Clouds 22 1010 95 0 0.57 74 03:33 16.05.2020
2953 Clouds 22 1010 95 0 0.33 84 02:49 16.05.2020
2954 Clouds 23 1010 89 0 0.41 122 02:20 16.05.2020
2955 Clouds 23 1010 89 0 0.41 122 01:41 16.05.2020
2956 Clouds 23 1010 90 0 0.77 212 00:59 16.05.2020
2957 Clouds 23 1010 90 0 0.77 212 00:40 16.05.2020
2958 Clouds 23 1011 90 0 1.39 226 00:20 16.05.2020
2959 Clouds 23 1011 90 0 1.39 226 23:40 15.05.2020
2960 Clouds 23 1012 90 0 1 181 23:20 15.05.2020
2961 Clouds 23 1012 90 0 1 181 22:42 15.05.2020
2962 Clouds 23 1012 94 0 0.59 131 22:23 15.05.2020
2963 Clouds 23 1012 94 0 0.59 131 21:59 15.05.2020
2964 Clouds 23 1012 94 0 0.59 131 21:39 15.05.2020
2965 Clouds 22 1011 97 0 0.64 308 21:21 15.05.2020
2966 Clouds 22 1011 97 0 0.64 308 20:57 15.05.2020
2967 Clouds 22 1011 97 0 0.64 308 20:39 15.05.2020
2968 Clouds 22 1012 97 0 0.95 308 20:21 15.05.2020
2969 Clouds 22 1012 97 0 0.95 308 19:44 15.05.2020
2970 Clouds 23 1011 94 0 0.92 324 19:25 15.05.2020
2971 Clouds 23 1012 91 0 1.2 304 18:59 15.05.2020
2972 Clouds 23 1012 91 0 1.2 304 18:39 15.05.2020
2973 Clouds 24 1011 83 0 1.09 315 18:21 15.05.2020
2974 Clouds 24 1011 83 0 1.09 315 17:39 15.05.2020
2975 Clouds 26 1011 72 0 1.52 325 17:19 15.05.2020
2976 Clouds 26 1011 72 0 1.52 325 16:57 15.05.2020
2977 Clouds 26 1011 72 0 1.52 325 16:38 15.05.2020
2978 Clouds 26 1010 76 0 1.17 339 16:19 15.05.2020
2979 Clouds 26 1010 76 0 1.17 339 15:41 15.05.2020
2980 Clouds 24 1011 85 0 0.74 14 15:23 15.05.2020
2981 Clouds 26 1011 76 0 1.24 20 14:59 15.05.2020
2982 Clouds 26 1011 76 0 1.24 20 14:41 15.05.2020
2983 Clouds 25 1012 83 0 0.37 134 14:23 15.05.2020
2984 Clouds 27 1012 71 0 0.78 73 13:58 15.05.2020
2985 Clouds 27 1012 71 0 0.78 73 13:38 15.05.2020
2986 Clouds 26 1013 78 0 1.34 114 13:19 15.05.2020
2987 Clouds 26 1013 78 0 1.34 114 12:39 15.05.2020
2988 Rain 26 1014 84 0 1.47 139 12:18 15.05.2020
2989 Rain 26 1014 84 0 1.47 139 11:56 15.05.2020
2990 Rain 26 1014 84 0 1.47 139 11:38 15.05.2020
2991 Rain 26 1014 87 0 1.4 150 11:19 15.05.2020
2992 Rain 26 1014 87 0 1.4 150 10:57 15.05.2020
2993 Rain 26 1014 87 0 1.4 150 10:38 15.05.2020
2994 Clouds 26 1015 79 0 0.99 170 10:20 15.05.2020
2995 Clouds 26 1015 79 0 0.99 170 09:56 15.05.2020
2996 Clouds 26 1015 79 0 0.99 170 09:36 15.05.2020
2997 Clouds 26 1014 75 0 0.96 263 09:18 15.05.2020
2998 Clouds 26 1014 75 0 0.96 263 08:38 15.05.2020
2999 Clouds 24 1014 85 0 0.78 256 08:20 15.05.2020
3000 Clouds 24 1014 85 0 0.78 256 07:47 15.05.2020
3001 Clouds 22 1013 93 0 0.43 258 07:28 15.05.2020
3002 Clouds 22 1013 93 0 0.43 258 06:59 15.05.2020
3003 Clouds 21 1013 96 0 0.53 239 06:28 15.05.2020
3004 Clouds 21 1011 95 0 0.59 230 04:39 15.05.2020
3005 Clouds 21 1011 94 0 0.74 243 03:51 15.05.2020
3006 Clouds 22 1011 93 0 0.89 249 02:55 15.05.2020
3007 Clear 22 1012 88 0 0.83 270 01:37 15.05.2020
3008 Clear 23 1012 87 0 0.97 250 01:18 15.05.2020
3009 Clear 23 1012 87 0 0.97 250 00:40 15.05.2020
3010 Rain 23 1012 85 0 0.78 248 00:22 15.05.2020
3011 Rain 23 1012 85 0 0.78 248 23:41 14.05.2020
3012 Clear 23 1012 81 0 0.92 258 23:19 14.05.2020
3013 Clear 23 1012 81 0 0.92 258 22:55 14.05.2020
3014 Clear 23 1012 81 0 0.92 258 22:37 14.05.2020
3015 Clear 24 1011 79 0 1.16 226 22:18 14.05.2020
3016 Clear 24 1011 79 0 1.16 226 21:41 14.05.2020
3017 Clouds 23 1011 91 0 1.25 281 21:20 14.05.2020
3018 Clouds 23 1011 91 0 1.25 281 20:58 14.05.2020
3019 Clouds 23 1011 91 0 1.25 281 20:39 14.05.2020
3020 Clear 24 1010 90 0 1.07 245 20:20 14.05.2020
3021 Clear 24 1010 90 0 1.07 245 19:57 14.05.2020
3022 Clear 24 1010 90 0 1.07 245 19:39 14.05.2020
3023 Clear 24 1010 90 0 1.15 263 19:20 14.05.2020
3024 Clear 24 1010 90 0 1.15 263 18:57 14.05.2020
3025 Clear 24 1010 90 0 1.15 263 18:38 14.05.2020
3026 Rain 25 1009 88 0 1.35 301 18:19 14.05.2020
3027 Rain 25 1009 88 0 1.35 301 17:57 14.05.2020
3028 Rain 25 1009 88 0 1.35 301 17:37 14.05.2020
3029 Rain 28 1008 71 0 2.29 294 17:18 14.05.2020
3030 Rain 28 1008 71 0 2.29 294 16:41 14.05.2020
3031 Rain 31 1008 55 0 2 279 16:23 14.05.2020
3032 Rain 31 1008 55 0 2 279 15:59 14.05.2020
3033 Rain 31 1008 55 0 2 279 15:40 14.05.2020
3034 Rain 31 1008 55 0 2 279 15:40 14.05.2020
3035 Clear 32 1009 48 0 1.65 264 15:21 14.05.2020
3036 Clear 32 1009 48 0 1.65 264 14:56 14.05.2020
3037 Clear 32 1009 48 0 1.65 264 14:38 14.05.2020
3038 Clouds 32 1010 49 0 1.76 259 14:20 14.05.2020
3039 Clouds 32 1010 52 0 1.78 269 14:20 14.05.2020
3040 Clouds 32 1010 52 0 1.78 269 13:57 14.05.2020
3041 Clouds 32 1010 52 0 1.78 269 13:38 14.05.2020
3042 Clouds 32 1010 52 0 1.78 269 13:38 14.05.2020
3043 Rain 30 1011 60 0 1.76 269 13:19 14.05.2020
3044 Rain 30 1011 60 0 1.76 269 12:57 14.05.2020
3045 Rain 30 1011 60 0 1.76 269 12:37 14.05.2020
3046 Rain 29 1013 75 0 1.01 282 12:18 14.05.2020
3047 Rain 29 1013 75 0 1.01 282 11:56 14.05.2020
3048 Rain 29 1013 75 0 1.01 282 11:37 14.05.2020
3049 Rain 29 1013 75 0 1.01 282 11:37 14.05.2020
3050 Rain 26 1014 88 0 0.37 285 11:19 14.05.2020
3051 Rain 26 1014 88 0 0.37 285 10:42 14.05.2020
3052 Rain 25 1014 82 0 0.32 356 10:24 14.05.2020
3053 Rain 25 1014 82 0 0.32 356 09:56 14.05.2020
3054 Rain 25 1014 82 0 0.32 356 09:56 14.05.2020
3055 Rain 22 1015 97 0 1.32 23 09:36 14.05.2020
3056 Rain 25 1015 79 0 1.3 47 09:18 14.05.2020
3057 Rain 25 1015 79 0 1.3 47 08:37 14.05.2020
3058 Clouds 25 1014 81 0 0.8 92 08:19 14.05.2020
3059 Clouds 25 1014 81 0 0.8 92 07:45 14.05.2020
3060 Clouds 22 1013 91 0 0.57 116 07:22 14.05.2020
3061 Clouds 22 1013 91 0 0.57 116 06:48 14.05.2020
3062 Clouds 21 1012 96 0 0.56 139 06:26 14.05.2020
3063 Clouds 21 1012 96 0 0.56 139 05:42 14.05.2020
3064 Clouds 21 1012 96 0 0.56 139 05:42 14.05.2020
3065 Clouds 21 1011 96 0 0.68 174 04:56 14.05.2020
3066 Clouds 22 1011 94 0 0.85 180 03:44 14.05.2020
3067 Clouds 22 1011 93 0 0.71 177 03:20 14.05.2020
3068 Clouds 22 1011 93 0 0.71 177 02:36 14.05.2020
3069 Clouds 22 1012 90 0 0.91 188 01:52 14.05.2020
3070 Clouds 22 1013 89 0 1.04 182 00:58 14.05.2020
3071 Clouds 22 1013 89 0 1.04 182 00:29 14.05.2020
3072 Clouds 23 1013 88 0 1.16 183 23:55 13.05.2020
3073 Clouds 23 1013 88 0 1.16 183 23:37 13.05.2020
3074 Clouds 23 1012 88 0 1.08 177 23:18 13.05.2020
3075 Clouds 23 1012 88 0 1.08 177 22:41 13.05.2020
3076 Clear 23 1012 86 0 1.19 168 22:22 13.05.2020
3077 Clear 23 1012 86 0 1.19 168 21:59 13.05.2020
3078 Clear 23 1012 86 0 1.19 168 21:40 13.05.2020
3079 Clear 23 1011 83 0 1.33 162 21:19 13.05.2020
3080 Clear 24 1011 80 0 1.32 170 20:56 13.05.2020
3081 Clear 24 1011 80 0 1.32 170 20:38 13.05.2020
3082 Clouds 25 1010 80 0 1.21 157 20:19 13.05.2020
3083 Clouds 25 1010 80 0 1.21 157 19:42 13.05.2020
3084 Clouds 25 1009 80 0 0.94 117 19:24 13.05.2020
3085 Clouds 25 1009 80 0 0.94 117 18:45 13.05.2020
3086 Clouds 27 1008 77 0 1.05 91 18:22 13.05.2020
3087 Clouds 27 1008 77 0 1.05 91 18:22 13.05.2020
3088 Clouds 27 1008 77 0 1.05 91 18:22 13.05.2020
3089 Clouds 27 1008 77 0 1.05 91 17:57 13.05.2020
3090 Clouds 27 1008 77 0 1.05 91 17:37 13.05.2020
3091 Clouds 29 1008 67 0 0.95 121 17:18 13.05.2020
3092 Clouds 29 1008 67 0 0.95 121 17:18 13.05.2020
3093 Clouds 29 1008 67 0 0.95 121 16:40 13.05.2020
3094 Clouds 29 1008 63 0 1.01 138 16:19 13.05.2020
3095 Clouds 29 1008 63 0 1.01 138 15:55 13.05.2020
3096 Clouds 29 1008 63 0 1.01 138 15:55 13.05.2020
3097 Clouds 29 1008 63 0 1.01 138 15:36 13.05.2020
3098 Clouds 30 1009 60 0 0.78 126 15:18 13.05.2020
3099 Clouds 30 1009 60 0 0.78 126 14:42 13.05.2020
3100 Clouds 30 1009 60 0 0.78 126 14:42 13.05.2020
3101 Clouds 33 1009 46 0 0.92 23 14:22 13.05.2020
3102 Clouds 33 1009 46 0 0.92 23 13:58 13.05.2020
3103 Clouds 33 1009 46 0 0.92 23 13:40 13.05.2020
3104 Clouds 34 1011 44 0 0.19 3 13:21 13.05.2020
3105 Clouds 34 1011 44 0 0.19 3 13:21 13.05.2020
3106 Clouds 34 1011 44 0 0.19 3 12:57 13.05.2020
3107 Clouds 34 1011 44 0 0.19 3 12:39 13.05.2020
3108 Clouds 34 1012 46 0 0.41 252 12:18 13.05.2020
3109 Clouds 34 1012 46 0 0.41 252 11:56 13.05.2020
3110 Clouds 34 1012 46 0 0.41 252 11:36 13.05.2020
3111 Clouds 33 1013 51 0 0.31 278 11:18 13.05.2020
3112 Clouds 33 1013 51 0 0.31 278 10:56 13.05.2020
3113 Clouds 33 1013 51 0 0.31 278 10:38 13.05.2020
3114 Clouds 29 1014 65 0 0.28 277 10:18 13.05.2020
3115 Clouds 29 1014 65 0 0.28 277 09:43 13.05.2020
3116 Clouds 26 1014 80 0 0.32 270 09:23 13.05.2020
3117 Clouds 26 1014 80 0 0.32 270 09:23 13.05.2020
3118 Clouds 26 1014 80 0 0.32 270 08:57 13.05.2020
3119 Clouds 26 1014 80 0 0.32 270 08:37 13.05.2020
3120 Clouds 24 1014 92 0 0.45 201 08:18 13.05.2020
3121 Clouds 24 1014 92 0 0.45 201 07:43 13.05.2020
3122 Clouds 22 1013 95 0 0.66 177 07:24 13.05.2020
3123 Clouds 22 1013 95 0 0.66 177 06:47 13.05.2020
3124 Rain 22 1012 96 0 0.27 158 06:27 13.05.2020
3125 Rain 22 1012 96 0 0.77 146 04:50 13.05.2020
3126 Rain 22 1012 96 0 0.69 208 03:27 13.05.2020
3127 Rain 22 1012 96 0 0.69 208 02:32 13.05.2020
3128 Rain 23 1012 94 0 0.83 232 01:37 13.05.2020
3129 Rain 23 1012 92 0 0.61 247 00:50 13.05.2020
3130 Clouds 23 1013 93 0 0.62 226 00:20 13.05.2020
3131 Clouds 23 1013 93 0 0.62 226 23:40 12.05.2020
3132 Clouds 23 1012 92 0 0.79 193 23:21 12.05.2020
3133 Clouds 23 1012 92 0 0.79 193 23:21 12.05.2020
3134 -273 0 0 0 0 0 22:59 12.05.2020
3135 Clouds 23 1012 92 0 0.79 193 22:41 12.05.2020
3136 Clouds 23 1012 92 0 0.92 177 22:21 12.05.2020
3137 Clouds 23 1012 92 0 0.92 177 21:56 12.05.2020
3138 Clouds 23 1012 92 0 0.92 177 21:37 12.05.2020
3139 Clouds 23 1012 92 0 0.92 177 21:37 12.05.2020
3140 Clouds 24 1012 91 0 1.04 172 21:19 12.05.2020
3141 Clouds 24 1011 93 0 0.96 197 20:57 12.05.2020
3142 Clouds 24 1011 93 0 0.96 197 20:38 12.05.2020
3143 Clouds 24 1011 92 0 1.04 190 20:20 12.05.2020
3144 Clouds 24 1011 92 0 1.04 190 19:56 12.05.2020
3145 Clouds 24 1011 92 0 1.04 190 19:37 12.05.2020
3146 Clouds 25 1009 90 0 1.13 181 19:19 12.05.2020
3147 Clouds 25 1009 90 0 1.13 181 18:43 12.05.2020
3148 Clouds 26 1009 85 0 1.32 177 18:24 12.05.2020
3149 Clouds 26 1009 85 0 1.32 177 17:58 12.05.2020
3150 Clouds 26 1009 85 0 1.32 177 17:39 12.05.2020
3151 Clouds 29 1008 70 0 1.42 206 17:21 12.05.2020
3152 Clouds 29 1008 70 0 1.42 206 16:43 12.05.2020
3153 Rain 31 1008 57 0 1.21 251 16:23 12.05.2020
3154 Rain 31 1008 57 0 1.21 251 15:56 12.05.2020
3155 Rain 31 1008 57 0 1.21 251 15:37 12.05.2020
3156 Clouds 33 1008 49 0 1.2 305 15:18 12.05.2020
3157 Clouds 33 1008 49 0 1.2 305 15:18 12.05.2020
3158 Clouds 33 1008 49 0 1.2 305 14:55 12.05.2020
3159 Clear 33 1008 52 0 1.11 276 14:36 12.05.2020
3160 Rain 32 1009 54 0 1.48 289 14:18 12.05.2020
3161 Rain 32 1009 54 0 1.48 289 13:57 12.05.2020
3162 Rain 32 1009 54 0 1.48 289 13:57 12.05.2020
3163 Rain 32 1009 54 0 1.48 289 13:39 12.05.2020
3164 Rain 31 1011 58 0 1.4 309 13:19 12.05.2020
3165 Rain 31 1011 58 0 1.4 309 12:57 12.05.2020
3166 Rain 31 1011 58 0 1.4 309 12:38 12.05.2020
3167 Rain 29 1012 71 0 1.14 351 12:20 12.05.2020
3168 Rain 29 1012 71 0 1.14 351 11:57 12.05.2020
3169 Rain 29 1012 71 0 1.14 351 11:38 12.05.2020
3170 Clouds 28 1013 70 0 0.98 19 11:20 12.05.2020
3171 Clouds 28 1013 70 0 0.98 19 10:56 12.05.2020
3172 Clouds 28 1013 70 0 0.98 19 10:37 12.05.2020
3173 Clouds 26 1014 79 0 0.96 354 10:18 12.05.2020
3174 Clouds 26 1014 79 0 0.96 354 09:57 12.05.2020
3175 Clouds 26 1014 79 0 0.96 354 09:38 12.05.2020
3176 Clouds 25 1015 88 0 1.07 350 09:19 12.05.2020
3177 Clouds 25 1015 88 0 1.07 350 08:41 12.05.2020
3178 Rain 23 1014 95 0 1.03 6 08:21 12.05.2020
3179 Rain 23 1014 95 0 1.03 6 07:55 12.05.2020
3180 Rain 23 1014 95 0 1.03 6 07:37 12.05.2020
3181 Rain 22 1013 96 0 0.66 346 07:18 12.05.2020
3182 Rain 22 1013 96 0 0.66 346 06:37 12.05.2020
3183 Rain 22 1012 97 0 0.34 252 06:19 12.05.2020
3184 Rain 22 1012 97 0 0.34 252 05:45 12.05.2020
3185 Clouds 22 1011 96 0 0.61 229 03:57 12.05.2020
3186 Clouds 22 1011 95 0 0.74 237 03:19 12.05.2020
3187 Clouds 22 1011 92 0 0.94 230 02:27 12.05.2020
3188 Clouds 22 1011 92 0 0.94 230 01:40 12.05.2020
3189 Clouds 23 1011 91 0 0.79 260 00:58 12.05.2020
3190 Clouds 23 1012 90 0 0.82 282 00:24 12.05.2020
3191 Clouds 23 1012 90 0 0.82 282 23:57 11.05.2020
3192 Clouds 23 1012 90 0 0.82 282 23:37 11.05.2020
3193 Clouds 23 1012 88 0 0.96 284 23:19 11.05.2020
3194 Clouds 23 1012 88 0 0.96 284 22:56 11.05.2020
3195 Clouds 23 1012 88 0 0.96 284 22:56 11.05.2020
3196 Clouds 23 1012 88 0 0.96 284 22:38 11.05.2020
3197 Clouds 24 1011 86 0 0.83 279 22:19 11.05.2020
3198 Clouds 24 1011 86 0 0.83 279 21:55 11.05.2020
3199 Clouds 24 1011 86 0 0.83 279 21:36 11.05.2020
3200 Clouds 23 1012 96 0 0.97 309 21:36 11.05.2020
3201 Clouds 23 1011 95 0 1.03 314 21:18 11.05.2020
3202 Clouds 23 1011 95 0 1.03 314 20:54 11.05.2020
3203 Clouds 23 1011 95 0 1.03 314 20:36 11.05.2020
3204 Clouds 23 1011 94 0 1.41 301 20:18 11.05.2020
3205 Clouds 23 1011 94 0 1.41 301 19:41 11.05.2020
3206 Clouds 23 1011 94 0 1.41 301 19:41 11.05.2020
3207 Rain 24 1009 90 0 1.59 296 19:22 11.05.2020
3208 Rain 24 1009 90 0 1.59 296 18:57 11.05.2020
3209 Rain 24 1009 90 0 1.59 296 18:38 11.05.2020
3210 Rain 27 1008 78 0 0.55 336 18:19 11.05.2020
3211 Rain 27 1008 78 0 0.55 336 17:57 11.05.2020
3212 Rain 27 1008 78 0 0.55 336 17:39 11.05.2020
3213 Clouds 31 1008 60 0 0.65 11 17:20 11.05.2020
3214 Clouds 31 1008 60 0 0.65 11 16:56 11.05.2020
3215 Clouds 31 1008 60 0 0.65 11 16:37 11.05.2020
3216 Clouds 32 1007 49 0 0.77 340 16:18 11.05.2020
3217 Clouds 32 1007 49 0 0.77 340 15:42 11.05.2020
3218 Clouds 32 1008 52 0 0.92 339 15:20 11.05.2020
3219 Clouds 32 1008 52 0 0.92 339 14:58 11.05.2020
3220 Clouds 32 1008 52 0 0.92 339 14:40 11.05.2020
3221 Clouds 32 1009 50 0 1.22 337 14:21 11.05.2020
3222 Clouds 34 1009 44 0 0.68 316 13:54 11.05.2020
3223 Clouds 34 1009 44 0 0.68 316 13:36 11.05.2020
3224 Clouds 35 1010 41 0 0.52 306 13:18 11.05.2020
3225 Clouds 35 1010 41 0 0.52 306 12:54 11.05.2020
3226 Clouds 35 1010 41 0 0.52 306 12:36 11.05.2020
3227 Clouds 35 1011 44 0 0.38 283 12:18 11.05.2020
3228 Clouds 35 1011 44 0 0.38 283 11:41 11.05.2020
3229 Clouds 33 1012 49 0 0.49 227 11:22 11.05.2020
3230 Clouds 33 1012 49 0 0.49 227 10:58 11.05.2020
3231 Clouds 33 1012 49 0 0.49 227 10:58 11.05.2020
3232 Clouds 33 1012 49 0 0.49 227 10:40 11.05.2020
3233 Clouds 31 1013 58 0 0.81 183 10:21 11.05.2020
3234 Clouds 31 1013 58 0 0.81 183 09:58 11.05.2020
3235 Clouds 31 1013 58 0 0.81 183 09:39 11.05.2020
3236 Clouds 29 1014 67 0 0.77 158 09:19 11.05.2020
3237 Clouds 29 1014 67 0 0.77 158 09:19 11.05.2020
3238 Clouds 29 1014 67 0 0.77 158 08:55 11.05.2020
3239 Clouds 29 1014 67 0 0.77 158 08:37 11.05.2020
3240 Clouds 25 1014 81 0 0.95 160 08:18 11.05.2020
3241 Clouds 25 1014 81 0 0.95 160 07:42 11.05.2020
3242 Clouds 22 1013 94 0 0.74 148 07:23 11.05.2020
3243 Clouds 22 1013 94 0 0.74 148 06:41 11.05.2020
3244 Clouds 21 1012 98 0 0.69 150 05:56 11.05.2020
3245 Clouds 21 1011 98 0 0.73 151 05:24 11.05.2020
3246 Clouds 21 1011 98 0 0.88 150 04:24 11.05.2020
3247 Clouds 21 1011 97 0 0.9 151 02:47 11.05.2020
3248 Clouds 22 1012 95 0 0.55 175 02:29 11.05.2020
3249 Clouds 21 1012 97 0 0.73 155 01:31 11.05.2020
3250 Clouds 21 1012 96 0 0.64 156 00:44 11.05.2020
3251 Clouds 22 1012 94 0 0.82 142 00:19 11.05.2020
3252 Clouds 22 1012 94 0 0.82 142 23:43 10.05.2020
3253 Clouds 22 1012 93 0 0.62 145 23:20 10.05.2020
3254 Clouds 22 1012 93 0 0.62 145 22:55 10.05.2020
3255 Clouds 22 1012 93 0 0.62 145 22:37 10.05.2020
3256 Clouds 22 1012 95 0 0.52 119 22:19 10.05.2020
3257 Clouds 22 1012 95 0 0.52 119 21:44 10.05.2020
3258 Clouds 23 1011 90 0 0.32 172 21:19 10.05.2020
3259 Clouds 23 1011 90 0 0.32 172 20:54 10.05.2020
3260 Clouds 23 1011 90 0 0.32 172 20:36 10.05.2020
3261 Clouds 23 1011 90 0 0.32 172 20:36 10.05.2020
3262 Clouds 23 1011 90 0 0.12 209 20:18 10.05.2020
3263 Clouds 23 1011 90 0 0.12 209 19:40 10.05.2020
3264 Clouds 23 1010 90 0 0.37 195 19:22 10.05.2020
3265 Clouds 23 1010 90 0 0.37 195 18:57 10.05.2020
3266 Clouds 23 1010 90 0 0.37 195 18:57 10.05.2020
3267 Clouds 23 1010 90 0 0.37 195 18:37 10.05.2020
3268 Clouds 24 1009 88 0 0.4 148 18:19 10.05.2020
3269 Clouds 24 1009 88 0 0.4 148 17:58 10.05.2020
3270 Clouds 24 1009 88 0 0.4 148 17:40 10.05.2020
3271 Clouds 24 1008 86 0 0.6 151 17:21 10.05.2020
3272 Clouds 24 1008 86 0 0.6 151 16:56 10.05.2020
3273 Clouds 24 1008 86 0 0.6 151 16:38 10.05.2020
3274 Clouds 25 1008 84 0 0.92 149 16:19 10.05.2020
3275 Clouds 25 1008 84 0 0.92 149 15:44 10.05.2020
3276 Clouds 24 1009 86 0 0.99 148 15:24 10.05.2020
3277 Clouds 24 1009 86 0 0.99 148 14:57 10.05.2020
3278 Clouds 24 1009 86 0 0.99 148 14:38 10.05.2020
3279 Clouds 24 1009 86 0 0.99 148 14:38 10.05.2020
3280 Clouds 27 1010 69 0 0.99 182 14:19 10.05.2020
3281 Clouds 27 1010 69 0 0.99 182 13:58 10.05.2020
3282 Clouds 27 1010 69 0 0.99 182 13:58 10.05.2020
3283 Clouds 27 1010 69 0 0.99 182 13:38 10.05.2020
3284 Clouds 25 1011 81 0 0.94 152 13:20 10.05.2020
3285 Clouds 25 1011 81 0 0.94 152 12:57 10.05.2020
3286 Clouds 25 1011 81 0 0.94 152 12:38 10.05.2020
3287 Clouds 25 1012 83 0 0.74 144 12:20 10.05.2020
3288 Clouds 25 1012 83 0 0.74 144 11:56 10.05.2020
3289 Clouds 25 1012 83 0 0.74 144 11:38 10.05.2020
3290 Clouds 25 1012 81 0 0.82 152 11:19 10.05.2020
3291 Clouds 25 1012 81 0 0.82 152 10:46 10.05.2020
3292 Clouds 25 1013 81 0 0.66 152 10:27 10.05.2020
3293 Clouds 25 1013 81 0 0.66 152 09:58 10.05.2020
3294 Clouds 25 1013 81 0 0.66 152 09:39 10.05.2020
3295 Clouds 23 1013 90 0 0.53 166 09:20 10.05.2020
3296 Clouds 23 1013 90 0 0.53 166 08:48 10.05.2020
3297 Clouds 23 1014 93 0 0.52 177 08:24 10.05.2020
3298 Clouds 23 1014 93 0 0.52 177 07:45 10.05.2020
3299 Clouds 21 1013 97 0 0.7 175 07:21 10.05.2020
3300 Clouds 21 1013 97 0 0.7 175 06:56 10.05.2020
3301 Clouds 21 1012 98 0 0.58 183 06:30 10.05.2020
3302 Clouds 21 1012 98 0 0.58 183 05:48 10.05.2020
3303 Clouds 20 1011 98 0 0.06 65 04:50 10.05.2020
3304 Clouds 20 1011 98 0 0.06 65 04:31 10.05.2020
3305 Clouds 21 1010 98 0 0.25 171 03:54 10.05.2020
3306 Clouds 21 1010 98 0 0.25 171 03:35 10.05.2020
3307 Clouds 21 1010 98 0 0.31 175 02:41 10.05.2020
3308 Clouds 21 1011 97 0 0.12 155 02:18 10.05.2020
3309 Clouds 21 1011 97 0 0.12 155 01:41 10.05.2020
3310 Clouds 21 1012 97 0 0.29 230 01:19 10.05.2020
3311 Clouds 21 1012 97 0 0.29 230 00:54 10.05.2020
3312 Clouds 22 1013 97 0 0.44 281 00:24 10.05.2020
3313 Clouds 22 1013 97 0 0.44 281 23:58 09.05.2020
3314 Clouds 22 1013 97 0 0.44 281 23:39 09.05.2020
3315 Clouds 22 1013 96 0 0.46 313 23:20 09.05.2020
3316 Clouds 22 1013 96 0 0.46 313 22:42 09.05.2020
3317 Clouds 21 1012 97 0 0.52 264 22:23 09.05.2020
3318 Clouds 21 1012 97 0 0.52 264 21:58 09.05.2020
3319 Clouds 21 1012 97 0 0.52 264 21:40 09.05.2020
3320 Clouds 22 1012 98 0 0.89 227 21:21 09.05.2020
3321 Clouds 22 1012 98 0 0.89 227 20:58 09.05.2020
3322 Clouds 22 1012 98 0 0.89 227 20:38 09.05.2020
3323 Clouds 22 1011 98 0 1.25 215 20:20 09.05.2020
3324 Clouds 22 1011 98 0 1.25 215 19:56 09.05.2020
3325 Clouds 22 1011 98 0 1.25 215 19:37 09.05.2020
3326 Clouds 22 1010 98 0 0.91 261 19:18 09.05.2020
3327 Clouds 22 1010 98 0 0.91 261 19:18 09.05.2020
3328 Clouds 22 1010 98 0 0.91 261 18:43 09.05.2020
3329 Clouds 22 1009 98 0 0.78 271 18:24 09.05.2020
3330 Clouds 22 1009 98 0 0.78 271 17:46 09.05.2020
3331 Rain 23 1009 97 0 0.68 323 17:23 09.05.2020
3332 Rain 23 1009 97 0 0.68 323 16:57 09.05.2020
3333 Rain 23 1009 97 0 0.68 323 16:38 09.05.2020
3334 -273 0 0 0 0 0 16:19 09.05.2020
3335 Rain 23 1009 97 0 0.69 353 15:44 09.05.2020
3336 Rain 23 1010 97 0 1.43 354 15:22 09.05.2020
3337 Rain 23 1010 97 0 1.43 354 14:56 09.05.2020
3338 Rain 23 1010 97 0 1.43 354 14:38 09.05.2020
3339 Clouds 24 1011 88 0 1.26 357 14:18 09.05.2020
3340 Clouds 24 1011 88 0 1.26 357 14:18 09.05.2020
3341 Clouds 24 1011 88 0 1.26 357 13:56 09.05.2020
3342 Clouds 24 1011 88 0 1.26 357 13:38 09.05.2020
3343 Rain 23 1012 92 0 1.51 355 13:18 09.05.2020
3344 Rain 23 1012 92 0 1.51 355 12:40 09.05.2020
3345 Rain 22 1013 96 0 0.99 7 12:22 09.05.2020
3346 Rain 22 1013 96 0 0.99 7 11:45 09.05.2020
3347 Rain 22 1014 96 0 0.84 28 11:20 09.05.2020
3348 Rain 22 1014 96 0 0.84 28 10:56 09.05.2020
3349 Rain 22 1014 96 0 0.84 28 10:38 09.05.2020
3350 Rain 22 1014 95 0 0.77 56 10:19 09.05.2020
3351 Rain 22 1014 95 0 0.77 56 09:47 09.05.2020
3352 Rain 22 1014 97 0 0.7 54 09:20 09.05.2020
3353 Clouds 23 1014 96 0 0.75 52 08:58 09.05.2020
3354 Clouds 23 1014 96 0 0.75 52 08:40 09.05.2020
3355 Clouds 22 1014 97 0 0.58 69 08:21 09.05.2020
3356 Clouds 22 1014 97 0 0.58 69 07:45 09.05.2020
3357 Rain 22 1013 98 0 0.62 129 07:27 09.05.2020
3358 Rain 22 1013 98 0 0.62 129 06:44 09.05.2020
3359 Rain 21 1012 99 0 0.59 111 06:20 09.05.2020
3360 Rain 21 1012 99 0 0.59 111 05:42 09.05.2020
3361 Rain 22 1010 98 0 1.09 34 03:41 09.05.2020
3362 Rain 22 1010 98 0 1.36 16 02:54 09.05.2020
3363 Clouds 22 1010 98 0 1.11 347 02:30 09.05.2020
3364 Rain 22 1011 98 0 1.14 360 01:51 09.05.2020
3365 Rain 22 1011 97 0 1.46 18 01:22 09.05.2020
3366 Rain 22 1011 97 0 1.46 18 01:22 09.05.2020
3367 Rain 22 1011 97 0 1.46 18 00:43 09.05.2020
3368 Rain 22 1011 96 0 0.94 354 00:20 09.05.2020
3369 Rain 22 1011 96 0 0.94 354 23:45 08.05.2020
3370 Rain 23 1011 91 0 0.59 301 23:27 08.05.2020
3371 Rain 23 1011 91 0 0.59 301 22:56 08.05.2020
3372 Rain 23 1011 91 0 0.59 301 22:38 08.05.2020
3373 Rain 23 1011 91 0 0.47 293 22:19 08.05.2020
3374 Rain 23 1011 91 0 0.47 293 21:55 08.05.2020
3375 Rain 23 1011 93 0 0.51 340 21:37 08.05.2020
3376 Rain 23 1010 93 0 0.65 348 21:18 08.05.2020
3377 Rain 23 1010 93 0 0.65 348 20:56 08.05.2020
3378 Rain 23 1010 93 0 0.65 348 20:38 08.05.2020
3379 Rain 23 1010 89 0 0.96 1 20:19 08.05.2020
3380 Rain 23 1010 89 0 0.96 1 20:19 08.05.2020
3381 Rain 23 1010 89 0 0.96 1 19:42 08.05.2020
3382 Rain 24 1009 82 0 0.77 6 19:22 08.05.2020
3383 Rain 24 1009 82 0 0.77 6 18:50 08.05.2020
3384 Rain 24 1009 82 0 0.77 6 18:31 08.05.2020
3385 Clouds 27 1007 72 0 0.25 126 17:43 08.05.2020
3386 Clouds 31 1006 58 0 0.09 196 17:20 08.05.2020
3387 Clouds 31 1006 58 0 0.09 196 16:58 08.05.2020
3388 Clouds 31 1006 58 0 0.09 196 16:39 08.05.2020
3389 Clouds 32 1006 49 0 0.22 280 16:21 08.05.2020
3390 Clouds 32 1006 49 0 0.22 280 15:44 08.05.2020
3391 Clouds 32 1007 49 0 0.4 254 15:23 08.05.2020
3392 Clouds 32 1007 49 0 0.4 254 14:58 08.05.2020
3393 Clouds 32 1007 49 0 0.4 254 14:40 08.05.2020
3394 Clouds 32 1008 51 0 0.6 259 14:20 08.05.2020
3395 Clouds 31 1008 54 0 0.52 233 13:57 08.05.2020
3396 Clouds 31 1008 54 0 0.52 233 13:39 08.05.2020
3397 Clouds 27 1010 68 0 0.13 136 13:19 08.05.2020
3398 Clouds 27 1010 68 0 0.13 136 12:45 08.05.2020
3399 Clouds 26 1011 75 0 0.65 21 12:23 08.05.2020
3400 Clouds 26 1011 75 0 0.65 21 11:55 08.05.2020
3401 Clouds 26 1011 75 0 0.65 21 11:36 08.05.2020
3402 Clouds 24 1012 85 0 1 28 11:18 08.05.2020
3403 Clouds 24 1012 85 0 1 28 10:43 08.05.2020
3404 Clouds 24 1012 83 0 0.38 57 10:21 08.05.2020
3405 Clouds 24 1012 83 0 0.38 57 09:59 08.05.2020
3406 Clouds 24 1012 83 0 0.38 57 09:40 08.05.2020
3407 Clouds 22 1013 91 0 0.45 127 09:19 08.05.2020
3408 Clouds 22 1013 91 0 0.45 127 08:45 08.05.2020
3409 Clouds 22 1013 92 0 0.4 101 08:24 08.05.2020
3410 Clouds 22 1013 92 0 0.4 101 07:45 08.05.2020
3411 Clouds 21 1012 94 0 0.37 130 07:25 08.05.2020
3412 Clouds 21 1012 94 0 0.37 130 06:52 08.05.2020
3413 Clouds 20 1011 96 0 0.24 226 06:25 08.05.2020
3414 Clouds 20 1011 96 0 0.24 226 05:59 08.05.2020
3415 Clouds 20 1010 97 0 0.45 182 04:56 08.05.2020
3416 Clouds 20 1010 98 0 0.49 158 02:57 08.05.2020
3417 Clouds 20 1011 98 0 0.35 216 02:22 08.05.2020
3418 Clouds 20 1011 99 0 0.68 198 01:37 08.05.2020
3419 Clouds 20 1011 98 0 0.69 247 01:18 08.05.2020
3420 Clouds 20 1011 98 0 0.69 247 00:45 08.05.2020
3421 Clouds 20 1011 98 0 0.89 273 00:22 08.05.2020
3422 Clouds 20 1011 98 0 0.89 273 23:44 07.05.2020
3423 Clouds 20 1010 98 0 0.55 250 23:23 07.05.2020
3424 Clouds 20 1010 98 0 0.55 250 22:58 07.05.2020
3425 Clouds 20 1010 98 0 0.55 250 22:39 07.05.2020
3426 Clouds 20 1010 98 0 0.55 94 22:20 07.05.2020
3427 Clouds 20 1010 98 0 0.55 94 21:56 07.05.2020
3428 Clouds 20 1010 98 0 0.55 94 21:37 07.05.2020
3429 Clouds 21 1010 96 0 0.5 83 21:19 07.05.2020
3430 Clouds 21 1010 96 0 0.5 83 20:55 07.05.2020
3431 Clouds 21 1010 96 0 0.5 83 20:36 07.05.2020
3432 Clouds 21 1010 97 0 0.41 108 20:18 07.05.2020
3433 Clouds 21 1010 97 0 0.41 108 19:43 07.05.2020
3434 Clouds 21 1010 96 0 0.56 103 19:21 07.05.2020
3435 Clouds 21 1010 96 0 0.56 103 18:46 07.05.2020
3436 Clouds 22 1009 91 0 0.71 107 18:28 07.05.2020
3437 Clouds 22 1009 91 0 0.71 107 17:57 07.05.2020
3438 Clouds 22 1009 91 0 0.71 107 17:37 07.05.2020
3439 Clouds 23 1009 87 0 1.06 117 17:19 07.05.2020
3440 Clouds 23 1009 87 0 1.06 117 16:41 07.05.2020
3441 Clouds 23 1009 88 0 1.19 137 16:19 07.05.2020
3442 Clouds 23 1009 88 0 1.19 137 15:57 07.05.2020
3443 Clouds 23 1009 88 0 1.19 137 15:37 07.05.2020
3444 Clouds 23 1009 88 0 1.19 137 15:37 07.05.2020
3445 Clouds 22 1010 91 0 1.54 163 15:18 07.05.2020
3446 Clouds 22 1010 91 0 1.54 163 14:45 07.05.2020
3447 Rain 22 1011 95 0 2.08 162 14:22 07.05.2020
3448 Rain 22 1011 95 0 2.08 162 13:57 07.05.2020
3449 Rain 22 1011 95 0 2.08 162 13:39 07.05.2020
3450 Rain 22 1012 97 0 2.97 164 13:20 07.05.2020
3451 Rain 22 1012 97 0 2.97 164 13:20 07.05.2020
3452 Rain 22 1012 97 0 2.97 164 12:40 07.05.2020
3453 Rain 23 1013 94 0 3.52 155 12:20 07.05.2020
3454 Rain 23 1013 94 0 3.52 155 11:39 07.05.2020
3455 Rain 24 1013 94 0 3.41 146 11:21 07.05.2020
3456 Rain 24 1013 94 0 3.41 146 10:55 07.05.2020
3457 Rain 24 1013 94 0 3.41 146 10:37 07.05.2020
3458 Rain 25 1013 94 0 3.02 134 10:18 07.05.2020
3459 Rain 25 1013 94 0 3.02 134 09:39 07.05.2020
3460 Rain 23 1013 96 0 1.49 135 09:19 07.05.2020
3461 Rain 23 1013 96 0 1.49 135 08:45 07.05.2020
3462 Rain 23 1013 97 0 1.29 135 08:23 07.05.2020
3463 Rain 23 1013 97 0 1.29 135 07:58 07.05.2020
3464 Rain 23 1013 97 0 1.29 135 07:40 07.05.2020
3465 Rain 22 1012 98 0 1.19 131 07:20 07.05.2020
3466 Rain 22 1012 98 0 1.19 131 06:37 07.05.2020
3467 Rain 21 1011 98 0 1.12 143 06:18 07.05.2020
3468 Rain 22 1010 97 0 1.02 157 04:41 07.05.2020
3469 Rain 22 1009 94 0 0.33 256 03:40 07.05.2020
3470 Clouds 22 1009 94 0 0.54 260 03:18 07.05.2020
3471 Clouds 22 1009 93 0 0.65 253 02:35 07.05.2020
3472 Clouds 22 1010 93 0 0.38 272 01:38 07.05.2020
3473 Clouds 22 1010 93 0 0.27 314 01:20 07.05.2020
3474 Clouds 22 1010 93 0 0.27 314 00:43 07.05.2020
3475 Clouds 23 1011 92 0 0.27 286 00:22 07.05.2020
3476 Clouds 23 1011 92 0 0.27 286 23:45 06.05.2020
3477 Clouds 23 1010 92 0 0.31 248 23:23 06.05.2020
3478 Clouds 23 1010 92 0 0.31 248 22:56 06.05.2020
3479 Clouds 23 1010 92 0 0.31 248 22:38 06.05.2020
3480 Clouds 23 1010 92 0 0.28 141 22:19 06.05.2020
3481 Clouds 23 1010 92 0 0.28 141 21:55 06.05.2020
3482 Clouds 23 1010 92 0 0.28 141 21:37 06.05.2020
3483 Clouds 23 1009 92 0 0.31 116 21:18 06.05.2020
3484 Clouds 23 1009 92 0 0.58 186 20:42 06.05.2020
3485 Clouds 24 1009 93 0 0.82 193 20:22 06.05.2020
3486 Clouds 24 1009 93 0 0.82 193 19:57 06.05.2020
3487 Clouds 24 1009 93 0 0.82 193 19:38 06.05.2020
3488 Clouds 24 1009 93 0 0.92 202 19:19 06.05.2020
3489 Clouds 24 1009 93 0 0.92 202 18:58 06.05.2020
3490 Clouds 24 1009 93 0 0.92 202 18:38 06.05.2020
3491 Rain 25 1008 91 0 0.95 211 18:20 06.05.2020
3492 Rain 25 1008 91 0 0.95 211 17:55 06.05.2020
3493 Rain 25 1008 91 0 0.95 211 17:37 06.05.2020
3494 Rain 27 1007 82 0 1.41 210 17:18 06.05.2020
3495 Rain 27 1007 82 0 1.41 210 16:58 06.05.2020
3496 Rain 27 1007 82 0 1.41 210 16:40 06.05.2020
3497 Rain 28 1007 84 0 1.63 219 16:20 06.05.2020
3498 Rain 28 1007 84 0 1.63 219 15:57 06.05.2020
3499 Rain 28 1007 84 0 1.63 219 15:39 06.05.2020
3500 Rain 28 1007 88 0 1.56 211 15:19 06.05.2020
3501 Rain 28 1007 88 0 1.56 211 14:41 06.05.2020
3502 Rain 28 1009 84 0 1.68 192 14:19 06.05.2020
3503 Rain 28 1009 84 0 1.68 192 14:19 06.05.2020
3504 Rain 27 1009 85 0 1.21 219 13:59 06.05.2020
3505 Rain 27 1009 85 0 1.21 219 13:59 06.05.2020
3506 Rain 27 1009 85 0 1.21 219 13:39 06.05.2020
3507 Rain 28 1011 83 0 0.71 180 13:20 06.05.2020
3508 Rain 28 1011 83 0 0.71 180 12:44 06.05.2020
3509 Rain 30 1012 70 0 0.28 69 12:26 06.05.2020
3510 Rain 30 1012 70 0 0.28 69 11:59 06.05.2020
3511 Rain 30 1012 70 0 0.28 69 11:39 06.05.2020
3512 Rain 32 1013 56 0 0.27 32 11:21 06.05.2020
3513 Rain 32 1013 56 0 0.27 32 10:56 06.05.2020
3514 Rain 32 1013 56 0 0.27 32 10:37 06.05.2020
3515 Clouds 30 1013 62 0 0.51 121 10:18 06.05.2020
3516 Clouds 30 1013 62 0 0.51 121 09:40 06.05.2020
3517 Clouds 26 1013 80 0 0.86 132 09:21 06.05.2020
3518 Clouds 25 1013 86 0 0.6 180 08:45 06.05.2020
3519 Rain 23 1013 93 0 0.63 169 08:22 06.05.2020
3520 Rain 23 1013 93 0 0.63 169 07:58 06.05.2020
3521 Rain 23 1013 93 0 0.63 169 07:39 06.05.2020
3522 Rain 22 1012 96 0 0.26 129 07:20 06.05.2020
3523 Rain 22 1012 96 0 0.26 129 07:20 06.05.2020
3524 Rain 22 1012 96 0 0.26 129 06:49 06.05.2020
3525 Rain 21 1011 98 0 0.46 132 06:21 06.05.2020
3526 Rain 21 1011 98 0 0.46 132 05:51 06.05.2020
3527 Rain 21 1011 98 0 0.46 132 05:32 06.05.2020
3528 Rain 21 1010 98 0 0.42 225 04:22 06.05.2020
3529 Rain 21 1010 98 0 0.42 225 03:36 06.05.2020
3530 Clouds 22 1010 98 0 0.31 289 02:58 06.05.2020
3531 Rain 22 1010 98 0 0.73 315 02:28 06.05.2020
3532 Clouds 22 1010 96 0 0.55 345 01:53 06.05.2020
3533 Clouds 22 1010 96 0 0.73 355 01:27 06.05.2020
3534 Clouds 22 1010 96 0 0.73 355 00:45 06.05.2020
3535 Clouds 22 1011 96 0 0.61 325 00:23 06.05.2020
3536 Clouds 22 1011 96 0 0.61 325 23:42 05.05.2020
3537 Clouds 22 1011 96 0 0.64 329 23:20 05.05.2020
3538 Clouds 22 1011 96 0 0.64 329 22:57 05.05.2020
3539 Clouds 22 1011 96 0 0.64 329 22:39 05.05.2020
3540 Clouds 23 1011 96 0 0.79 287 22:19 05.05.2020
3541 Clouds 23 1011 96 0 0.79 287 21:55 05.05.2020
3542 Clouds 23 1011 96 0 0.79 287 21:55 05.05.2020
3543 Clouds 23 1011 96 0 0.79 287 21:37 05.05.2020
3544 Rain 24 1009 92 0 0.91 352 21:19 05.05.2020
3545 Rain 24 1009 92 0 0.91 352 20:42 05.05.2020
3546 Rain 24 1008 90 0 0.58 48 20:20 05.05.2020
3547 Rain 24 1008 90 0 0.58 48 20:20 05.05.2020
3548 Rain 24 1008 90 0 0.58 48 19:59 05.05.2020
3549 Rain 24 1008 90 0 0.58 48 19:41 05.05.2020
3550 Clouds 25 1008 83 0 0.32 46 19:23 05.05.2020
3551 Clouds 25 1008 83 0 0.32 46 18:57 05.05.2020
3552 Clouds 25 1008 83 0 0.32 46 18:39 05.05.2020
3553 Clouds 27 1007 83 0 0.66 67 18:19 05.05.2020
3554 Clouds 27 1007 83 0 0.66 67 17:57 05.05.2020
3555 Clouds 27 1007 83 0 0.66 67 17:38 05.05.2020
3556 Rain 28 1006 79 0 1.12 73 17:20 05.05.2020
3557 Rain 28 1006 79 0 1.12 73 16:39 05.05.2020
3558 Rain 27 1006 80 0 1.28 66 16:20 05.05.2020
3559 Rain 27 1006 80 0 1.28 66 15:58 05.05.2020
3560 Rain 27 1006 80 0 1.28 66 15:39 05.05.2020
3561 Clouds 29 1012 66 10000 2.1 240 15:21 05.05.2020
3562 Clouds 29 1012 66 10000 2.1 240 15:21 05.05.2020
3563 Clouds 29 1012 66 10000 2.1 240 14:55 05.05.2020
3564 Rain 28 1007 75 0 2.18 35 14:37 05.05.2020
3565 Clouds 32 1008 54 0 1.6 61 14:18 05.05.2020
3566 Clouds 32 1008 54 0 1.6 61 13:55 05.05.2020
3567 Clouds 32 1008 54 0 1.6 61 13:37 05.05.2020
3568 Rain 36 1009 44 0 0.26 235 13:18 05.05.2020
3569 Rain 36 1009 40 0 0.26 235 12:55 05.05.2020
3570 Rain 36 1009 40 0 0.26 235 12:36 05.05.2020
3571 Rain 35 1011 42 0 0.74 234 12:18 05.05.2020
3572 Rain 35 1011 42 0 0.74 234 11:40 05.05.2020
3573 Clouds 23 1015 88 8000 4.1 60 11:20 05.05.2020
3574 Clouds 23 1015 88 8000 4.1 60 10:55 05.05.2020
3575 Clouds 34 1012 45 0 0.33 217 10:37 05.05.2020
3576 Clouds 31 1013 54 0 0.36 126 10:18 05.05.2020
3577 Clouds 31 1013 54 0 0.36 126 09:44 05.05.2020
3578 Thunderstorm 24 1014 94 8000 2.1 30 09:26 05.05.2020
3579 Clouds 27 1013 72 0 0.6 122 08:58 05.05.2020
3580 Clouds 27 1013 72 0 0.6 122 08:39 05.05.2020
3581 Rain 24 1013 84 0 0.87 106 08:18 05.05.2020
3582 Rain 24 1013 84 0 0.87 106 07:43 05.05.2020
3583 Rain 22 1012 86 0 1.13 75 07:21 05.05.2020
3584 Rain 22 1012 86 0 1.13 75 06:57 05.05.2020
3585 Rain 22 1012 86 0 1.13 75 06:39 05.05.2020
3586 Rain 21 1011 86 0 1.19 108 05:53 05.05.2020
3587 Rain 22 1010 78 0 0.74 98 05:25 05.05.2020
3588 Clouds 24 1008 66 0 0.2 155 02:41 05.05.2020
3589 Clouds 25 1009 63 0 0.3 222 00:57 05.05.2020
3590 Clouds 25 1009 63 0 0.3 222 00:37 05.05.2020
3591 Clouds 26 1009 60 0 0.42 189 23:55 04.05.2020
3592 Clouds 26 1009 60 0 0.42 189 23:36 04.05.2020
3593 Clouds 26 1009 59 0 0.42 138 23:18 04.05.2020
3594 Clouds 26 1009 59 0 0.42 138 22:54 04.05.2020
3595 Clouds 26 1009 59 0 0.42 138 22:36 04.05.2020
3596 Clouds 26 1009 57 0 0.13 113 22:18 04.05.2020
3597 Clouds 26 1009 57 0 0.13 113 22:18 04.05.2020
3598 Clouds 26 1009 57 0 0.13 113 21:41 04.05.2020
3599 Clouds 26 1009 57 0 0.13 113 21:41 04.05.2020
3600 Clouds 26 1009 57 0 0.13 113 21:41 04.05.2020
3601 Clouds 26 1007 61 0 0.51 250 21:20 04.05.2020
3602 Clouds 26 1008 57 0 0.57 234 21:20 04.05.2020
3603 Clouds 26 1007 55 0 0.51 250 20:41 04.05.2020
3604 Clouds 28 1007 50 0 0.47 242 20:21 04.05.2020
3605 Clouds 28 1007 55 0 0.47 242 19:58 04.05.2020
3606 Clouds 28 1007 50 0 0.47 242 19:40 04.05.2020
3607 Clouds 28 1007 48 0 0.07 141 19:18 04.05.2020
3608 Clouds 28 1007 54 0 0.07 141 18:39 04.05.2020
3609 Clouds 30 1006 49 0 0.23 32 18:20 04.05.2020
3610 Clouds 30 1006 49 0 0.23 32 17:57 04.05.2020
3611 Clouds 30 1006 49 0 0.23 32 17:39 04.05.2020
3612 Clouds 34 1005 44 0 0.39 18 17:21 04.05.2020
3613 Clouds 34 1005 39 0 0.39 18 16:58 04.05.2020
3614 Clouds 34 1005 39 0 0.39 18 16:40 04.05.2020
3615 Clear 36 1005 35 0 0.35 356 16:19 04.05.2020
3616 Clear 36 1005 31 0 0.35 356 15:42 04.05.2020
3617 Clear 37 1005 30 0 0.21 331 15:22 04.05.2020
3618 Clear 37 1005 30 0 0.21 331 14:54 04.05.2020
3619 Clear 37 1005 30 0 0.21 331 14:54 04.05.2020
3620 Clear 37 1005 30 0 0.21 331 14:54 04.05.2020
3621 Clear 37 1005 30 0 0.21 331 14:54 04.05.2020
3622 Clear 37 1005 30 0 0.21 331 14:54 04.05.2020
3623 Clouds 33 1011 59 10000 0.19 298 14:25 04.05.2020
3624 Clouds 33 1011 59 10000 0.19 298 14:25 04.05.2020
3625 Clear 38 1008 33 0 0.26 330 13:24 04.05.2020
3626 Clear 38 1008 33 0 0.26 330 13:23 04.05.2020
3627 Clear 38 1008 33 0 0.26 330 13:23 04.05.2020
3628 Clear 38 1008 33 0 0.26 330 13:23 04.05.2020
3629 Clear 38 1008 33 0 0.26 330 13:23 04.05.2020
3630 Clear 38 1008 33 0 0.26 330 12:44 04.05.2020
3631 Clear 38 1008 33 0 0.26 330 12:44 04.05.2020
3632 Clear 38 1008 33 0 0.26 330 12:44 04.05.2020
3633 Clear 38 1008 33 0 0.26 330 12:44 04.05.2020
3634 Clear 38 1008 33 0 0.26 330 12:44 04.05.2020
3635 Clouds 35 1011 42 0 0.4 91 11:28 04.05.2020
3636 Clouds 35 1011 42 0 0.4 91 11:28 04.05.2020
3637 Clouds 35 1011 42 0 0.4 91 11:28 04.05.2020
3638 Clouds 35 1011 42 0 0.4 91 11:28 04.05.2020
3639 Clouds 35 1011 42 0 0.4 91 11:28 04.05.2020
3640 Clouds 32 1012 49 0 0.65 116 09:31 04.05.2020
3641 Clouds 26 1013 68 0 0.89 169 07:54 04.05.2020
3642 Clouds 26 1013 68 0 0.89 169 07:35 04.05.2020
3643 Clouds 22 1011 81 0 0.71 189 05:55 04.05.2020
3644 Clouds 22 1010 81 0 0.59 196 04:52 04.05.2020
3645 Clouds 22 1009 79 0 0.77 202 02:57 04.05.2020
3646 Clouds 23 1010 75 0 0.87 175 01:45 04.05.2020
3647 Clouds 23 1011 75 0 1.07 173 00:23 04.05.2020
3648 Clouds 23 1011 75 0 1.07 173 00:23 04.05.2020
3649 Clouds 23 1011 75 0 1.07 173 00:23 04.05.2020
3650 Clouds 23 1011 75 0 1.07 173 23:44 03.05.2020
3651 Clouds 23 1011 75 0 1.18 179 23:24 03.05.2020
3652 Clouds 23 1011 75 0 1.18 179 22:44 03.05.2020
3653 Clouds 23 1011 75 0 1.18 179 22:44 03.05.2020
3654 Clouds 24 1011 75 0 1.22 182 22:25 03.05.2020
3655 Clouds 24 1011 75 0 1.22 182 21:56 03.05.2020
3656 Clouds 24 1011 75 0 1.22 182 21:38 03.05.2020
3657 Clouds 25 1010 71 0 1.51 178 21:20 03.05.2020
3658 Clouds 25 1010 71 0 1.51 178 20:43 03.05.2020
3659 Clouds 25 1010 71 0 1.51 178 20:43 03.05.2020
3660 Clouds 26 1009 66 0 1.59 172 20:21 03.05.2020
3661 Clouds 26 1009 66 0 1.59 172 19:50 03.05.2020
3662 Clouds 26 1009 66 0 1.59 172 19:50 03.05.2020
3663 Clouds 26 1009 66 0 1.59 172 19:50 03.05.2020
3664 Clouds 26 1009 66 0 1.59 172 19:31 03.05.2020
3665 Clouds 27 1009 59 0 1.29 153 18:58 03.05.2020
3666 Clouds 27 1009 59 0 1.29 153 18:38 03.05.2020
3667 Clouds 27 1009 59 0 1.29 153 18:38 03.05.2020
3668 Clouds 27 1009 59 0 1.29 153 18:38 03.05.2020
3669 Clouds 27 1009 59 0 1.29 153 18:38 03.05.2020
3670 Clouds 27 1009 59 0 1.29 153 18:38 03.05.2020
3671 Clouds 28 1008 58 0 0.76 143 18:19 03.05.2020
3672 Clouds 28 1008 58 0 0.76 143 17:41 03.05.2020
3673 Clouds 31 1007 52 0 0.78 178 17:21 03.05.2020
3674 Clouds 31 1007 52 0 0.78 178 16:46 03.05.2020
3675 Clouds 32 1007 48 0 0.96 199 16:21 03.05.2020
3676 Clouds 32 1007 48 0 0.96 199 15:59 03.05.2020
3677 Clouds 32 1007 48 0 0.96 199 15:40 03.05.2020
3678 Clouds 33 1007 40 0 1.2 205 15:20 03.05.2020
3679 Clouds 33 1007 40 0 1.2 205 14:58 03.05.2020
3680 Clouds 33 1007 40 0 1.2 205 14:40 03.05.2020
3681 Clouds 33 1007 40 0 1.2 205 14:40 03.05.2020
3682 Clouds 36 1008 36 0 0.96 204 14:21 03.05.2020
3683 Clouds 36 1008 36 0 0.96 204 13:54 03.05.2020
3684 Clouds 35 1010 39 0 1.32 203 13:22 03.05.2020
3685 Clouds 35 1010 39 0 1.32 203 13:22 03.05.2020
3686 Clouds 35 1010 39 0 1.32 203 12:45 03.05.2020
3687 Clouds 33 1011 44 0 1.45 200 12:18 03.05.2020
3688 Clouds 33 1011 44 0 1.45 200 11:56 03.05.2020
3689 Clouds 33 1011 44 0 1.45 200 11:37 03.05.2020
3690 Clouds 31 1013 50 0 1.43 188 11:19 03.05.2020
3691 Clouds 31 1013 50 0 1.43 188 10:47 03.05.2020
3692 Clouds 31 1013 50 0 1.43 188 10:47 03.05.2020
3693 Clouds 31 1013 50 0 1.43 188 10:47 03.05.2020
3694 Clouds 31 1013 50 0 1.43 188 10:47 03.05.2020
3695 Clouds 29 1014 57 0 1.33 165 09:58 03.05.2020
3696 Clouds 29 1014 57 0 1.33 165 09:37 03.05.2020
3697 Clouds 26 1014 70 0 1.06 152 08:56 03.05.2020
3698 Clouds 23 1014 82 0 0.52 122 08:27 03.05.2020
3699 Clouds 23 1014 82 0 0.52 122 07:40 03.05.2020
3700 Clouds 22 1013 86 0 0.55 127 06:29 03.05.2020
3701 Clouds 22 1013 86 0 0.55 127 06:29 03.05.2020
3702 Clouds 22 1013 86 0 0.55 127 06:29 03.05.2020
3703 Clouds 22 1013 86 0 0.55 127 06:29 03.05.2020
3704 Clouds 22 1013 86 0 0.55 127 06:29 03.05.2020
3705 Clouds 21 1012 87 0 0.43 138 05:49 03.05.2020
3706 Clouds 21 1012 87 0 0.43 138 05:49 03.05.2020
3707 Clouds 21 1012 87 0 0.51 158 05:28 03.05.2020
3708 Clouds 21 1012 87 0 0.51 158 05:28 03.05.2020
3709 Clouds 21 1012 87 0 0.51 158 05:28 03.05.2020
3710 Clouds 21 1011 87 0 0.45 175 04:27 03.05.2020
3711 Rain 21 1011 87 0 0.35 124 03:25 03.05.2020
3712 Rain 21 1011 87 0 0.35 124 03:25 03.05.2020
3713 Rain 21 1012 85 0 0.37 126 02:25 03.05.2020
3714 Clouds 21 1012 84 0 0.67 157 01:46 03.05.2020
3715 Clouds 22 1012 83 0 0.42 160 01:27 03.05.2020
3716 Clouds 22 1012 83 0 0.42 160 00:56 03.05.2020
3717 Clouds 22 1012 83 0 0.42 160 00:37 03.05.2020
3718 Clouds 22 1012 82 0 0.55 46 00:19 03.05.2020
3719 Clouds 22 1012 82 0 0.55 46 00:19 03.05.2020
3720 Clouds 22 1012 82 0 0.55 46 23:43 02.05.2020
3721 Clouds 22 1012 81 0 0.9 37 23:25 02.05.2020
3722 Clouds 22 1012 81 0 0.9 37 22:43 02.05.2020
3723 Clouds 22 1012 80 0 0.51 10 22:24 02.05.2020
3724 Clouds 22 1012 80 0 0.51 10 21:57 02.05.2020
3725 Clouds 22 1012 80 0 0.51 10 21:39 02.05.2020
3726 Clouds 23 1011 83 0 1.11 59 21:19 02.05.2020
3727 Clouds 23 1011 83 0 1.11 59 20:57 02.05.2020
3728 Clouds 23 1011 83 0 1.11 59 20:37 02.05.2020
3729 Clouds 23 1010 82 0 1.39 62 20:19 02.05.2020
3730 Clouds 23 1010 82 0 1.39 62 19:57 02.05.2020
3731 Clouds 23 1010 82 0 1.39 62 19:38 02.05.2020
3732 Clouds 23 1010 82 0 1.39 62 19:38 02.05.2020
3733 Clouds 23 1009 81 0 1.17 73 19:19 02.05.2020
3734 Clouds 23 1009 81 0 1.17 73 18:55 02.05.2020
3735 Clouds 23 1009 81 0 1.17 73 18:36 02.05.2020
3736 Clouds 25 1009 76 0 1.06 49 18:18 02.05.2020
3737 Clouds 25 1009 76 0 1.06 49 17:39 02.05.2020
3738 Clouds 31 1012 62 10000 3.1 180 17:20 02.05.2020
3739 Clouds 31 1012 62 10000 3.1 180 16:59 02.05.2020
3740 Clouds 26 1008 71 0 0.56 53 16:39 02.05.2020
3741 Clouds 25 1008 72 0 0.87 86 16:21 02.05.2020
3742 Clouds 25 1008 72 0 0.87 86 15:43 02.05.2020
3743 Clouds 30 1013 62 10000 4.1 180 15:20 02.05.2020
3744 Clouds 30 1013 62 10000 4.1 180 15:20 02.05.2020
3745 Clouds 30 1013 62 10000 4.1 180 14:58 02.05.2020
3746 Clouds 25 1009 71 0 1.83 69 14:39 02.05.2020
3747 Clouds 29 1014 74 10000 4.1 180 14:20 02.05.2020
3748 Clouds 26 1010 70 0 1.24 33 13:40 02.05.2020
3749 Clouds 28 1015 78 10000 4.1 120 13:22 02.05.2020
3750 Clouds 28 1015 78 10000 4.1 120 12:54 02.05.2020
3751 Clouds 28 1015 78 10000 4.1 120 12:54 02.05.2020
3752 Clouds 27 1011 65 0 0.96 14 12:36 02.05.2020
3753 Clouds 27 1012 65 0 0.82 4 12:18 02.05.2020
3754 Clouds 27 1012 65 0 0.82 4 11:41 02.05.2020
3755 Clouds 28 1013 62 0 0.28 43 11:22 02.05.2020
3756 Clouds 28 1013 62 0 0.28 43 10:59 02.05.2020
3757 Clouds 28 1013 62 0 0.28 43 10:39 02.05.2020
3758 Clouds 28 1014 60 0 1 124 10:21 02.05.2020
3759 Clouds 28 1014 60 0 1 124 09:57 02.05.2020
3760 Clouds 28 1014 60 0 1 124 09:38 02.05.2020
3761 Clouds 26 1014 67 0 1.08 116 09:20 02.05.2020
3762 Clouds 26 1014 67 0 1.08 116 09:20 02.05.2020
3763 Clouds 26 1014 67 0 1.08 116 09:20 02.05.2020
3764 Clouds 26 1014 67 0 1.08 116 08:49 02.05.2020
3765 Clouds 26 1014 67 0 1.08 116 08:30 02.05.2020
3766 Clouds 24 1014 80 0 1.01 143 07:48 02.05.2020
3767 Clouds 22 1013 86 0 0.62 138 07:29 02.05.2020
3768 Clouds 22 1013 86 0 0.62 138 06:52 02.05.2020
3769 Clouds 21 1012 87 0 0.34 169 05:30 02.05.2020
3770 Clouds 21 1012 88 0 0.5 189 04:59 02.05.2020
3771 Clouds 21 1012 88 0 0.73 189 04:25 02.05.2020
3772 Clouds 21 1013 87 0 0.19 89 03:18 02.05.2020
3773 Clouds 21 1013 87 0 0.76 59 02:26 02.05.2020
3774 Clouds 21 1013 87 0 0.59 52 01:50 02.05.2020
3775 Clouds 21 1013 87 0 0.86 79 00:49 02.05.2020
3776 Clouds 21 1013 87 0 0.86 79 00:30 02.05.2020
3777 Clouds 21 1013 87 0 0.94 76 23:59 01.05.2020
3778 Clouds 21 1013 87 0 0.94 76 23:39 01.05.2020
3779 Clouds 22 1013 87 0 0.62 63 23:20 01.05.2020
3780 Clouds 22 1013 87 0 0.62 63 22:55 01.05.2020
3781 Clouds 22 1013 87 0 0.62 63 22:37 01.05.2020
3782 Clouds 22 1013 87 0 0.3 11 22:18 01.05.2020
3783 Clouds 22 1013 87 0 0.3 11 21:55 01.05.2020
3784 Clouds 22 1013 87 0 0.3 11 21:37 01.05.2020
3785 Clouds 22 1012 86 0 0.49 200 21:18 01.05.2020
3786 Clouds 22 1012 86 0 0.49 200 20:55 01.05.2020
3787 Clouds 22 1012 86 0 0.49 200 20:37 01.05.2020
3788 Clouds 22 1012 86 0 0.49 200 20:37 01.05.2020
3789 Clouds 23 1011 85 0 0.42 184 20:18 01.05.2020
3790 Clouds 23 1011 85 0 0.42 184 19:41 01.05.2020
3791 Clouds 23 1010 86 0 0.52 258 19:22 01.05.2020
3792 Clouds 23 1010 86 0 0.52 258 18:57 01.05.2020
3793 Clouds 23 1010 86 0 0.52 258 18:39 01.05.2020
3794 Clouds 24 1009 85 0 0.92 217 18:20 01.05.2020
3795 Clouds 24 1009 85 0 0.92 217 17:56 01.05.2020
3796 Clouds 24 1009 85 0 0.92 217 17:38 01.05.2020
3797 Clouds 25 1009 84 0 0.87 174 17:20 01.05.2020
3798 Clouds 25 1009 84 0 0.87 174 16:55 01.05.2020
3799 Clouds 25 1009 84 0 0.87 174 16:37 01.05.2020
3800 Clouds 25 1009 84 0 0.87 174 16:37 01.05.2020
3801 Rain 25 1010 83 0 1.2 181 16:18 01.05.2020
3802 Rain 25 1010 83 0 1.2 181 15:42 01.05.2020
3803 Rain 27 1011 81 0 0.79 147 15:24 01.05.2020
3804 Rain 27 1011 81 0 0.79 147 14:58 01.05.2020
3805 Rain 27 1011 81 0 0.79 147 14:39 01.05.2020
3806 Rain 28 1013 74 0 1.06 5 14:21 01.05.2020
3807 Rain 32 1011 49 0 1.69 7 13:41 01.05.2020
3808 Rain 32 1011 49 0 1.69 7 13:41 01.05.2020
3809 Rain 33 1012 47 0 1.23 40 13:22 01.05.2020
3810 Rain 33 1012 47 0 1.23 40 12:58 01.05.2020
3811 Rain 33 1012 47 0 1.23 40 12:39 01.05.2020
3812 Clouds 33 1014 45 0 1.54 43 12:19 01.05.2020
3813 Clouds 33 1014 45 0 1.54 43 11:57 01.05.2020
3814 Clouds 33 1014 45 0 1.54 43 11:39 01.05.2020
3815 Clouds 31 1015 51 0 1.7 40 11:19 01.05.2020
3816 Clouds 31 1015 51 0 1.7 40 10:40 01.05.2020
3817 Clear 29 1016 58 0 1.84 40 10:20 01.05.2020
3818 Clear 29 1016 58 0 1.84 40 09:54 01.05.2020
3819 Clouds 30 1015 56 0 0.96 34 09:36 01.05.2020
3820 Clouds 26 1016 72 0 1.22 23 09:18 01.05.2020
3821 Clouds 26 1016 72 0 1.22 23 08:42 01.05.2020
3822 Clouds 23 1015 84 0 1.3 14 08:24 01.05.2020
3823 Clouds 23 1015 84 0 1.3 14 07:46 01.05.2020
3824 Rain 22 1014 86 0 1.11 10 07:23 01.05.2020
3825 Rain 22 1014 86 0 1.11 10 06:56 01.05.2020
3826 Rain 21 1013 87 0 0.58 40 05:39 01.05.2020
3827 Rain 21 1012 87 0 1.41 55 05:19 01.05.2020
3828 Rain 22 1011 85 0 1.11 90 03:34 01.05.2020
3829 Clouds 23 1011 74 0 0.98 178 02:48 01.05.2020
3830 Rain 22 1012 82 0 1.35 99 02:30 01.05.2020
3831 Clouds 23 1012 71 0 0.84 192 01:37 01.05.2020
3832 Clouds 24 1012 70 0 0.94 202 01:18 01.05.2020
3833 Clouds 24 1012 70 0 0.94 202 00:38 01.05.2020
3834 Clouds 24 1012 67 0 1.18 187 00:20 01.05.2020
3835 Clouds 24 1012 67 0 1.18 187 23:57 30.04.2020
3836 Clouds 24 1012 67 0 1.18 187 23:38 30.04.2020
3837 Clouds 25 1011 66 0 0.86 186 23:19 30.04.2020
3838 Clouds 25 1011 66 0 0.86 186 22:42 30.04.2020
3839 Clouds 25 1011 65 0 0.96 174 22:21 30.04.2020
3840 Clouds 25 1011 65 0 0.96 174 21:58 30.04.2020
3841 Clouds 25 1011 65 0 0.96 174 21:39 30.04.2020
3842 Clouds 26 1010 63 0 0.79 175 21:21 30.04.2020
3843 Clouds 26 1010 63 0 0.79 175 20:56 30.04.2020
3844 Clouds 26 1010 63 0 0.79 175 20:38 30.04.2020
3845 Clouds 26 1009 63 0 0.61 137 20:18 30.04.2020
3846 Clouds 26 1009 63 0 0.61 137 19:45 30.04.2020
3847 Clouds 27 1008 64 0 0.33 133 19:25 30.04.2020
3848 Clouds 27 1008 64 0 0.33 133 18:57 30.04.2020
3849 Clouds 27 1008 64 0 0.33 133 18:39 30.04.2020
3850 Clouds 29 1008 59 0 1.64 189 18:20 30.04.2020
3851 Clouds 29 1008 59 0 1.64 189 17:57 30.04.2020
3852 Clouds 29 1008 59 0 1.64 189 17:57 30.04.2020
3853 Clouds 29 1008 59 0 1.64 189 17:39 30.04.2020
3854 Clouds 29 1008 59 0 1.64 189 17:39 30.04.2020
3855 Clouds 32 1007 48 0 1.23 185 17:20 30.04.2020
3856 Clouds 32 1007 48 0 1.23 185 16:55 30.04.2020
3857 Clouds 32 1007 48 0 1.23 185 16:37 30.04.2020
3858 Clouds 33 1008 48 0 0.8 170 16:18 30.04.2020
3859 Clouds 33 1008 48 0 0.8 170 15:44 30.04.2020
3860 Clouds 34 1008 40 0 0.99 164 15:23 30.04.2020
3861 Clouds 34 1008 40 0 0.99 164 14:43 30.04.2020
3862 Clouds 35 1010 36 0 1.21 186 14:22 30.04.2020
3863 Clouds 35 1010 36 0 1.21 186 13:59 30.04.2020
3864 Clouds 35 1010 36 0 1.21 186 13:41 30.04.2020
3865 Clouds 35 1011 36 0 1.42 191 13:23 30.04.2020
3866 Clouds 35 1011 36 0 1.42 191 12:59 30.04.2020
3867 Clouds 35 1011 36 0 1.42 191 12:41 30.04.2020
3868 Clouds 34 1012 40 0 1.61 185 12:19 30.04.2020
3869 Clouds 34 1012 40 0 1.61 185 11:38 30.04.2020
3870 Clouds 32 1013 46 0 1.62 177 11:19 30.04.2020
3871 Clouds 32 1013 46 0 1.62 177 10:59 30.04.2020
3872 Clouds 32 1013 46 0 1.62 177 10:40 30.04.2020
3873 Clouds 30 1014 52 0 1.59 172 10:21 30.04.2020
3874 Clouds 30 1014 52 0 1.59 172 09:56 30.04.2020
3875 Clouds 31 1014 52 0 1.43 174 09:38 30.04.2020
3876 Clouds 28 1014 60 0 1.44 160 09:19 30.04.2020
3877 Clouds 28 1014 60 0 1.44 160 08:45 30.04.2020
3878 Clouds 28 1014 60 0 1.44 160 08:45 30.04.2020
3879 Clouds 25 1014 69 0 1.08 147 08:26 30.04.2020
3880 Clouds 25 1014 69 0 1.08 147 07:44 30.04.2020
3881 Clouds 25 1014 69 0 1.08 147 07:44 30.04.2020
3882 Clouds 23 1013 78 0 0.75 120 07:25 30.04.2020
3883 Clouds 23 1013 78 0 0.75 120 06:53 30.04.2020
3884 Clouds 21 1012 82 0 0.59 114 06:19 30.04.2020
3885 Clouds 21 1012 82 0 0.59 114 05:45 30.04.2020
3886 Clouds 21 1011 80 0 0.57 173 04:39 30.04.2020
3887 Clouds 21 1011 80 0 0.55 208 03:58 30.04.2020
3888 Clouds 22 1011 78 0 0.65 197 02:47 30.04.2020
3889 Clouds 22 1011 77 0 0.71 180 02:25 30.04.2020
3890 Clouds 22 1011 77 0 0.71 180 01:36 30.04.2020
3891 Clouds 22 1012 74 0 0.77 184 00:42 30.04.2020
3892 Clouds 23 1012 71 0 0.74 198 00:20 30.04.2020
3893 Clouds 23 1012 71 0 0.74 198 23:57 29.04.2020
3894 Clouds 23 1012 71 0 0.74 198 23:37 29.04.2020
3895 Clouds 23 1012 70 0 0.4 157 23:19 29.04.2020
3896 Clouds 23 1012 70 0 0.4 157 22:41 29.04.2020
3897 Clouds 23 1012 72 0 0.79 151 22:22 29.04.2020
3898 Clouds 23 1012 72 0 0.79 151 22:22 29.04.2020
3899 Clouds 23 1012 72 0 0.79 151 21:59 29.04.2020
3900 Clouds 23 1012 72 0 0.79 151 21:37 29.04.2020
3901 Clouds 23 1012 69 0 0.19 119 21:19 29.04.2020
3902 Clouds 23 1012 69 0 0.19 119 20:56 29.04.2020
3903 Clouds 23 1012 69 0 0.19 119 20:37 29.04.2020
3904 Clouds 24 1011 68 0 0.38 38 20:18 29.04.2020
3905 Clouds 24 1011 68 0 0.38 38 19:43 29.04.2020
3906 Clouds 24 1011 68 0 0.47 358 19:22 29.04.2020
3907 Clouds 24 1011 68 0 0.47 358 18:57 29.04.2020
3908 Clouds 24 1011 68 0 0.47 358 18:38 29.04.2020
3909 Clouds 26 1010 67 0 0.57 349 18:18 29.04.2020
3910 Clouds 26 1010 67 0 0.57 349 17:42 29.04.2020
3911 Clouds 29 1009 54 0 0.87 348 17:21 29.04.2020
3912 Clouds 29 1009 54 0 0.87 348 16:56 29.04.2020
3913 Clouds 29 1009 54 0 0.87 348 16:36 29.04.2020
3914 Clouds 30 1009 50 0 1.06 343 16:18 29.04.2020
3915 Clouds 30 1009 50 0 1.06 343 15:55 29.04.2020
3916 Clouds 30 1009 50 0 1.06 343 15:36 29.04.2020
3917 Clouds 30 1010 48 0 1.33 341 15:18 29.04.2020
3918 Clouds 30 1010 48 0 1.33 341 14:42 29.04.2020
3919 Clouds 29 1011 52 0 1.06 332 14:23 29.04.2020
3920 Clouds 29 1011 52 0 1.06 332 13:56 29.04.2020
3921 Clouds 29 1011 52 0 1.06 332 13:38 29.04.2020
3922 Clouds 29 1011 52 0 1.06 332 13:38 29.04.2020
3923 Clouds 30 1013 48 0 1.17 290 13:18 29.04.2020
3924 Clouds 30 1013 48 0 1.17 290 13:18 29.04.2020
3925 Clouds 30 1013 48 0 1.17 290 12:41 29.04.2020
3926 Clouds 29 1014 49 0 1.27 261 12:19 29.04.2020
3927 Clouds 29 1014 49 0 1.27 261 11:58 29.04.2020
3928 Clouds 29 1014 49 0 1.27 261 11:38 29.04.2020
3929 Clouds 27 1015 56 0 1.07 242 11:19 29.04.2020
3930 Clouds 27 1015 56 0 1.07 242 10:38 29.04.2020
3931 Clouds 26 1016 62 0 0.8 256 10:20 29.04.2020
3932 Clouds 26 1016 62 0 0.8 256 09:59 29.04.2020
3933 Clouds 24 1016 94 7000 0.96 233 09:40 29.04.2020
3934 Clouds 24 1016 94 7000 0.92 266 09:19 29.04.2020
3935 Clouds 24 1016 94 7000 0.92 266 08:43 29.04.2020
3936 Thunderstorm 23 1015 94 7000 2.1 270 08:25 29.04.2020
3937 Thunderstorm 23 1015 94 7000 2.1 270 07:51 29.04.2020
3938 Clouds 21 1015 82 0 0.69 350 07:27 29.04.2020
3939 Clouds 21 1015 82 0 0.69 350 06:52 29.04.2020
3940 Clouds 21 1015 82 0 0.69 350 06:32 29.04.2020
3941 Clouds 21 1014 83 0 0.78 11 05:42 29.04.2020
3942 Clouds 21 1013 82 0 1.17 34 05:18 29.04.2020
3943 Clouds 21 1013 80 0 0.84 59 04:19 29.04.2020
3944 Clouds 21 1014 82 0 0.35 271 02:56 29.04.2020
3945 Clouds 22 1014 79 0 0.97 239 01:47 29.04.2020
3946 Clouds 22 1014 79 0 1.15 194 01:27 29.04.2020
3947 Clouds 22 1014 79 0 1.15 194 00:52 29.04.2020
3948 Clouds 22 1014 79 0 0.88 152 00:21 29.04.2020
3949 Clouds 22 1014 79 0 0.88 152 23:56 28.04.2020
3950 Clouds 22 1014 79 0 0.88 152 23:38 28.04.2020
3951 Clouds 21 1014 81 0 0.63 154 23:20 28.04.2020
3952 Clouds 21 1014 81 0 0.63 154 22:38 28.04.2020
3953 Clouds 22 1013 82 0 0.61 200 22:20 28.04.2020
3954 Clouds 22 1013 82 0 0.61 200 21:59 28.04.2020
3955 Clouds 22 1013 82 0 0.61 200 21:40 28.04.2020
3956 Clouds 21 1012 86 0 0.38 132 21:21 28.04.2020
3957 Clouds 21 1012 86 0 0.38 132 20:56 28.04.2020
3958 Clouds 21 1012 86 0 0.38 132 20:38 28.04.2020
3959 Clouds 21 1012 85 0 0.35 56 20:20 28.04.2020
3960 Clouds 21 1012 85 0 0.35 56 19:56 28.04.2020
3961 Clouds 21 1012 85 0 0.35 56 19:37 28.04.2020
3962 Clouds 22 1011 85 0 0.68 15 19:19 28.04.2020
3963 Clouds 22 1011 85 0 0.68 15 19:19 28.04.2020
3964 Clouds 22 1011 85 0 0.68 15 18:41 28.04.2020
3965 Clouds 23 1010 81 0 0.22 25 18:20 28.04.2020
3966 Clouds 23 1010 81 0 0.22 25 17:59 28.04.2020
3967 Clouds 23 1010 81 0 0.22 25 17:37 28.04.2020
3968 Clouds 23 1010 80 0 0.58 259 17:19 28.04.2020
3969 Clouds 23 1010 80 0 0.58 259 16:56 28.04.2020
3970 Clouds 23 1010 80 0 0.58 259 16:37 28.04.2020
3971 Clouds 24 1009 80 0 0.65 207 16:19 28.04.2020
3972 Clouds 24 1009 80 0 0.65 207 15:55 28.04.2020
3973 Clouds 24 1009 80 0 0.65 207 15:37 28.04.2020
3974 Clouds 24 1011 81 0 1.02 176 15:18 28.04.2020
3975 Clouds 24 1011 81 0 1.02 176 14:43 28.04.2020
3976 Clouds 25 1012 78 0 1.36 188 14:22 28.04.2020
3977 Clouds 25 1012 78 0 1.36 188 14:22 28.04.2020
3978 Clouds 25 1012 78 0 1.36 188 13:59 28.04.2020
3979 Clouds 25 1012 78 0 1.36 188 13:40 28.04.2020
3980 Clouds 23 1013 84 0 1.17 126 13:21 28.04.2020
3981 Clouds 23 1013 84 0 1.17 126 12:58 28.04.2020
3982 Clouds 23 1013 84 0 1.17 126 12:58 28.04.2020
3983 Clouds 23 1013 84 0 1.17 126 12:38 28.04.2020
3984 Clouds 23 1014 85 0 0.96 133 12:20 28.04.2020
3985 Clouds 23 1014 85 0 0.96 133 11:42 28.04.2020
3986 Clouds 23 1014 85 0 1.02 189 11:21 28.04.2020
3987 Clouds 23 1014 85 0 1.02 189 11:21 28.04.2020
3988 Clouds 23 1014 85 0 1.02 189 10:57 28.04.2020
3989 Clouds 23 1014 85 0 1.02 189 10:38 28.04.2020
3990 Clouds 22 1014 87 0 0.98 183 10:18 28.04.2020
3991 Clouds 22 1014 87 0 0.98 183 10:18 28.04.2020
3992 Clouds 22 1014 87 0 0.98 183 09:43 28.04.2020
3993 Rain 22 1015 87 0 0.75 248 09:24 28.04.2020
3994 Rain 22 1015 87 0 0.57 267 08:54 28.04.2020
3995 Rain 21 1015 100 6000 0.57 267 08:36 28.04.2020
3996 Rain 21 1015 100 6000 0.25 253 08:18 28.04.2020
3997 Rain 22 1014 87 0 0.25 253 07:41 28.04.2020
3998 Rain 22 1013 87 0 0.37 271 07:18 28.04.2020
3999 Rain 22 1013 87 0 0.37 271 06:40 28.04.2020
4000 Rain 22 1013 88 0 0.21 11 05:51 28.04.2020
4001 Rain 22 1013 88 0 0.21 11 05:33 28.04.2020
4002 Rain 22 1012 88 0 0.42 10 04:33 28.04.2020
4003 Rain 22 1012 88 0 0.42 10 04:33 28.04.2020
4004 Rain 22 1012 87 0 0.41 309 02:38 28.04.2020
4005 Rain 22 1013 88 0 0.41 332 01:37 28.04.2020
4006 Rain 22 1014 87 0 0.29 72 01:19 28.04.2020
4007 Rain 22 1014 87 0 0.29 72 00:32 28.04.2020
4008 Rain 22 1014 86 0 1.07 60 23:56 27.04.2020
4009 Rain 22 1014 86 0 1.07 60 23:38 27.04.2020
4010 Clouds 22 1013 86 0 0.85 49 23:20 27.04.2020
4011 Clouds 22 1013 86 0 0.85 49 22:43 27.04.2020
4012 Clouds 23 1012 83 0 0.91 355 22:23 27.04.2020
4013 Clouds 23 1012 83 0 0.91 355 21:57 27.04.2020
4014 Clouds 23 1012 83 0 0.91 355 21:39 27.04.2020
4015 Clouds 23 1012 83 0 0.91 355 21:39 27.04.2020
4016 Clouds 23 1012 81 0 0.88 295 21:19 27.04.2020
4017 Clouds 23 1012 81 0 0.88 295 20:56 27.04.2020
4018 Clouds 23 1012 81 0 0.88 295 20:38 27.04.2020
4019 Clouds 23 1011 82 0 0.79 233 20:19 27.04.2020
4020 Clouds 23 1011 82 0 0.79 233 19:55 27.04.2020
4021 Clouds 23 1011 82 0 0.79 233 19:36 27.04.2020
4022 Clouds 24 1010 80 0 1.15 242 19:18 27.04.2020
4023 Clouds 24 1010 80 0 1.15 242 18:40 27.04.2020
4024 Clouds 25 1010 74 0 1.11 307 18:20 27.04.2020
4025 Clouds 25 1010 74 0 1.11 307 17:59 27.04.2020
4026 Clouds 25 1010 74 0 1.11 307 17:40 27.04.2020
4027 Clouds 26 1009 69 0 1.51 302 17:19 27.04.2020
4028 Clouds 26 1009 69 0 1.51 302 16:41 27.04.2020
4029 Clouds 26 1009 69 0 1.51 302 16:41 27.04.2020
4030 Clouds 29 1009 59 0 1.37 261 16:22 27.04.2020
4031 Clouds 29 1009 59 0 1.37 261 15:58 27.04.2020
4032 Clouds 29 1009 59 0 1.37 261 15:40 27.04.2020
4033 Rain 27 1011 66 0 1.91 237 15:20 27.04.2020
4034 Rain 27 1011 66 0 1.91 237 14:58 27.04.2020
4035 Rain 27 1011 66 0 1.91 237 14:40 27.04.2020
4036 Rain 29 1010 66 0 1.92 205 14:19 27.04.2020
4037 Rain 29 1010 66 0 1.92 205 13:57 27.04.2020
4038 Rain 29 1010 66 0 1.92 205 13:37 27.04.2020
4039 Rain 29 1010 66 0 1.92 205 13:18 27.04.2020
4040 Rain 29 1010 66 0 1.92 205 12:43 27.04.2020
4041 Clouds 28 1012 57 0 2.08 212 12:21 27.04.2020
4042 Clouds 28 1012 57 0 2.08 212 11:43 27.04.2020
4043 Rain 23 1016 94 6000 3.1 180 11:22 27.04.2020
4044 Rain 23 1016 94 6000 3.1 180 10:59 27.04.2020
4045 Clouds 28 1012 57 0 2.08 212 10:41 27.04.2020
4046 Rain 21 1015 100 6000 3.1 90 10:23 27.04.2020
4047 Rain 21 1015 100 6000 3.1 90 09:56 27.04.2020
4048 Clouds 28 1012 57 0 2.08 212 09:36 27.04.2020
4049 Rain 23 1014 84 0 1.28 243 09:18 27.04.2020
4050 Rain 23 1014 84 0 1.28 243 08:46 27.04.2020
4051 Rain 23 1014 84 0 1.28 243 08:27 27.04.2020
4052 Rain 23 1014 84 0 1.28 243 07:45 27.04.2020
4053 Rain 23 1014 84 0 1.28 243 07:23 27.04.2020
4054 Rain 23 1014 84 0 1.28 243 06:58 27.04.2020
4055 Rain 22 1010 87 0 1.42 239 06:28 27.04.2020
4056 Rain 22 1010 87 0 1.42 239 05:55 27.04.2020
4057 Rain 22 1010 87 0 1.42 239 04:59 27.04.2020
4058 Rain 22 1010 87 0 1.42 239 04:37 27.04.2020
4059 Rain 22 1010 87 0 1.42 239 03:45 27.04.2020
4060 Rain 23 1010 86 0 1.26 190 01:51 27.04.2020
4061 Rain 23 1010 86 0 1.26 190 01:20 27.04.2020
4062 Rain 23 1010 85 0 0.51 109 00:21 27.04.2020
4063 Rain 23 1010 85 0 0.51 109 23:59 26.04.2020
4064 Rain 23 1010 85 0 0.51 109 23:41 26.04.2020
4065 Rain 23 1010 85 0 0.51 109 23:22 26.04.2020
4066 Rain 23 1010 85 0 0.51 109 22:59 26.04.2020
4067 Rain 23 1010 85 0 0.51 109 22:40 26.04.2020
4068 Rain 23 1010 85 0 0.51 109 22:21 26.04.2020
4069 Rain 23 1010 85 0 0.51 109 21:58 26.04.2020
4070 Rain 23 1010 85 0 0.51 109 21:39 26.04.2020
4071 Clouds 24 1008 69 0 1.32 201 21:19 26.04.2020
4072 Clouds 24 1008 69 0 1.32 201 21:19 26.04.2020
4073 Clouds 24 1008 69 0 1.32 201 20:55 26.04.2020
4074 Clouds 24 1008 69 0 1.32 201 20:37 26.04.2020
4075 Clouds 24 1008 69 0 1.32 201 20:37 26.04.2020
4076 Clouds 24 1008 69 0 1.32 201 20:19 26.04.2020
4077 Clouds 24 1008 69 0 1.32 201 19:57 26.04.2020
4078 Clouds 24 1008 69 0 1.32 201 19:36 26.04.2020
4079 Clouds 24 1008 69 0 1.32 201 19:18 26.04.2020
4080 Clouds 24 1008 69 0 1.32 201 18:43 26.04.2020
4081 Clouds 29 1005 52 0 0.33 171 18:24 26.04.2020
4082 Clouds 29 1005 52 0 0.33 171 18:24 26.04.2020
4083 Clouds 29 1005 52 0 0.33 171 17:44 26.04.2020
4084 Clouds 29 1005 52 0 0.33 171 17:23 26.04.2020
4085 Clouds 29 1005 52 0 0.33 171 16:59 26.04.2020
4086 Clouds 29 1005 52 0 0.33 171 16:40 26.04.2020
4087 Clouds 29 1005 52 0 0.33 171 16:20 26.04.2020
4088 Clouds 29 1005 52 0 0.33 171 15:57 26.04.2020
4089 Clouds 33 1009 49 10000 3.1 180 15:37 26.04.2020
4090 Clouds 33 1009 49 10000 3.1 180 15:19 26.04.2020
4091 Clouds 29 1009 53 0 1.63 160 14:41 26.04.2020
4092 Clouds 33 1010 52 10000 4.1 160 14:20 26.04.2020
4093 Clouds 33 1010 52 10000 4.1 160 13:59 26.04.2020
4094 Clouds 28 1009 56 0 1.8 167 13:40 26.04.2020
4095 Clouds 28 1009 56 0 1.8 167 13:22 26.04.2020
4096 Clouds 28 1009 56 0 1.8 167 12:57 26.04.2020
4097 Clouds 30 1011 66 10000 3.1 180 12:39 26.04.2020
4098 Clouds 30 1011 66 10000 3.1 180 12:39 26.04.2020
4099 Clouds 30 1011 66 10000 3.1 180 12:20 26.04.2020
4100 Rain 25 1012 75 0 2.74 152 11:55 26.04.2020
4101 Rain 25 1012 75 0 2.74 152 11:37 26.04.2020
4102 Rain 25 1012 75 0 2.74 152 11:18 26.04.2020
4103 Rain 25 1012 75 0 2.74 152 10:43 26.04.2020
4104 Clouds 22 1013 94 9000 2.1 120 10:24 26.04.2020
4105 Clouds 22 1013 94 9000 2.1 120 09:58 26.04.2020
4106 Rain 25 1012 75 0 2.74 152 09:39 26.04.2020
4107 Rain 24 1012 81 0 1.53 144 09:20 26.04.2020
4108 Rain 24 1012 81 0 1.53 144 08:41 26.04.2020
4109 Rain 24 1012 81 0 1.53 144 08:23 26.04.2020
4110 Rain 24 1012 81 0 1.53 144 07:50 26.04.2020
4111 Rain 24 1012 81 0 1.53 144 07:25 26.04.2020
4112 Rain 24 1012 81 0 1.53 144 06:55 26.04.2020
4113 Rain 24 1012 81 0 1.53 144 06:32 26.04.2020
4114 Rain 22 1009 85 0 1.18 75 05:54 26.04.2020
4115 Rain 22 1009 85 0 1.18 75 05:34 26.04.2020
4116 Rain 22 1009 85 0 1.18 75 04:42 26.04.2020
4117 Rain 22 1009 85 0 1.18 75 03:46 26.04.2020
4118 Clouds 24 1008 73 0 1.46 154 02:40 26.04.2020
4119 Rain 23 1008 77 0 1.02 152 02:19 26.04.2020
4120 Rain 23 1008 77 0 1.02 152 01:37 26.04.2020
4121 Rain 23 1008 77 0 1.02 152 01:18 26.04.2020
4122 Rain 23 1008 77 0 1.02 152 00:37 26.04.2020
4123 Clouds 25 1008 71 0 1.49 187 00:18 26.04.2020
4124 Clouds 25 1008 71 0 1.49 187 23:38 25.04.2020
4125 Clouds 25 1008 71 0 1.49 187 23:19 25.04.2020
4126 Clouds 25 1008 71 0 1.49 187 22:43 25.04.2020
4127 Clouds 25 1008 71 0 1.49 187 22:21 25.04.2020
4128 Clouds 25 1008 71 0 1.49 187 21:59 25.04.2020
4129 Clouds 25 1008 71 0 1.49 187 21:39 25.04.2020
4130 Clouds 27 1007 62 0 1.07 183 21:19 25.04.2020
4131 Clouds 27 1007 62 0 1.07 183 20:55 25.04.2020
4132 Clouds 27 1007 62 0 1.07 183 20:37 25.04.2020
4133 Clouds 27 1007 62 0 1.07 183 20:37 25.04.2020
4134 Clouds 27 1007 62 0 1.07 183 20:18 25.04.2020
4135 Clouds 27 1007 62 0 1.07 183 19:40 25.04.2020
4136 Clouds 27 1007 62 0 1.07 183 19:22 25.04.2020
4137 Clouds 27 1007 62 0 1.07 183 18:57 25.04.2020
4138 Clouds 27 1007 62 0 1.07 183 18:38 25.04.2020
4139 Clouds 32 1005 48 0 1.44 180 18:19 25.04.2020
4140 Clouds 32 1005 48 0 1.44 180 17:55 25.04.2020
4141 Clouds 32 1005 48 0 1.44 180 17:37 25.04.2020
4142 Clouds 32 1005 48 0 1.44 180 17:18 25.04.2020
4143 Clouds 32 1005 48 0 1.44 180 16:48 25.04.2020
4144 Clouds 32 1005 48 0 1.44 180 16:28 25.04.2020
4145 Clouds 32 1005 48 0 1.44 180 15:58 25.04.2020
4146 Clouds 29 1009 62 10000 3.1 260 15:39 25.04.2020
4147 Clouds 29 1009 62 10000 3.1 260 15:19 25.04.2020
4148 Clouds 29 1009 62 10000 3.1 260 14:57 25.04.2020
4149 Clouds 34 1006 39 0 0.89 158 14:38 25.04.2020
4150 Clouds 34 1006 38 0 1.07 167 14:19 25.04.2020
4151 Clouds 34 1006 38 0 1.07 167 13:42 25.04.2020
4152 Clouds 34 1006 38 0 1.07 167 13:19 25.04.2020
4153 Clouds 34 1006 38 0 1.07 167 12:57 25.04.2020
4154 Clouds 24 1012 83 10000 3.1 180 12:39 25.04.2020
4155 Clouds 24 1012 83 10000 3.1 180 12:20 25.04.2020
4156 Clouds 24 1012 83 10000 3.1 180 11:55 25.04.2020
4157 Clouds 23 1013 88 10000 3.1 130 11:37 25.04.2020
4158 Clouds 23 1013 88 10000 3.1 130 11:19 25.04.2020
4159 Clouds 32 1010 43 0 1.83 156 10:42 25.04.2020
4160 Thunderstorm 22 1013 94 8000 1.83 156 10:22 25.04.2020
4161 Thunderstorm 22 1013 94 8000 1.83 156 09:47 25.04.2020
4162 Rain 25 1012 67 0 1.08 135 09:27 25.04.2020
4163 Clouds 26 1011 63 0 1.63 129 08:57 25.04.2020
4164 Rain 24 1011 73 0 1.54 140 08:38 25.04.2020
4165 Clouds 26 1011 63 0 1.63 129 08:20 25.04.2020
4166 Rain 24 1011 73 0 1.54 140 07:47 25.04.2020
4167 Clouds 26 1011 63 0 1.63 129 07:24 25.04.2020
4168 Clouds 26 1011 63 0 1.63 129 06:45 25.04.2020
4169 Clouds 23 1008 69 0 0.75 127 06:18 25.04.2020
4170 Clouds 23 1008 69 0 0.75 127 05:39 25.04.2020
4171 Clouds 22 1008 71 0 1.28 102 04:47 25.04.2020
4172 Clear 23 1008 67 0 0.24 53 02:59 25.04.2020
4173 Clouds 23 1008 66 0 0.36 71 02:20 25.04.2020
4174 Clouds 23 1008 66 0 0.36 71 01:52 25.04.2020
4175 Clouds 23 1008 66 0 0.36 71 01:27 25.04.2020
4176 Clouds 23 1008 66 0 0.36 71 00:52 25.04.2020
4177 Clouds 23 1008 66 0 0.36 71 00:31 25.04.2020
4178 Clear 25 1009 60 0 0.81 192 23:44 24.04.2020
4179 Clear 25 1009 60 0 0.81 192 23:23 24.04.2020
4180 Clear 25 1009 60 0 0.81 192 22:56 24.04.2020
4181 Clear 25 1009 60 0 0.81 192 22:56 24.04.2020
4182 Clear 25 1009 60 0 0.81 192 22:38 24.04.2020
4183 Clear 25 1009 60 0 0.81 192 22:19 24.04.2020
4184 Clear 25 1009 60 0 0.81 192 21:55 24.04.2020
4185 Clear 25 1009 60 0 0.81 192 21:36 24.04.2020
4186 Clouds 26 1007 59 0 0.93 212 21:18 24.04.2020
4187 Clouds 26 1007 59 0 0.93 212 20:54 24.04.2020
4188 Clouds 26 1007 59 0 0.93 212 20:36 24.04.2020
4189 Clouds 26 1007 59 0 0.93 212 20:18 24.04.2020
4190 Clouds 26 1007 59 0 0.93 212 19:39 24.04.2020
4191 Clouds 26 1007 59 0 0.93 212 19:20 24.04.2020
4192 Clouds 26 1007 59 0 0.93 212 18:44 24.04.2020
4193 Clouds 32 1005 46 0 1.17 220 18:25 24.04.2020
4194 Clouds 32 1005 46 0 1.17 220 17:54 24.04.2020
4195 Clouds 34 1008 46 10000 2.1 250 17:36 24.04.2020
4196 Clouds 34 1008 46 10000 2.1 250 17:18 24.04.2020
4197 Clouds 34 1008 46 10000 2.1 250 16:56 24.04.2020
4198 Clouds 32 1005 46 0 1.17 220 16:38 24.04.2020
4199 Clouds 32 1005 46 0 1.17 220 16:20 24.04.2020
4200 Clouds 32 1005 46 0 1.17 220 15:40 24.04.2020
4201 Clear 37 1006 32 0 0.27 187 15:20 24.04.2020
4202 Clouds 34 1007 38 0 1.19 206 14:41 24.04.2020
4203 Clear 37 1006 32 0 0.27 187 14:22 24.04.2020
4204 Clouds 34 1007 38 0 1.19 206 13:59 24.04.2020
4205 Clouds 34 1007 38 0 1.19 206 13:41 24.04.2020
4206 Clouds 34 1007 38 0 1.19 206 13:20 24.04.2020
4207 Clouds 34 1007 38 0 1.19 206 12:57 24.04.2020
4208 Clouds 34 1007 38 0 1.19 206 12:57 24.04.2020
4209 Clouds 34 1007 38 0 1.19 206 12:39 24.04.2020
4210 Clear 34 1012 39 0 1.22 153 12:19 24.04.2020
4211 Clear 34 1012 39 0 1.22 153 11:43 24.04.2020
4212 Clear 34 1012 39 0 1.22 153 11:21 24.04.2020
4213 Clear 34 1012 39 0 1.22 153 10:57 24.04.2020
4214 Clear 34 1012 39 0 1.22 153 10:38 24.04.2020
4215 Clear 34 1012 39 0 1.22 153 10:19 24.04.2020
4216 Clear 34 1012 39 0 1.22 153 09:54 24.04.2020
4217 Clear 34 1012 39 0 1.22 153 09:36 24.04.2020
4218 Clear 25 1012 65 0 0.96 98 09:18 24.04.2020
4219 Clear 25 1012 65 0 0.96 98 08:41 24.04.2020
4220 Clear 25 1012 65 0 0.96 98 08:19 24.04.2020
4221 Clear 25 1012 65 0 0.96 98 07:47 24.04.2020
4222 Clear 25 1012 65 0 0.96 98 07:27 24.04.2020
4223 -273 0 0 0 0 0 06:59 24.04.2020
4224 Clear 25 1012 65 0 0.96 98 06:41 24.04.2020
4225 Clouds 22 1009 79 0 1.29 63 05:50 24.04.2020
4226 Clouds 22 1009 79 0 1.29 63 04:48 24.04.2020
4227 Clear 22 1009 76 0 0.91 150 03:28 24.04.2020
4228 Clear 22 1009 76 0 0.91 150 02:49 24.04.2020
4229 Clear 22 1009 73 0 0.76 144 02:23 24.04.2020
4230 Clear 22 1009 73 0 0.76 144 01:37 24.04.2020
4231 Clear 22 1009 73 0 0.76 144 00:46 24.04.2020
4232 Clear 23 1010 70 0 0.69 171 00:18 24.04.2020
4233 Clear 23 1010 70 0 0.69 171 23:45 23.04.2020
4234 Clear 23 1010 70 0 0.69 171 23:27 23.04.2020
4235 Clear 23 1010 70 0 0.69 171 22:57 23.04.2020
4236 Clear 23 1010 70 0 0.69 171 22:38 23.04.2020
4237 Clear 23 1010 70 0 0.69 171 22:19 23.04.2020
4238 Clear 23 1010 70 0 0.69 171 21:57 23.04.2020
4239 Clear 23 1010 74 0 0.74 184 21:38 23.04.2020
4240 Rain 24 1008 71 0 0.54 300 21:20 23.04.2020
4241 Rain 24 1008 71 0 0.54 300 20:54 23.04.2020
4242 Rain 24 1008 71 0 0.54 300 20:54 23.04.2020
4243 Rain 24 1008 71 0 0.54 300 20:36 23.04.2020
4244 Rain 24 1008 71 0 0.54 300 20:18 23.04.2020
4245 Rain 24 1008 71 0 0.54 300 19:42 23.04.2020
4246 Rain 24 1008 71 0 0.54 300 19:23 23.04.2020
4247 -273 0 0 0 0 0 19:00 23.04.2020
4248 Rain 24 1008 71 0 0.54 300 19:00 23.04.2020
4249 Rain 24 1008 71 0 0.54 300 18:39 23.04.2020
4250 Clear 31 1006 49 0 1.29 327 18:21 23.04.2020
4251 Clear 31 1006 49 0 1.29 327 17:57 23.04.2020
4252 Clear 31 1006 49 0 1.29 327 17:38 23.04.2020
4253 Clear 31 1006 49 0 1.29 327 17:20 23.04.2020
4254 Clear 31 1006 49 0 1.29 327 16:44 23.04.2020
4255 Clear 31 1006 49 0 1.29 327 16:21 23.04.2020
4256 Clear 31 1006 49 0 1.29 327 15:59 23.04.2020
4257 Clear 31 1006 49 0 1.29 327 15:40 23.04.2020
4258 Clouds 34 1008 38 0 0.72 183 15:21 23.04.2020
4259 Clouds 34 1008 38 0 0.72 183 14:41 23.04.2020
4260 Clouds 34 1008 38 0 1.53 192 14:22 23.04.2020
4261 Clouds 34 1008 38 0 1.53 192 13:58 23.04.2020
4262 Clouds 34 1008 38 0 1.53 192 13:40 23.04.2020
4263 Clouds 34 1008 38 0 1.53 192 13:22 23.04.2020
4264 Clouds 34 1008 38 0 1.53 192 12:57 23.04.2020
4265 Clouds 34 1008 38 0 1.53 192 12:38 23.04.2020
4266 Clouds 29 1012 55 0 1.67 161 12:20 23.04.2020
4267 Clouds 29 1012 55 0 1.67 161 11:47 23.04.2020
4268 Clouds 29 1012 55 0 1.67 161 11:27 23.04.2020
4269 Clouds 29 1012 55 0 1.67 161 10:58 23.04.2020
4270 Clouds 29 1012 55 0 1.67 161 10:39 23.04.2020
4271 Clouds 29 1012 55 0 1.67 161 10:20 23.04.2020
4272 Clouds 29 1012 55 0 1.67 161 09:40 23.04.2020
4273 Clouds 23 1013 83 0 1.18 125 09:18 23.04.2020
4274 Clouds 23 1013 83 0 1.18 125 08:48 23.04.2020
4275 Clouds 23 1013 83 0 1.18 125 08:29 23.04.2020
4276 Clouds 23 1013 83 0 1.18 125 07:56 23.04.2020
4277 Clouds 23 1013 83 0 1.18 125 07:38 23.04.2020
4278 Clouds 23 1013 83 0 1.18 125 07:18 23.04.2020
4279 Clouds 23 1013 83 0 1.18 125 06:43 23.04.2020
4280 Rain 21 1010 87 0 0.88 126 05:39 23.04.2020
4281 Rain 21 1010 87 0 0.88 126 05:21 23.04.2020
4282 Rain 21 1011 87 0 0.91 138 02:52 23.04.2020
4283 Rain 21 1011 87 0 0.88 143 02:23 23.04.2020
4284 Rain 21 1011 87 0 0.88 143 01:38 23.04.2020
4285 Rain 21 1011 87 0 0.88 143 00:51 23.04.2020
4286 Rain 22 1012 87 0 0.74 113 00:26 23.04.2020
4287 Rain 22 1012 87 0 0.74 113 23:57 22.04.2020
4288 Rain 22 1012 87 0 0.74 113 23:38 22.04.2020
4289 Rain 22 1012 87 0 0.74 113 23:19 22.04.2020
4290 Rain 22 1012 87 0 0.74 113 22:39 22.04.2020
4291 Rain 22 1012 87 0 0.74 113 22:20 22.04.2020
4292 Rain 22 1012 87 0 0.74 113 21:58 22.04.2020
4293 Rain 22 1012 87 0 0.74 113 21:40 22.04.2020
4294 Rain 21 1010 85 0 1.86 210 21:21 22.04.2020
4295 Rain 21 1010 85 0 1.86 210 20:56 22.04.2020
4296 Rain 21 1010 85 0 1.86 210 20:37 22.04.2020
4297 Rain 21 1010 85 0 1.86 210 20:18 22.04.2020
4298 Rain 21 1010 85 0 1.86 210 19:56 22.04.2020
4299 Rain 21 1010 85 0 1.86 210 19:37 22.04.2020
4300 Rain 21 1010 85 0 1.86 210 19:18 22.04.2020
4301 Rain 21 1010 85 0 1.86 210 18:55 22.04.2020
4302 Rain 21 1010 85 0 1.86 210 18:37 22.04.2020
4303 Rain 27 1007 69 0 0.83 357 18:19 22.04.2020
4304 Rain 27 1007 69 0 0.83 357 17:42 22.04.2020
4305 Rain 27 1007 69 0 0.83 357 17:24 22.04.2020
4306 Rain 27 1007 69 0 0.83 357 16:56 22.04.2020
4307 Rain 27 1007 69 0 0.83 357 16:36 22.04.2020
4308 Rain 27 1007 69 0 0.83 357 16:18 22.04.2020
4309 Rain 27 1007 69 0 0.83 357 15:38 22.04.2020
4310 Clouds 33 1007 43 0 1.48 197 15:20 22.04.2020
4311 Clouds 33 1007 43 0 1.48 197 14:56 22.04.2020
4312 Clouds 33 1007 40 0 1.02 213 14:37 22.04.2020
4313 Clouds 33 1007 40 0 1.02 213 14:18 22.04.2020
4314 Clouds 33 1007 40 0 1.02 213 14:18 22.04.2020
4315 Clouds 33 1007 40 0 1.02 213 13:44 22.04.2020
4316 Clouds 33 1007 40 0 1.02 213 13:20 22.04.2020
4317 Clouds 33 1007 40 0 1.02 213 12:44 22.04.2020
4318 Clouds 32 1011 47 0 1.89 204 12:26 22.04.2020
4319 Clouds 32 1011 47 0 1.89 204 11:59 22.04.2020
4320 Clouds 32 1011 47 0 1.89 204 11:39 22.04.2020
4321 Clouds 32 1011 47 0 1.89 204 11:20 22.04.2020
4322 Clouds 32 1011 47 0 1.89 204 10:46 22.04.2020
4323 Clouds 32 1011 47 0 1.89 204 10:25 22.04.2020
4324 Clouds 32 1011 47 0 1.89 204 09:56 22.04.2020
4325 Clouds 31 1011 50 0 1.95 206 09:38 22.04.2020
4326 Rain 23 1012 83 0 0.91 151 09:19 22.04.2020
4327 Rain 23 1012 83 0 0.91 151 08:54 22.04.2020
4328 Mist 23 1012 100 4000 2.1 200 08:36 22.04.2020
4329 Mist 23 1012 100 4000 2.1 200 08:18 22.04.2020
4330 Mist 23 1012 100 4000 2.1 200 07:44 22.04.2020
4331 Rain 23 1012 83 0 0.91 151 07:21 22.04.2020
4332 Rain 23 1012 83 0 0.91 151 06:45 22.04.2020
4333 Rain 21 1010 86 0 0.67 205 05:45 22.04.2020
4334 Rain 21 1010 86 0 0.67 205 05:23 22.04.2020
4335 Rain 21 1010 86 0 0.67 205 03:54 22.04.2020
4336 Rain 21 1010 84 0 0.75 170 02:35 22.04.2020
4337 Rain 21 1010 84 0 0.75 170 01:41 22.04.2020
4338 Rain 21 1010 84 0 0.75 170 01:23 22.04.2020
4339 Rain 21 1010 84 0 0.75 170 00:45 22.04.2020
4340 Clouds 22 1011 78 0 1.14 209 00:20 22.04.2020
4341 Clouds 22 1011 78 0 1.14 209 23:45 21.04.2020
4342 Clouds 22 1011 78 0 1.14 209 23:23 21.04.2020
4343 Clouds 22 1011 78 0 1.14 209 22:59 21.04.2020
4344 Clouds 22 1011 78 0 1.14 209 22:39 21.04.2020
4345 Clouds 22 1011 78 0 1.14 209 22:20 21.04.2020
4346 Clouds 22 1011 78 0 1.14 209 21:57 21.04.2020
4347 Clouds 22 1011 78 0 1.14 209 21:39 21.04.2020
4348 Rain 22 1011 84 0 1.38 191 21:39 21.04.2020
4349 Rain 23 1010 80 0 1.14 177 21:21 21.04.2020
4350 Rain 24 1009 72 0 1.4 198 20:41 21.04.2020
4351 Rain 24 1009 72 0 1.4 198 20:23 21.04.2020
4352 Rain 24 1009 72 0 1.4 198 19:58 21.04.2020
4353 Rain 24 1009 72 0 1.4 198 19:39 21.04.2020
4354 Rain 24 1009 72 0 1.4 198 19:19 21.04.2020
4355 Rain 24 1009 72 0 1.4 198 18:55 21.04.2020
4356 Rain 24 1009 72 0 1.4 198 18:37 21.04.2020
4357 Rain 23 1010 80 0 1.14 177 18:37 21.04.2020
4358 Rain 24 1009 72 0 1.4 198 18:37 21.04.2020
4359 Rain 29 1007 57 0 0.94 200 18:18 21.04.2020
4360 Rain 29 1007 57 0 0.94 200 17:40 21.04.2020
4361 Rain 29 1007 57 0 0.94 200 17:20 21.04.2020
4362 Rain 31 1006 51 0 0.68 221 16:58 21.04.2020
4363 Rain 31 1006 51 0 0.68 221 16:37 21.04.2020
4364 Rain 29 1007 57 0 0.94 200 16:18 21.04.2020
4365 Rain 29 1007 57 0 0.94 200 15:55 21.04.2020
4366 Rain 29 1007 57 0 0.94 200 15:55 21.04.2020
4367 Rain 31 1006 51 0 0.68 221 15:37 21.04.2020
4368 Rain 31 1006 51 0 0.68 221 15:37 21.04.2020
4369 Rain 31 1006 51 0 0.68 221 15:37 21.04.2020
4370 Rain 30 1009 54 0 1.03 210 15:19 21.04.2020
4371 Rain 30 1009 54 0 1.03 210 14:45 21.04.2020
4372 Rain 30 1009 51 0 1.36 206 14:24 21.04.2020
4373 Rain 30 1009 51 0 1.36 206 13:56 21.04.2020
4374 Rain 30 1009 51 0 1.36 206 13:38 21.04.2020
4375 Rain 30 1009 51 0 1.36 206 13:18 21.04.2020
4376 Rain 30 1009 51 0 1.36 206 13:18 21.04.2020
4377 Rain 30 1009 51 0 1.36 206 13:18 21.04.2020
4378 Rain 30 1009 51 0 1.36 206 12:39 21.04.2020
4379 Rain 26 1013 71 0 1.04 209 12:19 21.04.2020
4380 Rain 26 1013 71 0 1.04 209 11:57 21.04.2020
4381 Clouds 27 1015 78 10000 2.1 260 11:39 21.04.2020
4382 Clouds 27 1015 78 10000 2.1 260 11:19 21.04.2020
4383 Clouds 27 1015 78 10000 2.1 260 10:59 21.04.2020
4384 Clouds 25 1014 88 7000 2.1 280 10:39 21.04.2020
4385 Clouds 25 1014 88 7000 2.1 280 10:21 21.04.2020
4386 Rain 26 1013 71 0 1.04 209 09:57 21.04.2020
4387 Rain 26 1013 71 0 1.04 209 09:36 21.04.2020
4388 Clouds 24 1014 74 0 0.15 188 09:18 21.04.2020
4389 Clouds 24 1014 74 0 0.15 188 08:43 21.04.2020
4390 Clouds 24 1014 74 0 0.15 188 08:25 21.04.2020
4391 Clouds 24 1014 74 0 0.15 188 07:51 21.04.2020
4392 Clouds 24 1014 74 0 0.15 188 07:27 21.04.2020
4393 Clouds 24 1014 74 0 0.15 188 06:50 21.04.2020
4394 Clouds 24 1014 74 0 0.15 188 06:32 21.04.2020
4395 Clouds 21 1011 85 0 0.26 93 05:50 21.04.2020
4396 Clouds 21 1011 85 0 0.26 93 04:57 21.04.2020
4397 Clouds 21 1011 85 0 0.26 93 03:46 21.04.2020
4398 Clouds 22 1011 84 0 0.16 317 02:41 21.04.2020
4399 Clouds 21 1011 82 0 0.3 318 01:30 21.04.2020
4400 Clouds 21 1011 82 0 0.3 318 00:38 21.04.2020
4401 Clouds 22 1011 80 0 0.19 216 23:58 20.04.2020
4402 Clouds 22 1011 80 0 0.19 216 23:40 20.04.2020
4403 Clouds 22 1011 80 0 0.19 216 23:19 20.04.2020
4404 Clouds 22 1011 80 0 0.19 216 22:54 20.04.2020
4405 Clouds 22 1011 80 0 0.19 216 22:36 20.04.2020
4406 Clouds 22 1011 80 0 0.19 216 22:18 20.04.2020
4407 Clouds 22 1011 80 0 0.19 216 21:54 20.04.2020
4408 Clouds 22 1011 80 0 0.19 216 21:36 20.04.2020
4409 Rain 23 1011 82 0 0.42 202 21:18 20.04.2020
4410 Rain 23 1011 82 0 0.42 202 20:41 20.04.2020
4411 Rain 23 1011 82 0 0.42 202 20:20 20.04.2020
4412 Rain 23 1011 82 0 0.42 202 19:59 20.04.2020
4413 Rain 23 1011 82 0 0.42 202 19:40 20.04.2020
4414 Rain 23 1011 82 0 0.42 202 19:20 20.04.2020
4415 Rain 23 1011 82 0 0.42 202 18:55 20.04.2020
4416 Rain 23 1011 82 0 0.42 202 18:37 20.04.2020
4417 Rain 27 1008 78 0 0.22 254 18:19 20.04.2020
4418 Rain 27 1008 78 0 0.22 254 17:43 20.04.2020
4419 Rain 27 1008 78 0 0.22 254 17:23 20.04.2020
4420 Rain 27 1008 78 0 0.22 254 16:59 20.04.2020
4421 Rain 27 1008 78 0 0.22 254 16:40 20.04.2020
4422 Rain 27 1008 78 0 0.22 254 16:19 20.04.2020
4423 Rain 27 1008 78 0 0.22 254 15:55 20.04.2020
4424 Rain 27 1008 78 0 0.22 254 15:36 20.04.2020
4425 Rain 27 1008 78 0 0.22 254 15:36 20.04.2020
4426 Rain 30 1010 54 0 0.94 178 15:18 20.04.2020
4427 Rain 30 1010 54 0 0.94 178 15:18 20.04.2020
4428 Rain 30 1010 54 0 0.94 178 14:41 20.04.2020
4429 Rain 29 1010 67 0 0.5 174 14:19 20.04.2020
4430 Rain 29 1010 67 0 0.5 174 13:57 20.04.2020
4431 Rain 29 1010 67 0 0.5 174 13:38 20.04.2020
4432 Rain 29 1010 67 0 0.5 174 13:20 20.04.2020
4433 Rain 29 1010 67 0 0.5 174 12:43 20.04.2020
4434 Clouds 29 1013 54 0 2.41 166 12:22 20.04.2020
4435 Clouds 29 1013 54 0 2.41 166 11:54 20.04.2020
4436 Clouds 29 1013 54 0 2.41 166 11:36 20.04.2020
4437 Clouds 29 1013 54 0 2.41 166 11:18 20.04.2020
4438 Clouds 29 1013 54 0 2.41 166 10:54 20.04.2020
4439 Clouds 29 1013 54 0 2.41 166 10:36 20.04.2020
4440 Clouds 29 1013 54 0 2.41 166 10:18 20.04.2020
4441 Clouds 31 1013 49 0 2.03 175 09:41 20.04.2020
4442 Clouds 24 1015 74 0 1.64 171 09:23 20.04.2020
4443 Clouds 24 1015 74 0 1.64 171 08:56 20.04.2020
4444 Clouds 24 1015 74 0 1.64 171 08:38 20.04.2020
4445 Clouds 24 1015 74 0 1.64 171 08:18 20.04.2020
4446 Clouds 24 1015 74 0 1.64 171 07:42 20.04.2020
4447 Clouds 24 1015 74 0 1.64 171 07:20 20.04.2020
4448 Clouds 24 1015 74 0 1.64 171 06:38 20.04.2020
4449 Clouds 21 1012 84 0 0.94 170 05:58 20.04.2020
4450 Clouds 21 1012 84 0 0.94 170 04:49 20.04.2020
4451 Clouds 22 1013 80 0 0.53 135 02:52 20.04.2020
4452 Clouds 22 1013 80 0 0.53 161 02:33 20.04.2020
4453 Clouds 22 1013 80 0 0.53 161 01:30 20.04.2020
4454 Clouds 22 1013 80 0 0.53 161 00:45 20.04.2020
4455 Clouds 22 1014 78 0 0.54 179 00:22 20.04.2020
4456 Clouds 22 1014 78 0 0.54 179 23:40 19.04.2020
4457 Clouds 22 1014 78 0 0.54 179 23:21 19.04.2020
4458 Clouds 22 1014 78 0 0.54 179 22:57 19.04.2020
4459 Clouds 22 1014 78 0 0.54 179 22:37 19.04.2020
4460 Clouds 22 1014 78 0 0.54 179 22:19 19.04.2020
4461 Clouds 22 1014 78 0 0.54 179 21:42 19.04.2020
4462 Clouds 23 1013 79 0 0.95 183 21:24 19.04.2020
4463 Clouds 23 1013 79 0 0.95 183 20:58 19.04.2020
4464 Clouds 23 1013 79 0 0.95 183 20:40 19.04.2020
4465 Clouds 23 1013 79 0 0.95 183 20:40 19.04.2020
4466 Clouds 23 1013 79 0 0.95 183 20:20 19.04.2020
4467 Clouds 23 1013 79 0 0.95 183 19:56 19.04.2020
4468 Clouds 23 1013 79 0 0.95 183 19:38 19.04.2020
4469 Clouds 23 1013 79 0 0.95 183 19:20 19.04.2020
4470 Clouds 23 1013 79 0 0.95 183 18:57 19.04.2020
4471 Clouds 23 1013 79 0 0.95 183 18:38 19.04.2020
4472 Rain 26 1010 67 0 1.62 172 18:18 19.04.2020
4473 Rain 26 1010 67 0 1.62 172 17:56 19.04.2020
4474 Rain 26 1010 67 0 1.62 172 17:37 19.04.2020
4475 Rain 26 1010 67 0 1.62 172 17:19 19.04.2020
4476 Rain 26 1010 67 0 1.62 172 16:40 19.04.2020
4477 Rain 26 1010 67 0 1.62 172 16:21 19.04.2020
4478 Rain 26 1010 67 0 1.62 172 15:58 19.04.2020
4479 Rain 26 1010 67 0 1.62 172 15:40 19.04.2020
4480 Rain 26 1012 67 0 2.34 181 15:19 19.04.2020
4481 Rain 26 1012 67 0 2.34 181 14:39 19.04.2020
4482 Rain 30 1011 52 0 2.17 171 14:21 19.04.2020
4483 Rain 30 1011 52 0 2.17 171 13:57 19.04.2020
4484 Rain 30 1011 52 0 2.17 171 13:37 19.04.2020
4485 Rain 30 1011 52 0 2.17 171 13:18 19.04.2020
4486 Rain 30 1011 52 0 2.17 171 12:46 19.04.2020
4487 Clouds 26 1013 66 0 2.12 177 12:24 19.04.2020
4488 Clouds 26 1013 66 0 2.12 177 11:55 19.04.2020
4489 Clouds 26 1013 66 0 2.12 177 11:37 19.04.2020
4490 Clouds 26 1013 66 0 2.12 177 11:18 19.04.2020
4491 Clouds 26 1013 66 0 2.12 177 10:41 19.04.2020
4492 Clouds 26 1013 66 0 2.12 177 10:21 19.04.2020
4493 Clouds 26 1013 66 0 2.12 177 09:59 19.04.2020
4494 Clouds 26 1013 66 0 2.12 177 09:59 19.04.2020
4495 Clouds 26 1013 66 0 2.12 177 09:59 19.04.2020
4496 Rain 24 1014 82 0 1.71 181 09:41 19.04.2020
4497 Rain 23 1014 85 0 0.9 166 09:20 19.04.2020
4498 Rain 22 1014 87 0 1.43 164 08:40 19.04.2020
4499 Rain 22 1014 87 0 1.43 164 08:21 19.04.2020
4500 Rain 23 1014 85 0 0.9 166 07:56 19.04.2020
4501 Rain 22 1014 87 0 1.43 164 07:38 19.04.2020
4502 Rain 23 1014 85 0 0.9 166 07:19 19.04.2020
4503 Rain 21 1011 86 0 0.78 160 06:26 19.04.2020
4504 Rain 21 1011 86 0 0.78 160 05:43 19.04.2020
4505 Rain 21 1011 86 0 0.78 160 04:22 19.04.2020
4506 Rain 21 1011 86 0 0.49 287 02:52 19.04.2020
4507 Rain 22 1011 86 0 0.9 317 02:19 19.04.2020
4508 Rain 22 1011 86 0 0.9 317 01:31 19.04.2020
4509 Rain 22 1011 86 0 0.9 317 00:41 19.04.2020
4510 Rain 22 1011 83 0 0.71 296 00:20 19.04.2020
4511 Rain 22 1011 83 0 0.71 296 23:44 18.04.2020
4512 Rain 22 1011 83 0 0.71 296 23:21 18.04.2020
4513 Rain 22 1011 83 0 0.71 296 22:56 18.04.2020
4514 Rain 22 1011 83 0 0.71 296 22:38 18.04.2020
4515 Rain 22 1011 83 0 0.71 296 22:19 18.04.2020
4516 Rain 22 1011 83 0 0.71 296 21:55 18.04.2020
4517 Rain 22 1011 83 0 0.71 296 21:36 18.04.2020
4518 Rain 26 1010 65 0 0.81 144 21:18 18.04.2020
4519 Rain 26 1010 65 0 0.81 144 20:40 18.04.2020
4520 Rain 26 1010 65 0 0.81 144 20:21 18.04.2020
4521 Rain 26 1010 65 0 0.81 144 19:44 18.04.2020
4522 Rain 26 1010 65 0 0.81 144 19:44 18.04.2020
4523 Rain 26 1010 65 0 0.81 144 19:25 18.04.2020
4524 Rain 26 1010 65 0 0.81 144 18:59 18.04.2020
4525 Rain 26 1010 65 0 0.81 144 18:37 18.04.2020
4526 Clouds 32 1006 47 0 0.76 162 18:19 18.04.2020
4527 Clouds 32 1006 47 0 0.76 162 17:41 18.04.2020
4528 Clouds 32 1006 47 0 0.76 162 17:21 18.04.2020
4529 Clouds 32 1006 47 0 0.76 162 16:56 18.04.2020
4530 Clouds 32 1006 47 0 0.76 162 16:37 18.04.2020
4531 Clouds 32 1006 47 0 0.76 162 16:19 18.04.2020
4532 Clouds 32 1006 47 0 0.76 162 15:38 18.04.2020
4533 Clouds 32 1008 44 0 0.6 114 15:20 18.04.2020
4534 Clouds 32 1008 44 0 0.6 114 14:45 18.04.2020
4535 Clouds 32 1008 44 0 0.6 114 14:26 18.04.2020
4536 Clouds 33 1008 42 0 1.11 25 13:56 18.04.2020
4537 Clouds 33 1008 42 0 1.11 25 13:38 18.04.2020
4538 Clouds 33 1008 42 0 1.11 25 13:18 18.04.2020
4539 Clouds 33 1008 42 0 1.11 25 12:41 18.04.2020
4540 Clouds 28 1012 56 0 0.74 205 12:22 18.04.2020
4541 Clouds 28 1012 56 0 0.74 205 11:43 18.04.2020
4542 Clouds 28 1012 56 0 0.74 205 11:24 18.04.2020
4543 Clouds 28 1012 56 0 0.74 205 10:58 18.04.2020
4544 Clouds 28 1012 56 0 0.74 205 10:37 18.04.2020
4545 Clouds 28 1012 56 0 0.74 205 10:18 18.04.2020
4546 Clouds 29 1012 53 0 0.37 22 09:42 18.04.2020
4547 Rain 23 1013 83 0 0.49 360 09:24 18.04.2020
4548 Rain 23 1013 83 0 0.49 360 08:56 18.04.2020
4549 Rain 23 1013 83 0 0.49 360 08:38 18.04.2020
4550 Rain 23 1013 83 0 0.49 360 08:18 18.04.2020
4551 Rain 23 1013 83 0 0.49 360 07:37 18.04.2020
4552 Rain 23 1013 83 0 0.49 360 07:37 18.04.2020
4553 Rain 23 1013 83 0 0.49 360 06:59 18.04.2020
4554 Rain 21 1010 84 0 0.95 339 06:29 18.04.2020
4555 Rain 21 1010 84 0 0.95 339 05:36 18.04.2020
4556 Rain 21 1010 84 0 0.95 339 04:47 18.04.2020
4557 Rain 21 1010 84 0 0.95 339 04:25 18.04.2020
4558 Rain 22 1009 83 0 0.77 16 02:49 18.04.2020
4559 Rain 21 1009 85 0 1.48 43 02:23 18.04.2020
4560 Rain 21 1009 85 0 1.48 43 01:57 18.04.2020
4561 Rain 21 1009 85 0 1.48 43 01:35 18.04.2020
4562 Rain 21 1009 85 0 1.48 43 01:35 18.04.2020
4563 Rain 21 1009 85 0 1.48 43 00:44 18.04.2020
4564 Rain 22 1009 84 0 0.34 259 00:22 18.04.2020
4565 Rain 22 1009 84 0 0.34 259 00:22 18.04.2020
4566 Rain 22 1009 84 0 0.34 259 23:55 17.04.2020
4567 Rain 22 1009 84 0 0.34 259 23:37 17.04.2020
4568 Rain 22 1009 84 0 0.34 259 23:18 17.04.2020
4569 Rain 22 1009 84 0 0.34 259 22:56 17.04.2020
4570 Rain 22 1009 84 0 0.34 259 22:37 17.04.2020
4571 Rain 22 1009 84 0 0.34 259 22:18 17.04.2020
4572 Rain 22 1010 86 0 0.6 57 21:42 17.04.2020
4573 Rain 23 1008 83 0 2.57 120 21:21 17.04.2020
4574 Rain 23 1008 83 0 2.57 120 20:56 17.04.2020
4575 Rain 23 1008 83 0 2.57 120 20:37 17.04.2020
4576 Rain 23 1008 83 0 2.57 120 20:18 17.04.2020
4577 Rain 23 1008 83 0 2.57 120 19:56 17.04.2020
4578 Rain 23 1008 83 0 2.57 120 19:38 17.04.2020
4579 Rain 23 1008 83 0 2.57 120 19:20 17.04.2020
4580 Rain 23 1008 83 0 2.57 120 18:42 17.04.2020
4581 Clouds 31 1003 51 0 2.75 186 18:23 17.04.2020
4582 Clouds 31 1003 51 0 2.75 186 17:55 17.04.2020
4583 Clouds 31 1003 51 0 2.75 186 17:36 17.04.2020
4584 Clouds 31 1003 51 0 2.75 186 17:18 17.04.2020
4585 Clouds 31 1003 51 0 2.75 186 16:41 17.04.2020
4586 Clouds 31 1003 51 0 2.75 186 16:22 17.04.2020
4587 Clouds 31 1003 51 0 2.75 186 16:22 17.04.2020
4588 Clouds 31 1003 51 0 2.75 186 15:41 17.04.2020
4589 Clouds 34 1005 40 0 1.54 212 15:22 17.04.2020
4590 Clouds 34 1005 40 0 1.54 212 14:55 17.04.2020
4591 Clouds 34 1005 40 0 1.54 212 14:37 17.04.2020
4592 Clouds 35 1005 37 0 1.58 199 14:19 17.04.2020
4593 Clouds 35 1005 37 0 1.58 199 13:40 17.04.2020
4594 Clouds 35 1005 37 0 1.58 199 13:20 17.04.2020
4595 Clouds 35 1005 37 0 1.58 199 12:57 17.04.2020
4596 Clouds 35 1005 37 0 1.58 199 12:38 17.04.2020
4597 Clouds 30 1009 58 0 1.36 160 12:20 17.04.2020
4598 Clouds 30 1009 58 0 1.36 160 11:40 17.04.2020
4599 Clouds 30 1009 58 0 1.36 160 11:19 17.04.2020
4600 Clouds 30 1009 58 0 1.36 160 10:43 17.04.2020
4601 Clouds 25 1010 94 10000 2.1 160 10:22 17.04.2020
4602 Clouds 25 1010 94 10000 2.1 160 09:57 17.04.2020
4603 Clouds 24 1010 94 7000 2.1 160 09:38 17.04.2020
4604 Clouds 24 1010 94 7000 2.1 160 09:19 17.04.2020
4605 Clouds 24 1010 94 7000 2.1 160 08:48 17.04.2020
4606 Clouds 24 1010 94 7000 2.1 160 08:28 17.04.2020
4607 Rain 24 1009 84 0 0.7 144 07:58 17.04.2020
4608 Rain 24 1009 84 0 0.7 144 07:40 17.04.2020
4609 Rain 24 1009 84 0 0.7 144 07:19 17.04.2020
4610 Rain 24 1009 84 0 0.7 144 06:44 17.04.2020
4611 Clouds 23 1006 80 0 1.28 126 05:58 17.04.2020
4612 Clouds 24 1006 76 0 1.04 177 03:27 17.04.2020
4613 Clouds 24 1006 76 0 1.04 177 02:55 17.04.2020
4614 Rain 24 1006 76 0 0.92 163 01:46 17.04.2020
4615 Rain 24 1006 76 0 0.92 163 01:22 17.04.2020
4616 Clouds 25 1007 72 0 0.79 203 00:21 17.04.2020
4617 Clouds 25 1007 72 0 0.79 203 23:55 16.04.2020
4618 Clouds 25 1007 72 0 0.79 203 23:37 16.04.2020
4619 Clouds 25 1007 72 0 0.79 203 23:18 16.04.2020
4620 Clouds 25 1007 72 0 0.79 203 22:40 16.04.2020
4621 Clouds 25 1007 72 0 0.79 203 22:22 16.04.2020
4622 Clouds 25 1007 72 0 0.79 203 21:58 16.04.2020
4623 Clouds 25 1007 72 0 0.79 203 21:40 16.04.2020
4624 Clouds 27 1005 65 0 1.32 201 21:19 16.04.2020
4625 Clouds 27 1005 65 0 1.32 201 20:42 16.04.2020
4626 Clouds 27 1005 65 0 1.32 201 20:23 16.04.2020
4627 Clouds 27 1005 65 0 1.32 201 19:59 16.04.2020
4628 Clouds 27 1005 65 0 1.32 201 19:39 16.04.2020
4629 Clouds 27 1005 65 0 1.32 201 19:19 16.04.2020
4630 Clouds 27 1005 65 0 1.32 201 18:56 16.04.2020
4631 Clouds 27 1005 65 0 1.32 201 18:37 16.04.2020
4632 Clouds 30 1003 55 0 0.95 217 18:19 16.04.2020
4633 Clouds 30 1003 55 0 0.95 217 17:42 16.04.2020
4634 Clouds 30 1003 55 0 0.95 217 17:24 16.04.2020
4635 Clouds 30 1003 55 0 0.95 217 16:55 16.04.2020
4636 Clouds 30 1003 55 0 0.95 217 16:37 16.04.2020
4637 Clouds 30 1003 55 0 0.95 217 16:18 16.04.2020
4638 Clouds 30 1003 55 0 0.95 217 15:41 16.04.2020
4639 Clouds 37 1005 34 0 0.42 16 15:19 16.04.2020
4640 Clouds 37 1005 34 0 0.42 16 14:58 16.04.2020
4641 Clouds 37 1005 32 0 0.76 34 14:38 16.04.2020
4642 Clouds 37 1005 32 0 0.76 34 14:19 16.04.2020
4643 Clouds 37 1005 32 0 0.76 34 13:55 16.04.2020
4644 Clouds 37 1005 32 0 0.76 34 13:36 16.04.2020
4645 Clouds 37 1005 32 0 0.76 34 13:18 16.04.2020
4646 Clouds 37 1005 32 0 0.76 34 12:55 16.04.2020
4647 Clouds 37 1005 32 0 0.76 34 12:36 16.04.2020
4648 Clouds 34 1010 42 0 1.24 122 12:18 16.04.2020
4649 Clouds 34 1010 42 0 1.24 122 11:41 16.04.2020
4650 Clouds 34 1010 42 0 1.24 122 11:22 16.04.2020
4651 Clouds 34 1010 42 0 1.24 122 10:57 16.04.2020
4652 Clouds 34 1010 42 0 1.24 122 10:38 16.04.2020
4653 Clouds 34 1010 42 0 1.24 122 10:19 16.04.2020
4654 Clouds 34 1010 42 0 1.24 122 09:55 16.04.2020
4655 Clouds 34 1010 43 0 1.19 120 09:37 16.04.2020
4656 Rain 25 1011 72 0 0.52 132 09:18 16.04.2020
4657 Rain 25 1011 72 0 0.52 132 09:18 16.04.2020
4658 Rain 25 1011 72 0 0.52 132 08:41 16.04.2020
4659 Mist 23 1011 100 4000 1.03 136 08:22 16.04.2020
4660 Mist 23 1011 100 4000 1.03 136 07:46 16.04.2020
4661 Mist 23 1011 100 4000 0.52 132 07:26 16.04.2020
4662 Rain 25 1011 72 0 0.52 132 06:43 16.04.2020
4663 Clouds 23 1008 71 0 0.8 145 06:25 16.04.2020
4664 Clouds 23 1008 71 0 0.8 145 05:34 16.04.2020
4665 Clouds 23 1008 71 0 0.8 145 03:53 16.04.2020
4666 Clouds 24 1008 64 0 0.59 100 03:23 16.04.2020
4667 Clouds 24 1008 68 0 0.56 99 02:47 16.04.2020
4668 Clouds 24 1008 64 0 0.59 100 02:28 16.04.2020
4669 Clouds 24 1008 64 0 0.59 100 01:18 16.04.2020
4670 Clouds 26 1009 56 0 0.65 66 00:28 16.04.2020
4671 Clouds 26 1009 56 0 0.65 66 23:58 15.04.2020
4672 Clouds 26 1009 56 0 0.65 66 23:58 15.04.2020
4673 Clouds 26 1009 56 0 0.65 66 23:40 15.04.2020
4674 Clouds 26 1009 56 0 0.65 66 23:21 15.04.2020
4675 Clouds 26 1009 56 0 0.65 66 22:40 15.04.2020
4676 Clouds 26 1009 56 0 0.65 66 22:22 15.04.2020
4677 Clouds 26 1009 56 0 0.65 66 21:59 15.04.2020
4678 Clouds 26 1009 56 0 0.65 66 21:40 15.04.2020
4679 Clouds 26 1007 56 0 0.96 107 21:22 15.04.2020
4680 Clouds 26 1007 56 0 0.96 107 20:58 15.04.2020
4681 Clouds 26 1007 56 0 0.96 107 20:40 15.04.2020
4682 Clouds 26 1007 56 0 0.96 107 20:21 15.04.2020
4683 Clouds 26 1007 56 0 0.96 107 19:45 15.04.2020
4684 Clouds 26 1007 56 0 0.96 107 19:21 15.04.2020
4685 Clouds 26 1007 56 0 0.96 107 18:56 15.04.2020
4686 Clouds 32 1009 62 9000 2.1 210 18:38 15.04.2020
4687 Clouds 32 1009 62 9000 2.1 210 18:20 15.04.2020
4688 Clouds 32 1009 62 9000 2.1 210 17:40 15.04.2020
4689 Clouds 32 1009 62 9000 2.1 210 17:40 15.04.2020
4690 Clouds 32 1008 62 9000 3.1 220 17:21 15.04.2020
4691 Clouds 32 1008 62 9000 3.1 220 16:58 15.04.2020
4692 Clouds 31 1005 49 0 1.65 104 16:40 15.04.2020
4693 Clouds 31 1005 49 0 1.65 104 16:20 15.04.2020
4694 Clouds 31 1005 49 0 1.65 104 15:59 15.04.2020
4695 Clouds 31 1005 49 0 1.65 104 15:59 15.04.2020
4696 Clouds 31 1005 49 0 1.65 104 15:40 15.04.2020
4697 Clouds 31 1005 49 0 1.65 104 15:40 15.04.2020
4698 Clouds 35 1007 35 0 1.71 78 15:20 15.04.2020
4699 -273 0 0 0 0 0 14:59 15.04.2020
4700 Clouds 35 1007 35 0 1.71 78 14:41 15.04.2020
4701 Clouds 32 1011 62 10000 1.5 0 14:23 15.04.2020
4702 Clouds 32 1011 62 10000 1.5 0 13:59 15.04.2020
4703 Clouds 32 1011 62 10000 1.5 0 13:40 15.04.2020
4704 Clouds 32 1011 62 10000 1.5 0 13:21 15.04.2020
4705 Clouds 31 1012 66 10000 2.1 110 12:57 15.04.2020
4706 Clouds 31 1012 66 10000 2.1 110 12:39 15.04.2020
4707 Clouds 31 1012 66 10000 2.1 110 12:21 15.04.2020
4708 Clouds 28 1013 78 10000 2.1 160 11:45 15.04.2020
4709 Clouds 28 1013 78 10000 2.1 160 11:25 15.04.2020
4710 Clouds 27 1014 78 10000 2.1 130 10:59 15.04.2020
4711 Clouds 33 1011 40 0 1.68 120 10:37 15.04.2020
4712 Clouds 33 1011 40 0 1.68 120 10:19 15.04.2020
4713 Clouds 33 1011 40 0 1.68 120 09:56 15.04.2020
4714 Clouds 33 1011 40 0 1.68 120 09:37 15.04.2020
4715 Clouds 24 1012 75 0 1.17 154 09:19 15.04.2020
4716 Clouds 24 1012 75 0 1.17 154 08:42 15.04.2020
4717 Clouds 24 1012 75 0 1.17 154 08:23 15.04.2020
4718 Clouds 24 1012 75 0 1.17 154 07:58 15.04.2020
4719 Clouds 24 1012 75 0 1.17 154 07:38 15.04.2020
4720 Clouds 24 1012 75 0 1.17 154 06:59 15.04.2020
4721 Clouds 22 1010 83 0 0.7 139 06:24 15.04.2020
4722 Clouds 22 1010 83 0 0.7 139 05:23 15.04.2020
4723 Clouds 22 1010 83 0 0.7 139 04:46 15.04.2020
4724 Clouds 22 1010 83 0 0.7 139 04:18 15.04.2020
4725 Rain 22 1011 83 0 1.17 100 03:22 15.04.2020
4726 Rain 22 1011 83 0 1.17 100 02:40 15.04.2020
4727 Rain 22 1011 83 0 1.17 100 01:50 15.04.2020
4728 Rain 22 1011 83 0 1.17 100 01:24 15.04.2020
4729 Rain 22 1011 83 0 1.17 100 00:46 15.04.2020
4730 Rain 23 1010 78 0 1.24 64 00:23 15.04.2020
4731 Rain 23 1010 78 0 1.24 64 23:55 14.04.2020
4732 Rain 23 1010 78 0 1.24 64 23:37 14.04.2020
4733 Rain 23 1010 78 0 1.24 64 23:19 14.04.2020
4734 Rain 23 1010 78 0 1.24 64 22:56 14.04.2020
4735 Rain 23 1010 78 0 1.24 64 22:38 14.04.2020
4736 Rain 23 1010 78 0 1.24 64 22:20 14.04.2020
4737 Rain 23 1010 78 0 1.24 64 21:56 14.04.2020
4738 Rain 23 1010 78 0 1.24 64 21:37 14.04.2020
4739 Clouds 26 1008 63 0 0.42 71 21:18 14.04.2020
4740 Clouds 24 1009 73 0 1.22 133 20:41 14.04.2020
4741 Clouds 26 1008 63 0 0.42 71 20:23 14.04.2020
4742 Clouds 26 1008 63 0 0.42 71 19:59 14.04.2020
4743 Clouds 26 1008 63 0 0.42 71 19:40 14.04.2020
4744 Clouds 26 1008 63 0 0.42 71 19:21 14.04.2020
4745 Clouds 26 1008 63 0 0.42 71 18:57 14.04.2020
4746 Clouds 24 1009 73 0 1.22 133 18:39 14.04.2020
4747 Clouds 24 1009 73 0 1.22 133 18:39 14.04.2020
4748 Clouds 32 1006 49 0 0.59 18 18:20 14.04.2020
4749 Clouds 32 1006 49 0 0.59 18 17:56 14.04.2020
4750 Clouds 32 1006 49 0 0.59 18 17:37 14.04.2020
4751 Clouds 29 1006 56 0 0.91 104 17:19 14.04.2020
4752 Clouds 29 1006 56 0 0.91 104 16:43 14.04.2020
4753 Clouds 29 1006 56 0 0.91 104 16:24 14.04.2020
4754 Clouds 32 1006 49 0 0.59 18 15:58 14.04.2020
4755 Clouds 32 1006 49 0 0.59 18 15:58 14.04.2020
4756 Clouds 32 1006 49 0 0.59 18 15:58 14.04.2020
4757 Clouds 32 1006 49 0 0.59 18 15:40 14.04.2020
4758 Clouds 37 1007 34 0 0.1 22 15:21 14.04.2020
4759 Clouds 37 1007 34 0 0.1 22 14:59 14.04.2020
4760 Clouds 29 1009 56 0 0.54 135 14:40 14.04.2020
4761 Clouds 29 1009 56 0 0.54 135 14:22 14.04.2020
4762 Clouds 29 1009 56 0 0.54 135 13:57 14.04.2020
4763 Clouds 29 1009 56 0 0.54 135 13:39 14.04.2020
4764 Clouds 29 1009 56 0 0.54 135 13:20 14.04.2020
4765 Clouds 29 1009 56 0 0.54 135 12:42 14.04.2020
4766 Rain 24 1012 78 0 1.55 119 12:21 14.04.2020
4767 Rain 24 1012 78 0 1.55 119 11:56 14.04.2020
4768 Rain 24 1012 78 0 1.55 119 11:37 14.04.2020
4769 Rain 24 1012 78 0 1.55 119 11:19 14.04.2020
4770 Rain 24 1012 78 0 1.55 119 10:45 14.04.2020
4771 Rain 24 1012 78 0 1.55 119 10:26 14.04.2020
4772 Rain 24 1012 78 0 1.55 119 09:55 14.04.2020
4773 Clouds 28 1012 65 0 1.47 143 09:37 14.04.2020
4774 Rain 23 1013 85 0 0.84 126 09:19 14.04.2020
4775 Rain 23 1013 85 0 0.84 126 08:41 14.04.2020
4776 Rain 23 1013 85 0 0.84 126 08:22 14.04.2020
4777 Rain 23 1013 85 0 0.84 126 08:22 14.04.2020
4778 Rain 23 1013 85 0 0.84 126 07:54 14.04.2020
4779 Rain 23 1013 85 0 0.84 126 07:30 14.04.2020
4780 Rain 23 1013 85 0 0.84 126 06:50 14.04.2020
4781 Rain 22 1010 87 0 0.78 85 06:24 14.04.2020
4782 Rain 22 1010 87 0 0.78 85 03:52 14.04.2020
4783 Rain 22 1011 85 0 0.81 150 02:56 14.04.2020
4784 Rain 22 1010 84 0 0.66 111 01:49 14.04.2020
4785 Rain 22 1010 84 0 0.66 111 01:24 14.04.2020
4786 Rain 22 1010 84 0 0.66 111 00:39 14.04.2020
4787 Rain 23 1011 82 0 0.68 162 00:19 14.04.2020
4788 Rain 23 1011 82 0 0.68 162 23:44 13.04.2020
4789 Rain 23 1011 82 0 0.68 162 23:26 13.04.2020
4790 Rain 23 1011 82 0 0.68 162 22:58 13.04.2020
4791 Rain 23 1011 82 0 0.68 162 22:40 13.04.2020
4792 Rain 23 1011 82 0 0.68 162 22:22 13.04.2020
4793 Rain 23 1011 82 0 0.68 162 21:56 13.04.2020
4794 Clouds 24 1010 74 0 0.58 167 21:37 13.04.2020
4795 Clouds 25 1009 67 0 1.06 196 21:19 13.04.2020
4796 Clouds 25 1009 67 0 1.06 196 20:54 13.04.2020
4797 Clouds 25 1009 67 0 1.06 196 20:54 13.04.2020
4798 Clouds 25 1009 67 0 1.06 196 20:36 13.04.2020
4799 Clouds 25 1009 67 0 1.06 196 20:18 13.04.2020
4800 Clouds 25 1009 67 0 1.06 196 20:18 13.04.2020
4801 Clouds 25 1009 67 0 1.06 196 19:39 13.04.2020
4802 Clouds 25 1009 67 0 1.06 196 19:39 13.04.2020
4803 Clouds 25 1009 67 0 1.06 196 19:20 13.04.2020
4804 Clouds 25 1009 67 0 1.06 196 18:59 13.04.2020
4805 Clouds 25 1009 67 0 1.06 196 18:39 13.04.2020
4806 Clouds 30 1006 55 0 1.21 211 18:20 13.04.2020
4807 Clouds 30 1006 55 0 1.21 211 17:58 13.04.2020
4808 Clouds 30 1006 55 0 1.21 211 17:58 13.04.2020
4809 Clouds 30 1006 55 0 1.21 211 17:38 13.04.2020
4810 Clouds 30 1006 55 0 1.21 211 17:38 13.04.2020
4811 Clouds 30 1006 55 0 1.21 211 17:19 13.04.2020
4812 Clouds 30 1006 55 0 1.21 211 16:58 13.04.2020
4813 Clouds 30 1006 55 0 1.21 211 16:40 13.04.2020
4814 Clouds 30 1006 55 0 1.21 211 16:40 13.04.2020
4815 Clouds 30 1006 55 0 1.21 211 16:21 13.04.2020
4816 Clouds 30 1006 55 0 1.21 211 15:58 13.04.2020
4817 Clouds 30 1006 55 0 1.21 211 15:39 13.04.2020
4818 Clouds 33 1008 43 0 1.76 213 15:21 13.04.2020
4819 Clouds 33 1008 43 0 1.76 213 14:56 13.04.2020
4820 Clouds 33 1008 43 0 1.76 213 14:38 13.04.2020
4821 Clouds 33 1008 40 0 1.72 237 14:38 13.04.2020
4822 Clouds 33 1008 40 0 1.72 237 14:20 13.04.2020
4823 Clouds 34 1008 37 0 1.78 233 13:55 13.04.2020
4824 Clouds 34 1008 37 0 1.78 233 13:37 13.04.2020
4825 Clouds 33 1008 40 0 1.72 237 13:18 13.04.2020
4826 Clouds 33 1008 40 0 1.72 237 12:55 13.04.2020
4827 Clouds 34 1008 37 0 1.78 233 12:37 13.04.2020
4828 Clouds 32 1013 48 0 1 198 12:18 13.04.2020
4829 Clouds 32 1013 48 0 1 198 11:41 13.04.2020
4830 Clouds 32 1012 46 0 1.31 183 11:19 13.04.2020
4831 Clouds 32 1012 46 0 1.31 183 10:56 13.04.2020
4832 Clouds 32 1013 48 0 1 198 10:38 13.04.2020
4833 Clouds 32 1013 48 0 1 198 10:19 13.04.2020
4834 Clouds 32 1013 48 0 1 198 09:46 13.04.2020
4835 Clouds 23 1014 80 0 0.39 178 09:26 13.04.2020
4836 Clouds 23 1013 78 0 0.75 187 08:52 13.04.2020
4837 Clouds 23 1013 78 0 0.75 187 08:32 13.04.2020
4838 Clouds 23 1013 78 0 0.75 187 07:59 13.04.2020
4839 Clouds 23 1013 78 0 0.75 187 07:41 13.04.2020
4840 Clouds 23 1013 78 0 0.75 187 07:20 13.04.2020
4841 Clouds 23 1013 78 0 0.75 187 06:47 13.04.2020
4842 Clouds 21 1011 87 0 0.52 228 06:25 13.04.2020
4843 Clouds 21 1011 87 0 0.52 228 05:32 13.04.2020
4844 Clouds 21 1011 87 0 0.52 228 04:53 13.04.2020
4845 Clouds 21 1011 87 0 0.52 228 04:24 13.04.2020
4846 Clouds 21 1011 87 0 0.52 228 03:47 13.04.2020
4847 Clouds 21 1012 87 0 1.02 238 02:59 13.04.2020
4848 Clouds 21 1012 87 0 1.02 238 02:25 13.04.2020
4849 Clouds 21 1012 87 0 0.9 245 01:42 13.04.2020
4850 Clouds 21 1012 87 0 0.9 245 01:23 13.04.2020
4851 Clouds 21 1012 87 0 0.9 245 00:42 13.04.2020
4852 Clouds 21 1013 86 0 0.54 271 00:20 13.04.2020
4853 Clouds 21 1013 86 0 0.54 271 00:20 13.04.2020
4854 Clouds 21 1013 86 0 0.54 271 23:48 12.04.2020
4855 Clouds 21 1013 86 0 0.54 271 23:23 12.04.2020
4856 Clouds 21 1013 86 0 0.54 271 22:58 12.04.2020
4857 Clouds 21 1013 86 0 0.54 271 22:37 12.04.2020
4858 Clouds 21 1013 86 0 0.54 271 22:19 12.04.2020
4859 Clouds 21 1013 86 0 0.54 271 21:40 12.04.2020
4860 Clouds 22 1011 86 0 0.64 290 21:21 12.04.2020
4861 Clouds 22 1011 86 0 0.64 290 20:58 12.04.2020
4862 Clouds 22 1011 86 0 0.64 290 20:39 12.04.2020
4863 Clouds 22 1011 86 0 0.64 290 20:21 12.04.2020
4864 Clouds 22 1011 86 0 0.64 290 19:55 12.04.2020
4865 Clouds 22 1011 86 0 0.64 290 19:36 12.04.2020
4866 Clouds 22 1011 86 0 0.64 290 19:18 12.04.2020
4867 Clouds 22 1011 86 0 0.64 290 18:40 12.04.2020
4868 Rain 25 1008 76 0 2.26 270 18:21 12.04.2020
4869 Rain 25 1008 76 0 2.26 270 17:57 12.04.2020
4870 Rain 25 1008 76 0 2.26 270 17:38 12.04.2020
4871 Rain 25 1008 76 0 2.26 270 17:19 12.04.2020
4872 Rain 25 1008 76 0 2.26 270 16:56 12.04.2020
4873 Rain 25 1008 76 0 2.26 270 16:37 12.04.2020
4874 Rain 25 1008 76 0 2.26 270 16:19 12.04.2020
4875 Rain 25 1008 76 0 2.26 270 15:41 12.04.2020
4876 Rain 24 1010 82 0 2.22 245 15:22 12.04.2020
4877 Rain 24 1010 82 0 2.22 245 14:41 12.04.2020
4878 Rain 24 1010 82 0 2.22 245 14:22 12.04.2020
4879 Rain 26 1010 74 0 1.71 249 13:58 12.04.2020
4880 Rain 26 1010 74 0 1.71 249 13:40 12.04.2020
4881 Rain 26 1010 74 0 1.71 249 13:21 12.04.2020
4882 Rain 26 1010 74 0 1.71 249 12:47 12.04.2020
4883 Rain 24 1014 83 0 0.94 223 12:22 12.04.2020
4884 Rain 24 1014 83 0 0.94 223 11:59 12.04.2020
4885 Rain 24 1014 83 0 0.94 223 11:59 12.04.2020
4886 Rain 24 1014 83 0 0.94 223 11:39 12.04.2020
4887 Rain 24 1014 83 0 0.94 223 11:20 12.04.2020
4888 Rain 24 1014 83 0 0.94 223 10:57 12.04.2020
4889 Rain 24 1014 83 0 0.94 223 10:39 12.04.2020
4890 Rain 24 1014 83 0 0.94 223 10:39 12.04.2020
4891 Rain 24 1014 83 0 0.94 223 10:20 12.04.2020
4892 Rain 24 1014 83 0 0.94 223 09:58 12.04.2020
4893 Thunderstorm 21 1014 100 4000 3.1 180 09:39 12.04.2020
4894 Thunderstorm 21 1014 100 4000 3.1 180 09:19 12.04.2020
4895 Thunderstorm 21 1014 100 4000 3.1 180 08:51 12.04.2020
4896 Thunderstorm 21 1014 100 4000 3.1 180 08:32 12.04.2020
4897 Rain 23 1014 85 0 1.24 352 07:47 12.04.2020
4898 Rain 23 1014 85 0 1.24 352 07:20 12.04.2020
4899 Rain 23 1014 85 0 1.24 352 06:59 12.04.2020
4900 Rain 23 1014 85 0 1.24 352 06:31 12.04.2020
4901 Rain 22 1009 86 0 1.08 303 05:49 12.04.2020
4902 Rain 22 1009 86 0 1.08 303 04:53 12.04.2020
4903 Rain 22 1009 86 0 1.08 303 03:31 12.04.2020
4904 Rain 23 1009 82 0 0.99 334 02:49 12.04.2020
4905 Rain 23 1009 82 0 1.01 338 02:30 12.04.2020
4906 Rain 23 1009 82 0 1.01 338 01:26 12.04.2020
4907 Rain 23 1009 82 0 1.01 338 00:55 12.04.2020
4908 Rain 23 1009 82 0 1.01 338 00:37 12.04.2020
4909 Rain 24 1009 78 0 0.49 214 00:18 12.04.2020
4910 Rain 24 1009 78 0 0.49 214 00:18 12.04.2020
4911 Rain 24 1009 78 0 0.49 214 23:43 11.04.2020
4912 Rain 24 1009 78 0 0.49 214 23:23 11.04.2020
4913 Rain 24 1009 78 0 0.49 214 22:39 11.04.2020
4914 Rain 24 1009 78 0 0.49 214 22:21 11.04.2020
4915 Rain 24 1009 78 0 0.49 214 21:56 11.04.2020
4916 Rain 24 1008 77 0 0.5 203 21:37 11.04.2020
4917 Rain 24 1008 77 0 0.5 203 21:37 11.04.2020
4918 Rain 26 1007 68 0 1.09 168 21:18 11.04.2020
4919 Rain 26 1007 68 0 1.09 168 20:56 11.04.2020
4920 Rain 26 1007 68 0 1.09 168 20:38 11.04.2020
4921 Rain 26 1007 68 0 1.09 168 20:38 11.04.2020
4922 Rain 26 1007 68 0 1.09 168 20:19 11.04.2020
4923 Rain 26 1007 68 0 1.09 168 19:57 11.04.2020
4924 Rain 26 1007 68 0 1.09 168 19:38 11.04.2020
4925 Rain 26 1007 68 0 1.09 168 19:18 11.04.2020
4926 Rain 26 1007 68 0 1.09 168 18:55 11.04.2020
4927 Rain 26 1007 68 0 1.09 168 18:37 11.04.2020
4928 Rain 31 1004 50 0 1.69 175 18:18 11.04.2020
4929 Rain 31 1004 50 0 1.69 175 17:58 11.04.2020
4930 Rain 31 1004 50 0 1.69 175 17:38 11.04.2020
4931 Rain 31 1004 50 0 1.69 175 17:19 11.04.2020
4932 Rain 31 1004 50 0 1.69 175 16:43 11.04.2020
4933 Rain 31 1004 50 0 1.69 175 16:22 11.04.2020
4934 Rain 31 1004 50 0 1.69 175 15:56 11.04.2020
4935 Clouds 33 1009 52 10000 2.1 100 15:36 11.04.2020
4936 Clouds 33 1009 52 10000 2.1 100 15:18 11.04.2020
4937 Clouds 33 1009 52 10000 2.1 100 14:42 11.04.2020
4938 Clouds 33 1009 52 10000 2.1 100 14:42 11.04.2020
4939 Clouds 33 1009 52 10000 2.1 100 14:23 11.04.2020
4940 Rain 32 1007 52 0 1.58 188 13:58 11.04.2020
4941 Rain 32 1007 52 0 1.58 188 13:38 11.04.2020
4942 Rain 32 1007 52 0 1.58 188 13:18 11.04.2020
4943 Rain 32 1007 52 0 1.58 188 12:41 11.04.2020
4944 Rain 33 1010 44 0 1.79 207 12:18 11.04.2020
4945 Rain 33 1010 44 0 1.79 207 11:56 11.04.2020
4946 Rain 33 1010 44 0 1.79 207 11:38 11.04.2020
4947 Rain 33 1010 44 0 1.79 207 11:18 11.04.2020
4948 Rain 33 1010 44 0 1.79 207 10:43 11.04.2020
4949 Rain 27 1012 78 6000 1.79 207 10:22 11.04.2020
4950 Rain 27 1012 78 6000 1.79 207 09:59 11.04.2020
4951 Rain 27 1012 78 6000 1.07 228 09:39 11.04.2020
4952 Rain 27 1012 78 6000 1.07 228 09:39 11.04.2020
4953 Rain 27 1012 78 6000 0.54 41 09:21 11.04.2020
4954 Rain 24 1012 83 0 0.54 41 08:47 11.04.2020
4955 Rain 24 1012 83 0 0.54 41 08:28 11.04.2020
4956 Rain 24 1012 83 0 0.54 41 07:52 11.04.2020
4957 Rain 24 1012 83 0 0.54 41 07:34 11.04.2020
4958 Rain 24 1012 83 0 0.54 41 06:49 11.04.2020
4959 Clouds 22 1009 80 0 0.34 181 06:19 11.04.2020
4960 Clouds 22 1009 80 0 0.34 181 05:55 11.04.2020
4961 Clouds 22 1009 80 0 0.34 181 03:41 11.04.2020
4962 Rain 23 1009 79 0 1.13 176 02:24 11.04.2020
4963 Rain 23 1009 79 0 1.13 176 01:24 11.04.2020
4964 Rain 23 1009 79 0 1.13 176 00:44 11.04.2020
4965 Clouds 24 1010 76 0 0.73 145 00:20 11.04.2020
4966 Clouds 24 1010 76 0 0.73 145 00:20 11.04.2020
4967 Clouds 24 1010 76 0 0.73 145 23:58 10.04.2020
4968 Clouds 24 1010 76 0 0.73 145 23:39 10.04.2020
4969 Clouds 24 1010 76 0 0.73 145 23:19 10.04.2020
4970 Clouds 24 1010 76 0 0.73 145 22:44 10.04.2020
4971 Clouds 24 1010 76 0 0.73 145 22:22 10.04.2020
4972 Clouds 24 1010 76 0 0.73 145 22:22 10.04.2020
4973 Clouds 24 1010 76 0 0.73 145 21:58 10.04.2020
4974 Clouds 24 1010 76 0 0.73 145 21:40 10.04.2020
4975 Clouds 24 1010 76 0 0.73 145 21:40 10.04.2020
4976 Clouds 25 1008 68 0 0.57 197 21:20 10.04.2020
4977 Clouds 25 1008 68 0 0.57 197 20:55 10.04.2020
4978 Clouds 25 1008 68 0 0.57 197 20:37 10.04.2020
4979 Clouds 25 1008 68 0 0.57 197 20:18 10.04.2020
4980 Clouds 25 1008 68 0 0.57 197 19:41 10.04.2020
4981 Clouds 25 1008 68 0 0.57 197 19:21 10.04.2020
4982 Clouds 25 1008 68 0 0.57 197 18:58 10.04.2020
4983 Clouds 25 1008 68 0 0.57 197 18:58 10.04.2020
4984 Clouds 25 1008 68 0 0.57 197 18:40 10.04.2020
4985 Clouds 25 1008 68 0 0.57 197 18:40 10.04.2020
4986 Clouds 31 1005 49 0 0.92 266 18:21 10.04.2020
4987 Clouds 31 1005 49 0 0.92 266 17:59 10.04.2020
4988 Clouds 31 1005 49 0 0.92 266 17:40 10.04.2020
4989 Clouds 31 1005 49 0 0.92 266 17:21 10.04.2020
4990 Clouds 31 1005 49 0 0.92 266 16:57 10.04.2020
4991 Clouds 31 1005 49 0 0.92 266 16:38 10.04.2020
4992 Clouds 31 1005 49 0 0.92 266 16:20 10.04.2020
4993 Clouds 31 1005 49 0 0.92 266 15:56 10.04.2020
4994 Clouds 31 1005 49 0 0.92 266 15:37 10.04.2020
4995 Clouds 33 1007 41 0 0.6 284 15:19 10.04.2020
4996 Clouds 33 1007 41 0 0.6 284 14:57 10.04.2020
4997 Clouds 35 1007 38 0 0.71 299 14:38 10.04.2020
4998 Clouds 35 1007 38 0 0.71 299 14:19 10.04.2020
4999 Clouds 35 1007 38 0 0.71 299 13:43 10.04.2020
5000 Clouds 35 1007 38 0 0.71 299 13:22 10.04.2020
5001 Clouds 35 1007 38 0 0.71 299 12:44 10.04.2020
5002 Clear 33 1012 43 0 0.1 88 12:24 10.04.2020
5003 Clear 33 1012 43 0 0.1 88 11:58 10.04.2020
5004 Clear 33 1012 43 0 0.1 88 11:40 10.04.2020
5005 Clear 33 1012 43 0 0.1 88 11:22 10.04.2020
5006 Clear 33 1012 43 0 0.1 88 10:47 10.04.2020
5007 Clear 33 1012 43 0 0.1 88 10:47 10.04.2020
5008 Clear 33 1012 43 0 0.1 88 10:24 10.04.2020
5009 Clear 33 1012 43 0 0.1 88 09:59 10.04.2020
5010 Clear 33 1012 43 0 0.1 88 09:40 10.04.2020
5011 Mist 23 1013 94 2000 0.5 345 09:20 10.04.2020
5012 Mist 23 1013 94 2000 0.5 345 08:44 10.04.2020
5013 Mist 23 1013 94 2000 0.5 345 08:24 10.04.2020
5014 Clouds 23 1012 73 0 0.5 345 07:47 10.04.2020
5015 Clouds 23 1012 73 0 0.5 345 07:27 10.04.2020
5016 Clouds 23 1012 73 0 0.5 345 06:52 10.04.2020
5017 Clouds 23 1012 73 0 0.5 345 06:29 10.04.2020
5018 Clouds 19 1010 87 0 0.46 352 05:43 10.04.2020
5019 Clouds 19 1010 87 0 0.46 352 05:19 10.04.2020
5020 Clouds 19 1010 87 0 0.46 352 03:55 10.04.2020
5021 Clouds 19 1010 87 0 0.46 352 03:32 10.04.2020
5022 Clouds 19 1010 87 0 0.46 352 03:32 10.04.2020
5023 Clouds 20 1010 87 0 0.22 75 02:50 10.04.2020
5024 Clouds 20 1010 87 0 0.47 4 02:31 10.04.2020
5025 Clouds 20 1010 87 0 0.47 4 01:30 10.04.2020
5026 Clouds 20 1010 87 0 0.47 4 00:55 10.04.2020
5027 Clouds 20 1010 87 0 0.47 4 00:37 10.04.2020
5028 Clouds 21 1010 87 0 0.68 265 00:18 10.04.2020
5029 Clouds 21 1010 87 0 0.68 265 23:41 09.04.2020
5030 Clouds 21 1010 87 0 0.68 265 23:20 09.04.2020
5031 Clouds 21 1010 87 0 0.68 265 22:54 09.04.2020
5032 Clouds 21 1010 87 0 0.68 265 22:36 09.04.2020
5033 Clouds 21 1010 87 0 0.68 265 22:18 09.04.2020
5034 Clouds 21 1010 87 0 0.68 265 21:38 09.04.2020
5035 Clouds 22 1009 83 0 0.64 262 21:19 09.04.2020
5036 Clouds 22 1009 83 0 0.64 262 20:45 09.04.2020
5037 Clouds 22 1009 83 0 0.64 262 20:21 09.04.2020
5038 Clouds 22 1009 83 0 0.64 262 19:58 09.04.2020
5039 Clouds 22 1009 83 0 0.64 262 19:37 09.04.2020
5040 Clouds 22 1009 83 0 0.64 262 19:18 09.04.2020
5041 Clouds 22 1009 83 0 0.64 262 18:42 09.04.2020
5042 Rain 25 1008 74 0 2.1 314 18:20 09.04.2020
5043 Rain 25 1008 74 0 2.1 314 17:42 09.04.2020
5044 Rain 25 1008 74 0 2.1 314 17:24 09.04.2020
5045 Rain 25 1008 74 0 2.1 314 16:57 09.04.2020
5046 Rain 25 1008 74 0 2.1 314 16:38 09.04.2020
5047 Rain 25 1008 74 0 2.1 314 16:19 09.04.2020
5048 Rain 25 1008 74 0 2.1 314 15:55 09.04.2020
5049 Rain 25 1008 74 0 2.1 314 15:37 09.04.2020
5050 Rain 26 1010 76 0 2.22 321 15:18 09.04.2020
5051 Clouds 27 1013 74 10000 2.22 321 14:41 09.04.2020
5052 Clouds 27 1013 74 10000 2.44 301 14:21 09.04.2020
5053 Clouds 27 1013 74 10000 2.44 301 13:54 09.04.2020
5054 Rain 28 1009 62 0 2.44 301 13:36 09.04.2020
5055 Rain 28 1009 62 0 2.44 301 13:18 09.04.2020
5056 Rain 28 1009 62 0 2.44 301 12:42 09.04.2020
5057 Clouds 27 1012 69 0 2.16 294 12:21 09.04.2020
5058 Clouds 27 1012 69 0 2.16 294 11:58 09.04.2020
5059 Clouds 27 1012 69 0 2.16 294 11:38 09.04.2020
5060 Clouds 27 1012 69 0 2.16 294 11:20 09.04.2020
5061 Clouds 27 1012 69 0 2.16 294 10:57 09.04.2020
5062 Clouds 27 1012 69 0 2.16 294 10:38 09.04.2020
5063 Clouds 27 1012 69 0 2.16 294 10:19 09.04.2020
5064 Clouds 27 1012 69 0 2.16 294 09:55 09.04.2020
5065 Clouds 28 1012 65 0 2.03 300 09:37 09.04.2020
5066 Rain 23 1012 85 0 1.6 302 09:19 09.04.2020
5067 Rain 23 1012 85 0 1.6 302 08:42 09.04.2020
5068 Rain 23 1012 85 0 1.6 302 08:23 09.04.2020
5069 Rain 23 1012 85 0 1.6 302 07:51 09.04.2020
5070 Rain 23 1012 85 0 1.6 302 07:23 09.04.2020
5071 Rain 23 1012 85 0 1.6 302 06:50 09.04.2020
5072 Rain 22 1008 87 0 0.64 111 05:56 09.04.2020
5073 Rain 22 1008 87 0 0.64 111 05:37 09.04.2020
5074 Rain 23 1007 83 0 2.1 187 03:20 09.04.2020
5075 Rain 22 1008 86 0 1.76 168 02:21 09.04.2020
5076 Rain 22 1008 86 0 1.76 168 01:39 09.04.2020
5077 Rain 22 1008 86 0 1.76 168 01:19 09.04.2020
5078 Rain 22 1008 86 0 1.76 168 00:39 09.04.2020
5079 Clouds 25 1008 69 0 1.74 214 00:19 09.04.2020
5080 Clouds 25 1008 69 0 1.74 214 00:19 09.04.2020
5081 Clouds 25 1008 69 0 1.74 214 23:55 08.04.2020
5082 Clouds 25 1008 69 0 1.74 214 23:37 08.04.2020
5083 Clouds 25 1008 69 0 1.74 214 23:19 08.04.2020
5084 Clouds 25 1008 69 0 1.74 214 22:42 08.04.2020
5085 Clouds 25 1008 69 0 1.74 214 22:23 08.04.2020
5086 Clouds 25 1008 69 0 1.74 214 21:56 08.04.2020
5087 Rain 23 1009 78 0 1.43 202 21:37 08.04.2020
5088 Rain 24 1006 75 0 1.64 211 21:19 08.04.2020
5089 Rain 24 1006 75 0 1.64 211 20:54 08.04.2020
5090 Rain 24 1006 75 0 1.64 211 20:54 08.04.2020
5091 Rain 24 1006 75 0 1.64 211 20:54 08.04.2020
5092 Rain 24 1006 75 0 1.64 211 20:36 08.04.2020
5093 Rain 24 1006 75 0 1.64 211 20:18 08.04.2020
5094 Rain 24 1006 75 0 1.64 211 19:41 08.04.2020
5095 Rain 24 1006 75 0 1.64 211 19:21 08.04.2020
5096 Rain 24 1006 75 0 1.64 211 19:21 08.04.2020
5097 Rain 24 1006 75 0 1.64 211 18:55 08.04.2020
5098 Rain 24 1006 75 0 1.64 211 18:37 08.04.2020
5099 Clouds 33 1003 45 0 0.95 46 18:19 08.04.2020
5100 Clouds 33 1003 45 0 0.95 46 17:42 08.04.2020
5101 Clouds 33 1003 45 0 0.95 46 17:22 08.04.2020
5102 Clouds 33 1003 45 0 0.95 46 16:57 08.04.2020
5103 Clouds 33 1003 45 0 0.95 46 16:39 08.04.2020
5104 Clouds 33 1003 45 0 0.95 46 16:20 08.04.2020
5105 Clouds 33 1003 45 0 0.95 46 15:39 08.04.2020
5106 Clouds 37 1005 33 0 0.71 147 15:21 08.04.2020
5107 Clouds 37 1005 33 0 0.71 147 14:58 08.04.2020
5108 Clouds 37 1005 33 0 0.71 147 14:58 08.04.2020
5109 Clouds 35 1005 37 0 0.85 144 14:39 08.04.2020
5110 Clouds 35 1005 37 0 0.85 144 14:21 08.04.2020
5111 Clouds 35 1005 37 0 0.85 144 13:44 08.04.2020
5112 Clouds 35 1005 37 0 0.85 144 13:21 08.04.2020
5113 Clouds 35 1005 37 0 0.85 144 12:57 08.04.2020
5114 Clouds 35 1005 37 0 0.85 144 12:39 08.04.2020
5115 Rain 33 1011 47 0 1.73 150 12:18 08.04.2020
5116 Rain 33 1011 47 0 1.73 150 12:18 08.04.2020
5117 Rain 33 1011 47 0 1.73 150 12:18 08.04.2020
5118 Rain 33 1011 47 0 1.73 150 12:18 08.04.2020
5119 Rain 33 1011 47 0 1.73 150 11:42 08.04.2020
5120 Rain 33 1011 47 0 1.73 150 11:23 08.04.2020
5121 Rain 33 1011 47 0 1.73 150 10:58 08.04.2020
5122 Rain 33 1011 47 0 1.73 150 10:39 08.04.2020
5123 Rain 33 1011 47 0 1.73 150 10:20 08.04.2020
5124 Rain 33 1011 47 0 1.73 150 09:57 08.04.2020
5125 Rain 33 1011 47 0 1.73 150 09:39 08.04.2020
5126 Rain 25 1011 77 0 1.21 143 09:18 08.04.2020
5127 Rain 25 1011 77 0 1.21 143 09:18 08.04.2020
5128 Rain 25 1011 77 0 1.21 143 09:18 08.04.2020
5129 Rain 25 1011 77 0 1.21 143 08:56 08.04.2020
5130 Mist 23 1011 94 4000 1.21 143 08:38 08.04.2020
5131 Mist 23 1011 94 4000 1.21 143 08:20 08.04.2020
5132 Mist 23 1011 94 4000 1.21 143 07:42 08.04.2020
5133 Mist 23 1011 94 4000 1.21 143 07:20 08.04.2020
5134 Rain 22 1008 80 0 1.34 161 06:23 08.04.2020
5135 Rain 22 1008 80 0 1.34 161 04:54 08.04.2020
5136 Rain 24 1008 70 0 0.96 196 02:50 08.04.2020
5137 Clear 24 1008 67 0 1.16 187 02:21 08.04.2020
5138 Clear 24 1008 67 0 1.16 187 01:56 08.04.2020
5139 Clear 24 1008 67 0 1.16 187 01:27 08.04.2020
5140 Clear 24 1008 67 0 1.16 187 01:27 08.04.2020
5141 Clear 24 1008 67 0 1.16 187 00:44 08.04.2020
5142 Clear 25 1009 63 0 0.34 220 00:23 08.04.2020
5143 Clear 25 1009 63 0 0.34 220 23:40 07.04.2020
5144 Clear 25 1009 63 0 0.34 220 23:22 07.04.2020
5145 Clear 25 1009 63 0 0.34 220 22:58 07.04.2020
5146 Clear 25 1009 63 0 0.34 220 22:40 07.04.2020
5147 Clear 25 1009 63 0 0.34 220 22:21 07.04.2020
5148 Clear 25 1009 63 0 0.34 220 21:59 07.04.2020
5149 Clear 25 1009 63 0 0.34 220 21:41 07.04.2020
5150 Rain 26 1007 63 0 0.73 91 21:21 07.04.2020
5151 Rain 26 1007 63 0 0.73 91 20:58 07.04.2020
5152 Rain 26 1007 63 0 0.73 91 20:39 07.04.2020
5153 Rain 26 1007 63 0 0.73 91 20:20 07.04.2020
5154 Rain 26 1007 63 0 0.73 91 19:57 07.04.2020
5155 Rain 26 1007 63 0 0.73 91 19:37 07.04.2020
5156 Rain 26 1007 63 0 0.73 91 19:19 07.04.2020
5157 Rain 26 1007 63 0 0.73 91 18:57 07.04.2020
5158 Rain 26 1007 63 0 0.73 91 18:39 07.04.2020
5159 Clouds 34 1005 42 0 0.75 85 18:19 07.04.2020
5160 Clouds 34 1005 42 0 0.75 85 17:45 07.04.2020
5161 Clouds 34 1005 42 0 0.75 85 17:21 07.04.2020
5162 Clouds 34 1005 42 0 0.75 85 16:48 07.04.2020
5163 Clouds 34 1005 42 0 0.75 85 16:29 07.04.2020
5164 Clouds 34 1005 42 0 0.75 85 15:59 07.04.2020
5165 Clouds 34 1005 42 0 0.75 85 15:41 07.04.2020
5166 Clouds 37 1006 32 0 0.58 104 15:23 07.04.2020
5167 Clouds 37 1006 34 0 0.58 153 14:42 07.04.2020
5168 Clouds 37 1006 34 0 0.58 153 14:23 07.04.2020
5169 Clouds 37 1006 34 0 0.58 153 13:57 07.04.2020
5170 Clouds 37 1006 34 0 0.58 153 13:39 07.04.2020
5171 Clouds 37 1006 34 0 0.58 153 13:18 07.04.2020
5172 Clouds 37 1006 34 0 0.58 153 12:55 07.04.2020
5173 Clouds 37 1006 34 0 0.58 153 12:37 07.04.2020
5174 Clouds 32 1011 49 0 1.18 188 12:18 07.04.2020
5175 Clouds 32 1011 49 0 1.18 188 11:44 07.04.2020
5176 Clouds 32 1011 49 0 1.18 188 11:26 07.04.2020
5177 Clouds 32 1011 49 0 1.18 188 11:26 07.04.2020
5178 Clouds 32 1011 49 0 1.18 188 10:59 07.04.2020
5179 Clouds 32 1011 49 0 1.18 188 10:38 07.04.2020
5180 Clouds 32 1011 49 0 1.18 188 10:19 07.04.2020
5181 Clouds 32 1011 49 0 1.18 188 09:46 07.04.2020
5182 Clouds 24 1013 83 0 0.55 199 09:20 07.04.2020
5183 Clouds 24 1013 83 0 0.55 199 08:57 07.04.2020
5184 Clouds 24 1013 83 0 0.55 199 08:38 07.04.2020
5185 Clouds 24 1013 83 0 0.55 199 08:19 07.04.2020
5186 Clouds 24 1013 83 0 0.55 199 07:44 07.04.2020
5187 Clouds 24 1013 83 0 0.55 199 07:26 07.04.2020
5188 Clouds 24 1013 83 0 0.55 199 06:52 07.04.2020
5189 Rain 22 1010 86 0 0.29 155 06:25 07.04.2020
5190 Rain 22 1010 86 0 0.29 155 05:48 07.04.2020
5191 Rain 22 1010 86 0 0.29 155 05:23 07.04.2020
5192 Rain 22 1010 86 0 0.29 155 03:34 07.04.2020
5193 Rain 22 1010 85 0 0.23 185 02:59 07.04.2020
5194 Rain 22 1010 85 0 0.23 185 02:35 07.04.2020
5195 Rain 22 1010 86 0 0.66 147 01:34 07.04.2020
5196 Rain 22 1010 86 0 0.66 147 00:52 07.04.2020
5197 Rain 23 1011 82 0 0.22 28 00:25 07.04.2020
5198 Rain 23 1011 82 0 0.22 28 23:40 06.04.2020
5199 Rain 23 1011 82 0 0.22 28 23:21 06.04.2020
5200 Rain 23 1011 82 0 0.22 28 22:41 06.04.2020
5201 Rain 23 1011 82 0 0.22 28 22:23 06.04.2020
5202 Rain 23 1011 82 0 0.22 28 21:59 06.04.2020
5203 Rain 23 1011 82 0 0.22 28 21:41 06.04.2020
5204 Clouds 27 1008 62 0 1.13 199 21:19 06.04.2020
5205 Clouds 27 1008 62 0 1.13 199 20:56 06.04.2020
5206 Clouds 27 1008 62 0 1.13 199 20:38 06.04.2020
5207 Clouds 27 1008 62 0 1.13 199 20:19 06.04.2020
5208 Clouds 27 1008 62 0 1.13 199 19:56 06.04.2020
5209 Clouds 27 1008 62 0 1.13 199 19:37 06.04.2020
5210 Clouds 27 1008 62 0 1.13 199 19:19 06.04.2020
5211 Clouds 27 1008 62 0 1.13 199 18:41 06.04.2020
5212 Clouds 30 1010 70 10000 2.1 160 18:23 06.04.2020
5213 Clouds 30 1010 70 10000 2.1 160 17:55 06.04.2020
5214 Clouds 33 1006 48 0 1.01 198 17:37 06.04.2020
5215 Clouds 33 1006 48 0 1.01 198 17:18 06.04.2020
5216 Clouds 33 1006 48 0 1.01 198 16:47 06.04.2020
5217 Clouds 31 1011 62 10000 4.1 160 16:29 06.04.2020
5218 Clouds 36 1008 36 0 1.17 226 14:46 06.04.2020
5219 Clouds 36 1008 36 0 1.17 226 14:46 06.04.2020
5220 Clouds 36 1008 36 0 1.17 226 14:46 06.04.2020
5221 Clouds 36 1008 36 0 1.17 226 14:46 06.04.2020
5222 Clouds 36 1008 36 0 1.17 226 14:46 06.04.2020
5223 Clouds 35 1008 37 0 1.19 231 13:44 06.04.2020
5224 Clouds 35 1008 37 0 1.19 231 13:21 06.04.2020
5225 Clouds 35 1008 37 0 1.19 231 12:41 06.04.2020
5226 Clouds 31 1013 48 0 1.25 242 12:19 06.04.2020
5227 Clouds 31 1013 48 0 1.25 242 12:19 06.04.2020
5228 Clouds 31 1013 48 0 1.25 242 12:19 06.04.2020
5229 Clouds 31 1013 48 0 1.25 242 11:40 06.04.2020
5230 Clouds 31 1013 48 0 1.25 242 10:55 06.04.2020
5231 Clouds 31 1013 48 0 1.25 242 10:37 06.04.2020
5232 Clouds 31 1013 48 0 1.25 242 10:19 06.04.2020
5233 Clouds 31 1013 48 0 1.25 242 09:37 06.04.2020
5234 Rain 23 1013 85 0 0.79 342 09:18 06.04.2020
5235 Rain 23 1013 85 0 0.79 342 08:43 06.04.2020
5236 Rain 23 1013 85 0 0.79 342 08:43 06.04.2020
5237 Rain 23 1013 85 0 0.79 342 08:43 06.04.2020
5238 Rain 23 1013 85 0 0.79 342 08:43 06.04.2020
5239 Rain 23 1013 85 0 0.79 342 08:42 06.04.2020
5240 Rain 23 1013 85 0 0.79 342 07:58 06.04.2020
5241 Rain 23 1013 85 0 0.79 342 07:58 06.04.2020
5242 Rain 23 1013 85 0 0.79 342 07:20 06.04.2020
5243 Rain 23 1013 85 0 0.79 342 06:26 06.04.2020
5244 Rain 21 1011 86 0 0.4 305 05:43 06.04.2020
5245 Rain 21 1011 86 0 0.4 305 05:43 06.04.2020
5246 Rain 21 1011 86 0 0.4 305 05:43 06.04.2020
5247 Rain 21 1011 86 0 0.4 305 03:33 06.04.2020
5248 Rain 21 1011 85 0 0.34 331 02:49 06.04.2020
5249 Rain 21 1011 86 0 0.58 212 01:53 06.04.2020
5250 Rain 21 1011 86 0 0.58 212 00:52 06.04.2020
5251 Rain 21 1011 86 0 0.58 212 00:27 06.04.2020
5252 Clouds 22 1011 82 0 0.49 353 23:50 05.04.2020
5253 Clouds 22 1011 82 0 0.49 353 23:32 05.04.2020
5254 Clouds 22 1011 82 0 0.49 353 23:32 05.04.2020
5255 Clouds 22 1011 82 0 0.49 353 22:57 05.04.2020
5256 Clouds 22 1011 82 0 0.49 353 22:38 05.04.2020
5257 Clouds 22 1011 82 0 0.49 353 22:19 05.04.2020
5258 Clouds 22 1011 82 0 0.49 353 21:58 05.04.2020
5259 Clouds 22 1011 82 0 0.49 353 21:40 05.04.2020
5260 Clouds 22 1011 82 0 0.49 353 21:21 05.04.2020
5261 Clouds 23 1009 80 0 0.56 359 20:22 05.04.2020
5262 Clouds 23 1009 80 0 0.56 359 20:22 05.04.2020
5263 Clouds 23 1009 80 0 0.56 359 19:42 05.04.2020
5264 Clouds 23 1009 80 0 0.56 359 19:22 05.04.2020
5265 Clouds 23 1009 80 0 0.56 359 18:47 05.04.2020
5266 Clouds 28 1007 59 0 1.57 261 17:59 05.04.2020
5267 Clouds 28 1007 59 0 1.57 261 17:41 05.04.2020
5268 Clouds 28 1007 59 0 1.57 261 17:20 05.04.2020
5269 Clouds 28 1007 59 0 1.57 261 16:47 05.04.2020
5270 Clouds 28 1007 59 0 1.57 261 16:47 05.04.2020
5271 Clouds 28 1007 59 0 1.57 261 16:18 05.04.2020
5272 Clouds 28 1007 59 0 1.57 261 15:45 05.04.2020
5273 Clouds 28 1007 59 0 1.57 261 15:25 05.04.2020
5274 Rain 26 1009 72 0 1.99 259 14:48 05.04.2020
5275 Rain 26 1009 72 0 1.99 259 14:48 05.04.2020
5276 Rain 26 1009 72 0 1.99 259 14:48 05.04.2020
5277 Rain 26 1009 73 0 1.87 242 13:47 05.04.2020
5278 Rain 26 1009 73 0 1.87 242 13:47 05.04.2020
5279 Rain 26 1009 73 0 1.87 242 13:00 05.04.2020
5280 Rain 27 1013 80 0 1.21 305 11:58 05.04.2020
5281 Rain 27 1013 80 0 1.21 305 11:38 05.04.2020
5282 Rain 27 1013 80 0 1.21 305 11:19 05.04.2020
5283 Rain 27 1013 80 0 1.21 305 10:45 05.04.2020
5284 Rain 27 1013 80 0 1.21 305 10:21 05.04.2020
5285 Rain 27 1013 80 0 1.21 305 09:52 05.04.2020
5286 Rain 27 1013 80 0 1.21 305 09:52 05.04.2020
5287 Rain 27 1013 80 0 1.21 305 09:25 05.04.2020
5288 Rain 28 1013 65 0 1.99 249 09:25 05.04.2020
5289 Rain 28 1013 65 0 1.99 249 09:25 05.04.2020
5290 Rain 28 1013 65 0 1.99 249 09:25 05.04.2020
5291 Rain 28 1013 65 0 1.99 249 09:25 05.04.2020
5292 Rain 23 1013 85 0 1.3 244 07:58 05.04.2020
5293 Rain 22 1010 87 0 1.09 244 05:07 05.04.2020
5294 Rain 22 1010 87 0 1.09 244 03:35 05.04.2020
5295 Rain 23 1010 86 0 1.27 201 02:56 05.04.2020
5296 Rain 22 1010 87 0 0.79 187 01:52 05.04.2020
5297 Rain 22 1010 87 0 0.79 187 01:52 05.04.2020
5298 Rain 22 1010 87 0 0.79 187 01:33 05.04.2020
5299 Rain 22 1010 87 0 0.79 187 00:52 05.04.2020
5300 Rain 22 1010 87 0 0.79 187 00:22 05.04.2020
5301 Rain 23 1010 85 0 0.62 201 23:58 04.04.2020
5302 Rain 23 1010 85 0 0.62 201 23:58 04.04.2020
5303 Rain 23 1010 85 0 0.62 201 23:38 04.04.2020
5304 Rain 23 1010 85 0 0.62 201 23:20 04.04.2020
5305 Rain 23 1010 85 0 0.62 201 22:56 04.04.2020
5306 Rain 23 1010 85 0 0.62 201 22:38 04.04.2020
5307 Rain 23 1010 85 0 0.62 201 22:19 04.04.2020
5308 Rain 23 1010 85 0 0.62 201 21:55 04.04.2020
5309 Rain 23 1010 85 0 0.62 201 21:37 04.04.2020
5310 Clouds 27 1008 65 0 0.47 222 21:18 04.04.2020
5311 Clouds 28 1007 61 0 0.79 208 20:43 04.04.2020
5312 Clouds 27 1007 65 0 0.37 208 20:23 04.04.2020
5313 Clouds 27 1007 65 0 0.37 208 19:59 04.04.2020
5314 Clouds 28 1007 61 0 0.79 208 19:39 04.04.2020
5315 Clouds 27 1007 65 0 0.37 208 19:20 04.04.2020
5316 Clouds 27 1007 65 0 0.37 208 18:59 04.04.2020
5317 Clouds 27 1007 65 0 0.37 208 18:39 04.04.2020
5318 Clouds 32 1005 52 0 0.75 195 18:19 04.04.2020
5319 Clouds 32 1005 52 0 0.75 195 17:58 04.04.2020
5320 Clouds 32 1005 52 0 0.75 195 17:38 04.04.2020
5321 Clouds 33 1005 48 0 0.93 193 17:19 04.04.2020
5322 Clouds 32 1005 52 0 0.75 195 16:42 04.04.2020
5323 Clouds 32 1005 52 0 0.75 195 16:24 04.04.2020
5324 Clouds 32 1005 52 0 0.75 195 15:58 04.04.2020
5325 Clouds 32 1005 52 0 0.75 195 15:38 04.04.2020
5326 Clouds 35 1007 38 0 1.98 187 15:19 04.04.2020
5327 Clouds 35 1007 38 0 1.98 187 15:19 04.04.2020
5328 Clouds 35 1007 38 0 1.98 187 14:46 04.04.2020
5329 Clouds 35 1007 38 0 1.93 189 14:25 04.04.2020
5330 Clouds 35 1007 38 0 1.98 187 14:00 04.04.2020
5331 Clouds 35 1007 38 0 1.98 187 13:41 04.04.2020
5332 Clouds 35 1007 38 0 1.98 187 13:41 04.04.2020
5333 Clouds 35 1007 38 0 1.98 187 13:20 04.04.2020
5334 Clouds 35 1007 38 0 1.98 187 12:58 04.04.2020
5335 Clouds 35 1007 38 0 1.98 187 12:39 04.04.2020
5336 Clouds 31 1011 49 0 2.17 202 12:20 04.04.2020
5337 Clouds 31 1011 49 0 2.17 202 11:41 04.04.2020
5338 Clouds 31 1011 49 0 2.17 202 11:23 04.04.2020
5339 Clouds 31 1011 49 0 2.17 202 10:58 04.04.2020
5340 Clouds 31 1011 49 0 2.17 202 10:40 04.04.2020
5341 Clouds 31 1011 49 0 2.17 202 10:22 04.04.2020
5342 Clouds 31 1011 49 0 2.17 202 09:55 04.04.2020
5343 Clouds 31 1011 49 0 2.17 202 09:37 04.04.2020
5344 Clouds 23 1012 84 0 1.19 240 09:19 04.04.2020
5345 Clouds 23 1012 84 0 1.19 240 08:42 04.04.2020
5346 Clouds 23 1012 84 0 1.19 240 08:23 04.04.2020
5347 Clouds 23 1012 84 0 1.19 240 07:55 04.04.2020
5348 Clouds 23 1012 84 0 1.19 240 07:37 04.04.2020
5349 Clouds 23 1012 84 0 1.19 240 07:19 04.04.2020
5350 Clouds 23 1012 84 0 1.19 240 06:29 04.04.2020
5351 Rain 21 1010 86 0 1.85 237 05:52 04.04.2020
5352 Rain 21 1010 86 0 1.85 237 05:32 04.04.2020
5353 Rain 21 1010 86 0 1.85 237 04:34 04.04.2020
5354 Rain 21 1010 86 0 1.85 237 03:56 04.04.2020
5355 Rain 21 1010 86 0 1.85 237 03:29 04.04.2020
5356 Rain 22 1010 87 0 1.14 328 02:45 04.04.2020
5357 Rain 21 1010 87 0 0.36 52 02:25 04.04.2020
5358 Rain 21 1010 87 0 0.36 52 01:31 04.04.2020
5359 Rain 21 1010 87 0 0.36 52 00:58 04.04.2020
5360 Rain 21 1010 87 0 0.36 52 00:35 04.04.2020
5361 Rain 22 1011 86 0 1.95 25 23:59 03.04.2020
5362 Rain 22 1011 86 0 1.95 25 23:38 03.04.2020
5363 Rain 22 1011 86 0 1.95 25 23:19 03.04.2020
5364 Rain 22 1011 86 0 1.95 25 22:41 03.04.2020
5365 Rain 22 1011 86 0 1.95 25 22:19 03.04.2020
5366 Rain 22 1011 86 0 1.95 25 21:57 03.04.2020
5367 Rain 22 1011 86 0 1.95 25 21:38 03.04.2020
5368 Rain 25 1007 77 0 1.17 217 21:20 03.04.2020
5369 Rain 24 1007 80 0 0.99 217 20:55 03.04.2020
5370 Rain 24 1007 80 0 0.99 217 20:36 03.04.2020
5371 Rain 24 1007 80 0 0.99 217 20:18 03.04.2020
5372 Rain 24 1007 80 0 0.99 217 19:55 03.04.2020
5373 Rain 24 1007 80 0 0.99 217 19:36 03.04.2020
5374 Rain 24 1007 80 0 0.99 217 19:18 03.04.2020
5375 Rain 24 1007 80 0 0.99 217 18:57 03.04.2020
5376 Rain 24 1007 80 0 0.99 217 18:39 03.04.2020
5377 Rain 24 1007 80 0 0.99 217 18:39 03.04.2020
5378 Rain 24 1007 80 0 0.99 217 18:21 03.04.2020
5379 Rain 29 1004 67 0 1.71 189 17:41 03.04.2020
5380 Rain 29 1004 67 0 1.71 189 17:20 03.04.2020
5381 Rain 29 1004 67 0 1.71 189 16:56 03.04.2020
5382 Rain 29 1004 67 0 1.71 189 16:37 03.04.2020
5383 Clouds 27 1010 74 10000 4.1 150 16:19 03.04.2020
5384 Clouds 27 1010 74 10000 4.1 150 15:56 03.04.2020
5385 Rain 29 1004 67 0 1.71 189 15:37 03.04.2020
5386 Clouds 27 1011 74 10000 5.1 180 15:19 03.04.2020
5387 Rain 30 1006 61 0 2 206 14:40 03.04.2020
5388 Rain 30 1006 61 0 2 206 14:22 03.04.2020
5389 Rain 32 1006 52 0 2.39 194 13:54 03.04.2020
5390 Rain 32 1006 52 0 2.39 194 13:36 03.04.2020
5391 Clouds 27 1013 74 10000 4.1 150 13:18 03.04.2020
5392 Clouds 27 1013 74 10000 4.1 150 12:42 03.04.2020
5393 Clouds 27 1013 74 10000 4.1 150 12:20 03.04.2020
5394 Clouds 30 1010 58 0 2.69 189 11:56 03.04.2020
5395 Clouds 30 1010 58 0 2.69 189 11:37 03.04.2020
5396 Clouds 23 1013 94 10000 3.1 180 11:18 03.04.2020
5397 Clouds 23 1013 94 10000 3.1 180 10:57 03.04.2020
5398 Clouds 23 1013 94 10000 3.1 180 10:38 03.04.2020
5399 Clouds 23 1013 94 10000 3.1 180 10:20 03.04.2020
5400 Clouds 23 1013 94 10000 3.1 180 10:20 03.04.2020
5401 Clouds 21 1012 100 8000 3.1 180 09:57 03.04.2020
5402 Clouds 21 1012 100 8000 3.1 180 09:39 03.04.2020
5403 Clouds 21 1012 100 8000 3.1 180 09:21 03.04.2020
5404 Rain 24 1010 85 0 1.32 183 08:55 03.04.2020
5405 Rain 24 1010 85 0 1.32 183 08:36 03.04.2020
5406 Rain 24 1010 85 0 1.32 183 08:18 03.04.2020
5407 Rain 24 1010 85 0 1.32 183 07:41 03.04.2020
5408 Thunderstorm 21 1010 94 3000 5.1 250 07:23 03.04.2020
5409 Thunderstorm 21 1010 94 3000 5.1 250 06:33 03.04.2020
5410 Rain 22 1008 87 0 1.16 136 05:43 03.04.2020
5411 Rain 22 1008 87 0 1.16 136 05:21 03.04.2020
5412 Rain 22 1008 87 0 1.16 136 03:37 03.04.2020
5413 Rain 23 1007 84 0 1.21 30 02:47 03.04.2020
5414 Rain 22 1007 86 0 1.17 34 01:30 03.04.2020
5415 Rain 22 1007 86 0 1.17 34 00:56 03.04.2020
5416 Rain 22 1007 86 0 1.17 34 00:33 03.04.2020
5417 Rain 24 1008 79 0 0.67 44 23:57 02.04.2020
5418 Rain 24 1008 79 0 0.67 44 23:39 02.04.2020
5419 Rain 24 1008 79 0 0.67 44 23:19 02.04.2020
5420 Rain 24 1008 79 0 0.67 44 22:43 02.04.2020
5421 Rain 24 1008 79 0 0.67 44 22:25 02.04.2020
5422 Rain 24 1008 79 0 0.67 44 21:59 02.04.2020
5423 Rain 24 1008 79 0 0.67 44 21:37 02.04.2020
5424 Rain 25 1005 77 0 1.72 320 21:19 02.04.2020
5425 Clouds 29 1005 56 0 0.57 180 20:55 02.04.2020
5426 Clouds 29 1005 56 0 0.57 180 20:37 02.04.2020
5427 Clouds 29 1005 56 0 0.57 180 20:18 02.04.2020
5428 Clouds 29 1005 56 0 0.57 180 19:42 02.04.2020
5429 Clouds 29 1005 56 0 0.57 180 19:20 02.04.2020
5430 Clouds 29 1005 56 0 0.57 180 18:56 02.04.2020
5431 Clouds 29 1005 56 0 0.57 180 18:38 02.04.2020
5432 Clouds 34 1002 44 0 0.46 197 18:19 02.04.2020
5433 Clouds 34 1002 44 0 0.46 197 17:44 02.04.2020
5434 Clouds 34 1002 44 0 0.46 197 17:26 02.04.2020
5435 Clouds 34 1002 44 0 0.46 197 16:59 02.04.2020
5436 Clouds 34 1002 44 0 0.46 197 16:41 02.04.2020
5437 Clouds 34 1002 44 0 0.46 197 16:22 02.04.2020
5438 Clouds 34 1002 44 0 0.46 197 15:59 02.04.2020
5439 Clouds 34 1002 44 0 0.46 197 15:40 02.04.2020
5440 Clouds 38 1004 30 0 1.45 62 15:20 02.04.2020
5441 Clouds 38 1004 30 0 1.45 62 14:58 02.04.2020
5442 Clouds 38 1004 30 0 1.45 62 14:38 02.04.2020
5443 Clouds 38 1004 30 0 1.45 62 14:19 02.04.2020
5444 Clouds 38 1004 30 0 1.45 62 14:19 02.04.2020
5445 Clouds 38 1004 30 0 1.4 63 13:55 02.04.2020
5446 Clouds 38 1004 30 0 1.4 63 13:37 02.04.2020
5447 Clouds 38 1004 30 0 1.4 63 13:18 02.04.2020
5448 Clouds 38 1004 30 0 1.4 63 12:46 02.04.2020
5449 Clouds 35 1008 41 0 0.86 207 12:20 02.04.2020
5450 Clouds 35 1008 41 0 0.86 207 11:58 02.04.2020
5451 Clouds 35 1008 41 0 0.86 207 11:39 02.04.2020
5452 Clouds 35 1008 41 0 0.86 207 11:20 02.04.2020
5453 Clouds 35 1008 41 0 0.86 207 10:57 02.04.2020
5454 Clouds 35 1008 41 0 0.86 207 10:39 02.04.2020
5455 Clouds 35 1008 41 0 0.86 207 10:21 02.04.2020
5456 Clouds 35 1008 41 0 0.86 207 09:59 02.04.2020
5457 Clouds 35 1008 41 0 0.86 207 09:41 02.04.2020
5458 Clouds 35 1008 41 0 0.86 207 09:22 02.04.2020
5459 Clouds 25 1010 79 0 0.67 162 08:48 02.04.2020
5460 Clouds 25 1010 79 0 0.67 162 08:29 02.04.2020
5461 Clouds 25 1010 79 0 0.67 162 07:59 02.04.2020
5462 Clouds 25 1010 79 0 0.67 162 07:40 02.04.2020
5463 Clouds 25 1010 79 0 0.67 162 07:19 02.04.2020
5464 Clouds 25 1010 79 0 0.67 162 06:25 02.04.2020
5465 Rain 22 1008 85 0 0.64 96 05:46 02.04.2020
5466 Rain 22 1008 85 0 0.64 96 05:18 02.04.2020
5467 Rain 22 1007 82 0 0.54 223 02:26 02.04.2020
5468 Clouds 22 1008 83 0 0.21 121 01:27 02.04.2020
5469 Clouds 22 1008 83 0 0.21 121 00:42 02.04.2020
5470 Clouds 22 1008 83 0 0.21 121 00:22 02.04.2020
5471 Rain 23 1008 83 0 0.2 273 23:40 01.04.2020
5472 Rain 23 1008 83 0 0.2 273 23:19 01.04.2020
5473 Rain 23 1008 83 0 0.2 273 22:57 01.04.2020
5474 Rain 23 1008 83 0 0.2 273 22:57 01.04.2020
5475 Rain 23 1008 83 0 0.2 273 22:57 01.04.2020
5476 Rain 23 1008 83 0 0.2 273 22:38 01.04.2020
5477 Rain 23 1008 83 0 0.2 273 22:19 01.04.2020
5478 Rain 23 1008 83 0 0.2 273 21:41 01.04.2020
5479 Clouds 27 1007 57 0 0.87 203 21:19 01.04.2020
5480 Clouds 27 1007 57 0 0.87 203 20:57 01.04.2020
5481 Clouds 27 1007 57 0 0.87 203 20:38 01.04.2020
5482 Clouds 27 1007 57 0 0.87 203 20:20 01.04.2020
5483 Clouds 27 1007 57 0 0.87 203 19:58 01.04.2020
5484 Clouds 27 1007 57 0 0.87 203 19:39 01.04.2020
5485 Clouds 27 1007 57 0 0.87 203 19:19 01.04.2020
5486 Clouds 27 1007 57 0 0.87 203 19:19 01.04.2020
5487 Clouds 27 1007 57 0 0.87 203 18:42 01.04.2020
5488 Clouds 27 1007 57 0 0.87 203 18:24 01.04.2020
5489 Clouds 34 1005 42 0 1.05 124 17:57 01.04.2020
5490 Clouds 34 1005 42 0 1.05 124 17:38 01.04.2020
5491 Clouds 34 1005 42 0 1.05 124 17:19 01.04.2020
5492 Clouds 34 1005 42 0 1.05 124 16:58 01.04.2020
5493 Clouds 34 1005 42 0 1.05 124 16:39 01.04.2020
5494 Clouds 34 1005 42 0 1.05 124 16:21 01.04.2020
5495 Clouds 34 1005 42 0 1.05 124 15:57 01.04.2020
5496 Clouds 34 1005 42 0 1.05 124 15:37 01.04.2020
5497 Clouds 36 1007 35 0 1.56 140 15:18 01.04.2020
5498 Clouds 36 1007 35 0 1.56 140 14:55 01.04.2020
5499 Clouds 36 1007 35 0 1.56 140 14:55 01.04.2020
5500 Clouds 36 1007 35 0 1.56 140 14:36 01.04.2020
5501 Clouds 36 1007 34 0 1.45 143 14:18 01.04.2020
5502 Clouds 36 1007 34 0 1.45 143 13:55 01.04.2020
5503 Clouds 36 1007 34 0 1.45 143 13:36 01.04.2020
5504 Clouds 36 1007 34 0 1.45 143 13:18 01.04.2020
5505 Clouds 36 1007 34 0 1.45 143 12:42 01.04.2020
5506 Clouds 36 1007 34 0 1.45 143 12:23 01.04.2020
5507 Clouds 32 1011 46 0 1.66 176 11:59 01.04.2020
5508 Clouds 32 1011 46 0 1.66 176 11:39 01.04.2020
5509 Clouds 32 1011 46 0 1.66 176 11:20 01.04.2020
5510 Clouds 32 1011 46 0 1.66 176 10:56 01.04.2020
5511 Clouds 32 1011 46 0 1.66 176 10:37 01.04.2020
5512 Clouds 32 1011 46 0 1.66 176 10:18 01.04.2020
5513 Clouds 32 1011 46 0 1.66 176 09:40 01.04.2020
5514 Clouds 32 1011 46 0 1.66 176 09:40 01.04.2020
5515 Clouds 32 1011 46 0 1.83 172 09:21 01.04.2020
5516 Clouds 24 1012 84 0 1.07 190 08:59 01.04.2020
5517 Clouds 24 1012 84 0 1.07 190 08:40 01.04.2020
5518 Clouds 24 1012 84 0 1.07 190 08:18 01.04.2020
5519 Clouds 24 1012 84 0 1.07 190 07:42 01.04.2020
5520 Clouds 24 1012 84 0 1.07 190 07:19 01.04.2020
5521 Clouds 24 1012 84 0 1.07 190 06:47 01.04.2020
5522 Rain 22 1010 87 0 0.96 171 06:22 01.04.2020
5523 Rain 22 1010 87 0 0.96 171 05:53 01.04.2020
5524 Rain 22 1010 87 0 0.96 171 04:30 01.04.2020
5525 Rain 22 1010 87 0 0.96 171 03:27 01.04.2020
5526 Rain 23 1010 87 0 1.1 251 02:49 01.04.2020
5527 Rain 22 1010 86 0 0.37 203 01:54 01.04.2020
5528 Rain 22 1010 86 0 0.37 203 01:29 01.04.2020
5529 Rain 22 1010 86 0 0.37 203 00:58 01.04.2020
5530 Rain 22 1010 86 0 0.37 203 00:40 01.04.2020
5531 Rain 22 1011 87 0 1.49 42 00:18 01.04.2020
5532 Rain 22 1011 87 0 1.49 42 23:41 31.03.2020
5533 Rain 22 1011 87 0 1.49 42 23:22 31.03.2020
5534 Rain 22 1011 87 0 1.49 42 22:43 31.03.2020
5535 Rain 22 1011 87 0 1.49 42 22:23 31.03.2020
5536 Rain 22 1011 87 0 1.49 42 22:23 31.03.2020
5537 Rain 22 1011 87 0 1.49 42 21:59 31.03.2020
5538 Rain 22 1011 87 0 1.49 42 21:59 31.03.2020
5539 Rain 22 1011 87 0 1.49 42 21:41 31.03.2020
5540 Rain 22 1011 86 0 0.89 78 21:22 31.03.2020
5541 Rain 24 1008 82 0 0.96 261 20:58 31.03.2020
5542 Rain 24 1008 82 0 0.96 261 20:38 31.03.2020
5543 Rain 24 1008 82 0 0.96 261 20:20 31.03.2020
5544 Rain 24 1008 82 0 0.96 261 19:59 31.03.2020
5545 Rain 24 1008 82 0 0.96 261 19:40 31.03.2020
5546 Rain 24 1008 82 0 0.96 261 19:21 31.03.2020
5547 Rain 24 1008 82 0 0.96 261 18:54 31.03.2020
5548 Rain 24 1008 82 0 0.96 261 18:36 31.03.2020
5549 Clouds 31 1005 52 0 1.7 228 18:18 31.03.2020
5550 Clouds 31 1005 52 0 1.7 228 17:54 31.03.2020
5551 Clouds 31 1005 52 0 1.7 228 17:36 31.03.2020
5552 Clouds 31 1005 52 0 1.7 228 17:36 31.03.2020
5553 Clouds 31 1005 52 0 1.7 228 17:18 31.03.2020
5554 Clouds 31 1005 52 0 1.7 228 16:37 31.03.2020
5555 Clouds 31 1005 52 0 1.7 228 16:18 31.03.2020
5556 Clouds 31 1005 52 0 1.7 228 15:56 31.03.2020
5557 Clouds 31 1005 52 0 1.7 228 15:37 31.03.2020
5558 Rain 33 1006 48 0 1.47 199 15:19 31.03.2020
5559 Rain 33 1006 48 0 1.47 199 14:56 31.03.2020
5560 Rain 33 1006 48 0 1.47 199 14:38 31.03.2020
5561 Clouds 34 1006 40 0 2.2 198 14:18 31.03.2020
5562 Clouds 34 1006 40 0 2.2 198 13:42 31.03.2020
5563 Clouds 34 1006 40 0 2.2 198 13:19 31.03.2020
5564 Clouds 34 1006 40 0 2.2 198 12:55 31.03.2020
5565 Clouds 34 1006 40 0 2.2 198 12:37 31.03.2020
5566 Clouds 31 1011 50 0 1.82 187 12:18 31.03.2020
5567 Clouds 31 1011 50 0 1.82 187 11:38 31.03.2020
5568 Clouds 31 1011 50 0 1.82 187 11:19 31.03.2020
5569 Clouds 31 1011 50 0 1.82 187 10:57 31.03.2020
5570 Clouds 31 1011 50 0 1.82 187 10:39 31.03.2020
5571 Clouds 31 1011 50 0 1.82 187 10:21 31.03.2020
5572 Clouds 31 1011 50 0 1.82 187 10:21 31.03.2020
5573 Clouds 31 1011 50 0 1.82 187 09:56 31.03.2020
5574 Clouds 31 1011 50 0 1.82 187 09:37 31.03.2020
5575 Clouds 31 1011 50 0 1.82 187 09:37 31.03.2020
5576 Clouds 24 1012 84 0 1.01 189 09:19 31.03.2020
5577 Clouds 24 1012 84 0 1.01 189 08:55 31.03.2020
5578 Clouds 24 1012 84 0 1.01 189 08:37 31.03.2020
5579 Clouds 24 1012 84 0 1.01 189 08:18 31.03.2020
5580 Clouds 24 1012 84 0 1.01 189 07:44 31.03.2020
5581 Clouds 24 1012 84 0 1.01 189 07:25 31.03.2020
5582 Clouds 24 1012 84 0 1.01 189 06:58 31.03.2020
5583 Clouds 24 1012 84 0 1.01 189 06:39 31.03.2020
5584 Rain 22 1009 87 0 1.13 190 05:42 31.03.2020
5585 Rain 22 1009 87 0 1.13 190 05:23 31.03.2020
5586 Rain 22 1009 87 0 1.09 184 02:53 31.03.2020
5587 Rain 21 1010 86 0 1.14 152 01:47 31.03.2020
5588 Rain 21 1010 86 0 1.14 152 01:19 31.03.2020
5589 Rain 21 1010 86 0 1.14 152 00:43 31.03.2020
5590 Rain 21 1010 86 0 1.14 152 00:20 31.03.2020
5591 Rain 22 1011 86 0 2.62 65 23:40 30.03.2020
5592 Rain 22 1011 86 0 2.62 65 23:20 30.03.2020
5593 Rain 22 1011 86 0 2.62 65 22:57 30.03.2020
5594 -273 0 0 0 0 0 22:38 30.03.2020
5595 Rain 22 1011 86 0 2.62 65 22:19 30.03.2020
5596 Rain 22 1011 86 0 2.62 65 21:57 30.03.2020
5597 Rain 22 1011 86 0 2.62 65 21:38 30.03.2020
5598 Rain 25 1007 71 0 0.99 241 21:20 30.03.2020
5599 Rain 25 1007 71 0 0.99 241 20:57 30.03.2020
5600 Rain 25 1007 71 0 0.99 241 20:38 30.03.2020
5601 Rain 25 1007 71 0 0.99 241 20:19 30.03.2020
5602 Rain 25 1007 71 0 0.99 241 20:19 30.03.2020
5603 Rain 25 1007 71 0 0.99 241 19:41 30.03.2020
5604 Rain 25 1007 71 0 0.99 241 19:22 30.03.2020
5605 Rain 25 1007 71 0 0.99 241 18:59 30.03.2020
5606 Rain 25 1007 71 0 0.99 241 18:41 30.03.2020
5607 Rain 25 1007 71 0 0.99 241 18:22 30.03.2020
5608 Clouds 31 1004 53 0 1.1 245 17:57 30.03.2020
5609 Clouds 31 1004 53 0 1.1 245 17:39 30.03.2020
5610 Clouds 31 1004 53 0 1.1 245 17:39 30.03.2020
5611 Clouds 31 1004 53 0 1.1 245 17:19 30.03.2020
5612 Clouds 31 1004 53 0 1.1 245 16:57 30.03.2020
5613 Clouds 31 1004 53 0 1.1 245 16:38 30.03.2020
5614 Clouds 31 1004 53 0 1.1 245 16:20 30.03.2020
5615 Clouds 31 1004 53 0 1.1 245 15:55 30.03.2020
5616 Clouds 31 1004 53 0 1.1 245 15:36 30.03.2020
5617 Clouds 33 1007 41 0 1.95 240 15:18 30.03.2020
5618 Clouds 33 1007 41 0 1.95 240 14:55 30.03.2020
5619 Clouds 33 1007 41 0 1.95 240 14:36 30.03.2020
5620 Clouds 33 1007 41 0 1.92 232 14:18 30.03.2020
5621 Clouds 33 1007 41 0 1.92 232 13:43 30.03.2020
5622 Clouds 33 1007 41 0 1.92 232 13:21 30.03.2020
5623 Clouds 33 1007 41 0 1.92 232 12:58 30.03.2020
5624 Clouds 33 1007 41 0 1.92 232 12:40 30.03.2020
5625 Clouds 27 1012 62 0 1.72 265 12:19 30.03.2020
5626 Clouds 27 1012 62 0 1.72 265 11:56 30.03.2020
5627 Clouds 27 1012 62 0 1.72 265 11:38 30.03.2020
5628 Clouds 27 1012 62 0 1.72 265 11:20 30.03.2020
5629 Clouds 27 1012 62 0 1.72 265 10:40 30.03.2020
5630 Clouds 27 1012 62 0 1.72 265 10:22 30.03.2020
5631 Clouds 27 1012 62 0 1.72 265 09:56 30.03.2020
5632 Clouds 27 1012 62 0 1.72 265 09:38 30.03.2020
5633 Clouds 23 1013 85 0 1.37 291 09:19 30.03.2020
5634 Clouds 22 1013 84 0 0.82 311 08:42 30.03.2020
5635 Clouds 22 1013 84 0 0.82 311 08:22 30.03.2020
5636 Clouds 22 1013 84 0 0.82 311 07:49 30.03.2020
5637 Clouds 22 1013 84 0 0.82 311 07:31 30.03.2020
5638 Clouds 22 1013 84 0 0.82 311 06:56 30.03.2020
5639 Clouds 22 1013 84 0 0.82 311 06:32 30.03.2020
5640 Clouds 21 1010 87 0 0.54 355 05:54 30.03.2020
5641 Clouds 21 1010 87 0 0.54 355 05:22 30.03.2020
5642 Clouds 21 1010 87 0 0.54 355 04:23 30.03.2020
5643 Clouds 21 1010 87 0 0.54 355 03:44 30.03.2020
5644 Rain 21 1011 86 0 0.94 11 02:39 30.03.2020
5645 Rain 21 1010 86 0 0.96 327 01:44 30.03.2020
5646 Rain 21 1010 86 0 0.96 327 00:50 30.03.2020
5647 Rain 21 1010 86 0 0.96 327 00:23 30.03.2020
5648 Rain 22 1009 84 0 1.47 81 23:42 29.03.2020
5649 Rain 22 1009 84 0 1.47 81 23:24 29.03.2020
5650 Rain 22 1009 84 0 1.47 81 22:58 29.03.2020
5651 Rain 22 1009 84 0 1.47 81 22:38 29.03.2020
5652 Rain 22 1009 84 0 1.47 81 22:19 29.03.2020
5653 Rain 22 1009 84 0 1.47 81 21:57 29.03.2020
5654 Rain 22 1009 84 0 1.47 81 21:36 29.03.2020
5655 Rain 22 1009 84 0 1.47 81 21:36 29.03.2020
5656 Rain 25 1007 68 0 1.25 126 21:18 29.03.2020
5657 Clouds 26 1007 58 0 0.99 110 20:55 29.03.2020
5658 Clouds 26 1007 58 0 0.99 110 20:36 29.03.2020
5659 Clouds 26 1007 58 0 0.99 110 20:18 29.03.2020
5660 Clouds 26 1007 58 0 0.99 110 19:42 29.03.2020
5661 Clouds 26 1007 58 0 0.99 110 19:24 29.03.2020
5662 Clouds 26 1007 58 0 0.99 110 18:58 29.03.2020
5663 Clouds 26 1007 58 0 0.99 110 18:40 29.03.2020
5664 Clouds 26 1007 58 0 0.99 110 18:21 29.03.2020
5665 Clouds 33 1002 41 0 0.99 140 17:59 29.03.2020
5666 Clouds 33 1002 41 0 0.99 140 17:41 29.03.2020
5667 Clouds 33 1002 41 0 0.99 140 17:22 29.03.2020
5668 Clouds 33 1002 41 0 0.99 140 16:58 29.03.2020
5669 Clouds 33 1002 41 0 0.99 140 16:39 29.03.2020
5670 Clouds 33 1002 41 0 0.99 140 16:21 29.03.2020
5671 Clouds 33 1002 41 0 0.99 140 15:58 29.03.2020
5672 Clouds 33 1002 41 0 0.99 140 15:39 29.03.2020
5673 Clouds 36 1007 31 0 1.2 115 15:19 29.03.2020
5674 Clouds 36 1007 31 0 1.2 115 14:55 29.03.2020
5675 Clouds 36 1007 31 0 1.2 115 14:36 29.03.2020
5676 Clouds 36 1007 31 0 1.2 115 14:36 29.03.2020
5677 Clouds 37 1007 28 0 1.43 109 14:18 29.03.2020
5678 Clouds 37 1007 28 0 1.43 109 13:42 29.03.2020
5679 Clouds 37 1007 28 0 1.43 109 13:22 29.03.2020
5680 Clouds 37 1007 28 0 1.43 109 12:58 29.03.2020
5681 Clouds 37 1007 28 0 1.43 109 12:39 29.03.2020
5682 Clouds 33 1011 39 0 1.53 121 12:19 29.03.2020
5683 Clouds 33 1011 39 0 1.53 121 11:59 29.03.2020
5684 Clouds 33 1011 39 0 1.53 121 11:38 29.03.2020
5685 Clouds 33 1011 39 0 1.53 121 11:19 29.03.2020
5686 Clouds 33 1011 39 0 1.53 121 10:39 29.03.2020
5687 Clouds 33 1011 39 0 1.53 121 10:39 29.03.2020
5688 Clouds 33 1011 39 0 1.53 121 10:20 29.03.2020
5689 Clouds 33 1011 39 0 1.53 121 09:56 29.03.2020
5690 Clouds 33 1011 39 0 1.53 121 09:38 29.03.2020
5691 Clouds 25 1013 67 0 1.22 108 09:18 29.03.2020
5692 Clouds 24 1013 69 0 1.31 116 08:43 29.03.2020
5693 Clouds 24 1013 69 0 1.31 116 08:25 29.03.2020
5694 Clouds 24 1013 69 0 1.31 116 07:47 29.03.2020
5695 Clouds 24 1013 69 0 1.31 116 07:47 29.03.2020
5696 Clouds 24 1013 69 0 1.31 116 07:23 29.03.2020
5697 Clouds 24 1013 69 0 1.31 116 06:40 29.03.2020
5698 Clouds 21 1010 82 0 0.81 152 04:56 29.03.2020
5699 Clouds 21 1010 82 0 0.81 152 03:41 29.03.2020
5700 Clouds 22 1011 79 0 0.8 130 03:20 29.03.2020
5701 Clouds 22 1011 79 0 0.8 130 01:43 29.03.2020
5702 Clouds 22 1011 79 0 0.8 130 01:22 29.03.2020
5703 Clouds 23 1011 74 0 0.78 111 00:45 29.03.2020
5704 Clouds 23 1011 74 0 0.78 111 00:27 29.03.2020
5705 Clouds 23 1011 74 0 0.78 111 23:41 28.03.2020
5706 Clouds 23 1011 74 0 0.78 111 23:22 28.03.2020
5707 Clouds 23 1010 76 0 0.86 85 22:46 28.03.2020
5708 Clouds 23 1010 76 0 0.86 85 22:23 28.03.2020
5709 Clouds 23 1010 76 0 0.86 85 21:59 28.03.2020
5710 Clouds 23 1010 76 0 0.86 85 21:39 28.03.2020
5711 Clouds 23 1010 76 0 0.86 85 21:21 28.03.2020
5712 Clouds 23 1010 76 0 0.86 85 20:57 28.03.2020
5713 Clouds 23 1010 76 0 0.86 85 20:38 28.03.2020
5714 Clouds 24 1009 71 0 0.48 233 20:20 28.03.2020
5715 Clouds 23 1008 73 0 0.59 171 19:55 28.03.2020
5716 Clouds 23 1008 73 0 0.59 171 19:36 28.03.2020
5717 Clouds 23 1008 73 0 0.59 171 19:18 28.03.2020
5718 Clouds 23 1008 73 0 0.59 171 18:42 28.03.2020
5719 Clouds 23 1008 73 0 0.59 171 18:20 28.03.2020
5720 Clouds 23 1008 73 0 0.59 171 17:43 28.03.2020
5721 Clouds 31 1010 62 10000 2.1 140 17:24 28.03.2020
5722 Clouds 31 1010 62 10000 2.1 140 16:59 28.03.2020
5723 Clouds 31 1010 62 10000 2.1 140 16:59 28.03.2020
5724 Clouds 31 1010 62 10000 2.1 140 16:40 28.03.2020
5725 Clouds 31 1010 62 10000 2.1 140 16:18 28.03.2020
5726 Clouds 28 1007 58 0 0.62 186 15:55 28.03.2020
5727 Clouds 28 1007 58 0 0.62 186 15:37 28.03.2020
5728 Clouds 28 1007 58 0 0.62 186 15:18 28.03.2020
5729 Clouds 28 1007 58 0 0.62 186 14:41 28.03.2020
5730 Clouds 28 1007 58 0 0.62 186 14:21 28.03.2020
5731 Clouds 31 1010 44 0 2 167 13:43 28.03.2020
5732 Clouds 33 1010 39 0 2.13 178 13:24 28.03.2020
5733 Clouds 33 1010 39 0 2.13 178 12:43 28.03.2020
5734 Clouds 33 1010 39 0 2.13 178 12:24 28.03.2020
5735 Clouds 33 1010 39 0 2.13 178 11:59 28.03.2020
5736 Clouds 33 1010 39 0 2.13 178 11:41 28.03.2020
5737 Clouds 29 1012 51 0 2.47 158 11:20 28.03.2020
5738 Clouds 29 1012 51 0 2.47 158 10:40 28.03.2020
5739 Clouds 29 1015 66 10000 4.1 120 10:22 28.03.2020
5740 Clouds 29 1015 66 10000 4.1 120 09:43 28.03.2020
5741 Clouds 25 1014 88 6000 2.1 100 09:24 28.03.2020
5742 Clouds 25 1014 88 6000 2.1 100 08:59 28.03.2020
5743 Clouds 25 1014 88 6000 2.1 100 08:41 28.03.2020
5744 Clouds 25 1014 88 6000 2.1 100 08:22 28.03.2020
5745 Mist 23 1014 100 4000 2.1 100 07:46 28.03.2020
5746 Mist 23 1014 100 4000 2.1 100 07:28 28.03.2020
5747 Mist 23 1013 88 4000 2.1 120 06:36 28.03.2020
5748 Clouds 23 1013 82 0 0.69 130 05:54 28.03.2020
5749 Clouds 22 1010 86 0 1.45 183 05:21 28.03.2020
5750 Clouds 22 1010 86 0 1.45 183 05:21 28.03.2020
5751 Clouds 22 1010 86 0 1.45 183 04:42 28.03.2020
5752 Clouds 22 1010 86 0 1.45 183 03:55 28.03.2020
5753 Clouds 22 1010 86 0 1.45 183 02:26 28.03.2020
5754 Rain 22 1012 85 0 1.03 144 01:43 28.03.2020
5755 Rain 22 1012 79 0 1.17 176 01:18 28.03.2020
5756 Rain 22 1012 79 0 1.17 176 00:45 28.03.2020
5757 Rain 22 1012 79 0 1.17 176 23:59 27.03.2020
5758 Rain 22 1012 79 0 1.17 176 23:41 27.03.2020
5759 Rain 22 1012 79 0 1.17 176 23:22 27.03.2020
5760 Rain 23 1012 80 0 1 118 22:56 27.03.2020
5761 Rain 23 1012 80 0 1 118 22:38 27.03.2020
5762 Clouds 26 1012 78 7000 3.1 180 22:20 27.03.2020
5763 Clouds 26 1012 78 7000 3.1 180 21:45 27.03.2020
5764 Clouds 26 1012 78 7000 3.1 180 21:25 27.03.2020
5765 Rain 23 1012 80 0 1 118 20:59 27.03.2020
5766 Rain 23 1012 80 0 1 118 20:41 27.03.2020
5767 Rain 23 1011 79 0 1.53 166 20:21 27.03.2020
5768 Rain 25 1009 71 0 1.34 179 19:59 27.03.2020
5769 Rain 25 1009 71 0 1.34 179 19:40 27.03.2020
5770 Rain 25 1009 71 0 1.34 179 19:21 27.03.2020
5771 Rain 25 1009 71 0 1.34 179 18:56 27.03.2020
5772 Rain 25 1009 71 0 1.34 179 18:38 27.03.2020
5773 Clouds 31 1010 58 10000 3.1 210 18:19 27.03.2020
5774 Clouds 31 1010 58 10000 3.1 210 17:40 27.03.2020
5775 Clouds 31 1010 58 10000 3.1 210 17:20 27.03.2020
5776 Clouds 31 1006 49 0 1.5 207 16:45 27.03.2020
5777 Clouds 31 1011 58 10000 3.1 250 16:27 27.03.2020
5778 Clouds 31 1011 58 10000 3.1 250 15:59 27.03.2020
5779 Clouds 31 1011 58 10000 3.1 250 15:40 27.03.2020
5780 Clouds 31 1011 58 10000 3.1 250 15:22 27.03.2020
5781 Clouds 31 1011 58 10000 3.1 180 14:46 27.03.2020
5782 Clouds 31 1011 58 10000 3.1 180 14:25 27.03.2020
5783 Clouds 30 1012 62 10000 3.1 180 13:56 27.03.2020
5784 Clouds 32 1009 43 0 2.43 210 13:37 27.03.2020
5785 Clouds 29 1013 62 10000 3.1 180 13:18 27.03.2020
5786 Clouds 29 1013 62 10000 3.1 180 12:49 27.03.2020
5787 Clouds 29 1013 62 10000 3.1 180 12:21 27.03.2020
5788 Clouds 32 1008 44 0 2.34 211 11:59 27.03.2020
5789 Clouds 32 1008 44 0 2.34 211 11:59 27.03.2020
5790 Clouds 32 1008 44 0 2.34 211 11:41 27.03.2020
5791 Clouds 32 1008 44 0 2.34 211 11:22 27.03.2020
5792 Clouds 30 1012 50 0 2.17 204 10:54 27.03.2020
5793 Clouds 30 1012 50 0 2.17 204 10:36 27.03.2020
5794 Clouds 27 1015 74 10000 3.1 180 10:18 27.03.2020
5795 Clouds 27 1015 74 10000 3.1 180 09:55 27.03.2020
5796 Clouds 27 1015 74 10000 3.1 180 09:36 27.03.2020
5797 Clouds 27 1015 74 10000 3.1 180 09:18 27.03.2020
5798 Clouds 30 1012 50 0 2.17 204 08:54 27.03.2020
5799 Clouds 30 1012 50 0 2.17 204 08:36 27.03.2020
5800 Rain 23 1012 84 0 1.83 200 08:18 27.03.2020
5801 Rain 23 1012 84 0 2.04 200 07:43 27.03.2020
5802 Mist 22 1013 94 4000 2.04 200 07:21 27.03.2020
5803 Mist 22 1013 94 4000 2.04 200 06:41 27.03.2020
5804 Rain 23 1012 84 0 2.04 200 06:18 27.03.2020
5805 Rain 21 1009 86 0 1.24 202 03:42 27.03.2020
5806 Rain 22 1010 86 0 1.2 190 02:19 27.03.2020
5807 Clouds 22 1009 84 0 1.27 194 01:21 27.03.2020
5808 Clouds 22 1009 84 0 1.27 194 00:45 27.03.2020
5809 Clouds 22 1009 84 0 1.27 194 00:20 27.03.2020
5810 Clouds 22 1009 84 0 1.27 194 23:42 26.03.2020
5811 Rain 22 1010 84 0 1.13 196 23:19 26.03.2020
5812 Rain 22 1010 84 0 1.13 196 22:57 26.03.2020
5813 Rain 22 1010 84 0 1.13 196 22:37 26.03.2020
5814 Rain 22 1010 84 0 1.13 196 22:18 26.03.2020
5815 Rain 22 1010 84 0 1.13 196 21:40 26.03.2020
5816 Rain 22 1010 84 0 1.13 196 21:22 26.03.2020
5817 Rain 22 1010 84 0 1.13 196 20:59 26.03.2020
5818 Rain 22 1010 84 0 1.13 196 20:40 26.03.2020
5819 Rain 22 1010 84 0 1.13 196 20:22 26.03.2020
5820 Rain 24 1008 78 0 1.29 220 19:58 26.03.2020
5821 Rain 24 1008 78 0 1.29 220 19:40 26.03.2020
5822 Rain 24 1008 78 0 1.29 220 19:21 26.03.2020
5823 Rain 24 1008 78 0 1.29 220 18:58 26.03.2020
5824 Rain 24 1008 78 0 1.29 220 18:40 26.03.2020
5825 Rain 24 1008 78 0 1.29 220 18:22 26.03.2020
5826 Rain 24 1008 78 0 1.29 220 17:45 26.03.2020
5827 Rain 30 1005 56 0 0.97 226 17:20 26.03.2020
5828 Rain 30 1005 56 0 0.97 226 16:57 26.03.2020
5829 Rain 30 1005 56 0 0.97 226 16:57 26.03.2020
5830 Rain 30 1005 56 0 0.97 226 16:38 26.03.2020
5831 Rain 30 1005 56 0 0.97 226 16:19 26.03.2020
5832 Rain 30 1005 56 0 0.97 226 15:56 26.03.2020
5833 Rain 30 1005 56 0 0.97 226 15:38 26.03.2020
5834 Rain 30 1005 56 0 0.97 226 15:18 26.03.2020
5835 Rain 30 1005 56 0 0.97 226 14:43 26.03.2020
5836 Rain 30 1005 56 0 0.97 226 14:24 26.03.2020
5837 -273 0 0 0 0 0 13:56 26.03.2020
5838 Clouds 31 1007 48 0 1.91 234 13:56 26.03.2020
5839 Clouds 31 1007 48 0 1.91 234 13:38 26.03.2020
5840 Clouds 31 1007 48 0 1.91 234 13:20 26.03.2020
5841 Clouds 32 1006 43 0 1.36 215 12:39 26.03.2020
5842 Clouds 30 1011 66 10000 3.1 180 12:20 26.03.2020
5843 Clouds 30 1011 66 10000 3.1 180 11:55 26.03.2020
5844 Clouds 30 1011 66 10000 3.1 180 11:36 26.03.2020
5845 Clouds 30 1011 66 10000 3.1 180 11:18 26.03.2020
5846 Clouds 29 1011 70 10000 2.1 220 10:42 26.03.2020
5847 Clouds 29 1011 70 10000 2.1 220 10:20 26.03.2020
5848 Clouds 24 1010 78 0 1.82 221 09:45 26.03.2020
5849 Clouds 24 1010 78 0 1.82 221 09:24 26.03.2020
5850 Clouds 24 1010 78 0 1.82 221 08:57 26.03.2020
5851 Clouds 24 1010 78 0 1.82 221 08:39 26.03.2020
5852 Clouds 29 1010 59 0 2.28 220 08:20 26.03.2020
5853 Rain 22 1010 86 0 1.48 220 07:46 26.03.2020
5854 Rain 22 1010 86 0 1.48 220 07:24 26.03.2020
5855 Rain 22 1010 86 0 1.48 220 06:59 26.03.2020
5856 Rain 22 1010 86 0 1.48 220 06:32 26.03.2020
5857 Rain 22 1010 86 0 1.48 220 05:29 26.03.2020
5858 Rain 22 1008 87 0 0.5 208 03:45 26.03.2020
5859 Rain 22 1008 87 0 0.5 208 02:57 26.03.2020
5860 Rain 22 1008 87 0 0.88 223 01:51 26.03.2020
5861 Clouds 21 1008 87 0 0.15 159 01:18 26.03.2020
5862 Clouds 21 1008 87 0 0.15 159 00:30 26.03.2020
5863 Clouds 21 1008 87 0 0.15 159 23:42 25.03.2020
5864 Clouds 21 1008 87 0 0.15 159 23:24 25.03.2020
5865 Rain 22 1009 87 0 0.68 19 22:42 25.03.2020
5866 Rain 22 1009 87 0 0.68 19 22:22 25.03.2020
5867 Rain 22 1009 87 0 0.68 19 21:59 25.03.2020
5868 Rain 22 1009 87 0 0.68 19 21:40 25.03.2020
5869 Rain 22 1009 87 0 0.68 19 21:22 25.03.2020
5870 Rain 22 1009 87 0 0.68 19 20:57 25.03.2020
5871 Rain 22 1009 87 0 0.68 19 20:37 25.03.2020
5872 Rain 22 1008 86 0 1.55 147 20:18 25.03.2020
5873 Rain 24 1006 71 0 1.06 171 19:43 25.03.2020
5874 Rain 23 1007 85 0 0.83 158 19:24 25.03.2020
5875 Rain 23 1007 85 0 0.83 158 18:59 25.03.2020
5876 Rain 24 1006 71 0 1.06 171 18:40 25.03.2020
5877 Rain 23 1007 85 0 0.83 158 18:22 25.03.2020
5878 Rain 23 1007 85 0 0.83 158 17:57 25.03.2020
5879 Rain 23 1007 85 0 0.83 158 17:39 25.03.2020
5880 Rain 23 1007 85 0 0.83 158 17:21 25.03.2020
5881 Clouds 32 1003 50 0 0.17 201 16:55 25.03.2020
5882 Clouds 32 1003 50 0 0.17 201 16:36 25.03.2020
5883 Clouds 26 1009 78 7000 3.1 310 16:18 25.03.2020
5884 Clouds 26 1009 78 7000 3.1 310 15:41 25.03.2020
5885 Clouds 26 1009 78 7000 3.1 310 15:20 25.03.2020
5886 Rain 25 1009 88 7000 3.1 50 14:56 25.03.2020
5887 Clouds 32 1003 50 0 0.17 201 14:37 25.03.2020
5888 Clouds 25 1012 83 7000 3.1 90 14:18 25.03.2020
5889 Clouds 25 1012 83 7000 3.1 90 13:42 25.03.2020
5890 Clouds 25 1012 83 7000 3.1 90 13:22 25.03.2020
5891 Clouds 35 1006 35 0 0.9 126 12:38 25.03.2020
5892 Clouds 23 1012 94 7000 2.1 90 12:20 25.03.2020
5893 Clouds 23 1012 94 7000 2.1 90 11:56 25.03.2020
5894 Clouds 23 1012 94 7000 2.1 90 11:38 25.03.2020
5895 Clouds 23 1012 94 7000 2.1 90 11:20 25.03.2020
5896 Rain 22 1012 100 7000 2.1 80 10:57 25.03.2020
5897 Clouds 29 1009 53 0 1.48 179 10:39 25.03.2020
5898 Clouds 22 1012 100 7000 2.1 120 10:18 25.03.2020
5899 Clouds 22 1012 100 7000 2.1 120 09:43 25.03.2020
5900 Clouds 22 1012 100 7000 2.1 120 09:24 25.03.2020
5901 Clouds 23 1012 94 7000 1.48 179 08:57 25.03.2020
5902 Clouds 23 1012 94 7000 1.48 179 08:39 25.03.2020
5903 Clouds 21 1011 100 7000 1.88 199 08:19 25.03.2020
5904 Clouds 21 1011 100 7000 1.32 206 07:41 25.03.2020
5905 Clouds 21 1011 100 7000 1.32 206 07:22 25.03.2020
5906 Rain 22 1010 83 0 1.32 206 06:50 25.03.2020
5907 Rain 22 1010 83 0 1.32 206 06:28 25.03.2020
5908 Rain 22 1010 83 0 1.32 206 05:57 25.03.2020
5909 Rain 22 1010 83 0 1.32 206 05:37 25.03.2020
5910 Rain 21 1008 86 0 1.93 155 04:40 25.03.2020
5911 Rain 21 1008 86 0 1.93 155 03:49 25.03.2020
5912 Rain 21 1008 86 0 1.93 155 03:29 25.03.2020
5913 Rain 21 1009 86 0 1.08 171 01:25 25.03.2020
5914 Rain 22 1008 86 0 0.46 235 00:49 25.03.2020
5915 Rain 22 1008 86 0 0.46 235 00:25 25.03.2020
5916 Rain 22 1008 86 0 0.46 235 23:50 24.03.2020
5917 Rain 22 1008 86 0 0.46 235 23:28 24.03.2020
5918 Rain 22 1010 85 0 1.14 37 22:57 24.03.2020
5919 Rain 22 1010 85 0 1.14 37 22:38 24.03.2020
5920 Rain 22 1010 85 0 1.14 37 22:19 24.03.2020
5921 Rain 22 1010 85 0 1.14 37 22:19 24.03.2020
5922 Rain 22 1010 85 0 1.14 37 21:57 24.03.2020
5923 Rain 22 1010 85 0 1.14 37 21:38 24.03.2020
5924 Rain 22 1010 85 0 1.14 37 21:18 24.03.2020
5925 Rain 22 1010 85 0 1.14 37 21:18 24.03.2020
5926 Rain 22 1010 85 0 1.14 37 20:57 24.03.2020
5927 Rain 22 1010 85 0 1.14 37 20:39 24.03.2020
5928 Rain 28 1008 78 6000 1.14 37 20:21 24.03.2020
5929 Rain 28 1008 78 6000 1.58 268 19:45 24.03.2020
5930 Rain 28 1008 78 6000 1.58 268 19:19 24.03.2020
5931 Rain 25 1006 75 0 1.58 268 18:56 24.03.2020
5932 Rain 25 1006 75 0 1.58 268 18:37 24.03.2020
5933 Rain 25 1006 75 0 1.58 268 18:37 24.03.2020
5934 Clouds 32 1006 62 6000 1.58 268 18:19 24.03.2020
5935 Clouds 32 1006 62 6000 1.58 268 17:43 24.03.2020
5936 Clouds 32 1006 62 6000 1.58 268 17:24 24.03.2020
5937 Clouds 32 1004 53 0 2 243 16:59 24.03.2020
5938 Clouds 32 1004 53 0 2 243 16:41 24.03.2020
5939 Clouds 34 1006 49 9000 3.1 260 16:23 24.03.2020
5940 Clouds 34 1006 49 9000 3.1 260 15:59 24.03.2020
5941 Clouds 34 1006 49 9000 3.1 260 15:40 24.03.2020
5942 Clouds 34 1006 49 9000 3.1 260 15:22 24.03.2020
5943 Clouds 34 1007 52 9000 1.5 0 14:43 24.03.2020
5944 Clouds 34 1007 52 9000 1.5 0 14:43 24.03.2020
5945 Clouds 34 1007 52 9000 1.5 0 14:43 24.03.2020
5946 Clouds 34 1007 52 9000 1.5 0 14:22 24.03.2020
5947 Rain 33 1007 43 0 2.34 216 13:56 24.03.2020
5948 Rain 33 1007 43 0 2.34 216 13:38 24.03.2020
5949 Rain 31 1007 50 0 3.16 217 13:20 24.03.2020
5950 Rain 31 1007 50 0 3.16 217 12:42 24.03.2020
5951 Rain 31 1007 50 0 3.16 217 12:23 24.03.2020
5952 Rain 31 1007 50 0 3.16 217 11:41 24.03.2020
5953 Clouds 30 1013 70 10000 3.1 160 11:21 24.03.2020
5954 Clouds 30 1013 70 10000 3.1 160 10:59 24.03.2020
5955 Rain 27 1011 72 0 1.52 329 10:40 24.03.2020
5956 Rain 27 1011 72 0 1.52 329 10:40 24.03.2020
5957 Clouds 30 1013 70 10000 3.1 180 10:18 24.03.2020
5958 Rain 27 1011 72 0 1.52 329 09:44 24.03.2020
5959 Rain 29 1012 70 10000 1.52 329 09:25 24.03.2020
5960 Rain 29 1012 70 10000 1.52 329 08:57 24.03.2020
5961 Rain 29 1012 70 10000 1.52 329 08:37 24.03.2020
5962 Rain 29 1012 70 10000 0.42 109 08:18 24.03.2020
5963 Rain 25 1012 83 10000 0.42 109 07:44 24.03.2020
5964 Rain 25 1012 83 10000 0.42 109 07:22 24.03.2020
5965 Clouds 22 1011 94 6000 2.1 30 06:38 24.03.2020
5966 Clouds 23 1011 88 7000 1.5 0 05:42 24.03.2020
5967 Rain 20 1009 97 0 1.1 338 04:51 24.03.2020
5968 Rain 20 1009 97 0 1.1 338 03:21 24.03.2020
5969 Rain 20 1009 97 0 1.1 338 02:41 24.03.2020
5970 Clouds 23 1009 75 0 1.01 180 00:54 24.03.2020
5971 Clouds 23 1009 75 0 1.01 180 00:27 24.03.2020
5972 Clouds 23 1009 75 0 1.01 180 23:56 23.03.2020
5973 Clouds 23 1009 75 0 1.01 180 23:37 23.03.2020
5974 Clear 24 1010 73 0 1.09 194 23:19 23.03.2020
5975 Clear 24 1010 73 0 1.09 194 22:44 23.03.2020
5976 Clouds 25 1011 83 7000 2.1 120 22:22 23.03.2020
5977 Clouds 25 1011 83 7000 2.1 120 21:55 23.03.2020
5978 Clear 24 1010 73 0 1.09 194 21:37 23.03.2020
5979 Clear 24 1010 73 0 1.09 194 21:18 23.03.2020
5980 Clear 24 1010 73 0 1.09 194 20:42 23.03.2020
5981 Clouds 30 1009 62 7000 3.1 180 20:24 23.03.2020
5982 Clouds 30 1009 62 7000 3.1 180 19:56 23.03.2020
5983 Clouds 26 1007 72 0 1.12 181 19:37 23.03.2020
5984 Clouds 30 1009 62 10000 1.12 181 19:19 23.03.2020
5985 Clouds 30 1009 62 10000 1.12 181 18:44 23.03.2020
5986 Clouds 30 1009 62 10000 1.12 181 18:25 23.03.2020
5987 Clouds 33 1008 52 10000 1.12 181 17:59 23.03.2020
5988 Clouds 33 1008 52 10000 1.12 181 17:41 23.03.2020
5989 Clouds 33 1008 52 10000 1.28 171 17:19 23.03.2020
5990 Clouds 33 1008 52 10000 2.1 300 16:44 23.03.2020
5991 Clouds 32 1005 52 0 1.28 171 16:25 23.03.2020
5992 Clouds 32 1005 52 0 1.28 171 15:58 23.03.2020
5993 Clouds 32 1005 52 0 1.28 171 15:39 23.03.2020
5994 Clouds 32 1005 52 0 1.28 171 15:18 23.03.2020
5995 Clouds 32 1005 52 0 1.28 171 14:37 23.03.2020
5996 Clouds 32 1005 52 0 1.28 171 14:37 23.03.2020
5997 Clear 35 1007 37 0 1.57 146 14:19 23.03.2020
5998 Clear 35 1007 37 0 1.57 146 13:57 23.03.2020
5999 Clear 35 1007 37 0 1.57 146 13:38 23.03.2020
6000 Clear 35 1008 37 0 1.55 148 13:20 23.03.2020
6001 Clear 35 1008 37 0 1.55 148 12:43 23.03.2020
6002 Clear 35 1008 37 0 1.55 148 12:23 23.03.2020
6003 Clear 35 1008 37 0 1.55 148 11:56 23.03.2020
6004 Clear 35 1008 37 0 1.55 148 11:37 23.03.2020
6005 Clouds 29 1014 74 10000 2.1 180 11:19 23.03.2020
6006 Clouds 31 1012 50 0 1.74 168 10:56 23.03.2020
6007 Clouds 31 1012 50 0 1.74 168 10:36 23.03.2020
6008 Clouds 29 1014 70 10000 2.1 180 10:18 23.03.2020
6009 Clouds 29 1014 70 10000 2.1 180 09:42 23.03.2020
6010 Clouds 29 1014 70 10000 2.1 180 09:20 23.03.2020
6011 Clouds 31 1012 50 0 1.74 168 08:38 23.03.2020
6012 Clouds 24 1014 88 9000 0.87 151 08:20 23.03.2020
6013 Clouds 24 1014 88 9000 0.87 151 07:54 23.03.2020
6014 Clouds 24 1013 83 0 0.87 151 07:34 23.03.2020
6015 Clouds 24 1013 83 0 0.87 151 06:58 23.03.2020
6016 Clouds 24 1013 83 0 0.87 151 06:40 23.03.2020
6017 Clouds 24 1013 83 0 0.87 151 05:44 23.03.2020
6018 Clouds 21 1011 99 0 0.24 151 04:41 23.03.2020
6019 Clouds 21 1011 99 0 0.24 151 02:59 23.03.2020
6020 Clouds 22 1011 97 0 0.44 127 01:50 23.03.2020
6021 Clouds 21 1011 97 0 0.56 110 00:50 23.03.2020
6022 Clouds 21 1011 97 0 0.56 110 00:31 23.03.2020
6023 Clouds 21 1011 97 0 0.56 110 23:45 22.03.2020
6024 Clouds 21 1011 97 0 0.56 110 23:25 22.03.2020
6025 Clouds 23 1012 88 0 0.43 112 22:44 22.03.2020
6026 Clouds 23 1012 88 0 0.43 112 22:22 22.03.2020
6027 Clouds 23 1012 88 0 0.43 112 21:55 22.03.2020
6028 Clouds 23 1012 88 0 0.43 112 21:36 22.03.2020
6029 Clouds 23 1012 88 0 0.43 112 21:18 22.03.2020
6030 Clouds 23 1012 88 0 0.43 112 20:45 22.03.2020
6031 Clouds 23 1012 88 0 0.43 112 20:24 22.03.2020
6032 Clouds 23 1011 85 0 0.68 263 19:57 22.03.2020
6033 Clouds 23 1011 85 0 0.68 263 19:39 22.03.2020
6034 Clouds 23 1011 85 0 0.68 263 19:20 22.03.2020
6035 Clouds 23 1011 85 0 0.68 263 18:58 22.03.2020
6036 Clouds 23 1011 85 0 0.68 263 18:40 22.03.2020
6037 Clouds 28 1011 74 8000 2.1 180 18:21 22.03.2020
6038 Clouds 23 1011 85 0 0.68 263 17:57 22.03.2020
6039 Clouds 23 1011 85 0 0.68 263 17:38 22.03.2020
6040 Clouds 28 1009 63 0 1.43 233 17:20 22.03.2020
6041 Clouds 28 1009 63 0 1.43 233 16:57 22.03.2020
6042 Clouds 28 1009 63 0 1.43 233 16:39 22.03.2020
6043 Clouds 28 1009 63 0 1.43 233 16:21 22.03.2020
6044 Clouds 28 1009 63 0 1.43 233 16:21 22.03.2020
6045 Clouds 28 1009 63 0 1.43 233 16:21 22.03.2020
6046 Clouds 28 1009 63 0 1.43 233 15:40 22.03.2020
6047 Clouds 28 1009 63 0 1.43 233 15:21 22.03.2020
6048 Clouds 28 1009 63 0 1.43 233 14:46 22.03.2020
6049 Clouds 27 1010 67 0 1.82 297 14:19 22.03.2020
6050 Clouds 27 1010 67 0 1.82 297 13:44 22.03.2020
6051 Clouds 29 1014 70 10000 2.1 240 13:21 22.03.2020
6052 Clouds 29 1014 70 10000 2.1 240 12:59 22.03.2020
6053 Clouds 29 1014 70 10000 2.1 240 12:41 22.03.2020
6054 Clouds 29 1015 70 10000 3.1 180 12:19 22.03.2020
6055 Clouds 29 1015 70 10000 3.1 180 11:43 22.03.2020
6056 Clouds 29 1015 70 10000 3.1 180 11:25 22.03.2020
6057 Clouds 27 1015 65 0 2.24 214 10:58 22.03.2020
6058 Clouds 27 1015 65 0 2.24 214 10:40 22.03.2020
6059 Clouds 27 1015 65 0 2.24 214 10:22 22.03.2020
6060 Clouds 27 1015 65 0 2.24 214 10:22 22.03.2020
6061 Clouds 27 1015 65 0 2.24 214 09:47 22.03.2020
6062 Clouds 23 1015 94 7000 3.1 60 09:28 22.03.2020
6063 Clouds 23 1015 94 7000 3.1 60 08:51 22.03.2020
6064 Clouds 23 1015 94 7000 3.1 60 08:32 22.03.2020
6065 Clouds 23 1015 94 7000 3.1 60 08:32 22.03.2020
6066 Rain 21 1014 98 0 1.78 182 07:56 22.03.2020
6067 Rain 21 1014 98 0 1.78 182 07:38 22.03.2020
6068 Rain 22 1013 100 4000 3.1 50 06:48 22.03.2020
6069 Rain 21 1014 98 0 1.78 182 05:52 22.03.2020
6070 Rain 20 1011 99 0 1.15 249 04:39 22.03.2020
6071 Rain 20 1012 99 0 1.53 338 01:49 22.03.2020
6072 Rain 21 1012 99 0 1.61 305 00:50 22.03.2020
6073 Rain 21 1012 99 0 1.61 305 00:31 22.03.2020
6074 Rain 21 1012 99 0 1.61 305 23:46 21.03.2020
6075 Rain 21 1012 99 0 1.61 305 23:23 21.03.2020
6076 Rain 21 1014 98 0 1.47 252 22:59 21.03.2020
6077 Rain 21 1014 98 0 1.47 252 22:38 21.03.2020
6078 Rain 21 1014 98 0 1.47 252 22:20 21.03.2020
6079 Rain 21 1014 98 0 1.47 252 21:58 21.03.2020
6080 Rain 21 1014 98 0 1.47 252 21:38 21.03.2020
6081 Rain 21 1014 98 0 1.47 252 21:20 21.03.2020
6082 Rain 21 1014 98 0 1.47 252 20:43 21.03.2020
6083 Rain 21 1013 99 0 1.65 279 20:22 21.03.2020
6084 Rain 21 1011 98 0 1.48 279 19:55 21.03.2020
6085 Rain 21 1011 98 0 1.48 279 19:37 21.03.2020
6086 Rain 21 1011 98 0 1.48 279 19:18 21.03.2020
6087 Rain 21 1011 98 0 1.48 279 18:41 21.03.2020
6088 Thunderstorm 22 1012 100 4000 3.1 250 18:21 21.03.2020
6089 Thunderstorm 22 1012 100 4000 3.1 250 17:59 21.03.2020
6090 Thunderstorm 22 1012 100 4000 3.1 250 17:41 21.03.2020
6091 Thunderstorm 22 1012 100 4000 3.1 250 17:22 21.03.2020
6092 Clouds 24 1008 76 0 2.53 279 16:43 21.03.2020
6093 Clouds 24 1008 76 0 2.53 279 16:24 21.03.2020
6094 Clouds 24 1008 76 0 2.53 279 16:24 21.03.2020
6095 Clouds 24 1008 76 0 2.53 279 15:59 21.03.2020
6096 Clouds 24 1008 76 0 2.53 279 15:40 21.03.2020
6097 Clouds 24 1008 76 0 2.53 279 15:22 21.03.2020
6098 Clouds 24 1008 76 0 2.53 279 14:57 21.03.2020
6099 Clouds 24 1008 76 0 2.53 279 14:38 21.03.2020
6100 Clouds 24 1008 76 0 2.53 279 14:38 21.03.2020
6101 Rain 25 1008 78 0 2.84 242 14:20 21.03.2020
6102 Rain 25 1008 78 0 2.84 242 13:58 21.03.2020
6103 Rain 25 1008 78 0 2.84 242 13:39 21.03.2020
6104 Clouds 28 1008 62 0 2.92 256 13:21 21.03.2020
6105 Clouds 28 1008 62 0 2.92 256 12:57 21.03.2020
6106 Clouds 28 1008 62 0 2.92 256 12:37 21.03.2020
6107 Clouds 28 1008 62 0 2.92 256 12:19 21.03.2020
6108 Clouds 28 1008 62 0 2.92 256 11:55 21.03.2020
6109 Clouds 28 1008 62 0 2.92 256 11:37 21.03.2020
6110 Rain 25 1012 86 0 2.09 226 11:18 21.03.2020
6111 Rain 25 1012 86 0 2.09 226 10:56 21.03.2020
6112 Rain 25 1012 86 0 2.09 226 10:38 21.03.2020
6113 Rain 25 1012 86 0 2.09 226 10:18 21.03.2020
6114 Rain 25 1012 86 0 2.09 226 09:40 21.03.2020
6115 Rain 25 1012 86 0 2.09 226 09:21 21.03.2020
6116 Rain 25 1012 86 0 2.09 226 08:58 21.03.2020
6117 Rain 25 1012 86 0 2.09 226 08:39 21.03.2020
6118 Rain 23 1012 96 0 1.74 248 08:21 21.03.2020
6119 Rain 22 1012 99 0 1.28 294 07:39 21.03.2020
6120 Rain 22 1012 99 0 1.28 294 07:20 21.03.2020
6121 Rain 22 1012 99 0 1.28 294 06:45 21.03.2020
6122 Rain 22 1012 99 0 1.28 294 06:26 21.03.2020
6123 Rain 22 1012 99 0 1.28 294 05:41 21.03.2020
6124 Rain 22 1010 99 0 0.84 37 04:34 21.03.2020
6125 Rain 22 1010 99 0 0.84 37 02:39 21.03.2020
6126 Rain 22 1009 98 0 0.92 80 01:54 21.03.2020
6127 Rain 22 1009 98 0 1.37 13 01:28 21.03.2020
6128 Rain 22 1009 98 0 1.37 13 00:43 21.03.2020
6129 Rain 22 1009 98 0 1.37 13 00:24 21.03.2020
6130 Rain 22 1009 98 0 1.37 13 23:46 20.03.2020
6131 Rain 22 1009 98 0 1.37 13 23:24 20.03.2020
6132 Rain 25 1009 77 0 1.21 182 22:44 20.03.2020
6133 Rain 25 1009 77 0 1.21 182 22:25 20.03.2020
6134 Rain 25 1009 77 0 1.21 182 21:59 20.03.2020
6135 Rain 25 1009 77 0 1.21 182 21:41 20.03.2020
6136 Rain 25 1009 77 0 1.21 182 21:20 20.03.2020
6137 Rain 25 1009 77 0 1.21 182 20:59 20.03.2020
6138 Rain 25 1009 77 0 1.21 182 20:41 20.03.2020
6139 Rain 23 1008 94 0 1.45 153 20:21 20.03.2020
6140 Rain 24 1006 86 0 0.73 214 19:58 20.03.2020
6141 Rain 24 1006 86 0 0.73 214 19:39 20.03.2020
6142 Rain 24 1006 86 0 0.73 214 19:18 20.03.2020
6143 Rain 24 1006 86 0 0.73 214 18:39 20.03.2020
6144 Rain 24 1006 86 0 0.73 214 18:39 20.03.2020
6145 Rain 24 1006 86 0 0.73 214 18:20 20.03.2020
6146 Rain 24 1006 86 0 0.73 214 17:57 20.03.2020
6147 Rain 24 1006 86 0 0.73 214 17:39 20.03.2020
6148 Clouds 33 1003 46 0 1.27 158 17:20 20.03.2020
6149 Clouds 33 1003 46 0 1.27 158 16:43 20.03.2020
6150 Clouds 33 1003 46 0 1.27 158 16:21 20.03.2020
6151 Clouds 33 1003 46 0 1.27 158 15:59 20.03.2020
6152 Clouds 33 1003 46 0 1.27 158 15:41 20.03.2020
6153 Clouds 33 1003 46 0 1.27 158 15:20 20.03.2020
6154 Clouds 33 1003 46 0 1.27 158 14:42 20.03.2020
6155 Clouds 33 1003 46 0 1.27 158 14:21 20.03.2020
6156 Clouds 37 1007 33 0 1.23 116 13:55 20.03.2020
6157 Clouds 37 1007 33 0 1.23 116 13:36 20.03.2020
6158 Clouds 37 1007 33 0 1.39 119 13:18 20.03.2020
6159 Clouds 37 1007 33 0 1.39 119 12:39 20.03.2020
6160 Clouds 37 1007 33 0 1.39 119 12:20 20.03.2020
6161 Clouds 37 1007 33 0 1.39 119 11:42 20.03.2020
6162 Clouds 37 1007 33 0 1.39 119 11:22 20.03.2020
6163 Clouds 32 1011 47 0 1.96 153 10:59 20.03.2020
6164 Clouds 32 1011 47 0 1.96 153 10:41 20.03.2020
6165 Clouds 32 1011 47 0 1.96 153 10:20 20.03.2020
6166 Clouds 32 1011 47 0 1.96 153 09:47 20.03.2020
6167 Clouds 32 1011 47 0 1.96 153 09:22 20.03.2020
6168 Clouds 32 1011 47 0 1.96 153 08:59 20.03.2020
6169 Clouds 32 1011 47 0 1.96 153 08:40 20.03.2020
6170 Clouds 23 1011 91 0 0.78 112 08:20 20.03.2020
6171 Clouds 23 1011 91 0 0.78 112 07:46 20.03.2020
6172 Clouds 23 1011 91 0 0.78 112 07:26 20.03.2020
6173 Clouds 23 1011 91 0 0.78 112 06:49 20.03.2020
6174 Clouds 23 1011 91 0 0.78 112 06:31 20.03.2020
6175 Clouds 21 1009 98 0 0.79 122 04:49 20.03.2020
6176 Clouds 21 1009 98 0 0.79 122 03:20 20.03.2020
6177 Rain 21 1009 97 0 0.94 94 01:51 20.03.2020
6178 Rain 21 1010 99 0 0.68 107 00:46 20.03.2020
6179 Rain 21 1010 99 0 0.68 107 00:26 20.03.2020
6180 Rain 21 1010 99 0 0.68 107 23:45 19.03.2020
6181 Rain 21 1010 99 0 0.68 107 23:26 19.03.2020
6182 Rain 21 1010 99 0 0.68 107 23:26 19.03.2020
6183 Rain 22 1011 93 0 1.47 150 22:56 19.03.2020
6184 Rain 22 1011 93 0 1.47 150 22:38 19.03.2020
6185 Rain 22 1011 93 0 1.47 150 22:38 19.03.2020
6186 Rain 22 1011 93 0 1.47 150 22:18 19.03.2020
6187 Rain 22 1011 93 0 1.47 150 21:41 19.03.2020
6188 Rain 22 1011 93 0 1.47 150 21:20 19.03.2020
6189 Rain 22 1011 93 0 1.47 150 20:58 19.03.2020
6190 Rain 22 1011 93 0 1.47 150 20:39 19.03.2020
6191 Clouds 24 1009 75 0 1.35 177 20:20 19.03.2020
6192 Rain 25 1008 78 0 0.94 215 19:55 19.03.2020
6193 Rain 25 1008 78 0 0.94 215 19:37 19.03.2020
6194 Rain 25 1008 78 0 0.94 215 19:18 19.03.2020
6195 Rain 25 1008 78 0 0.94 215 18:42 19.03.2020
6196 Rain 25 1008 78 0 0.94 215 18:22 19.03.2020
6197 Rain 25 1008 78 0 0.94 215 17:58 19.03.2020
6198 Rain 25 1008 78 0 0.94 215 17:39 19.03.2020
6199 Clouds 32 1005 50 0 1.05 192 17:19 19.03.2020
6200 Clouds 32 1005 50 0 1.05 192 16:43 19.03.2020
6201 Clouds 32 1005 50 0 1.05 192 16:23 19.03.2020
6202 Clouds 32 1005 50 0 1.05 192 15:45 19.03.2020
6203 Clouds 32 1005 50 0 1.05 192 15:27 19.03.2020
6204 Clouds 32 1005 50 0 1.05 192 14:55 19.03.2020
6205 Clouds 32 1005 50 0 1.05 192 14:37 19.03.2020
6206 Clouds 36 1008 36 0 1.36 93 14:19 19.03.2020
6207 Clouds 36 1008 36 0 1.36 93 14:19 19.03.2020
6208 Clouds 36 1008 36 0 1.36 93 13:40 19.03.2020
6209 Clouds 36 1008 36 0 1.36 93 13:19 19.03.2020
6210 Clouds 36 1008 36 0 1.02 110 12:55 19.03.2020
6211 Clouds 36 1008 36 0 1.02 110 12:37 19.03.2020
6212 Clouds 36 1008 36 0 1.02 110 12:18 19.03.2020
6213 Clouds 36 1008 36 0 1.02 110 11:41 19.03.2020
6214 Clouds 36 1008 36 0 1.02 110 11:23 19.03.2020
6215 Clouds 31 1012 52 0 1.64 156 10:56 19.03.2020
6216 Clouds 31 1012 52 0 1.64 156 10:36 19.03.2020
6217 Clouds 31 1012 52 0 1.64 156 10:18 19.03.2020
6218 Clouds 31 1012 52 0 1.64 156 09:43 19.03.2020
6219 Clouds 31 1012 52 0 1.64 156 09:25 19.03.2020
6220 Clouds 31 1012 52 0 1.64 156 08:48 19.03.2020
6221 Clouds 31 1012 52 0 1.1 147 08:23 19.03.2020
6222 Clouds 22 1012 92 0 0.61 130 07:57 19.03.2020
6223 Clouds 22 1012 92 0 0.61 130 07:38 19.03.2020
6224 Clouds 22 1012 92 0 0.61 130 07:18 19.03.2020
6225 Clouds 22 1012 92 0 0.61 130 06:27 19.03.2020
6226 Clouds 22 1012 92 0 0.61 130 05:25 19.03.2020
6227 Clouds 21 1010 95 0 0.44 232 04:47 19.03.2020
6228 Clouds 21 1010 95 0 0.44 232 03:55 19.03.2020
6229 Clouds 21 1010 96 0 0.78 182 01:46 19.03.2020
6230 Clouds 21 1010 95 0 1.02 177 00:42 19.03.2020
6231 Clouds 21 1010 95 0 1.02 177 00:19 19.03.2020
6232 Clouds 21 1010 95 0 1.02 177 23:42 18.03.2020
6233 Clouds 21 1010 95 0 1.02 177 23:22 18.03.2020
6234 Clouds 22 1011 94 0 1.21 179 22:43 18.03.2020
6235 Clouds 22 1011 94 0 1.21 179 22:23 18.03.2020
6236 Clouds 22 1011 94 0 1.21 179 21:57 18.03.2020
6237 Clouds 22 1011 94 0 1.21 179 21:39 18.03.2020
6238 Clouds 22 1011 94 0 1.21 179 21:20 18.03.2020
6239 Clouds 22 1011 94 0 1.21 179 20:55 18.03.2020
6240 Clouds 22 1011 94 0 1.21 179 20:37 18.03.2020
6241 Clouds 24 1010 83 0 1.66 164 20:19 18.03.2020
6242 Clouds 24 1010 83 0 1.66 164 19:41 18.03.2020
6243 Clouds 24 1010 83 0 1.66 164 19:21 18.03.2020
6244 Clouds 24 1010 83 0 1.66 164 19:21 18.03.2020
6245 Clouds 24 1010 83 0 1.66 164 18:58 18.03.2020
6246 Clouds 24 1010 83 0 1.66 164 18:58 18.03.2020
6247 Clouds 24 1010 83 0 1.66 164 18:39 18.03.2020
6248 Clouds 24 1010 83 0 1.66 164 18:19 18.03.2020
6249 Clouds 24 1010 83 0 1.66 164 17:55 18.03.2020
6250 Clouds 24 1010 83 0 1.66 164 17:37 18.03.2020
6251 Clouds 30 1007 56 0 1.81 133 17:19 18.03.2020
6252 Clouds 30 1007 56 0 1.81 133 16:42 18.03.2020
6253 Clouds 30 1007 56 0 1.81 133 16:20 18.03.2020
6254 Clouds 30 1007 56 0 1.81 133 15:57 18.03.2020
6255 Clouds 30 1007 56 0 1.81 133 15:38 18.03.2020
6256 Clouds 30 1007 56 0 1.81 133 15:20 18.03.2020
6257 Clouds 30 1007 56 0 1.81 133 14:42 18.03.2020
6258 Clouds 30 1007 56 0 1.81 133 14:21 18.03.2020
6259 Clouds 32 1009 49 0 1.93 149 13:42 18.03.2020
6260 Clouds 32 1009 49 0 1.93 149 13:19 18.03.2020
6261 Clouds 32 1008 48 0 1.86 136 12:55 18.03.2020
6262 Clouds 32 1008 48 0 1.86 136 12:37 18.03.2020
6263 Clouds 32 1008 48 0 1.86 136 12:18 18.03.2020
6264 Clouds 32 1008 48 0 1.86 136 11:38 18.03.2020
6265 Clouds 29 1012 60 0 2.41 158 11:19 18.03.2020
6266 Clouds 29 1012 60 0 2.41 158 10:57 18.03.2020
6267 Clouds 29 1012 60 0 2.41 158 10:37 18.03.2020
6268 Clouds 29 1012 60 0 2.41 158 10:19 18.03.2020
6269 Clouds 29 1012 60 0 2.41 158 09:42 18.03.2020
6270 Clouds 29 1012 60 0 2.41 158 09:23 18.03.2020
6271 Clouds 29 1012 60 0 2.41 158 08:55 18.03.2020
6272 Clouds 29 1012 60 0 2.41 158 08:37 18.03.2020
6273 Clouds 23 1012 93 0 1.47 160 08:19 18.03.2020
6274 Clouds 23 1012 93 0 1.47 160 07:41 18.03.2020
6275 Clouds 23 1012 93 0 1.47 160 07:23 18.03.2020
6276 Clouds 23 1012 93 0 1.47 160 06:43 18.03.2020
6277 Clouds 23 1012 93 0 1.47 160 05:53 18.03.2020
6278 Clouds 21 1009 97 0 2 142 05:20 18.03.2020
6279 Clouds 21 1009 97 0 2 142 03:56 18.03.2020
6280 Clouds 21 1009 97 0 2 142 02:40 18.03.2020
6281 Rain 20 1010 98 0 1.11 198 01:46 18.03.2020
6282 Rain 22 1010 99 0 1.53 205 01:21 18.03.2020
6283 Rain 22 1010 99 0 1.53 205 00:23 18.03.2020
6284 Clouds 21 1009 99 0 1 172 23:47 17.03.2020
6285 Clouds 21 1009 99 0 1 172 23:26 17.03.2020
6286 Clouds 22 1012 98 0 1.29 175 22:47 17.03.2020
6287 Clouds 22 1012 98 0 1.29 175 22:29 17.03.2020
6288 Clouds 22 1012 98 0 1.29 175 21:59 17.03.2020
6289 Clouds 22 1012 98 0 1.29 175 21:37 17.03.2020
6290 Clouds 22 1010 97 0 1.75 168 21:19 17.03.2020
6291 Clouds 22 1010 97 0 1.75 168 20:38 17.03.2020
6292 Rain 23 1010 97 0 1.42 178 20:20 17.03.2020
6293 Rain 23 1009 97 0 1.49 179 19:54 17.03.2020
6294 Rain 23 1009 97 0 1.49 179 19:36 17.03.2020
6295 Rain 23 1009 97 0 1.49 179 19:18 17.03.2020
6296 Rain 23 1009 97 0 1.49 179 18:54 17.03.2020
6297 Rain 23 1009 97 0 1.49 179 18:36 17.03.2020
6298 Rain 23 1009 97 0 1.49 179 18:36 17.03.2020
6299 Rain 23 1009 97 0 1.49 179 18:18 17.03.2020
6300 Rain 23 1009 97 0 1.49 179 18:18 17.03.2020
6301 Rain 23 1009 97 0 1.49 179 17:39 17.03.2020
6302 Rain 27 1007 92 0 1.33 189 17:20 17.03.2020
6303 Rain 27 1007 92 0 1.33 189 16:44 17.03.2020
6304 Rain 27 1007 92 0 1.33 189 16:20 17.03.2020
6305 Rain 27 1007 92 0 1.33 189 15:56 17.03.2020
6306 Rain 27 1007 92 0 1.33 189 15:38 17.03.2020
6307 Rain 27 1007 92 0 1.33 189 15:18 17.03.2020
6308 Rain 27 1007 92 0 1.33 189 14:41 17.03.2020
6309 Rain 29 1007 79 0 1.27 227 14:18 17.03.2020
6310 Rain 29 1007 79 0 1.27 227 13:41 17.03.2020
6311 Rain 30 1007 75 0 1.23 234 13:22 17.03.2020
6312 Rain 30 1007 75 0 1.23 234 12:48 17.03.2020
6313 Rain 30 1007 75 0 1.23 234 12:26 17.03.2020
6314 Clouds 33 1007 48 0 1.81 166 11:59 17.03.2020
6315 Clouds 33 1007 48 0 1.81 166 11:39 17.03.2020
6316 Clouds 33 1007 48 0 1.81 166 11:21 17.03.2020
6317 Clouds 29 1011 65 0 2.47 160 10:55 17.03.2020
6318 Clouds 30 1012 60 0 2.26 168 10:36 17.03.2020
6319 Clouds 30 1012 60 0 2.26 168 10:18 17.03.2020
6320 Clouds 30 1012 60 0 2.26 168 09:45 17.03.2020
6321 Clouds 30 1012 60 0 2.26 168 09:20 17.03.2020
6322 Clouds 30 1012 60 0 2.26 168 08:58 17.03.2020
6323 Clouds 30 1012 60 0 2.26 168 08:40 17.03.2020
6324 Rain 23 1011 96 0 1.65 160 08:18 17.03.2020
6325 Rain 23 1011 96 0 1.65 160 07:49 17.03.2020
6326 Rain 23 1011 96 0 1.65 160 07:20 17.03.2020
6327 Rain 23 1011 96 0 1.65 160 06:45 17.03.2020
6328 Rain 23 1011 96 0 1.65 160 06:25 17.03.2020
6329 Rain 22 1009 99 0 1.73 146 05:20 17.03.2020
6330 Rain 22 1009 99 0 1.73 146 03:31 17.03.2020
6331 Rain 22 1008 92 0 1.63 80 01:50 17.03.2020
6332 Rain 22 1008 92 0 1.63 80 01:31 17.03.2020
6333 Rain 21 1008 97 0 0.46 188 00:52 17.03.2020
6334 Rain 21 1008 97 0 0.46 188 23:53 16.03.2020
6335 Rain 21 1008 97 0 0.46 188 23:34 16.03.2020
6336 Clouds 23 1009 89 0 1.01 177 22:55 16.03.2020
6337 Clouds 23 1009 89 0 1.01 177 22:37 16.03.2020
6338 Clouds 23 1009 89 0 1.01 177 22:19 16.03.2020
6339 Clouds 23 1009 89 0 1.01 177 21:44 16.03.2020
6340 Clouds 23 1009 89 0 1.01 177 21:25 16.03.2020
6341 Clouds 23 1009 89 0 1.01 177 20:58 16.03.2020
6342 Clouds 23 1009 89 0 1.01 177 20:38 16.03.2020
6343 Clouds 23 1009 89 0 1.01 177 20:38 16.03.2020
6344 Rain 23 1006 91 0 1.46 205 20:20 16.03.2020
6345 Clouds 27 1005 57 0 1.05 185 19:44 16.03.2020
6346 Clouds 27 1005 57 0 1.05 185 19:23 16.03.2020
6347 Clouds 27 1005 57 0 1.05 185 18:57 16.03.2020
6348 Clouds 27 1005 57 0 1.05 185 18:38 16.03.2020
6349 Clouds 27 1005 57 0 1.05 185 18:18 16.03.2020
6350 Clouds 27 1005 57 0 1.05 185 17:45 16.03.2020
6351 Clouds 27 1005 57 0 1.05 185 17:24 16.03.2020
6352 Clouds 34 1003 42 0 0.57 328 16:49 16.03.2020
6353 Clouds 34 1003 42 0 0.57 328 16:31 16.03.2020
6354 Clouds 34 1003 42 0 0.57 328 15:58 16.03.2020
6355 Clouds 34 1003 42 0 0.57 328 15:40 16.03.2020
6356 Clouds 34 1003 42 0 0.57 328 15:20 16.03.2020
6357 Clouds 34 1003 42 0 0.57 328 14:44 16.03.2020
6358 Clear 37 1004 31 0 1.47 52 14:20 16.03.2020
6359 Clear 37 1004 31 0 1.47 52 13:45 16.03.2020
6360 Clear 37 1004 31 0 1.47 52 13:26 16.03.2020
6361 Clear 37 1004 31 0 1.33 32 12:56 16.03.2020
6362 Clear 37 1004 31 0 1.33 32 12:37 16.03.2020
6363 Clear 37 1004 31 0 1.33 32 12:19 16.03.2020
6364 Clear 37 1004 31 0 1.33 32 11:42 16.03.2020
6365 Clouds 35 1009 42 0 0.75 153 11:20 16.03.2020
6366 Clouds 35 1009 42 0 0.75 153 10:43 16.03.2020
6367 Clouds 35 1009 42 0 0.75 153 10:24 16.03.2020
6368 Clouds 35 1009 42 0 0.75 153 09:47 16.03.2020
6369 Clouds 35 1009 42 0 0.75 153 09:28 16.03.2020
6370 Clouds 35 1009 42 0 0.75 153 08:59 16.03.2020
6371 Clouds 34 1010 44 0 1.03 158 08:27 16.03.2020
6372 Clouds 25 1010 79 0 0.84 104 07:56 16.03.2020
6373 Clouds 25 1010 79 0 0.84 104 07:38 16.03.2020
6374 Clouds 25 1010 79 0 0.84 104 07:18 16.03.2020
6375 Clouds 25 1010 79 0 0.84 104 06:27 16.03.2020
6376 Clouds 25 1010 79 0 0.84 104 05:54 16.03.2020
6377 Clouds 21 1008 96 0 0.88 162 03:36 16.03.2020
6378 Clouds 22 1008 91 0 0.83 147 01:29 16.03.2020
6379 Clouds 22 1008 92 0 0.91 157 00:43 16.03.2020
6380 Clouds 22 1008 92 0 0.91 157 23:56 15.03.2020
6381 Clouds 22 1008 92 0 0.91 157 23:37 15.03.2020
6382 Clouds 23 1010 86 0 0.93 207 23:18 15.03.2020
6383 Clouds 23 1010 86 0 0.93 207 22:41 15.03.2020
6384 Clouds 23 1010 86 0 0.93 207 22:20 15.03.2020
6385 Clouds 23 1010 86 0 0.93 207 21:39 15.03.2020
6386 Clouds 23 1010 86 0 0.93 207 21:20 15.03.2020
6387 Clouds 23 1010 86 0 0.93 207 20:44 15.03.2020
6388 Clouds 23 1009 87 0 0.93 204 20:22 15.03.2020
6389 Clouds 23 1008 88 0 0.39 329 19:59 15.03.2020
6390 Clouds 23 1008 88 0 0.39 329 19:59 15.03.2020
6391 Clouds 23 1008 88 0 0.39 329 19:41 15.03.2020
6392 Clouds 23 1008 88 0 0.39 329 19:23 15.03.2020
6393 Clouds 23 1008 88 0 0.39 329 18:59 15.03.2020
6394 Clouds 23 1008 88 0 0.39 329 18:39 15.03.2020
6395 Clouds 23 1008 88 0 0.39 329 18:21 15.03.2020
6396 Clouds 23 1008 88 0 0.39 329 17:54 15.03.2020
6397 Clouds 23 1008 88 0 0.39 329 17:36 15.03.2020
6398 Clouds 28 1006 66 0 0.76 11 17:18 15.03.2020
6399 Clouds 28 1006 66 0 0.76 11 16:42 15.03.2020
6400 Clouds 28 1006 66 0 0.76 11 16:24 15.03.2020
6401 Clouds 28 1006 66 0 0.76 11 15:57 15.03.2020
6402 Clouds 28 1006 66 0 0.76 11 15:38 15.03.2020
6403 Clouds 28 1006 66 0 0.76 11 15:19 15.03.2020
6404 Clouds 28 1006 66 0 0.76 11 14:46 15.03.2020
6405 Clouds 28 1006 66 0 0.76 11 14:24 15.03.2020
6406 Rain 23 1010 93 0 2.04 199 13:57 15.03.2020
6407 Rain 23 1010 93 0 2.04 199 13:38 15.03.2020
6408 Rain 23 1010 93 0 2.04 199 13:38 15.03.2020
6409 Rain 30 1009 61 0 1.48 194 13:19 15.03.2020
6410 Rain 30 1009 61 0 1.48 194 12:43 15.03.2020
6411 Rain 30 1009 61 0 1.48 194 12:25 15.03.2020
6412 Rain 30 1009 61 0 1.48 194 11:54 15.03.2020
6413 Rain 30 1009 61 0 1.48 194 11:36 15.03.2020
6414 Rain 23 1012 97 0 1.77 172 11:18 15.03.2020
6415 Rain 23 1012 97 0 1.77 172 10:55 15.03.2020
6416 Rain 23 1012 97 0 1.77 172 10:36 15.03.2020
6417 Rain 23 1012 97 0 1.77 172 10:18 15.03.2020
6418 Rain 23 1012 97 0 1.77 172 09:39 15.03.2020
6419 Rain 23 1012 97 0 1.77 172 09:20 15.03.2020
6420 Rain 23 1012 97 0 1.77 172 08:42 15.03.2020
6421 Rain 22 1012 99 0 2.73 107 08:20 15.03.2020
6422 Rain 22 1012 97 0 1.44 88 07:50 15.03.2020
6423 Rain 22 1012 97 0 1.44 88 07:23 15.03.2020
6424 Rain 22 1012 97 0 1.44 88 06:45 15.03.2020
6425 Rain 22 1012 97 0 1.44 88 05:50 15.03.2020
6426 Rain 21 1009 94 0 0.65 75 04:58 15.03.2020
6427 Rain 21 1009 94 0 0.65 75 04:40 15.03.2020
6428 Rain 21 1009 94 0 0.65 75 04:21 15.03.2020
6429 Rain 21 1009 94 0 0.65 75 03:25 15.03.2020
6430 Rain 21 1009 94 0 0.65 75 02:37 15.03.2020
6431 Clouds 25 1009 72 0 1.89 223 01:20 15.03.2020
6432 Clouds 24 1009 77 0 1.45 217 00:42 15.03.2020
6433 Clouds 24 1009 77 0 1.45 217 00:21 15.03.2020
6434 Clouds 24 1009 77 0 1.45 217 23:41 14.03.2020
6435 Clouds 24 1009 77 0 1.45 217 23:21 14.03.2020
6436 Clouds 26 1010 69 0 1.2 219 22:58 14.03.2020
6437 Clouds 26 1010 69 0 1.2 219 22:40 14.03.2020
6438 Clouds 26 1010 69 0 1.2 219 22:22 14.03.2020
6439 Clouds 26 1010 69 0 1.2 219 21:56 14.03.2020
6440 Clouds 26 1010 69 0 1.2 219 21:36 14.03.2020
6441 Clouds 26 1010 69 0 1.2 219 21:18 14.03.2020
6442 Clouds 26 1010 69 0 1.2 219 20:58 14.03.2020
6443 Clouds 26 1010 69 0 1.2 219 20:39 14.03.2020
6444 Clouds 27 1008 63 0 1.03 212 20:19 14.03.2020
6445 Clouds 27 1008 63 0 1.03 212 19:42 14.03.2020
6446 Clouds 27 1008 63 0 1.03 212 19:24 14.03.2020
6447 Clouds 27 1008 63 0 1.03 212 18:41 14.03.2020
6448 Clouds 27 1008 63 0 1.03 212 18:22 14.03.2020
6449 Clouds 27 1008 63 0 1.03 212 17:56 14.03.2020
6450 Clouds 27 1008 63 0 1.03 212 17:37 14.03.2020
6451 Clouds 31 1005 51 0 0.62 2 17:19 14.03.2020
6452 Clouds 31 1005 51 0 0.62 2 16:40 14.03.2020
6453 Clouds 31 1005 51 0 0.62 2 16:22 14.03.2020
6454 Clouds 31 1005 51 0 0.62 2 15:56 14.03.2020
6455 Clouds 31 1005 51 0 0.62 2 15:26 14.03.2020
6456 Clouds 31 1005 51 0 0.62 2 14:55 14.03.2020
6457 Clouds 31 1005 51 0 0.62 2 14:36 14.03.2020
6458 Clouds 35 1007 37 0 1.17 103 14:18 14.03.2020
6459 Clouds 35 1007 37 0 1.17 103 13:42 14.03.2020
6460 Clouds 35 1007 37 0 1.22 110 13:23 14.03.2020
6461 Clouds 35 1007 37 0 1.22 110 12:47 14.03.2020
6462 Clouds 35 1007 37 0 1.22 110 12:27 14.03.2020
6463 Clouds 35 1007 37 0 1.22 110 11:59 14.03.2020
6464 Clouds 35 1007 37 0 1.22 110 11:39 14.03.2020
6465 Clouds 32 1012 48 0 1.32 111 11:20 14.03.2020
6466 Clouds 32 1012 48 0 1.32 111 10:45 14.03.2020
6467 Clouds 32 1012 48 0 1.32 111 10:27 14.03.2020
6468 Clouds 32 1012 48 0 1.32 111 09:57 14.03.2020
6469 Clouds 32 1012 48 0 1.32 111 09:39 14.03.2020
6470 Clouds 32 1012 48 0 1.32 111 09:19 14.03.2020
6471 Clouds 32 1012 48 0 1.32 111 08:45 14.03.2020
6472 Clouds 29 1012 60 0 1.53 114 08:22 14.03.2020
6473 Clouds 23 1013 84 0 0.96 128 07:39 14.03.2020
6474 Clouds 23 1013 84 0 0.96 128 07:20 14.03.2020
6475 Clouds 23 1013 84 0 0.96 128 06:41 14.03.2020
6476 Clouds 23 1013 84 0 0.96 128 05:49 14.03.2020
6477 Clouds 21 1011 98 0 1 103 04:43 14.03.2020
6478 Clouds 21 1011 98 0 1 103 03:24 14.03.2020
6479 Clouds 21 1011 98 0 1 103 02:28 14.03.2020
6480 Clouds 21 1012 98 0 1.22 107 01:19 14.03.2020
6481 Clouds 20 1012 99 0 1.25 113 23:56 13.03.2020
6482 Clouds 20 1012 99 0 1.25 113 23:31 13.03.2020
6483 Clouds 21 1013 98 0 1.17 97 22:52 13.03.2020
6484 Clouds 21 1013 98 0 1.17 97 22:27 13.03.2020
6485 Clouds 21 1013 98 0 1.17 97 21:54 13.03.2020
6486 Clouds 21 1013 98 0 1.17 97 21:36 13.03.2020
6487 Clouds 21 1013 98 0 1.17 97 21:18 13.03.2020
6488 Clouds 21 1013 98 0 1.17 97 20:41 13.03.2020
6489 Clouds 20 1013 98 0 1.1 102 20:22 13.03.2020
6490 Clouds 21 1012 92 0 0.75 149 19:49 13.03.2020
6491 Clouds 21 1012 92 0 0.75 149 19:31 13.03.2020
6492 Clouds 21 1012 92 0 0.75 149 18:55 13.03.2020
6493 Clouds 21 1012 92 0 0.75 149 18:36 13.03.2020
6494 Clouds 21 1012 92 0 0.75 149 18:18 13.03.2020
6495 Clouds 21 1012 92 0 0.75 149 17:41 13.03.2020
6496 Clouds 21 1012 92 0 0.75 149 17:21 13.03.2020
6497 Clouds 24 1010 75 0 2.7 200 16:55 13.03.2020
6498 Clouds 24 1010 75 0 2.7 200 16:36 13.03.2020
6499 Clouds 24 1010 75 0 2.7 200 16:18 13.03.2020
6500 Clouds 24 1010 75 0 2.7 200 15:41 13.03.2020
6501 Clouds 24 1010 75 0 2.7 200 15:21 13.03.2020
6502 Clouds 24 1010 75 0 2.7 200 14:44 13.03.2020
6503 Clouds 24 1010 75 0 2.7 200 14:44 13.03.2020
6504 Clouds 24 1010 75 0 2.7 200 14:23 13.03.2020
6505 Rain 24 1012 83 0 1.85 203 13:58 13.03.2020
6506 Rain 24 1012 83 0 1.85 203 13:40 13.03.2020
6507 Rain 29 1011 61 0 3.35 189 13:20 13.03.2020
6508 Rain 29 1011 61 0 3.35 189 12:55 13.03.2020
6509 Rain 29 1011 61 0 3.35 189 12:55 13.03.2020
6510 Rain 29 1011 61 0 3.35 189 12:37 13.03.2020
6511 Rain 29 1011 61 0 3.35 189 12:19 13.03.2020
6512 Rain 29 1011 61 0 3.35 189 11:45 13.03.2020
6513 Rain 29 1011 61 0 3.35 189 11:26 13.03.2020
6514 Clouds 25 1015 76 0 1.95 204 10:58 13.03.2020
6515 Clouds 25 1015 76 0 1.95 204 10:39 13.03.2020
6516 Clouds 25 1015 76 0 1.95 204 10:21 13.03.2020
6517 Clouds 25 1015 76 0 1.95 204 09:44 13.03.2020
6518 Clouds 25 1015 76 0 1.95 204 09:25 13.03.2020
6519 Clouds 25 1015 76 0 1.95 204 08:48 13.03.2020
6520 Clouds 25 1015 76 0 1.95 204 08:23 13.03.2020
6521 Rain 22 1013 97 0 1.01 176 07:58 13.03.2020
6522 Rain 22 1013 97 0 1.01 176 07:38 13.03.2020
6523 Rain 22 1013 97 0 1.01 176 07:19 13.03.2020
6524 Rain 22 1013 97 0 1.01 176 06:44 13.03.2020
6525 Rain 22 1013 97 0 1.01 176 06:44 13.03.2020
6526 Rain 22 1013 97 0 1.01 176 06:18 13.03.2020
6527 Rain 22 1013 97 0 1.01 176 05:43 13.03.2020
6528 Rain 21 1010 99 0 1.9 196 04:39 13.03.2020
6529 Rain 21 1010 99 0 1.9 196 03:50 13.03.2020
6530 Rain 22 1011 97 0 1.53 233 01:48 13.03.2020
6531 Rain 22 1011 98 0 1 227 01:19 13.03.2020
6532 Rain 22 1011 98 0 1 227 00:56 13.03.2020
6533 Rain 22 1011 98 0 1 227 00:37 13.03.2020
6534 Rain 22 1011 98 0 1 227 00:18 13.03.2020
6535 Rain 22 1011 98 0 1 227 23:29 12.03.2020
6536 Clouds 22 1012 93 0 1.09 251 22:58 12.03.2020
6537 Clouds 22 1012 93 0 1.09 251 22:40 12.03.2020
6538 Clouds 22 1012 93 0 1.09 251 22:22 12.03.2020
6539 Clouds 22 1012 93 0 1.09 251 21:46 12.03.2020
6540 Clouds 23 1012 88 6000 2.1 0 21:28 12.03.2020
6541 Clouds 23 1012 88 6000 2.1 0 20:59 12.03.2020
6542 Clouds 23 1012 88 6000 2.1 0 20:40 12.03.2020
6543 Clouds 23 1012 88 6000 2.1 0 20:19 12.03.2020
6544 Clouds 23 1011 88 7000 3.1 270 19:42 12.03.2020
6545 Rain 23 1009 96 0 2.04 270 19:20 12.03.2020
6546 Rain 23 1009 96 0 2.04 270 18:45 12.03.2020
6547 Rain 23 1009 96 0 2.04 270 18:45 12.03.2020
6548 Rain 23 1009 96 0 2.04 270 18:25 12.03.2020
6549 Rain 23 1009 96 0 2.04 270 17:57 12.03.2020
6550 Rain 23 1009 96 0 2.04 270 17:39 12.03.2020
6551 Rain 29 1006 65 0 2.53 248 17:20 12.03.2020
6552 Rain 29 1006 65 0 2.53 248 16:56 12.03.2020
6553 Rain 29 1006 65 0 2.53 248 16:38 12.03.2020
6554 Rain 29 1006 65 0 2.53 248 16:19 12.03.2020
6555 Rain 29 1006 65 0 2.53 248 15:45 12.03.2020
6556 Rain 29 1006 65 0 2.53 248 15:27 12.03.2020
6557 Rain 29 1006 65 0 2.53 248 14:42 12.03.2020
6558 Clouds 33 1007 50 0 0.69 297 14:24 12.03.2020
6559 Clouds 33 1007 50 0 0.69 297 13:57 12.03.2020
6560 Clouds 33 1007 50 0 0.69 297 13:36 12.03.2020
6561 Clouds 29 1007 64 0 0.61 308 13:18 12.03.2020
6562 Clouds 29 1007 64 0 0.61 308 12:41 12.03.2020
6563 Clouds 29 1007 64 0 0.61 308 12:41 12.03.2020
6564 Clouds 29 1007 64 0 0.61 308 12:22 12.03.2020
6565 Clouds 29 1007 64 0 0.61 308 11:57 12.03.2020
6566 Clouds 29 1007 64 0 0.61 308 11:38 12.03.2020
6567 Clouds 28 1012 66 0 2.04 79 11:20 12.03.2020
6568 Clouds 28 1012 66 0 2.04 79 10:58 12.03.2020
6569 Clouds 28 1012 66 0 2.04 79 10:58 12.03.2020
6570 Clouds 28 1012 66 0 2.04 79 10:40 12.03.2020
6571 Clouds 28 1012 66 0 2.04 79 10:22 12.03.2020
6572 Clouds 28 1012 66 0 2.04 79 09:46 12.03.2020
6573 Clouds 28 1012 66 0 2.04 79 09:27 12.03.2020
6574 Clouds 28 1012 66 0 2.04 79 08:45 12.03.2020
6575 Clouds 23 1012 93 0 1.68 70 08:20 12.03.2020
6576 Clouds 23 1012 93 0 1.68 70 07:59 12.03.2020
6577 Clouds 23 1012 93 0 1.68 70 07:40 12.03.2020
6578 Clouds 23 1012 93 0 1.68 70 07:21 12.03.2020
6579 Clouds 23 1012 93 0 1.68 70 05:51 12.03.2020
6580 Clouds 23 1012 93 0 1.68 70 05:26 12.03.2020
6581 Clouds 22 1008 98 0 0.53 62 02:43 12.03.2020
6582 Rain 22 1009 98 0 1.59 94 01:36 12.03.2020
6583 Rain 22 1009 97 0 1.34 91 01:18 12.03.2020
6584 Rain 22 1009 97 0 1.34 91 00:40 12.03.2020
6585 Rain 22 1009 97 0 1.34 91 23:51 11.03.2020
6586 Rain 22 1009 97 0 1.34 91 23:26 11.03.2020
6587 Rain 23 1010 92 0 0.54 142 22:55 11.03.2020
6588 Rain 23 1010 92 0 0.54 142 22:37 11.03.2020
6589 Rain 23 1010 92 0 0.54 142 22:18 11.03.2020
6590 Rain 23 1010 92 0 0.54 142 21:41 11.03.2020
6591 Rain 23 1010 92 0 0.54 142 21:23 11.03.2020
6592 Rain 23 1010 92 0 0.54 142 20:58 11.03.2020
6593 Rain 23 1010 92 0 0.54 142 20:40 11.03.2020
6594 Clouds 25 1006 75 0 1 162 20:20 11.03.2020
6595 Clouds 25 1006 75 0 1 162 19:57 11.03.2020
6596 Clouds 25 1006 75 0 1 162 19:38 11.03.2020
6597 Clouds 25 1006 75 0 1 162 19:20 11.03.2020
6598 Clouds 25 1006 75 0 1 162 18:43 11.03.2020
6599 Clouds 25 1006 75 0 1 162 18:24 11.03.2020
6600 Clouds 25 1006 75 0 1 162 17:59 11.03.2020
6601 Clouds 25 1006 75 0 1 162 17:39 11.03.2020
6602 Clouds 31 1003 52 0 1.54 244 17:21 11.03.2020
6603 Clouds 31 1003 52 0 1.54 244 16:47 11.03.2020
6604 Clouds 31 1003 52 0 1.54 244 16:24 11.03.2020
6605 Clouds 31 1003 52 0 1.54 244 15:59 11.03.2020
6606 Clouds 31 1003 52 0 1.54 244 15:59 11.03.2020
6607 Clouds 31 1003 52 0 1.54 244 15:41 11.03.2020
6608 Clouds 31 1003 52 0 1.54 244 15:22 11.03.2020
6609 Clouds 31 1003 52 0 1.54 244 14:44 11.03.2020
6610 Clouds 31 1003 52 0 1.54 244 14:23 11.03.2020
6611 Clouds 31 1006 55 0 1.75 166 13:57 11.03.2020
6612 Clouds 31 1006 55 0 1.75 166 13:38 11.03.2020
6613 Clouds 29 1006 59 0 1.85 186 13:20 11.03.2020
6614 Clouds 29 1006 59 0 1.85 186 12:40 11.03.2020
6615 Clouds 29 1006 59 0 1.85 186 12:20 11.03.2020
6616 Clouds 29 1006 59 0 1.85 186 11:56 11.03.2020
6617 Clouds 29 1006 59 0 1.85 186 11:37 11.03.2020
6618 Clouds 30 1010 56 0 2.65 163 11:19 11.03.2020
6619 Clouds 30 1010 56 0 2.65 163 10:42 11.03.2020
6620 Clouds 30 1010 56 0 2.65 163 10:19 11.03.2020
6621 Clouds 30 1010 56 0 2.65 163 09:43 11.03.2020
6622 Clouds 30 1010 56 0 2.65 163 09:25 11.03.2020
6623 Clouds 30 1010 56 0 2.65 163 08:58 11.03.2020
6624 Clouds 30 1010 56 0 2.65 163 08:40 11.03.2020
6625 Rain 22 1011 96 0 2.54 148 08:19 11.03.2020
6626 Rain 23 1011 95 0 1.62 128 07:43 11.03.2020
6627 Rain 23 1011 95 0 1.62 128 07:19 11.03.2020
6628 Rain 23 1011 95 0 1.62 128 06:44 11.03.2020
6629 Rain 23 1011 95 0 1.62 128 05:36 11.03.2020
6630 Rain 21 1008 98 0 1.84 183 04:31 11.03.2020
6631 Rain 21 1008 98 0 1.84 183 02:24 11.03.2020
6632 Rain 21 1009 98 0 0.96 135 01:27 11.03.2020
6633 Rain 21 1009 96 0 1.46 178 00:46 11.03.2020
6634 Rain 21 1009 96 0 1.46 178 23:58 10.03.2020
6635 Rain 21 1009 96 0 1.46 178 23:40 10.03.2020
6636 Rain 21 1009 96 0 1.46 178 23:21 10.03.2020
6637 Clouds 24 1010 84 0 2.03 138 22:39 10.03.2020
6638 Clouds 24 1010 84 0 2.03 138 22:20 10.03.2020
6639 Clouds 24 1010 84 0 2.03 138 21:57 10.03.2020
6640 Clouds 24 1010 84 0 2.03 138 21:39 10.03.2020
6641 Clouds 24 1010 84 0 2.03 138 21:20 10.03.2020
6642 Clouds 24 1010 84 0 2.03 138 20:59 10.03.2020
6643 Clouds 24 1010 84 0 2.03 138 20:41 10.03.2020
6644 Clouds 25 1007 77 0 1.37 149 20:18 10.03.2020
6645 Clouds 25 1007 77 0 1.37 149 19:57 10.03.2020
6646 Clouds 25 1007 77 0 1.37 149 19:57 10.03.2020
6647 Clouds 25 1007 77 0 1.37 149 19:37 10.03.2020
6648 Clouds 25 1007 77 0 1.37 149 19:19 10.03.2020
6649 Clouds 25 1007 77 0 1.37 149 18:44 10.03.2020
6650 Clouds 25 1007 77 0 1.37 149 18:26 10.03.2020
6651 Clouds 25 1007 77 0 1.37 149 17:57 10.03.2020
6652 Clouds 25 1007 77 0 1.37 149 17:39 10.03.2020
6653 Clouds 30 1004 56 0 1.83 190 17:21 10.03.2020
6654 Clouds 30 1004 56 0 1.83 190 16:39 10.03.2020
6655 Clouds 30 1004 56 0 1.83 190 16:19 10.03.2020
6656 Clouds 30 1004 56 0 1.83 190 16:19 10.03.2020
6657 Clouds 30 1004 56 0 1.83 190 15:56 10.03.2020
6658 Clouds 30 1004 56 0 1.83 190 15:37 10.03.2020
6659 Clouds 30 1004 56 0 1.83 190 15:19 10.03.2020
6660 Clouds 30 1004 56 0 1.83 190 14:41 10.03.2020
6661 Clouds 32 1007 51 0 2.72 180 14:20 10.03.2020
6662 Clouds 32 1007 51 0 2.72 180 13:59 10.03.2020
6663 Clouds 32 1007 51 0 2.72 180 13:41 10.03.2020
6664 Clouds 32 1006 48 0 2.43 181 13:22 10.03.2020
6665 Clouds 32 1006 48 0 2.43 181 12:42 10.03.2020
6666 Clouds 32 1006 48 0 2.43 181 12:21 10.03.2020
6667 Clouds 32 1006 48 0 2.43 181 11:59 10.03.2020
6668 Clouds 32 1006 48 0 2.43 181 11:41 10.03.2020
6669 Clouds 32 1006 48 0 2.43 181 11:22 10.03.2020
6670 Clouds 27 1010 69 0 2.25 175 10:43 10.03.2020
6671 Clouds 27 1010 69 0 2.25 175 10:43 10.03.2020
6672 Clouds 27 1010 69 0 2.25 175 10:23 10.03.2020
6673 Clouds 27 1010 69 0 2.25 175 09:59 10.03.2020
6674 Clouds 27 1010 69 0 2.25 175 09:41 10.03.2020
6675 Clouds 27 1010 69 0 2.25 175 09:19 10.03.2020
6676 Clouds 27 1010 69 0 2.25 175 08:51 10.03.2020
6677 Clouds 27 1010 69 0 2.25 175 08:33 10.03.2020
6678 Clouds 23 1011 94 0 1.44 186 07:51 10.03.2020
6679 Clouds 23 1011 94 0 1.44 186 07:32 10.03.2020
6680 Clouds 23 1011 94 0 1.44 186 06:48 10.03.2020
6681 Clouds 23 1011 94 0 1.44 186 06:30 10.03.2020
6682 Clouds 23 1011 94 0 1.44 186 05:42 10.03.2020
6683 Rain 22 1009 98 0 2.23 143 04:53 10.03.2020
6684 Rain 22 1009 98 0 2.23 143 04:24 10.03.2020
6685 Rain 22 1009 98 0 2.23 143 02:44 10.03.2020
6686 Rain 22 1010 99 0 0.79 263 01:30 10.03.2020
6687 Rain 21 1009 98 0 2.54 121 00:47 10.03.2020
6688 Rain 21 1009 98 0 2.54 121 00:27 10.03.2020
6689 Rain 21 1009 98 0 2.54 121 23:41 09.03.2020
6690 Rain 21 1009 98 0 2.54 121 23:22 09.03.2020
6691 Rain 22 1010 95 0 0.94 226 22:55 09.03.2020
6692 Rain 22 1010 95 0 0.94 226 22:36 09.03.2020
6693 Rain 22 1010 95 0 0.94 226 22:18 09.03.2020
6694 Rain 22 1010 95 0 0.94 226 21:41 09.03.2020
6695 Rain 22 1010 95 0 0.94 226 21:21 09.03.2020
6696 Rain 22 1010 95 0 0.94 226 20:58 09.03.2020
6697 Rain 22 1010 95 0 0.94 226 20:39 09.03.2020
6698 Clouds 26 1008 69 0 1.21 195 20:20 09.03.2020
6699 Clouds 26 1008 69 0 1.21 195 19:45 09.03.2020
6700 Clouds 26 1008 69 0 1.21 195 19:25 09.03.2020
6701 Clouds 26 1008 69 0 1.21 195 18:58 09.03.2020
6702 Clouds 26 1008 69 0 1.21 195 18:58 09.03.2020
6703 Clouds 26 1008 69 0 1.21 195 18:39 09.03.2020
6704 Clouds 26 1008 69 0 1.21 195 18:20 09.03.2020
6705 Clouds 26 1008 69 0 1.21 195 17:58 09.03.2020
6706 Clouds 26 1008 69 0 1.21 195 17:38 09.03.2020
6707 Clouds 26 1008 69 0 1.21 195 17:38 09.03.2020
6708 Clouds 32 1005 45 0 1.14 206 17:20 09.03.2020
6709 Clouds 32 1005 45 0 1.14 206 16:58 09.03.2020
6710 Clouds 32 1005 45 0 1.14 206 16:40 09.03.2020
6711 Clouds 32 1005 45 0 1.14 206 16:40 09.03.2020
6712 Clouds 32 1005 45 0 1.14 206 16:22 09.03.2020
6713 Clouds 32 1005 45 0 1.14 206 16:22 09.03.2020
6714 Clouds 32 1005 45 0 1.14 206 15:58 09.03.2020
6715 Clouds 32 1005 45 0 1.14 206 15:39 09.03.2020
6716 Clouds 32 1005 45 0 1.14 206 15:20 09.03.2020
6717 Clouds 32 1005 45 0 1.14 206 14:55 09.03.2020
6718 Clouds 32 1005 45 0 1.14 206 14:37 09.03.2020
6719 Clouds 31 1007 51 0 1.78 195 14:18 09.03.2020
6720 Clouds 31 1007 51 0 1.78 195 13:55 09.03.2020
6721 Clouds 31 1007 51 0 1.78 195 13:37 09.03.2020
6722 Clouds 33 1007 44 0 2.23 177 13:18 09.03.2020
6723 Clouds 31 1007 51 0 1.78 195 13:18 09.03.2020
6724 Clouds 33 1007 44 0 2.23 177 12:42 09.03.2020
6725 Clouds 33 1007 44 0 2.23 177 12:22 09.03.2020
6726 Clouds 33 1007 44 0 2.23 177 12:22 09.03.2020
6727 Clouds 33 1007 44 0 2.23 177 11:54 09.03.2020
6728 Clouds 33 1007 44 0 2.23 177 11:36 09.03.2020
6729 Clouds 29 1012 58 0 2.05 163 11:18 09.03.2020
6730 Clouds 29 1012 58 0 2.05 163 10:54 09.03.2020
6731 Clouds 29 1012 58 0 2.05 163 10:54 09.03.2020
6732 Clouds 29 1012 58 0 2.05 163 10:36 09.03.2020
6733 Clouds 29 1012 58 0 2.05 163 10:18 09.03.2020
6734 Clouds 29 1012 58 0 2.05 163 09:38 09.03.2020
6735 Clouds 29 1012 58 0 2.05 163 09:19 09.03.2020
6736 Clouds 29 1012 58 0 2.05 163 08:44 09.03.2020
6737 Clouds 29 1012 58 0 2.05 163 08:25 09.03.2020
6738 Clouds 22 1012 94 0 1.38 194 07:41 09.03.2020
6739 Clouds 22 1012 94 0 1.38 194 07:22 09.03.2020
6740 Clouds 22 1012 94 0 1.38 194 06:46 09.03.2020
6741 Clouds 22 1012 94 0 1.38 194 06:26 09.03.2020
6742 Clouds 22 1012 94 0 1.38 194 05:57 09.03.2020
6743 Clouds 22 1012 94 0 1.38 194 05:39 09.03.2020
6744 Clouds 21 1010 99 0 1.09 180 04:43 09.03.2020
6745 Clouds 21 1010 99 0 1.09 180 04:22 09.03.2020
6746 Clouds 21 1010 99 0 1.09 180 03:21 09.03.2020
6747 Rain 21 1010 99 0 0.9 106 01:49 09.03.2020
6748 Rain 21 1010 98 0 0.67 122 00:39 09.03.2020
6749 Rain 21 1010 98 0 0.67 122 00:21 09.03.2020
6750 Rain 21 1010 98 0 0.67 122 23:52 08.03.2020
6751 Rain 21 1010 98 0 0.67 122 23:25 08.03.2020
6752 Clouds 21 1012 96 0 0.57 105 22:58 08.03.2020
6753 Clouds 21 1012 96 0 0.57 105 22:39 08.03.2020
6754 Clouds 21 1012 96 0 0.57 105 22:20 08.03.2020
6755 Clouds 21 1012 96 0 0.57 105 21:56 08.03.2020
6756 Clouds 21 1012 96 0 0.57 105 21:56 08.03.2020
6757 Clouds 21 1012 96 0 0.57 105 21:38 08.03.2020
6758 Clouds 21 1012 96 0 0.57 105 21:19 08.03.2020
6759 Clouds 21 1012 96 0 0.57 105 20:40 08.03.2020
6760 Clouds 21 1012 96 0 0.57 105 20:40 08.03.2020
6761 Clouds 21 1012 96 0 0.57 105 20:21 08.03.2020
6762 Clouds 21 1012 96 0 0.57 105 20:21 08.03.2020
6763 Clouds 21 1009 98 0 0.52 48 19:57 08.03.2020
6764 Clouds 21 1009 98 0 0.52 48 19:37 08.03.2020
6765 Clouds 21 1009 98 0 0.52 48 19:19 08.03.2020
6766 Clouds 21 1009 98 0 0.52 48 18:42 08.03.2020
6767 Clouds 21 1009 98 0 0.52 48 18:24 08.03.2020
6768 Clouds 21 1009 98 0 0.52 48 17:56 08.03.2020
6769 Clouds 21 1009 98 0 0.52 48 17:38 08.03.2020
6770 Rain 23 1008 92 0 1.51 276 17:19 08.03.2020
6771 Rain 23 1008 92 0 1.51 276 16:46 08.03.2020
6772 Rain 23 1008 92 0 1.51 276 16:28 08.03.2020
6773 Rain 23 1008 92 0 1.51 276 15:58 08.03.2020
6774 Rain 23 1008 92 0 1.51 276 15:39 08.03.2020
6775 Rain 23 1008 92 0 1.51 276 15:20 08.03.2020
6776 Rain 23 1008 92 0 1.51 276 14:41 08.03.2020
6777 Rain 23 1008 92 0 1.51 276 14:21 08.03.2020
6778 Rain 23 1008 92 0 1.51 276 14:21 08.03.2020
6779 Rain 23 1010 93 0 2.65 247 13:58 08.03.2020
6780 Rain 23 1010 93 0 2.65 247 13:39 08.03.2020
6781 Rain 25 1010 85 0 3.22 206 13:19 08.03.2020
6782 Rain 25 1010 85 0 3.22 206 12:41 08.03.2020
6783 Rain 25 1010 85 0 3.22 206 12:23 08.03.2020
6784 Rain 25 1010 85 0 3.22 206 11:56 08.03.2020
6785 Rain 25 1010 85 0 3.22 206 11:37 08.03.2020
6786 Rain 25 1010 85 0 3.22 206 11:37 08.03.2020
6787 Rain 24 1013 93 0 2.03 233 11:19 08.03.2020
6788 Rain 24 1013 93 0 2.03 233 10:41 08.03.2020
6789 Rain 24 1013 93 0 2.03 233 10:23 08.03.2020
6790 Rain 24 1013 93 0 2.03 233 09:43 08.03.2020
6791 Rain 24 1013 93 0 2.03 233 09:25 08.03.2020